<?xml version="1.0" encoding="UTF-8"?>
<gpx version="1.1" creator="https://www.youtrack.es" xsi:schemaLocation="http://www.topografix.com/GPX/1/1 http://www.topografix.com/GPX/1/1/gpx.xsd http://www.garmin.com/xmlschemas/GpxExtensions/v3 http://www.garmin.com/xmlschemas/GpxExtensionsv3.xsd http://www.garmin.com/xmlschemas/TrackPointExtension/v1 http://www.garmin.com/xmlschemas/TrackPointExtensionv1.xsd" xmlns:gpxtpx="http://www.garmin.com/xmlschemas/TrackPointExtension/v1" xmlns:gpxx="http://www.garmin.com/xmlschemas/GpxExtensions/v3" xmlns:xsi="http://www.w3.org/2001/XMLSchema-instance">
  <metadata>
    <link href="https://www.youtrack.es">
      <text>YouTrack.es</text>
    </link>
    <time>2026-05-08T13:03:04Z</time>
  </metadata>
  <trk>
    <src>https://www.youtrack.es</src>
    <link href="https://www.youtrack.es/ruta/35210-circular-panticosa-vignemale-08-2022">
      <text>YouTrack.es</text>
    </link>
    <trkseg>
      <trkpt lat="42.7623832225799560546875" lon="-0.23363993503153324127197265625">
        <ele>1642.4000244140625</ele>
        <time>2022-08-02T12:35:05.000Z</time>
      </trkpt>
      <trkpt lat="42.76249914430081844329833984375" lon="-0.233449749648571014404296875">
        <ele>1645</ele>
        <time>2022-08-02T12:35:18.000Z</time>
      </trkpt>
      <trkpt lat="42.7625557221472263336181640625" lon="-0.23322268389165401458740234375">
        <ele>1648</ele>
        <time>2022-08-02T12:35:37.000Z</time>
      </trkpt>
      <trkpt lat="42.76258095167577266693115234375" lon="-0.2329661138355731964111328125">
        <ele>1651.5999755859375</ele>
        <time>2022-08-02T12:35:55.000Z</time>
      </trkpt>
      <trkpt lat="42.76275982148945331573486328125" lon="-0.23292764090001583099365234375">
        <ele>1656.4000244140625</ele>
        <time>2022-08-02T12:36:17.000Z</time>
      </trkpt>
      <trkpt lat="42.76287549175322055816650390625" lon="-0.232865028083324432373046875">
        <ele>1660.5999755859375</ele>
        <time>2022-08-02T12:36:44.000Z</time>
      </trkpt>
      <trkpt lat="42.76280541904270648956298828125" lon="-0.23264408111572265625">
        <ele>1664</ele>
        <time>2022-08-02T12:37:12.000Z</time>
      </trkpt>
      <trkpt lat="42.7627050876617431640625" lon="-0.23243059404194355010986328125">
        <ele>1661.4000244140625</ele>
        <time>2022-08-02T12:37:42.000Z</time>
      </trkpt>
      <trkpt lat="42.76276904158294200897216796875" lon="-0.2323113195598125457763671875">
        <ele>1664.800048828125</ele>
        <time>2022-08-02T12:38:05.000Z</time>
      </trkpt>
      <trkpt lat="42.76288856752216815948486328125" lon="-0.23234928958117961883544921875">
        <ele>1669.4000244140625</ele>
        <time>2022-08-02T12:38:18.000Z</time>
      </trkpt>
      <trkpt lat="42.7628886513411998748779296875" lon="-0.23240980692207813262939453125">
        <ele>1669</ele>
        <time>2022-08-02T12:38:28.000Z</time>
      </trkpt>
      <trkpt lat="42.76294874958693981170654296875" lon="-0.23244685493409633636474609375">
        <ele>1671.199951171875</ele>
        <time>2022-08-02T12:38:45.000Z</time>
      </trkpt>
      <trkpt lat="42.76303960941731929779052734375" lon="-0.232513658702373504638671875">
        <ele>1673.4000244140625</ele>
        <time>2022-08-02T12:39:34.000Z</time>
      </trkpt>
      <trkpt lat="42.76307783089578151702880859375" lon="-0.23248122073709964752197265625">
        <ele>1675</ele>
        <time>2022-08-02T12:39:38.000Z</time>
      </trkpt>
      <trkpt lat="42.7630200795829296112060546875" lon="-0.23235666565597057342529296875">
        <ele>1674.800048828125</ele>
        <time>2022-08-02T12:40:01.000Z</time>
      </trkpt>
      <trkpt lat="42.7629456482827663421630859375" lon="-0.232344008982181549072265625">
        <ele>1671.800048828125</ele>
        <time>2022-08-02T12:40:27.000Z</time>
      </trkpt>
      <trkpt lat="42.76303843595087528228759765625" lon="-0.23230603896081447601318359375">
        <ele>1675.800048828125</ele>
        <time>2022-08-02T12:40:48.000Z</time>
      </trkpt>
      <trkpt lat="42.7630918286740779876708984375" lon="-0.23230235092341899871826171875">
        <ele>1678</ele>
        <time>2022-08-02T12:40:55.000Z</time>
      </trkpt>
      <trkpt lat="42.7632259391248226165771484375" lon="-0.23244501091539859771728515625">
        <ele>1679.199951171875</ele>
        <time>2022-08-02T12:41:30.000Z</time>
      </trkpt>
      <trkpt lat="42.763335742056369781494140625" lon="-0.23242891766130924224853515625">
        <ele>1682</ele>
        <time>2022-08-02T12:41:42.000Z</time>
      </trkpt>
      <trkpt lat="42.76335409842431545257568359375" lon="-0.232387594878673553466796875">
        <ele>1683.4000244140625</ele>
        <time>2022-08-02T12:41:47.000Z</time>
      </trkpt>
      <trkpt lat="42.76329844258725643157958984375" lon="-0.23234861902892589569091796875">
        <ele>1683.199951171875</ele>
        <time>2022-08-02T12:41:57.000Z</time>
      </trkpt>
      <trkpt lat="42.76324798353016376495361328125" lon="-0.23230453021824359893798828125">
        <ele>1683.4000244140625</ele>
        <time>2022-08-02T12:42:06.000Z</time>
      </trkpt>
      <trkpt lat="42.763227112591266632080078125" lon="-0.23226111195981502532958984375">
        <ele>1683.800048828125</ele>
        <time>2022-08-02T12:42:11.000Z</time>
      </trkpt>
      <trkpt lat="42.76321428827941417694091796875" lon="-0.2321842499077320098876953125">
        <ele>1683.800048828125</ele>
        <time>2022-08-02T12:42:22.000Z</time>
      </trkpt>
      <trkpt lat="42.7631971053779125213623046875" lon="-0.23209263570606708526611328125">
        <ele>1684.199951171875</ele>
        <time>2022-08-02T12:42:35.000Z</time>
      </trkpt>
      <trkpt lat="42.7632661722600460052490234375" lon="-0.23220780305564403533935546875">
        <ele>1685.800048828125</ele>
        <time>2022-08-02T12:43:08.000Z</time>
      </trkpt>
      <trkpt lat="42.76331654749810695648193359375" lon="-0.23221182636916637420654296875">
        <ele>1687.4000244140625</ele>
        <time>2022-08-02T12:43:12.000Z</time>
      </trkpt>
      <trkpt lat="42.76331285946071147918701171875" lon="-0.2322606928646564483642578125">
        <ele>1686</ele>
        <time>2022-08-02T12:43:17.000Z</time>
      </trkpt>
      <trkpt lat="42.7633268572390079498291015625" lon="-0.23226345889270305633544921875">
        <ele>1686.199951171875</ele>
        <time>2022-08-02T12:43:18.000Z</time>
      </trkpt>
      <trkpt lat="42.76352693326771259307861328125" lon="-0.23227770812809467315673828125">
        <ele>1695.199951171875</ele>
        <time>2022-08-02T12:43:25.000Z</time>
      </trkpt>
      <trkpt lat="42.7635337226092815399169921875" lon="-0.23222456686198711395263671875">
        <ele>1697</ele>
        <time>2022-08-02T12:43:28.000Z</time>
      </trkpt>
      <trkpt lat="42.7635451219975948333740234375" lon="-0.23220730014145374298095703125">
        <ele>1698</ele>
        <time>2022-08-02T12:43:29.000Z</time>
      </trkpt>
      <trkpt lat="42.76356666348874568939208984375" lon="-0.232094228267669677734375">
        <ele>1701.5999755859375</ele>
        <time>2022-08-02T12:43:45.000Z</time>
      </trkpt>
      <trkpt lat="42.763587534427642822265625" lon="-0.2321168594062328338623046875">
        <ele>1702.5999755859375</ele>
        <time>2022-08-02T12:44:16.000Z</time>
      </trkpt>
      <trkpt lat="42.763716615736484527587890625" lon="-0.23204536177217960357666015625">
        <ele>1710.199951171875</ele>
        <time>2022-08-02T12:44:53.000Z</time>
      </trkpt>
      <trkpt lat="42.76376933790743350982666015625" lon="-0.2321272529661655426025390625">
        <ele>1712.4000244140625</ele>
        <time>2022-08-02T12:45:08.000Z</time>
      </trkpt>
      <trkpt lat="42.76390747167170047760009765625" lon="-0.23228424601256847381591796875">
        <ele>1716</ele>
        <time>2022-08-02T12:45:31.000Z</time>
      </trkpt>
      <trkpt lat="42.764003612101078033447265625" lon="-0.23248909972608089447021484375">
        <ele>1717.4000244140625</ele>
        <time>2022-08-02T12:45:50.000Z</time>
      </trkpt>
      <trkpt lat="42.76417166925966739654541015625" lon="-0.2325408160686492919921875">
        <ele>1727.4000244140625</ele>
        <time>2022-08-02T12:46:07.000Z</time>
      </trkpt>
      <trkpt lat="42.76418323628604412078857421875" lon="-0.23252849467098712921142578125">
        <ele>1728.4000244140625</ele>
        <time>2022-08-02T12:46:09.000Z</time>
      </trkpt>
      <trkpt lat="42.76418608613312244415283203125" lon="-0.2323797158896923065185546875">
        <ele>1731</ele>
        <time>2022-08-02T12:46:23.000Z</time>
      </trkpt>
      <trkpt lat="42.76429236866533756256103515625" lon="-0.23233219049870967864990234375">
        <ele>1738.800048828125</ele>
        <time>2022-08-02T12:46:45.000Z</time>
      </trkpt>
      <trkpt lat="42.76441256515681743621826171875" lon="-0.23235197179019451141357421875">
        <ele>1746.4000244140625</ele>
        <time>2022-08-02T12:47:13.000Z</time>
      </trkpt>
      <trkpt lat="42.76440267451107501983642578125" lon="-0.23257526569068431854248046875">
        <ele>1742</ele>
        <time>2022-08-02T12:47:37.000Z</time>
      </trkpt>
      <trkpt lat="42.76453728787600994110107421875" lon="-0.23244132287800312042236328125">
        <ele>1753.199951171875</ele>
        <time>2022-08-02T12:48:03.000Z</time>
      </trkpt>
      <trkpt lat="42.76453510858118534088134765625" lon="-0.23243461735546588897705078125">
        <ele>1753.199951171875</ele>
        <time>2022-08-02T12:48:04.000Z</time>
      </trkpt>
      <trkpt lat="42.76456763036549091339111328125" lon="-0.2322975732386112213134765625">
        <ele>1757.5999755859375</ele>
        <time>2022-08-02T12:48:17.000Z</time>
      </trkpt>
      <trkpt lat="42.7646268904209136962890625" lon="-0.232101269066333770751953125">
        <ele>1764</ele>
        <time>2022-08-02T12:48:35.000Z</time>
      </trkpt>
      <trkpt lat="42.7646577358245849609375" lon="-0.2320451103150844573974609375">
        <ele>1764.5999755859375</ele>
        <time>2022-08-02T12:48:39.000Z</time>
      </trkpt>
      <trkpt lat="42.7646679617464542388916015625" lon="-0.2320125885307788848876953125">
        <ele>1764.4000244140625</ele>
        <time>2022-08-02T12:48:43.000Z</time>
      </trkpt>
      <trkpt lat="42.764716409146785736083984375" lon="-0.23194779641926288604736328125">
        <ele>1766</ele>
        <time>2022-08-02T12:48:51.000Z</time>
      </trkpt>
      <trkpt lat="42.764741219580173492431640625" lon="-0.23191560991108417510986328125">
        <ele>1766.800048828125</ele>
        <time>2022-08-02T12:48:55.000Z</time>
      </trkpt>
      <trkpt lat="42.764853537082672119140625" lon="-0.23185886442661285400390625">
        <ele>1772.800048828125</ele>
        <time>2022-08-02T12:49:16.000Z</time>
      </trkpt>
      <trkpt lat="42.76498722843825817108154296875" lon="-0.23169265128672122955322265625">
        <ele>1777.4000244140625</ele>
        <time>2022-08-02T12:49:37.000Z</time>
      </trkpt>
      <trkpt lat="42.7650035731494426727294921875" lon="-0.23171310313045978546142578125">
        <ele>1779</ele>
        <time>2022-08-02T12:49:39.000Z</time>
      </trkpt>
      <trkpt lat="42.76510708965361118316650390625" lon="-0.231719054281711578369140625">
        <ele>1783.4000244140625</ele>
        <time>2022-08-02T12:49:50.000Z</time>
      </trkpt>
      <trkpt lat="42.76515503413975238800048828125" lon="-0.2316682599484920501708984375">
        <ele>1783.4000244140625</ele>
        <time>2022-08-02T12:49:58.000Z</time>
      </trkpt>
      <trkpt lat="42.76516961865127086639404296875" lon="-0.2317101694643497467041015625">
        <ele>1784.800048828125</ele>
        <time>2022-08-02T12:50:03.000Z</time>
      </trkpt>
      <trkpt lat="42.765221334993839263916015625" lon="-0.2317081578075885772705078125">
        <ele>1786</ele>
        <time>2022-08-02T12:50:08.000Z</time>
      </trkpt>
      <trkpt lat="42.76523566804826259613037109375" lon="-0.231718719005584716796875">
        <ele>1786.5999755859375</ele>
        <time>2022-08-02T12:50:10.000Z</time>
      </trkpt>
      <trkpt lat="42.76526936329901218414306640625" lon="-0.23172743618488311767578125">
        <ele>1787.800048828125</ele>
        <time>2022-08-02T12:50:15.000Z</time>
      </trkpt>
      <trkpt lat="42.76531361974775791168212890625" lon="-0.23164068348705768585205078125">
        <ele>1786.5999755859375</ele>
        <time>2022-08-02T12:50:20.000Z</time>
      </trkpt>
      <trkpt lat="42.76535443961620330810546875" lon="-0.23161453194916248321533203125">
        <ele>1787</ele>
        <time>2022-08-02T12:50:25.000Z</time>
      </trkpt>
      <trkpt lat="42.765406072139739990234375" lon="-0.23161905817687511444091796875">
        <ele>1788.4000244140625</ele>
        <time>2022-08-02T12:50:30.000Z</time>
      </trkpt>
      <trkpt lat="42.765465080738067626953125" lon="-0.23164437152445316314697265625">
        <ele>1790.5999755859375</ele>
        <time>2022-08-02T12:50:43.000Z</time>
      </trkpt>
      <trkpt lat="42.7654887177050113677978515625" lon="-0.23160061798989772796630859375">
        <ele>1790</ele>
        <time>2022-08-02T12:50:48.000Z</time>
      </trkpt>
      <trkpt lat="42.7655656635761260986328125" lon="-0.231510512530803680419921875">
        <ele>1789.800048828125</ele>
        <time>2022-08-02T12:51:01.000Z</time>
      </trkpt>
      <trkpt lat="42.76557312346994876861572265625" lon="-0.23142476566135883331298828125">
        <ele>1787.800048828125</ele>
        <time>2022-08-02T12:51:09.000Z</time>
      </trkpt>
      <trkpt lat="42.76561251841485500335693359375" lon="-0.2315559424459934234619140625">
        <ele>1792.199951171875</ele>
        <time>2022-08-02T12:51:32.000Z</time>
      </trkpt>
      <trkpt lat="42.76576389558613300323486328125" lon="-0.23159894160926342010498046875">
        <ele>1805.4000244140625</ele>
        <time>2022-08-02T12:52:03.000Z</time>
      </trkpt>
      <trkpt lat="42.76581577956676483154296875" lon="-0.23154831491410732269287109375">
        <ele>1805.5999755859375</ele>
        <time>2022-08-02T12:52:11.000Z</time>
      </trkpt>
      <trkpt lat="42.76580412872135639190673828125" lon="-0.23152836598455905914306640625">
        <ele>1803.4000244140625</ele>
        <time>2022-08-02T12:52:13.000Z</time>
      </trkpt>
      <trkpt lat="42.76570555754005908966064453125" lon="-0.231311023235321044921875">
        <ele>1788.199951171875</ele>
        <time>2022-08-02T12:52:44.000Z</time>
      </trkpt>
      <trkpt lat="42.76581133715808391571044921875" lon="-0.23148762993514537811279296875">
        <ele>1801.199951171875</ele>
        <time>2022-08-02T12:53:19.000Z</time>
      </trkpt>
      <trkpt lat="42.76595936156809329986572265625" lon="-0.2316320501267910003662109375">
        <ele>1818.800048828125</ele>
        <time>2022-08-02T12:53:38.000Z</time>
      </trkpt>
      <trkpt lat="42.76614091359078884124755859375" lon="-0.23166683502495288848876953125">
        <ele>1828.4000244140625</ele>
        <time>2022-08-02T12:53:50.000Z</time>
      </trkpt>
      <trkpt lat="42.76629547588527202606201171875" lon="-0.23157044313848018646240234375">
        <ele>1827.800048828125</ele>
        <time>2022-08-02T12:54:15.000Z</time>
      </trkpt>
      <trkpt lat="42.7662058733403682708740234375" lon="-0.23137765936553478240966796875">
        <ele>1811.199951171875</ele>
        <time>2022-08-02T12:54:51.000Z</time>
      </trkpt>
      <trkpt lat="42.766211070120334625244140625" lon="-0.23133005015552043914794921875">
        <ele>1808</ele>
        <time>2022-08-02T12:54:56.000Z</time>
      </trkpt>
      <trkpt lat="42.76612213812768459320068359375" lon="-0.231326781213283538818359375">
        <ele>1804.4000244140625</ele>
        <time>2022-08-02T12:55:09.000Z</time>
      </trkpt>
      <trkpt lat="42.76603396050631999969482421875" lon="-0.2312401123344898223876953125">
        <ele>1798.199951171875</ele>
        <time>2022-08-02T12:55:24.000Z</time>
      </trkpt>
      <trkpt lat="42.76600847952067852020263671875" lon="-0.23123986087739467620849609375">
        <ele>1797.199951171875</ele>
        <time>2022-08-02T12:55:26.000Z</time>
      </trkpt>
      <trkpt lat="42.76594276539981365203857421875" lon="-0.231163501739501953125">
        <ele>1795.800048828125</ele>
        <time>2022-08-02T12:55:32.000Z</time>
      </trkpt>
      <trkpt lat="42.76596891693770885467529296875" lon="-0.2310416288673877716064453125">
        <ele>1798.5999755859375</ele>
        <time>2022-08-02T12:56:07.000Z</time>
      </trkpt>
      <trkpt lat="42.76607327163219451904296875" lon="-0.23121647536754608154296875">
        <ele>1800</ele>
        <time>2022-08-02T12:56:35.000Z</time>
      </trkpt>
      <trkpt lat="42.7660533227026462554931640625" lon="-0.23111195303499698638916015625">
        <ele>1799.4000244140625</ele>
        <time>2022-08-02T12:57:30.000Z</time>
      </trkpt>
      <trkpt lat="42.766061536967754364013671875" lon="-0.2310892380774021148681640625">
        <ele>1800</ele>
        <time>2022-08-02T12:58:02.000Z</time>
      </trkpt>
      <trkpt lat="42.7661264128983020782470703125" lon="-0.23103500716388225555419921875">
        <ele>1802.5999755859375</ele>
        <time>2022-08-02T12:58:27.000Z</time>
      </trkpt>
      <trkpt lat="42.76612431742250919342041015625" lon="-0.2309839613735675811767578125">
        <ele>1803.4000244140625</ele>
        <time>2022-08-02T12:58:31.000Z</time>
      </trkpt>
      <trkpt lat="42.76623596437275409698486328125" lon="-0.23088254034519195556640625">
        <ele>1807.800048828125</ele>
        <time>2022-08-02T12:59:17.000Z</time>
      </trkpt>
      <trkpt lat="42.7662129141390323638916015625" lon="-0.23079662583768367767333984375">
        <ele>1808.800048828125</ele>
        <time>2022-08-02T12:59:52.000Z</time>
      </trkpt>
      <trkpt lat="42.7662890218198299407958984375" lon="-0.23074977099895477294921875">
        <ele>1811.5999755859375</ele>
        <time>2022-08-02T13:00:31.000Z</time>
      </trkpt>
      <trkpt lat="42.7664502896368503570556640625" lon="-0.23073124699294567108154296875">
        <ele>1816</ele>
        <time>2022-08-02T13:01:08.000Z</time>
      </trkpt>
      <trkpt lat="42.76664013974368572235107421875" lon="-0.23074247874319553375244140625">
        <ele>1823.4000244140625</ele>
        <time>2022-08-02T13:01:19.000Z</time>
      </trkpt>
      <trkpt lat="42.76682303287088871002197265625" lon="-0.23066368885338306427001953125">
        <ele>1829.4000244140625</ele>
        <time>2022-08-02T13:01:38.000Z</time>
      </trkpt>
      <trkpt lat="42.7669657766819000244140625" lon="-0.230525471270084381103515625">
        <ele>1833.199951171875</ele>
        <time>2022-08-02T13:01:58.000Z</time>
      </trkpt>
      <trkpt lat="42.7670400403439998626708984375" lon="-0.23054248653352260589599609375">
        <ele>1835</ele>
        <time>2022-08-02T13:02:43.000Z</time>
      </trkpt>
      <trkpt lat="42.767214886844158172607421875" lon="-0.2306309156119823455810546875">
        <ele>1839.199951171875</ele>
        <time>2022-08-02T13:03:07.000Z</time>
      </trkpt>
      <trkpt lat="42.7673927508294582366943359375" lon="-0.2305742539465427398681640625">
        <ele>1843.800048828125</ele>
        <time>2022-08-02T13:03:29.000Z</time>
      </trkpt>
      <trkpt lat="42.76756726205348968505859375" lon="-0.23053787648677825927734375">
        <ele>1849.199951171875</ele>
        <time>2022-08-02T13:04:02.000Z</time>
      </trkpt>
      <trkpt lat="42.76774839498102664947509765625" lon="-0.23053024895489215850830078125">
        <ele>1852.800048828125</ele>
        <time>2022-08-02T13:04:24.000Z</time>
      </trkpt>
      <trkpt lat="42.76792692951858043670654296875" lon="-0.230558998882770538330078125">
        <ele>1856.800048828125</ele>
        <time>2022-08-02T13:04:52.000Z</time>
      </trkpt>
      <trkpt lat="42.76810663752257823944091796875" lon="-0.23052002303302288055419921875">
        <ele>1860</ele>
        <time>2022-08-02T13:05:12.000Z</time>
      </trkpt>
      <trkpt lat="42.76827913708984851837158203125" lon="-0.2304153330624103546142578125">
        <ele>1863.199951171875</ele>
        <time>2022-08-02T13:05:29.000Z</time>
      </trkpt>
      <trkpt lat="42.76834300719201564788818359375" lon="-0.23028482683002948760986328125">
        <ele>1864.800048828125</ele>
        <time>2022-08-02T13:05:38.000Z</time>
      </trkpt>
      <trkpt lat="42.76835725642740726470947265625" lon="-0.23025783710181713104248046875">
        <ele>1865.199951171875</ele>
        <time>2022-08-02T13:05:41.000Z</time>
      </trkpt>
      <trkpt lat="42.76843688450753688812255859375" lon="-0.23011568002402782440185546875">
        <ele>1867.5999755859375</ele>
        <time>2022-08-02T13:05:59.000Z</time>
      </trkpt>
      <trkpt lat="42.76859798468649387359619140625" lon="-0.2300294302403926849365234375">
        <ele>1872</ele>
        <time>2022-08-02T13:06:22.000Z</time>
      </trkpt>
      <trkpt lat="42.768700830638408660888671875" lon="-0.23019731976091861724853515625">
        <ele>1874.4000244140625</ele>
        <time>2022-08-02T13:06:46.000Z</time>
      </trkpt>
      <trkpt lat="42.768808789551258087158203125" lon="-0.23012079298496246337890625">
        <ele>1877.5999755859375</ele>
        <time>2022-08-02T13:07:44.000Z</time>
      </trkpt>
      <trkpt lat="42.76896460913121700286865234375" lon="-0.2301618643105030059814453125">
        <ele>1882.199951171875</ele>
        <time>2022-08-02T13:08:15.000Z</time>
      </trkpt>
      <trkpt lat="42.76911783032119274139404296875" lon="-0.23028574883937835693359375">
        <ele>1887</ele>
        <time>2022-08-02T13:08:36.000Z</time>
      </trkpt>
      <trkpt lat="42.769203074276447296142578125" lon="-0.2303938753902912139892578125">
        <ele>1889.5999755859375</ele>
        <time>2022-08-02T13:08:51.000Z</time>
      </trkpt>
      <trkpt lat="42.7692360989749431610107421875" lon="-0.2302515506744384765625">
        <ele>1890.199951171875</ele>
        <time>2022-08-02T13:09:21.000Z</time>
      </trkpt>
      <trkpt lat="42.7691452391445636749267578125" lon="-0.2300337888300418853759765625">
        <ele>1887.5999755859375</ele>
        <time>2022-08-02T13:09:49.000Z</time>
      </trkpt>
      <trkpt lat="42.76927448809146881103515625" lon="-0.22991434670984745025634765625">
        <ele>1890.5999755859375</ele>
        <time>2022-08-02T13:10:12.000Z</time>
      </trkpt>
      <trkpt lat="42.7694473229348659515380859375" lon="-0.2299202978610992431640625">
        <ele>1893.800048828125</ele>
        <time>2022-08-02T13:10:38.000Z</time>
      </trkpt>
      <trkpt lat="42.76961822994053363800048828125" lon="-0.22989121265709400177001953125">
        <ele>1897.199951171875</ele>
        <time>2022-08-02T13:11:11.000Z</time>
      </trkpt>
      <trkpt lat="42.76978989131748676300048828125" lon="-0.22981711663305759429931640625">
        <ele>1900.4000244140625</ele>
        <time>2022-08-02T13:11:29.000Z</time>
      </trkpt>
      <trkpt lat="42.76981319300830364227294921875" lon="-0.229816026985645294189453125">
        <ele>1900.800048828125</ele>
        <time>2022-08-02T13:11:32.000Z</time>
      </trkpt>
      <trkpt lat="42.769970856606960296630859375" lon="-0.229932367801666259765625">
        <ele>1904.199951171875</ele>
        <time>2022-08-02T13:11:57.000Z</time>
      </trkpt>
      <trkpt lat="42.77010622434318065643310546875" lon="-0.2301000058650970458984375">
        <ele>1906.800048828125</ele>
        <time>2022-08-02T13:12:12.000Z</time>
      </trkpt>
      <trkpt lat="42.7702060528099536895751953125" lon="-0.23030720651149749755859375">
        <ele>1908.4000244140625</ele>
        <time>2022-08-02T13:12:30.000Z</time>
      </trkpt>
      <trkpt lat="42.77032683603465557098388671875" lon="-0.23049538023769855499267578125">
        <ele>1909.4000244140625</ele>
        <time>2022-08-02T13:12:49.000Z</time>
      </trkpt>
      <trkpt lat="42.77038282714784145355224609375" lon="-0.23061524145305156707763671875">
        <ele>1913</ele>
        <time>2022-08-02T13:13:04.000Z</time>
      </trkpt>
      <trkpt lat="42.7704407460987567901611328125" lon="-0.23068313486874103546142578125">
        <ele>1915.199951171875</ele>
        <time>2022-08-02T13:13:12.000Z</time>
      </trkpt>
      <trkpt lat="42.770493887364864349365234375" lon="-0.23087876848876476287841796875">
        <ele>1921.4000244140625</ele>
        <time>2022-08-02T13:13:39.000Z</time>
      </trkpt>
      <trkpt lat="42.77049958705902099609375" lon="-0.23094850592315196990966796875">
        <ele>1924.4000244140625</ele>
        <time>2022-08-02T13:14:17.000Z</time>
      </trkpt>
      <trkpt lat="42.7706556580960750579833984375" lon="-0.23107289336621761322021484375">
        <ele>1932.199951171875</ele>
        <time>2022-08-02T13:14:43.000Z</time>
      </trkpt>
      <trkpt lat="42.770839221775531768798828125" lon="-0.23107188753783702850341796875">
        <ele>1935.4000244140625</ele>
        <time>2022-08-02T13:15:00.000Z</time>
      </trkpt>
      <trkpt lat="42.77101658284664154052734375" lon="-0.23098639212548732757568359375">
        <ele>1934.5999755859375</ele>
        <time>2022-08-02T13:15:14.000Z</time>
      </trkpt>
      <trkpt lat="42.77113837189972400665283203125" lon="-0.23096359334886074066162109375">
        <ele>1935.199951171875</ele>
        <time>2022-08-02T13:15:25.000Z</time>
      </trkpt>
      <trkpt lat="42.77130735106766223907470703125" lon="-0.23103735409677028656005859375">
        <ele>1940.5999755859375</ele>
        <time>2022-08-02T13:15:52.000Z</time>
      </trkpt>
      <trkpt lat="42.7713298983871936798095703125" lon="-0.23104690946638584136962890625">
        <ele>1941.4000244140625</ele>
        <time>2022-08-02T13:15:55.000Z</time>
      </trkpt>
      <trkpt lat="42.771441042423248291015625" lon="-0.23115335963666439056396484375">
        <ele>1947.4000244140625</ele>
        <time>2022-08-02T13:16:36.000Z</time>
      </trkpt>
      <trkpt lat="42.7715067565441131591796875" lon="-0.2311405353248119354248046875">
        <ele>1947.800048828125</ele>
        <time>2022-08-02T13:16:45.000Z</time>
      </trkpt>
      <trkpt lat="42.7716182358562946319580078125" lon="-0.23109233938157558441162109375">
        <ele>1947.4000244140625</ele>
        <time>2022-08-02T13:17:05.000Z</time>
      </trkpt>
      <trkpt lat="42.77169845066964626312255859375" lon="-0.2310091070830821990966796875">
        <ele>1945</ele>
        <time>2022-08-02T13:17:46.000Z</time>
      </trkpt>
      <trkpt lat="42.77187891304492950439453125" lon="-0.23103140294551849365234375">
        <ele>1950.199951171875</ele>
        <time>2022-08-02T13:18:06.000Z</time>
      </trkpt>
      <trkpt lat="42.77191688306629657745361328125" lon="-0.23103165440261363983154296875">
        <ele>1951.199951171875</ele>
        <time>2022-08-02T13:18:10.000Z</time>
      </trkpt>
      <trkpt lat="42.772087790071964263916015625" lon="-0.23094691336154937744140625">
        <ele>1951.5999755859375</ele>
        <time>2022-08-02T13:18:34.000Z</time>
      </trkpt>
      <trkpt lat="42.77214302681386470794677734375" lon="-0.23110440932214260101318359375">
        <ele>1958.800048828125</ele>
        <time>2022-08-02T13:19:28.000Z</time>
      </trkpt>
      <trkpt lat="42.7721892111003398895263671875" lon="-0.2312853746116161346435546875">
        <ele>1966.5999755859375</ele>
        <time>2022-08-02T13:19:56.000Z</time>
      </trkpt>
      <trkpt lat="42.77227629907429218292236328125" lon="-0.2310775034129619598388671875">
        <ele>1960.4000244140625</ele>
        <time>2022-08-02T13:20:18.000Z</time>
      </trkpt>
      <trkpt lat="42.77234335429966449737548828125" lon="-0.2311536110937595367431640625">
        <ele>1964.800048828125</ele>
        <time>2022-08-02T13:20:51.000Z</time>
      </trkpt>
      <trkpt lat="42.7724745310842990875244140625" lon="-0.2309956960380077362060546875">
        <ele>1961.4000244140625</ele>
        <time>2022-08-02T13:21:16.000Z</time>
      </trkpt>
      <trkpt lat="42.77265071868896484375" lon="-0.2309772558510303497314453125">
        <ele>1964</ele>
        <time>2022-08-02T13:21:40.000Z</time>
      </trkpt>
      <trkpt lat="42.77279631234705448150634765625" lon="-0.23112385533750057220458984375">
        <ele>1973.199951171875</ele>
        <time>2022-08-02T13:22:06.000Z</time>
      </trkpt>
      <trkpt lat="42.7729444205760955810546875" lon="-0.231251008808612823486328125">
        <ele>1982.800048828125</ele>
        <time>2022-08-02T13:22:34.000Z</time>
      </trkpt>
      <trkpt lat="42.77304609306156635284423828125" lon="-0.23107121698558330535888671875">
        <ele>1977.4000244140625</ele>
        <time>2022-08-02T13:22:58.000Z</time>
      </trkpt>
      <trkpt lat="42.77311432175338268280029296875" lon="-0.2308656089007854461669921875">
        <ele>1969.800048828125</ele>
        <time>2022-08-02T13:23:33.000Z</time>
      </trkpt>
      <trkpt lat="42.77322580106556415557861328125" lon="-0.230750106275081634521484375">
        <ele>1967.4000244140625</ele>
        <time>2022-08-02T13:24:02.000Z</time>
      </trkpt>
      <trkpt lat="42.7731920219957828521728515625" lon="-0.23070945404469966888427734375">
        <ele>1964.5999755859375</ele>
        <time>2022-08-02T13:24:13.000Z</time>
      </trkpt>
      <trkpt lat="42.77316662482917308807373046875" lon="-0.2306879125535488128662109375">
        <ele>1963</ele>
        <time>2022-08-02T13:24:17.000Z</time>
      </trkpt>
      <trkpt lat="42.77313846163451671600341796875" lon="-0.23070962168276309967041015625">
        <ele>1963.199951171875</ele>
        <time>2022-08-02T13:24:28.000Z</time>
      </trkpt>
      <trkpt lat="42.7732684649527072906494140625" lon="-0.2306346036493778228759765625">
        <ele>1963.199951171875</ele>
        <time>2022-08-02T13:24:58.000Z</time>
      </trkpt>
      <trkpt lat="42.7733869850635528564453125" lon="-0.23060518316924571990966796875">
        <ele>1965</ele>
        <time>2022-08-02T13:25:05.000Z</time>
      </trkpt>
      <trkpt lat="42.7734379470348358154296875" lon="-0.2305948734283447265625">
        <ele>1965.5999755859375</ele>
        <time>2022-08-02T13:25:10.000Z</time>
      </trkpt>
      <trkpt lat="42.77348463423550128936767578125" lon="-0.23060224950313568115234375">
        <ele>1966.800048828125</ele>
        <time>2022-08-02T13:25:15.000Z</time>
      </trkpt>
      <trkpt lat="42.77348815463483333587646484375" lon="-0.230601914227008819580078125">
        <ele>1967</ele>
        <time>2022-08-02T13:25:16.000Z</time>
      </trkpt>
      <trkpt lat="42.773530483245849609375" lon="-0.23059009574353694915771484375">
        <ele>1967.199951171875</ele>
        <time>2022-08-02T13:25:20.000Z</time>
      </trkpt>
      <trkpt lat="42.77370474301278591156005859375" lon="-0.23056226782500743865966796875">
        <ele>1969.5999755859375</ele>
        <time>2022-08-02T13:25:42.000Z</time>
      </trkpt>
      <trkpt lat="42.77382007800042629241943359375" lon="-0.2306793630123138427734375">
        <ele>1977.199951171875</ele>
        <time>2022-08-02T13:26:16.000Z</time>
      </trkpt>
      <trkpt lat="42.77400230057537555694580078125" lon="-0.230695791542530059814453125">
        <ele>1982.5999755859375</ele>
        <time>2022-08-02T13:26:46.000Z</time>
      </trkpt>
      <trkpt lat="42.7741351537406444549560546875" lon="-0.23050225339829921722412109375">
        <ele>1975.5999755859375</ele>
        <time>2022-08-02T13:27:14.000Z</time>
      </trkpt>
      <trkpt lat="42.7741703577339649200439453125" lon="-0.23065363056957721710205078125">
        <ele>1988</ele>
        <time>2022-08-02T13:27:36.000Z</time>
      </trkpt>
      <trkpt lat="42.7741760574281215667724609375" lon="-0.2306456677615642547607421875">
        <ele>1987.5999755859375</ele>
        <time>2022-08-02T13:27:39.000Z</time>
      </trkpt>
      <trkpt lat="42.77431343682110309600830078125" lon="-0.2305132336914539337158203125">
        <ele>1978.199951171875</ele>
        <time>2022-08-02T13:28:03.000Z</time>
      </trkpt>
      <trkpt lat="42.7744768001139163970947265625" lon="-0.2306168340146541595458984375">
        <ele>1984</ele>
        <time>2022-08-02T13:28:24.000Z</time>
      </trkpt>
      <trkpt lat="42.77456372044980525970458984375" lon="-0.23075773380696773529052734375">
        <ele>1993.800048828125</ele>
        <time>2022-08-02T13:28:38.000Z</time>
      </trkpt>
      <trkpt lat="42.7746471203863620758056640625" lon="-0.230842642486095428466796875">
        <ele>1999.199951171875</ele>
        <time>2022-08-02T13:29:03.000Z</time>
      </trkpt>
      <trkpt lat="42.77466128580272197723388671875" lon="-0.230827219784259796142578125">
        <ele>1997.800048828125</ele>
        <time>2022-08-02T13:29:06.000Z</time>
      </trkpt>
      <trkpt lat="42.7748077176511287689208984375" lon="-0.230906009674072265625">
        <ele>2005.5999755859375</ele>
        <time>2022-08-02T13:29:45.000Z</time>
      </trkpt>
      <trkpt lat="42.774981223046779632568359375" lon="-0.23092738352715969085693359375">
        <ele>2008.4000244140625</ele>
        <time>2022-08-02T13:30:09.000Z</time>
      </trkpt>
      <trkpt lat="42.77516135014593601226806640625" lon="-0.2309008128941059112548828125">
        <ele>2006.5999755859375</ele>
        <time>2022-08-02T13:30:30.000Z</time>
      </trkpt>
      <trkpt lat="42.775335609912872314453125" lon="-0.23096091113984584808349609375">
        <ele>2012.800048828125</ele>
        <time>2022-08-02T13:30:56.000Z</time>
      </trkpt>
      <trkpt lat="42.7754631824791431427001953125" lon="-0.23096744902431964874267578125">
        <ele>2010.4000244140625</ele>
        <time>2022-08-02T13:31:27.000Z</time>
      </trkpt>
      <trkpt lat="42.77561631985008716583251953125" lon="-0.231021344661712646484375">
        <ele>2008.4000244140625</ele>
        <time>2022-08-02T13:32:06.000Z</time>
      </trkpt>
      <trkpt lat="42.7757964469492435455322265625" lon="-0.2309832908213138580322265625">
        <ele>2000.5999755859375</ele>
        <time>2022-08-02T13:32:24.000Z</time>
      </trkpt>
      <trkpt lat="42.7758631668984889984130859375" lon="-0.2309185825288295745849609375">
        <ele>1994.5999755859375</ele>
        <time>2022-08-02T13:32:29.000Z</time>
      </trkpt>
      <trkpt lat="42.77593064121901988983154296875" lon="-0.2309008128941059112548828125">
        <ele>1993.800048828125</ele>
        <time>2022-08-02T13:32:35.000Z</time>
      </trkpt>
      <trkpt lat="42.77611135505139827728271484375" lon="-0.23092034272849559783935546875">
        <ele>1996.800048828125</ele>
        <time>2022-08-02T13:32:58.000Z</time>
      </trkpt>
      <trkpt lat="42.776290476322174072265625" lon="-0.230966024100780487060546875">
        <ele>2001</ele>
        <time>2022-08-02T13:33:18.000Z</time>
      </trkpt>
      <trkpt lat="42.7763590402901172637939453125" lon="-0.2309477515518665313720703125">
        <ele>2000.4000244140625</ele>
        <time>2022-08-02T13:34:16.000Z</time>
      </trkpt>
      <trkpt lat="42.77653363533318042755126953125" lon="-0.23090391419827938079833984375">
        <ele>1999.4000244140625</ele>
        <time>2022-08-02T13:35:13.000Z</time>
      </trkpt>
      <trkpt lat="42.7766949869692325592041015625" lon="-0.23090106435120105743408203125">
        <ele>2000.4000244140625</ele>
        <time>2022-08-02T13:35:45.000Z</time>
      </trkpt>
      <trkpt lat="42.776872180402278900146484375" lon="-0.23082353174686431884765625">
        <ele>2001.5999755859375</ele>
        <time>2022-08-02T13:36:16.000Z</time>
      </trkpt>
      <trkpt lat="42.7770316042006015777587890625" lon="-0.23074516095221042633056640625">
        <ele>2002.5999755859375</ele>
        <time>2022-08-02T13:36:43.000Z</time>
      </trkpt>
      <trkpt lat="42.77718289755284786224365234375" lon="-0.230760164558887481689453125">
        <ele>2008.4000244140625</ele>
        <time>2022-08-02T13:37:17.000Z</time>
      </trkpt>
      <trkpt lat="42.777267806231975555419921875" lon="-0.23069880902767181396484375">
        <ele>2007.800048828125</ele>
        <time>2022-08-02T13:37:59.000Z</time>
      </trkpt>
      <trkpt lat="42.77742345817387104034423828125" lon="-0.230704843997955322265625">
        <ele>2009.5999755859375</ele>
        <time>2022-08-02T13:38:38.000Z</time>
      </trkpt>
      <trkpt lat="42.77759059332311153411865234375" lon="-0.230615995824337005615234375">
        <ele>2010.5999755859375</ele>
        <time>2022-08-02T13:39:06.000Z</time>
      </trkpt>
      <trkpt lat="42.7777563035488128662109375" lon="-0.23065849207341670989990234375">
        <ele>2021.4000244140625</ele>
        <time>2022-08-02T13:39:41.000Z</time>
      </trkpt>
      <trkpt lat="42.77790038846433162689208984375" lon="-0.230781622231006622314453125">
        <ele>2033</ele>
        <time>2022-08-02T13:40:17.000Z</time>
      </trkpt>
      <trkpt lat="42.7778821997344493865966796875" lon="-0.23094247095286846160888671875">
        <ele>2035.800048828125</ele>
        <time>2022-08-02T13:40:58.000Z</time>
      </trkpt>
      <trkpt lat="42.7778064273297786712646484375" lon="-0.23116341792047023773193359375">
        <ele>2036</ele>
        <time>2022-08-02T13:41:26.000Z</time>
      </trkpt>
      <trkpt lat="42.77793894521892070770263671875" lon="-0.23122929967939853668212890625">
        <ele>2044.5999755859375</ele>
        <time>2022-08-02T13:41:58.000Z</time>
      </trkpt>
      <trkpt lat="42.7780994586646556854248046875" lon="-0.2311807684600353240966796875">
        <ele>2052.39990234375</ele>
        <time>2022-08-02T13:42:22.000Z</time>
      </trkpt>
      <trkpt lat="42.778274305164813995361328125" lon="-0.23114296607673168182373046875">
        <ele>2061.39990234375</ele>
        <time>2022-08-02T13:42:59.000Z</time>
      </trkpt>
      <trkpt lat="42.77831914834678173065185546875" lon="-0.23111455142498016357421875">
        <ele>2063.39990234375</ele>
        <time>2022-08-02T13:44:29.000Z</time>
      </trkpt>
      <trkpt lat="42.77817137539386749267578125" lon="-0.23127372376620769500732421875">
        <ele>2058.199951171875</ele>
        <time>2022-08-02T13:45:03.000Z</time>
      </trkpt>
      <trkpt lat="42.77812443673610687255859375" lon="-0.231503807008266448974609375">
        <ele>2073</ele>
        <time>2022-08-02T13:45:32.000Z</time>
      </trkpt>
      <trkpt lat="42.77814631350338459014892578125" lon="-0.23168678395450115203857421875">
        <ele>2081</ele>
        <time>2022-08-02T13:46:00.000Z</time>
      </trkpt>
      <trkpt lat="42.77829743921756744384765625" lon="-0.2315753884613513946533203125">
        <ele>2078.60009765625</ele>
        <time>2022-08-02T13:46:30.000Z</time>
      </trkpt>
      <trkpt lat="42.7783804200589656829833984375" lon="-0.2315375022590160369873046875">
        <ele>2078.199951171875</ele>
        <time>2022-08-02T13:46:41.000Z</time>
      </trkpt>
      <trkpt lat="42.77838184498250484466552734375" lon="-0.2316421084105968475341796875">
        <ele>2081.60009765625</ele>
        <time>2022-08-02T13:47:19.000Z</time>
      </trkpt>
      <trkpt lat="42.77833825908601284027099609375" lon="-0.23187168873846530914306640625">
        <ele>2088.60009765625</ele>
        <time>2022-08-02T13:47:49.000Z</time>
      </trkpt>
      <trkpt lat="42.77841671369969844818115234375" lon="-0.23190756328403949737548828125">
        <ele>2092.39990234375</ele>
        <time>2022-08-02T13:48:21.000Z</time>
      </trkpt>
      <trkpt lat="42.77846918441355228424072265625" lon="-0.2319760434329509735107421875">
        <ele>2097.800048828125</ele>
        <time>2022-08-02T13:48:51.000Z</time>
      </trkpt>
      <trkpt lat="42.77853104285895824432373046875" lon="-0.232083834707736968994140625">
        <ele>2106.199951171875</ele>
        <time>2022-08-02T13:49:22.000Z</time>
      </trkpt>
      <trkpt lat="42.77857127599418163299560546875" lon="-0.23206547833979129791259765625">
        <ele>2108.199951171875</ele>
        <time>2022-08-02T13:49:34.000Z</time>
      </trkpt>
      <trkpt lat="42.77857429347932338714599609375" lon="-0.2322838269174098968505859375">
        <ele>2121.39990234375</ele>
        <time>2022-08-02T13:50:10.000Z</time>
      </trkpt>
      <trkpt lat="42.77849734760820865631103515625" lon="-0.23246294818818569183349609375">
        <ele>2127.800048828125</ele>
        <time>2022-08-02T13:50:49.000Z</time>
      </trkpt>
      <trkpt lat="42.77853213250637054443359375" lon="-0.23256964981555938720703125">
        <ele>2137.39990234375</ele>
        <time>2022-08-02T13:51:23.000Z</time>
      </trkpt>
      <trkpt lat="42.77852534316480159759521484375" lon="-0.232679955661296844482421875">
        <ele>2144.199951171875</ele>
        <time>2022-08-02T13:52:22.000Z</time>
      </trkpt>
      <trkpt lat="42.77857496403157711029052734375" lon="-0.232755728065967559814453125">
        <ele>2152.60009765625</ele>
        <time>2022-08-02T13:53:03.000Z</time>
      </trkpt>
      <trkpt lat="42.7787411771714687347412109375" lon="-0.23272228427231311798095703125">
        <ele>2158.199951171875</ele>
        <time>2022-08-02T13:53:36.000Z</time>
      </trkpt>
      <trkpt lat="42.77887034229934215545654296875" lon="-0.2326298318803310394287109375">
        <ele>2160.199951171875</ele>
        <time>2022-08-02T13:54:04.000Z</time>
      </trkpt>
      <trkpt lat="42.77891166508197784423828125" lon="-0.23239438422024250030517578125">
        <ele>2152.60009765625</ele>
        <time>2022-08-02T13:54:36.000Z</time>
      </trkpt>
      <trkpt lat="42.77901752851903438568115234375" lon="-0.2321912907063961029052734375">
        <ele>2146.800048828125</ele>
        <time>2022-08-02T13:55:13.000Z</time>
      </trkpt>
      <trkpt lat="42.7791468612849712371826171875" lon="-0.23203010670840740203857421875">
        <ele>2147.60009765625</ele>
        <time>2022-08-02T13:55:46.000Z</time>
      </trkpt>
      <trkpt lat="42.7792637050151824951171875" lon="-0.2318597026169300079345703125">
        <ele>2149.60009765625</ele>
        <time>2022-08-02T13:56:19.000Z</time>
      </trkpt>
      <trkpt lat="42.77927451767027378082275390625" lon="-0.23171813227236270904541015625">
        <ele>2144.800048828125</ele>
        <time>2022-08-02T13:57:15.000Z</time>
      </trkpt>
      <trkpt lat="42.779321707785129547119140625" lon="-0.231620483100414276123046875">
        <ele>2145</ele>
        <time>2022-08-02T13:58:27.000Z</time>
      </trkpt>
      <trkpt lat="42.7794026769697666168212890625" lon="-0.23141504265367984771728515625">
        <ele>2143.60009765625</ele>
        <time>2022-08-02T13:58:59.000Z</time>
      </trkpt>
      <trkpt lat="42.77952253818511962890625" lon="-0.2312551997601985931396484375">
        <ele>2147.199951171875</ele>
        <time>2022-08-02T13:59:29.000Z</time>
      </trkpt>
      <trkpt lat="42.77965866029262542724609375" lon="-0.231091417372226715087890625">
        <ele>2151.39990234375</ele>
        <time>2022-08-02T14:00:00.000Z</time>
      </trkpt>
      <trkpt lat="42.77980148792266845703125" lon="-0.23095772601664066314697265625">
        <ele>2157.800048828125</ele>
        <time>2022-08-02T14:00:29.000Z</time>
      </trkpt>
      <trkpt lat="42.7799689583480358123779296875" lon="-0.230887234210968017578125">
        <ele>2169</ele>
        <time>2022-08-02T14:00:54.000Z</time>
      </trkpt>
      <trkpt lat="42.78010952286422252655029296875" lon="-0.2307197637856006622314453125">
        <ele>2173</ele>
        <time>2022-08-02T14:01:18.000Z</time>
      </trkpt>
      <trkpt lat="42.78022603131830692291259765625" lon="-0.2305397205054759979248046875">
        <ele>2173.800048828125</ele>
        <time>2022-08-02T14:01:45.000Z</time>
      </trkpt>
      <trkpt lat="42.78034773655235767364501953125" lon="-0.23036009632050991058349609375">
        <ele>2176.199951171875</ele>
        <time>2022-08-02T14:02:10.000Z</time>
      </trkpt>
      <trkpt lat="42.780421413481235504150390625" lon="-0.23015926592051982879638671875">
        <ele>2175</ele>
        <time>2022-08-02T14:02:33.000Z</time>
      </trkpt>
      <trkpt lat="42.78046810068190097808837890625" lon="-0.22993144579231739044189453125">
        <ele>2173.39990234375</ele>
        <time>2022-08-02T14:02:55.000Z</time>
      </trkpt>
      <trkpt lat="42.7805538475513458251953125" lon="-0.22974528372287750244140625">
        <ele>2176.199951171875</ele>
        <time>2022-08-02T14:03:22.000Z</time>
      </trkpt>
      <trkpt lat="42.78066172264516353607177734375" lon="-0.2298773825168609619140625">
        <ele>2183.800048828125</ele>
        <time>2022-08-02T14:04:00.000Z</time>
      </trkpt>
      <trkpt lat="42.78064831160008907318115234375" lon="-0.22965450771152973175048828125">
        <ele>2180.39990234375</ele>
        <time>2022-08-02T14:04:24.000Z</time>
      </trkpt>
      <trkpt lat="42.7807045541703701019287109375" lon="-0.2294534258544445037841796875">
        <ele>2181.39990234375</ele>
        <time>2022-08-02T14:04:51.000Z</time>
      </trkpt>
      <trkpt lat="42.78082801960408687591552734375" lon="-0.22930481471121311187744140625">
        <ele>2186.199951171875</ele>
        <time>2022-08-02T14:05:22.000Z</time>
      </trkpt>
      <trkpt lat="42.780863307416439056396484375" lon="-0.2292096801102161407470703125">
        <ele>2187.199951171875</ele>
        <time>2022-08-02T14:06:21.000Z</time>
      </trkpt>
      <trkpt lat="42.78081360273063182830810546875" lon="-0.22902888245880603790283203125">
        <ele>2182.800048828125</ele>
        <time>2022-08-02T14:07:24.000Z</time>
      </trkpt>
      <trkpt lat="42.7806710265576839447021484375" lon="-0.2289176546037197113037109375">
        <ele>2176.60009765625</ele>
        <time>2022-08-02T14:08:20.000Z</time>
      </trkpt>
      <trkpt lat="42.7805939130485057830810546875" lon="-0.22886308841407299041748046875">
        <ele>2175.800048828125</ele>
        <time>2022-08-02T14:08:29.000Z</time>
      </trkpt>
      <trkpt lat="42.780557535588741302490234375" lon="-0.228840373456478118896484375">
        <ele>2175.39990234375</ele>
        <time>2022-08-02T14:08:34.000Z</time>
      </trkpt>
      <trkpt lat="42.78046592138707637786865234375" lon="-0.22865102626383304595947265625">
        <ele>2173</ele>
        <time>2022-08-02T14:09:12.000Z</time>
      </trkpt>
      <trkpt lat="42.78039333410561084747314453125" lon="-0.2284878306090831756591796875">
        <ele>2169.800048828125</ele>
        <time>2022-08-02T14:09:48.000Z</time>
      </trkpt>
      <trkpt lat="42.7803323976695537567138671875" lon="-0.2283034287393093109130859375">
        <ele>2171</ele>
        <time>2022-08-02T14:10:28.000Z</time>
      </trkpt>
      <trkpt lat="42.780249081552028656005859375" lon="-0.22808994166553020477294921875">
        <ele>2173.60009765625</ele>
        <time>2022-08-02T14:10:51.000Z</time>
      </trkpt>
      <trkpt lat="42.7801550365984439849853515625" lon="-0.22787217982113361358642578125">
        <ele>2175.199951171875</ele>
        <time>2022-08-02T14:11:13.000Z</time>
      </trkpt>
      <trkpt lat="42.7801298908889293670654296875" lon="-0.22776472382247447967529296875">
        <ele>2175.39990234375</ele>
        <time>2022-08-02T14:11:23.000Z</time>
      </trkpt>
      <trkpt lat="42.7800930105149745941162109375" lon="-0.2277250774204730987548828125">
        <ele>2175.800048828125</ele>
        <time>2022-08-02T14:11:32.000Z</time>
      </trkpt>
      <trkpt lat="42.78008856810629367828369140625" lon="-0.22767151705920696258544921875">
        <ele>2181</ele>
        <time>2022-08-03T06:04:59.000Z</time>
      </trkpt>
      <trkpt lat="42.78012041933834552764892578125" lon="-0.22789481095969676971435546875">
        <ele>2181</ele>
        <time>2022-08-03T06:05:22.000Z</time>
      </trkpt>
      <trkpt lat="42.78021991252899169921875" lon="-0.22808969020843505859375">
        <ele>2178.199951171875</ele>
        <time>2022-08-03T06:05:39.000Z</time>
      </trkpt>
      <trkpt lat="42.78027531690895557403564453125" lon="-0.22827048785984516143798828125">
        <ele>2177.199951171875</ele>
        <time>2022-08-03T06:06:25.000Z</time>
      </trkpt>
      <trkpt lat="42.78031940571963787078857421875" lon="-0.228369645774364471435546875">
        <ele>2176.60009765625</ele>
        <time>2022-08-03T06:06:34.000Z</time>
      </trkpt>
      <trkpt lat="42.78033650480210781097412109375" lon="-0.228403173387050628662109375">
        <ele>2176.39990234375</ele>
        <time>2022-08-03T06:06:38.000Z</time>
      </trkpt>
      <trkpt lat="42.780389897525310516357421875" lon="-0.22858749143779277801513671875">
        <ele>2175.39990234375</ele>
        <time>2022-08-03T06:07:11.000Z</time>
      </trkpt>
      <trkpt lat="42.78045083396136760711669921875" lon="-0.228787399828433990478515625">
        <ele>2173.800048828125</ele>
        <time>2022-08-03T06:07:37.000Z</time>
      </trkpt>
      <trkpt lat="42.7806036360561847686767578125" lon="-0.22888840176165103912353515625">
        <ele>2174.199951171875</ele>
        <time>2022-08-03T06:07:54.000Z</time>
      </trkpt>
      <trkpt lat="42.78065635822713375091552734375" lon="-0.2289171516895294189453125">
        <ele>2174.800048828125</ele>
        <time>2022-08-03T06:07:59.000Z</time>
      </trkpt>
      <trkpt lat="42.78068594634532928466796875" lon="-0.2289414592087268829345703125">
        <ele>2175.199951171875</ele>
        <time>2022-08-03T06:08:02.000Z</time>
      </trkpt>
      <trkpt lat="42.7807652391493320465087890625" lon="-0.2291389368474483489990234375">
        <ele>2178</ele>
        <time>2022-08-03T06:08:37.000Z</time>
      </trkpt>
      <trkpt lat="42.78082835488021373748779296875" lon="-0.2293531782925128936767578125">
        <ele>2182</ele>
        <time>2022-08-03T06:09:03.000Z</time>
      </trkpt>
      <trkpt lat="42.7808721922338008880615234375" lon="-0.2295741252601146697998046875">
        <ele>2186.199951171875</ele>
        <time>2022-08-03T06:09:31.000Z</time>
      </trkpt>
      <trkpt lat="42.7809741161763668060302734375" lon="-0.2295610494911670684814453125">
        <ele>2191</ele>
        <time>2022-08-03T06:09:58.000Z</time>
      </trkpt>
      <trkpt lat="42.780990712344646453857421875" lon="-0.22931923158466815948486328125">
        <ele>2188.60009765625</ele>
        <time>2022-08-03T06:10:20.000Z</time>
      </trkpt>
      <trkpt lat="42.7810277603566646575927734375" lon="-0.22913466207683086395263671875">
        <ele>2187.60009765625</ele>
        <time>2022-08-03T06:11:10.000Z</time>
      </trkpt>
      <trkpt lat="42.781123481690883636474609375" lon="-0.2289250306785106658935546875">
        <ele>2185.800048828125</ele>
        <time>2022-08-03T06:11:31.000Z</time>
      </trkpt>
      <trkpt lat="42.78121090494096279144287109375" lon="-0.228733755648136138916015625">
        <ele>2184.199951171875</ele>
        <time>2022-08-03T06:11:57.000Z</time>
      </trkpt>
      <trkpt lat="42.78137636370956897735595703125" lon="-0.2287905849516391754150390625">
        <ele>2190.60009765625</ele>
        <time>2022-08-03T06:12:21.000Z</time>
      </trkpt>
      <trkpt lat="42.78155908919870853424072265625" lon="-0.2287647686898708343505859375">
        <ele>2198.199951171875</ele>
        <time>2022-08-03T06:12:42.000Z</time>
      </trkpt>
      <trkpt lat="42.781727649271488189697265625" lon="-0.22868053056299686431884765625">
        <ele>2206</ele>
        <time>2022-08-03T06:13:07.000Z</time>
      </trkpt>
      <trkpt lat="42.78185396455228328704833984375" lon="-0.22850333712995052337646484375">
        <ele>2211.800048828125</ele>
        <time>2022-08-03T06:13:27.000Z</time>
      </trkpt>
      <trkpt lat="42.78195303864777088165283203125" lon="-0.2283002436161041259765625">
        <ele>2214.39990234375</ele>
        <time>2022-08-03T06:13:45.000Z</time>
      </trkpt>
      <trkpt lat="42.78203333728015422821044921875" lon="-0.22806756198406219482421875">
        <ele>2211.199951171875</ele>
        <time>2022-08-03T06:14:02.000Z</time>
      </trkpt>
      <trkpt lat="42.78207206167280673980712890625" lon="-0.227829851210117340087890625">
        <ele>2207.800048828125</ele>
        <time>2022-08-03T06:14:21.000Z</time>
      </trkpt>
      <trkpt lat="42.78206602670252323150634765625" lon="-0.2278259955346584320068359375">
        <ele>2207.199951171875</ele>
        <time>2022-08-03T06:14:22.000Z</time>
      </trkpt>
      <trkpt lat="42.78211732394993305206298828125" lon="-0.2276513166725635528564453125">
        <ele>2208.800048828125</ele>
        <time>2022-08-03T06:15:05.000Z</time>
      </trkpt>
      <trkpt lat="42.78223433531820774078369140625" lon="-0.22768274880945682525634765625">
        <ele>2219.800048828125</ele>
        <time>2022-08-03T06:15:53.000Z</time>
      </trkpt>
      <trkpt lat="42.78227875940501689910888671875" lon="-0.22745207883417606353759765625">
        <ele>2220.39990234375</ele>
        <time>2022-08-03T06:16:22.000Z</time>
      </trkpt>
      <trkpt lat="42.78238051570951938629150390625" lon="-0.2272553555667400360107421875">
        <ele>2225.60009765625</ele>
        <time>2022-08-03T06:16:48.000Z</time>
      </trkpt>
      <trkpt lat="42.7823799289762973785400390625" lon="-0.22724035196006298065185546875">
        <ele>2225</ele>
        <time>2022-08-03T06:16:49.000Z</time>
      </trkpt>
      <trkpt lat="42.7824151329696178436279296875" lon="-0.22700046189129352569580078125">
        <ele>2221.39990234375</ele>
        <time>2022-08-03T06:17:24.000Z</time>
      </trkpt>
      <trkpt lat="42.7824617363512516021728515625" lon="-0.22677498869597911834716796875">
        <ele>2225.39990234375</ele>
        <time>2022-08-03T06:17:53.000Z</time>
      </trkpt>
      <trkpt lat="42.7824144624173641204833984375" lon="-0.22653895430266857147216796875">
        <ele>2223.39990234375</ele>
        <time>2022-08-03T06:18:11.000Z</time>
      </trkpt>
      <trkpt lat="42.7823804318904876708984375" lon="-0.2265393733978271484375">
        <ele>2221</ele>
        <time>2022-08-03T06:19:58.000Z</time>
      </trkpt>
      <trkpt lat="42.7824233472347259521484375" lon="-0.2264218591153621673583984375">
        <ele>2223</ele>
        <time>2022-08-03T06:21:31.000Z</time>
      </trkpt>
      <trkpt lat="42.7825105190277099609375" lon="-0.22623821161687374114990234375">
        <ele>2226</ele>
        <time>2022-08-03T06:21:57.000Z</time>
      </trkpt>
      <trkpt lat="42.7825609780848026275634765625" lon="-0.22600402124226093292236328125">
        <ele>2222.39990234375</ele>
        <time>2022-08-03T06:22:18.000Z</time>
      </trkpt>
      <trkpt lat="42.78262526728212833404541015625" lon="-0.22576731629669666290283203125">
        <ele>2220.800048828125</ele>
        <time>2022-08-03T06:22:37.000Z</time>
      </trkpt>
      <trkpt lat="42.78268016874790191650390625" lon="-0.22553396411240100860595703125">
        <ele>2223.39990234375</ele>
        <time>2022-08-03T06:22:56.000Z</time>
      </trkpt>
      <trkpt lat="42.78274982236325740814208984375" lon="-0.2253087423741817474365234375">
        <ele>2224.800048828125</ele>
        <time>2022-08-03T06:23:16.000Z</time>
      </trkpt>
      <trkpt lat="42.7828077413141727447509765625" lon="-0.2250924892723560333251953125">
        <ele>2224.60009765625</ele>
        <time>2022-08-03T06:23:33.000Z</time>
      </trkpt>
      <trkpt lat="42.78287773020565509796142578125" lon="-0.22486232221126556396484375">
        <ele>2223.60009765625</ele>
        <time>2022-08-03T06:23:51.000Z</time>
      </trkpt>
      <trkpt lat="42.78289139270782470703125" lon="-0.224830470979213714599609375">
        <ele>2223.60009765625</ele>
        <time>2022-08-03T06:23:54.000Z</time>
      </trkpt>
      <trkpt lat="42.782966829836368560791015625" lon="-0.22461044602096080780029296875">
        <ele>2222</ele>
        <time>2022-08-03T06:24:14.000Z</time>
      </trkpt>
      <trkpt lat="42.7830518223345279693603515625" lon="-0.224397964775562286376953125">
        <ele>2219.800048828125</ele>
        <time>2022-08-03T06:24:35.000Z</time>
      </trkpt>
      <trkpt lat="42.783178724348545074462890625" lon="-0.224222950637340545654296875">
        <ele>2220.39990234375</ele>
        <time>2022-08-03T06:24:56.000Z</time>
      </trkpt>
      <trkpt lat="42.783324904739856719970703125" lon="-0.2241248823702335357666015625">
        <ele>2222.39990234375</ele>
        <time>2022-08-03T06:25:23.000Z</time>
      </trkpt>
      <trkpt lat="42.7834615297615528106689453125" lon="-0.22427357733249664306640625">
        <ele>2227.800048828125</ele>
        <time>2022-08-03T06:25:50.000Z</time>
      </trkpt>
      <trkpt lat="42.7836003340780735015869140625" lon="-0.2244172431528568267822265625">
        <ele>2231.39990234375</ele>
        <time>2022-08-03T06:26:23.000Z</time>
      </trkpt>
      <trkpt lat="42.7837575785815715789794921875" lon="-0.22452570497989654541015625">
        <ele>2235.199951171875</ele>
        <time>2022-08-03T06:26:46.000Z</time>
      </trkpt>
      <trkpt lat="42.78392815031111240386962890625" lon="-0.22461664862930774688720703125">
        <ele>2238.800048828125</ele>
        <time>2022-08-03T06:27:05.000Z</time>
      </trkpt>
      <trkpt lat="42.784083299338817596435546875" lon="-0.22473215125501155853271484375">
        <ele>2243.199951171875</ele>
        <time>2022-08-03T06:27:25.000Z</time>
      </trkpt>
      <trkpt lat="42.78425596654415130615234375" lon="-0.22474589757621288299560546875">
        <ele>2240.199951171875</ele>
        <time>2022-08-03T06:27:48.000Z</time>
      </trkpt>
      <trkpt lat="42.78440088964998722076416015625" lon="-0.22470616735517978668212890625">
        <ele>2241</ele>
        <time>2022-08-03T06:28:05.000Z</time>
      </trkpt>
      <trkpt lat="42.78457473032176494598388671875" lon="-0.22459887899458408355712890625">
        <ele>2240.39990234375</ele>
        <time>2022-08-03T06:28:22.000Z</time>
      </trkpt>
      <trkpt lat="42.7847421169281005859375" lon="-0.22466383874416351318359375">
        <ele>2240.39990234375</ele>
        <time>2022-08-03T06:28:42.000Z</time>
      </trkpt>
      <trkpt lat="42.78483842499554157257080078125" lon="-0.224800966680049896240234375">
        <ele>2240</ele>
        <time>2022-08-03T06:28:55.000Z</time>
      </trkpt>
      <trkpt lat="42.784982509911060333251953125" lon="-0.22494421340525150299072265625">
        <ele>2241</ele>
        <time>2022-08-03T06:29:20.000Z</time>
      </trkpt>
      <trkpt lat="42.7851130999624729156494140625" lon="-0.22512442432343959808349609375">
        <ele>2245.199951171875</ele>
        <time>2022-08-03T06:29:42.000Z</time>
      </trkpt>
      <trkpt lat="42.78522432781755924224853515625" lon="-0.225321985781192779541015625">
        <ele>2262.800048828125</ele>
        <time>2022-08-03T06:30:08.000Z</time>
      </trkpt>
      <trkpt lat="42.78524192981421947479248046875" lon="-0.225306563079357147216796875">
        <ele>2259.60009765625</ele>
        <time>2022-08-03T06:30:11.000Z</time>
      </trkpt>
      <trkpt lat="42.7853347174823284149169921875" lon="-0.22525794804096221923828125">
        <ele>2248.199951171875</ele>
        <time>2022-08-03T06:30:40.000Z</time>
      </trkpt>
      <trkpt lat="42.78543303720653057098388671875" lon="-0.22529005073010921478271484375">
        <ele>2249.60009765625</ele>
        <time>2022-08-03T06:30:52.000Z</time>
      </trkpt>
      <trkpt lat="42.7855239808559417724609375" lon="-0.22528217174112796783447265625">
        <ele>2244.800048828125</ele>
        <time>2022-08-03T06:31:09.000Z</time>
      </trkpt>
      <trkpt lat="42.785657085478305816650390625" lon="-0.2254757098853588104248046875">
        <ele>2234.800048828125</ele>
        <time>2022-08-03T06:31:32.000Z</time>
      </trkpt>
      <trkpt lat="42.7857662178575992584228515625" lon="-0.2256671525537967681884765625">
        <ele>2236.39990234375</ele>
        <time>2022-08-03T06:31:54.000Z</time>
      </trkpt>
      <trkpt lat="42.7858795411884784698486328125" lon="-0.22584744729101657867431640625">
        <ele>2236</ele>
        <time>2022-08-03T06:32:17.000Z</time>
      </trkpt>
      <trkpt lat="42.7860143221914768218994140625" lon="-0.22601793520152568817138671875">
        <ele>2235.60009765625</ele>
        <time>2022-08-03T06:32:37.000Z</time>
      </trkpt>
      <trkpt lat="42.78613443486392498016357421875" lon="-0.22619730792939662933349609375">
        <ele>2236.39990234375</ele>
        <time>2022-08-03T06:33:03.000Z</time>
      </trkpt>
      <trkpt lat="42.78623065911233425140380859375" lon="-0.2264034189283847808837890625">
        <ele>2238</ele>
        <time>2022-08-03T06:33:29.000Z</time>
      </trkpt>
      <trkpt lat="42.78613477014005184173583984375" lon="-0.22656192071735858917236328125">
        <ele>2249</ele>
        <time>2022-08-03T06:34:04.000Z</time>
      </trkpt>
      <trkpt lat="42.78618958778679370880126953125" lon="-0.22678823210299015045166015625">
        <ele>2254.60009765625</ele>
        <time>2022-08-03T06:34:35.000Z</time>
      </trkpt>
      <trkpt lat="42.7861621789634227752685546875" lon="-0.2270320616662502288818359375">
        <ele>2266</ele>
        <time>2022-08-03T06:35:03.000Z</time>
      </trkpt>
      <trkpt lat="42.78630115091800689697265625" lon="-0.227229036390781402587890625">
        <ele>2264.39990234375</ele>
        <time>2022-08-03T06:35:28.000Z</time>
      </trkpt>
      <trkpt lat="42.78645227663218975067138671875" lon="-0.22735015489161014556884765625">
        <ele>2260.800048828125</ele>
        <time>2022-08-03T06:35:48.000Z</time>
      </trkpt>
      <trkpt lat="42.78658144176006317138671875" lon="-0.227517373859882354736328125">
        <ele>2260.39990234375</ele>
        <time>2022-08-03T06:36:12.000Z</time>
      </trkpt>
      <trkpt lat="42.7867287956178188323974609375" lon="-0.2276404201984405517578125">
        <ele>2255</ele>
        <time>2022-08-03T06:36:34.000Z</time>
      </trkpt>
      <trkpt lat="42.786896266043186187744140625" lon="-0.22773119620978832244873046875">
        <ele>2249.199951171875</ele>
        <time>2022-08-03T06:36:56.000Z</time>
      </trkpt>
      <trkpt lat="42.787027023732662200927734375" lon="-0.227909982204437255859375">
        <ele>2249.800048828125</ele>
        <time>2022-08-03T06:37:17.000Z</time>
      </trkpt>
      <trkpt lat="42.78710522688925266265869140625" lon="-0.22811659611761569976806640625">
        <ele>2251.199951171875</ele>
        <time>2022-08-03T06:37:43.000Z</time>
      </trkpt>
      <trkpt lat="42.78719340451061725616455078125" lon="-0.22830502130091190338134765625">
        <ele>2253.800048828125</ele>
        <time>2022-08-03T06:38:04.000Z</time>
      </trkpt>
      <trkpt lat="42.78728862293064594268798828125" lon="-0.22850836627185344696044921875">
        <ele>2254</ele>
        <time>2022-08-03T06:38:24.000Z</time>
      </trkpt>
      <trkpt lat="42.7873879484832286834716796875" lon="-0.228711627423763275146484375">
        <ele>2249.60009765625</ele>
        <time>2022-08-03T06:38:45.000Z</time>
      </trkpt>
      <trkpt lat="42.78745039366185665130615234375" lon="-0.2289464883506298065185546875">
        <ele>2245</ele>
        <time>2022-08-03T06:39:10.000Z</time>
      </trkpt>
      <trkpt lat="42.78749129734933376312255859375" lon="-0.22918243892490863800048828125">
        <ele>2244.800048828125</ele>
        <time>2022-08-03T06:39:31.000Z</time>
      </trkpt>
      <trkpt lat="42.78747034259140491485595703125" lon="-0.22942450828850269317626953125">
        <ele>2245.800048828125</ele>
        <time>2022-08-03T06:39:52.000Z</time>
      </trkpt>
      <trkpt lat="42.78744687326252460479736328125" lon="-0.2296797372400760650634765625">
        <ele>2247.60009765625</ele>
        <time>2022-08-03T06:40:13.000Z</time>
      </trkpt>
      <trkpt lat="42.78750789351761341094970703125" lon="-0.229897163808345794677734375">
        <ele>2242.39990234375</ele>
        <time>2022-08-03T06:40:35.000Z</time>
      </trkpt>
      <trkpt lat="42.78759892098605632781982421875" lon="-0.23011551238596439361572265625">
        <ele>2238.60009765625</ele>
        <time>2022-08-03T06:40:58.000Z</time>
      </trkpt>
      <trkpt lat="42.7875777147710323333740234375" lon="-0.23036177270114421844482421875">
        <ele>2241.800048828125</ele>
        <time>2022-08-03T06:41:16.000Z</time>
      </trkpt>
      <trkpt lat="42.78771090321242809295654296875" lon="-0.2305387146770954132080078125">
        <ele>2239.39990234375</ele>
        <time>2022-08-03T06:41:38.000Z</time>
      </trkpt>
      <trkpt lat="42.78775113634765148162841796875" lon="-0.23078606463968753814697265625">
        <ele>2239.199951171875</ele>
        <time>2022-08-03T06:41:59.000Z</time>
      </trkpt>
      <trkpt lat="42.787845097482204437255859375" lon="-0.23098580539226531982421875">
        <ele>2236.199951171875</ele>
        <time>2022-08-03T06:42:21.000Z</time>
      </trkpt>
      <trkpt lat="42.7879589237272739410400390625" lon="-0.23104213178157806396484375">
        <ele>2232</ele>
        <time>2022-08-03T06:42:36.000Z</time>
      </trkpt>
      <trkpt lat="42.78805606998503208160400390625" lon="-0.23112402297556400299072265625">
        <ele>2228.39990234375</ele>
        <time>2022-08-03T06:42:48.000Z</time>
      </trkpt>
      <trkpt lat="42.78810149990022182464599609375" lon="-0.231151096522808074951171875">
        <ele>2227</ele>
        <time>2022-08-03T06:42:52.000Z</time>
      </trkpt>
      <trkpt lat="42.788139469921588897705078125" lon="-0.2312023937702178955078125">
        <ele>2226.199951171875</ele>
        <time>2022-08-03T06:42:57.000Z</time>
      </trkpt>
      <trkpt lat="42.7881704829633235931396484375" lon="-0.23144622333347797393798828125">
        <ele>2227.60009765625</ele>
        <time>2022-08-03T06:43:17.000Z</time>
      </trkpt>
      <trkpt lat="42.78830551542341709136962890625" lon="-0.23160112090408802032470703125">
        <ele>2228.60009765625</ele>
        <time>2022-08-03T06:43:32.000Z</time>
      </trkpt>
      <trkpt lat="42.7884366922080516815185546875" lon="-0.23176230490207672119140625">
        <ele>2232.800048828125</ele>
        <time>2022-08-03T06:43:48.000Z</time>
      </trkpt>
      <trkpt lat="42.7885607443749904632568359375" lon="-0.2319351397454738616943359375">
        <ele>2233.39990234375</ele>
        <time>2022-08-03T06:44:06.000Z</time>
      </trkpt>
      <trkpt lat="42.788728885352611541748046875" lon="-0.2320384047925472259521484375">
        <ele>2230</ele>
        <time>2022-08-03T06:44:31.000Z</time>
      </trkpt>
      <trkpt lat="42.78887984342873096466064453125" lon="-0.23216388188302516937255859375">
        <ele>2227</ele>
        <time>2022-08-03T06:44:47.000Z</time>
      </trkpt>
      <trkpt lat="42.78901630081236362457275390625" lon="-0.23233822546899318695068359375">
        <ele>2224.800048828125</ele>
        <time>2022-08-03T06:45:10.000Z</time>
      </trkpt>
      <trkpt lat="42.78913180343806743621826171875" lon="-0.23251424543559551239013671875">
        <ele>2225.60009765625</ele>
        <time>2022-08-03T06:45:34.000Z</time>
      </trkpt>
      <trkpt lat="42.789180167019367218017578125" lon="-0.2325443364679813385009765625">
        <ele>2224.800048828125</ele>
        <time>2022-08-03T06:45:39.000Z</time>
      </trkpt>
      <trkpt lat="42.78936197049915790557861328125" lon="-0.2326105535030364990234375">
        <ele>2224.60009765625</ele>
        <time>2022-08-03T06:45:56.000Z</time>
      </trkpt>
      <trkpt lat="42.7893769741058349609375" lon="-0.2326107211410999298095703125">
        <ele>2224.800048828125</ele>
        <time>2022-08-03T06:45:57.000Z</time>
      </trkpt>
      <trkpt lat="42.78939776122570037841796875" lon="-0.232624299824237823486328125">
        <ele>2225</ele>
        <time>2022-08-03T06:46:00.000Z</time>
      </trkpt>
      <trkpt lat="42.78944830410182476043701171875" lon="-0.23269378580152988433837890625">
        <ele>2226.199951171875</ele>
        <time>2022-08-03T06:46:08.000Z</time>
      </trkpt>
      <trkpt lat="42.78950010426342487335205078125" lon="-0.232732929289340972900390625">
        <ele>2227</ele>
        <time>2022-08-03T06:46:14.000Z</time>
      </trkpt>
      <trkpt lat="42.789640165865421295166015625" lon="-0.2327461726963520050048828125">
        <ele>2228.199951171875</ele>
        <time>2022-08-03T06:46:51.000Z</time>
      </trkpt>
      <trkpt lat="42.789776287972927093505859375" lon="-0.2326596714556217193603515625">
        <ele>2229.60009765625</ele>
        <time>2022-08-03T06:47:37.000Z</time>
      </trkpt>
      <trkpt lat="42.78981107287108898162841796875" lon="-0.23260912857949733734130859375">
        <ele>2229.800048828125</ele>
        <time>2022-08-03T06:47:44.000Z</time>
      </trkpt>
      <trkpt lat="42.7899340353906154632568359375" lon="-0.2324789576232433319091796875">
        <ele>2232.60009765625</ele>
        <time>2022-08-03T06:48:13.000Z</time>
      </trkpt>
      <trkpt lat="42.7900944650173187255859375" lon="-0.23256822489202022552490234375">
        <ele>2235.800048828125</ele>
        <time>2022-08-03T06:48:43.000Z</time>
      </trkpt>
      <trkpt lat="42.79018322937190532684326171875" lon="-0.2323758602142333984375">
        <ele>2239.39990234375</ele>
        <time>2022-08-03T06:49:05.000Z</time>
      </trkpt>
      <trkpt lat="42.79014802537858486175537109375" lon="-0.23213404230773448944091796875">
        <ele>2239.60009765625</ele>
        <time>2022-08-03T06:49:27.000Z</time>
      </trkpt>
      <trkpt lat="42.7901466004550457000732421875" lon="-0.231888704001903533935546875">
        <ele>2240.800048828125</ele>
        <time>2022-08-03T06:49:51.000Z</time>
      </trkpt>
      <trkpt lat="42.79014408588409423828125" lon="-0.23187805898487567901611328125">
        <ele>2240.800048828125</ele>
        <time>2022-08-03T06:49:52.000Z</time>
      </trkpt>
      <trkpt lat="42.79015053994953632354736328125" lon="-0.23177999071776866912841796875">
        <ele>2241.199951171875</ele>
        <time>2022-08-03T06:49:59.000Z</time>
      </trkpt>
      <trkpt lat="42.790157832205295562744140625" lon="-0.2315944992005825042724609375">
        <ele>2242.800048828125</ele>
        <time>2022-08-03T06:50:12.000Z</time>
      </trkpt>
      <trkpt lat="42.79014953412115573883056640625" lon="-0.23153029382228851318359375">
        <ele>2243</ele>
        <time>2022-08-03T06:50:17.000Z</time>
      </trkpt>
      <trkpt lat="42.7901534736156463623046875" lon="-0.2314627356827259063720703125">
        <ele>2243.800048828125</ele>
        <time>2022-08-03T06:50:22.000Z</time>
      </trkpt>
      <trkpt lat="42.790152132511138916015625" lon="-0.23142895661294460296630859375">
        <ele>2244</ele>
        <time>2022-08-03T06:50:25.000Z</time>
      </trkpt>
      <trkpt lat="42.790079377591609954833984375" lon="-0.23121085949242115020751953125">
        <ele>2244</ele>
        <time>2022-08-03T06:50:47.000Z</time>
      </trkpt>
      <trkpt lat="42.79000670649111270904541015625" lon="-0.23099477402865886688232421875">
        <ele>2242</ele>
        <time>2022-08-03T06:51:06.000Z</time>
      </trkpt>
      <trkpt lat="42.79006320051848888397216796875" lon="-0.23082998581230640411376953125">
        <ele>2246.39990234375</ele>
        <time>2022-08-03T06:51:30.000Z</time>
      </trkpt>
      <trkpt lat="42.790153138339519500732421875" lon="-0.2308563888072967529296875">
        <ele>2251.800048828125</ele>
        <time>2022-08-03T06:51:54.000Z</time>
      </trkpt>
      <trkpt lat="42.79017836786806583404541015625" lon="-0.2306218631565570831298828125">
        <ele>2255.800048828125</ele>
        <time>2022-08-03T06:52:22.000Z</time>
      </trkpt>
      <trkpt lat="42.79028414748609066009521484375" lon="-0.23057752288877964019775390625">
        <ele>2263.800048828125</ele>
        <time>2022-08-03T06:52:54.000Z</time>
      </trkpt>
      <trkpt lat="42.79019831679761409759521484375" lon="-0.23035204969346523284912109375">
        <ele>2260.199951171875</ele>
        <time>2022-08-03T06:53:13.000Z</time>
      </trkpt>
      <trkpt lat="42.79018389992415904998779296875" lon="-0.2301105670630931854248046875">
        <ele>2260.800048828125</ele>
        <time>2022-08-03T06:53:34.000Z</time>
      </trkpt>
      <trkpt lat="42.79016730375587940216064453125" lon="-0.229980647563934326171875">
        <ele>2262</ele>
        <time>2022-08-03T06:53:47.000Z</time>
      </trkpt>
      <trkpt lat="42.7901784516870975494384765625" lon="-0.22989406250417232513427734375">
        <ele>2263.60009765625</ele>
        <time>2022-08-03T06:54:11.000Z</time>
      </trkpt>
      <trkpt lat="42.7901854924857616424560546875" lon="-0.22990998812019824981689453125">
        <ele>2264</ele>
        <time>2022-08-03T06:54:13.000Z</time>
      </trkpt>
      <trkpt lat="42.79019546695053577423095703125" lon="-0.22971016354858875274658203125">
        <ele>2263.800048828125</ele>
        <time>2022-08-03T06:54:39.000Z</time>
      </trkpt>
      <trkpt lat="42.79016495682299137115478515625" lon="-0.2295033819973468780517578125">
        <ele>2260.199951171875</ele>
        <time>2022-08-03T06:55:19.000Z</time>
      </trkpt>
      <trkpt lat="42.7902833931148052215576171875" lon="-0.2293618954718112945556640625">
        <ele>2265.60009765625</ele>
        <time>2022-08-03T06:56:11.000Z</time>
      </trkpt>
      <trkpt lat="42.79020787216722965240478515625" lon="-0.2292928285896778106689453125">
        <ele>2258.60009765625</ele>
        <time>2022-08-03T06:57:15.000Z</time>
      </trkpt>
      <trkpt lat="42.79032253660261631011962890625" lon="-0.229096524417400360107421875">
        <ele>2260.800048828125</ele>
        <time>2022-08-03T06:57:36.000Z</time>
      </trkpt>
      <trkpt lat="42.7904027514159679412841796875" lon="-0.2288740687072277069091796875">
        <ele>2259.60009765625</ele>
        <time>2022-08-03T06:57:56.000Z</time>
      </trkpt>
      <trkpt lat="42.790495455265045166015625" lon="-0.228652618825435638427734375">
        <ele>2261.199951171875</ele>
        <time>2022-08-03T06:58:16.000Z</time>
      </trkpt>
      <trkpt lat="42.7906035818159580230712890625" lon="-0.228459835052490234375">
        <ele>2266</ele>
        <time>2022-08-03T06:58:42.000Z</time>
      </trkpt>
      <trkpt lat="42.7906136400997638702392578125" lon="-0.22820611484348773956298828125">
        <ele>2261.800048828125</ele>
        <time>2022-08-03T06:59:02.000Z</time>
      </trkpt>
      <trkpt lat="42.7905864827334880828857421875" lon="-0.22796287201344966888427734375">
        <ele>2254.800048828125</ele>
        <time>2022-08-03T06:59:21.000Z</time>
      </trkpt>
      <trkpt lat="42.790615148842334747314453125" lon="-0.22771560586988925933837890625">
        <ele>2255.800048828125</ele>
        <time>2022-08-03T06:59:39.000Z</time>
      </trkpt>
      <trkpt lat="42.79060701839625835418701171875" lon="-0.22746498696506023406982421875">
        <ele>2256</ele>
        <time>2022-08-03T06:59:56.000Z</time>
      </trkpt>
      <trkpt lat="42.7905987203121185302734375" lon="-0.22722777910530567169189453125">
        <ele>2250.60009765625</ele>
        <time>2022-08-03T07:00:15.000Z</time>
      </trkpt>
      <trkpt lat="42.79065110720694065093994140625" lon="-0.22706349380314350128173828125">
        <ele>2251.199951171875</ele>
        <time>2022-08-03T07:01:04.000Z</time>
      </trkpt>
      <trkpt lat="42.7907931804656982421875" lon="-0.226948074996471405029296875">
        <ele>2258.39990234375</ele>
        <time>2022-08-03T07:01:32.000Z</time>
      </trkpt>
      <trkpt lat="42.79096073471009731292724609375" lon="-0.2268667705357074737548828125">
        <ele>2267.199951171875</ele>
        <time>2022-08-03T07:01:56.000Z</time>
      </trkpt>
      <trkpt lat="42.7911235950887203216552734375" lon="-0.2268855459988117218017578125">
        <ele>2275.800048828125</ele>
        <time>2022-08-03T07:02:39.000Z</time>
      </trkpt>
      <trkpt lat="42.791263572871685028076171875" lon="-0.2269415371119976043701171875">
        <ele>2281.800048828125</ele>
        <time>2022-08-03T07:03:23.000Z</time>
      </trkpt>
      <trkpt lat="42.7913819253444671630859375" lon="-0.22705041803419589996337890625">
        <ele>2287.39990234375</ele>
        <time>2022-08-03T07:03:57.000Z</time>
      </trkpt>
      <trkpt lat="42.79138821177184581756591796875" lon="-0.22729785181581974029541015625">
        <ele>2290.60009765625</ele>
        <time>2022-08-03T07:04:20.000Z</time>
      </trkpt>
      <trkpt lat="42.7912811748683452606201171875" lon="-0.227419473230838775634765625">
        <ele>2286.800048828125</ele>
        <time>2022-08-03T07:04:50.000Z</time>
      </trkpt>
      <trkpt lat="42.79120146296918392181396484375" lon="-0.22756422869861125946044921875">
        <ele>2284.39990234375</ele>
        <time>2022-08-03T07:05:21.000Z</time>
      </trkpt>
      <trkpt lat="42.7913525886833667755126953125" lon="-0.2276818268001079559326171875">
        <ele>2292.800048828125</ele>
        <time>2022-08-03T07:05:52.000Z</time>
      </trkpt>
      <trkpt lat="42.791523747146129608154296875" lon="-0.22773790173232555389404296875">
        <ele>2301</ele>
        <time>2022-08-03T07:06:19.000Z</time>
      </trkpt>
      <trkpt lat="42.79170454479753971099853515625" lon="-0.22777159698307514190673828125">
        <ele>2306</ele>
        <time>2022-08-03T07:06:43.000Z</time>
      </trkpt>
      <trkpt lat="42.79173119924962520599365234375" lon="-0.22778953425586223602294921875">
        <ele>2307.199951171875</ele>
        <time>2022-08-03T07:06:47.000Z</time>
      </trkpt>
      <trkpt lat="42.79191208072006702423095703125" lon="-0.2277718484401702880859375">
        <ele>2314.60009765625</ele>
        <time>2022-08-03T07:07:16.000Z</time>
      </trkpt>
      <trkpt lat="42.79206261970102787017822265625" lon="-0.22765156812965869903564453125">
        <ele>2317</ele>
        <time>2022-08-03T07:07:42.000Z</time>
      </trkpt>
      <trkpt lat="42.79223419725894927978515625" lon="-0.2276144362986087799072265625">
        <ele>2323.800048828125</ele>
        <time>2022-08-03T07:08:12.000Z</time>
      </trkpt>
      <trkpt lat="42.79240996576845645904541015625" lon="-0.22754679434001445770263671875">
        <ele>2328.39990234375</ele>
        <time>2022-08-03T07:08:46.000Z</time>
      </trkpt>
      <trkpt lat="42.79246260412037372589111328125" lon="-0.22752382792532444000244140625">
        <ele>2329.60009765625</ele>
        <time>2022-08-03T07:08:54.000Z</time>
      </trkpt>
      <trkpt lat="42.79255396686494350433349609375" lon="-0.227497927844524383544921875">
        <ele>2333.199951171875</ele>
        <time>2022-08-03T07:09:12.000Z</time>
      </trkpt>
      <trkpt lat="42.79266930185258388519287109375" lon="-0.22741637192666530609130859375">
        <ele>2332.199951171875</ele>
        <time>2022-08-03T07:10:01.000Z</time>
      </trkpt>
      <trkpt lat="42.79282855801284313201904296875" lon="-0.2273534238338470458984375">
        <ele>2336.800048828125</ele>
        <time>2022-08-03T07:10:40.000Z</time>
      </trkpt>
      <trkpt lat="42.7929639257490634918212890625" lon="-0.22720011882483959197998046875">
        <ele>2336.60009765625</ele>
        <time>2022-08-03T07:11:09.000Z</time>
      </trkpt>
      <trkpt lat="42.79312812723219394683837890625" lon="-0.22711143828928470611572265625">
        <ele>2338.800048828125</ele>
        <time>2022-08-03T07:11:34.000Z</time>
      </trkpt>
      <trkpt lat="42.79320691712200641632080078125" lon="-0.22716541774570941925048828125">
        <ele>2342</ele>
        <time>2022-08-03T07:12:40.000Z</time>
      </trkpt>
      <trkpt lat="42.79334840364754199981689453125" lon="-0.22710733115673065185546875">
        <ele>2343.199951171875</ele>
        <time>2022-08-03T07:13:16.000Z</time>
      </trkpt>
      <trkpt lat="42.79338142834603786468505859375" lon="-0.227251164615154266357421875">
        <ele>2348</ele>
        <time>2022-08-03T07:13:58.000Z</time>
      </trkpt>
      <trkpt lat="42.7934447117149829864501953125" lon="-0.227466411888599395751953125">
        <ele>2354.800048828125</ele>
        <time>2022-08-03T07:14:38.000Z</time>
      </trkpt>
      <trkpt lat="42.7934396825730800628662109375" lon="-0.22767922841012477874755859375">
        <ele>2364</ele>
        <time>2022-08-03T07:15:10.000Z</time>
      </trkpt>
      <trkpt lat="42.79352643527090549468994140625" lon="-0.227806381881237030029296875">
        <ele>2369.800048828125</ele>
        <time>2022-08-03T07:15:53.000Z</time>
      </trkpt>
      <trkpt lat="42.793642021715641021728515625" lon="-0.2279926277697086334228515625">
        <ele>2380.800048828125</ele>
        <time>2022-08-03T07:16:21.000Z</time>
      </trkpt>
      <trkpt lat="42.793790884315967559814453125" lon="-0.2281151711940765380859375">
        <ele>2383</ele>
        <time>2022-08-03T07:16:53.000Z</time>
      </trkpt>
      <trkpt lat="42.7939633838832378387451171875" lon="-0.22812548093497753143310546875">
        <ele>2382.39990234375</ele>
        <time>2022-08-03T07:17:16.000Z</time>
      </trkpt>
      <trkpt lat="42.79409590177237987518310546875" lon="-0.22795583121478557586669921875">
        <ele>2375</ele>
        <time>2022-08-03T07:17:41.000Z</time>
      </trkpt>
      <trkpt lat="42.7942715026438236236572265625" lon="-0.22788173519074916839599609375">
        <ele>2378</ele>
        <time>2022-08-03T07:18:01.000Z</time>
      </trkpt>
      <trkpt lat="42.7944364584982395172119140625" lon="-0.22779623977839946746826171875">
        <ele>2383.800048828125</ele>
        <time>2022-08-03T07:18:30.000Z</time>
      </trkpt>
      <trkpt lat="42.7946005761623382568359375" lon="-0.2276895381510257720947265625">
        <ele>2387.60009765625</ele>
        <time>2022-08-03T07:18:54.000Z</time>
      </trkpt>
      <trkpt lat="42.7947677113115787506103515625" lon="-0.22760999388992786407470703125">
        <ele>2392.199951171875</ele>
        <time>2022-08-03T07:19:19.000Z</time>
      </trkpt>
      <trkpt lat="42.794840298593044281005859375" lon="-0.227560289204120635986328125">
        <ele>2394.199951171875</ele>
        <time>2022-08-03T07:20:24.000Z</time>
      </trkpt>
      <trkpt lat="42.79495521448552608489990234375" lon="-0.22742643021047115325927734375">
        <ele>2396.60009765625</ele>
        <time>2022-08-03T07:20:55.000Z</time>
      </trkpt>
      <trkpt lat="42.79506015591323375701904296875" lon="-0.22745107300579547882080078125">
        <ele>2402.60009765625</ele>
        <time>2022-08-03T07:21:35.000Z</time>
      </trkpt>
      <trkpt lat="42.79512285254895687103271484375" lon="-0.22749851457774639129638671875">
        <ele>2406.60009765625</ele>
        <time>2022-08-03T07:22:06.000Z</time>
      </trkpt>
      <trkpt lat="42.7951529435813426971435546875" lon="-0.22761317901313304901123046875">
        <ele>2410.800048828125</ele>
        <time>2022-08-03T07:22:50.000Z</time>
      </trkpt>
      <trkpt lat="42.7950359322130680084228515625" lon="-0.2277860976755619049072265625">
        <ele>2410.800048828125</ele>
        <time>2022-08-03T07:23:21.000Z</time>
      </trkpt>
      <trkpt lat="42.7949896641075611114501953125" lon="-0.22801668383181095123291015625">
        <ele>2416.60009765625</ele>
        <time>2022-08-03T07:23:58.000Z</time>
      </trkpt>
      <trkpt lat="42.7951101958751678466796875" lon="-0.2280033566057682037353515625">
        <ele>2421.39990234375</ele>
        <time>2022-08-03T07:24:40.000Z</time>
      </trkpt>
      <trkpt lat="42.79506384395062923431396484375" lon="-0.2282410673797130584716796875">
        <ele>2425.800048828125</ele>
        <time>2022-08-03T07:25:07.000Z</time>
      </trkpt>
      <trkpt lat="42.794944904744625091552734375" lon="-0.228422619402408599853515625">
        <ele>2427</ele>
        <time>2022-08-03T07:25:31.000Z</time>
      </trkpt>
      <trkpt lat="42.79504925943911075592041015625" lon="-0.22839722223579883575439453125">
        <ele>2428.800048828125</ele>
        <time>2022-08-03T07:25:57.000Z</time>
      </trkpt>
      <trkpt lat="42.79519527219235897064208984375" lon="-0.228267051279544830322265625">
        <ele>2429.199951171875</ele>
        <time>2022-08-03T07:26:28.000Z</time>
      </trkpt>
      <trkpt lat="42.79534832574427127838134765625" lon="-0.228258669376373291015625">
        <ele>2431.800048828125</ele>
        <time>2022-08-03T07:27:02.000Z</time>
      </trkpt>
      <trkpt lat="42.79543030075728893280029296875" lon="-0.2280534803867340087890625">
        <ele>2430.60009765625</ele>
        <time>2022-08-03T07:27:28.000Z</time>
      </trkpt>
      <trkpt lat="42.79552535153925418853759765625" lon="-0.2278732694685459136962890625">
        <ele>2429.60009765625</ele>
        <time>2022-08-03T07:27:55.000Z</time>
      </trkpt>
      <trkpt lat="42.7956005372107028961181640625" lon="-0.22765911184251308441162109375">
        <ele>2427.39990234375</ele>
        <time>2022-08-03T07:28:11.000Z</time>
      </trkpt>
      <trkpt lat="42.79566884972155094146728515625" lon="-0.2274518273770809173583984375">
        <ele>2425.60009765625</ele>
        <time>2022-08-03T07:28:35.000Z</time>
      </trkpt>
      <trkpt lat="42.795587293803691864013671875" lon="-0.2273002825677394866943359375">
        <ele>2421.39990234375</ele>
        <time>2022-08-03T07:28:59.000Z</time>
      </trkpt>
      <trkpt lat="42.7955405227839946746826171875" lon="-0.22724973969161510467529296875">
        <ele>2419.60009765625</ele>
        <time>2022-08-03T07:30:00.000Z</time>
      </trkpt>
      <trkpt lat="42.79549417085945606231689453125" lon="-0.22711043246090412139892578125">
        <ele>2417</ele>
        <time>2022-08-03T07:31:33.000Z</time>
      </trkpt>
      <trkpt lat="42.7955261059105396270751953125" lon="-0.2272345684468746185302734375">
        <ele>2419</ele>
        <time>2022-08-03T07:32:34.000Z</time>
      </trkpt>
      <trkpt lat="42.795541696250438690185546875" lon="-0.22727522067725658416748046875">
        <ele>2419.800048828125</ele>
        <time>2022-08-03T07:34:11.000Z</time>
      </trkpt>
      <trkpt lat="42.79553758911788463592529296875" lon="-0.22729936055839061737060546875">
        <ele>2419.800048828125</ele>
        <time>2022-08-03T07:35:15.000Z</time>
      </trkpt>
      <trkpt lat="42.79559458605945110321044921875" lon="-0.22725108079612255096435546875">
        <ele>2421.39990234375</ele>
        <time>2022-08-03T07:36:19.000Z</time>
      </trkpt>
      <trkpt lat="42.79558486305177211761474609375" lon="-0.22725108079612255096435546875">
        <ele>2421</ele>
        <time>2022-08-03T07:37:38.000Z</time>
      </trkpt>
      <trkpt lat="42.79559257440268993377685546875" lon="-0.2272526733577251434326171875">
        <ele>2421.39990234375</ele>
        <time>2022-08-03T07:39:33.000Z</time>
      </trkpt>
      <trkpt lat="42.7956317178905010223388671875" lon="-0.227216966450214385986328125">
        <ele>2422.39990234375</ele>
        <time>2022-08-03T07:39:45.000Z</time>
      </trkpt>
      <trkpt lat="42.79575451277196407318115234375" lon="-0.22716541774570941925048828125">
        <ele>2426</ele>
        <time>2022-08-03T07:40:10.000Z</time>
      </trkpt>
      <trkpt lat="42.79590806923806667327880859375" lon="-0.22705511189997196197509765625">
        <ele>2431.39990234375</ele>
        <time>2022-08-03T07:40:24.000Z</time>
      </trkpt>
      <trkpt lat="42.79595953412353992462158203125" lon="-0.22696140222251415252685546875">
        <ele>2432.60009765625</ele>
        <time>2022-08-03T07:40:31.000Z</time>
      </trkpt>
      <trkpt lat="42.796095907688140869140625" lon="-0.2270263619720935821533203125">
        <ele>2434</ele>
        <time>2022-08-03T07:40:50.000Z</time>
      </trkpt>
      <trkpt lat="42.7961265854537487030029296875" lon="-0.22699643857777118682861328125">
        <ele>2434.39990234375</ele>
        <time>2022-08-03T07:40:54.000Z</time>
      </trkpt>
      <trkpt lat="42.79625306837260723114013671875" lon="-0.22684841416776180267333984375">
        <ele>2436.39990234375</ele>
        <time>2022-08-03T07:41:20.000Z</time>
      </trkpt>
      <trkpt lat="42.7962724305689334869384765625" lon="-0.22677867673337459564208984375">
        <ele>2437</ele>
        <time>2022-08-03T07:41:26.000Z</time>
      </trkpt>
      <trkpt lat="42.7963572554290294647216796875" lon="-0.22661514580249786376953125">
        <ele>2438.39990234375</ele>
        <time>2022-08-03T07:41:39.000Z</time>
      </trkpt>
      <trkpt lat="42.79635918326675891876220703125" lon="-0.22654817439615726470947265625">
        <ele>2438.199951171875</ele>
        <time>2022-08-03T07:41:44.000Z</time>
      </trkpt>
      <trkpt lat="42.7963601052761077880859375" lon="-0.22643703036010265350341796875">
        <ele>2437.800048828125</ele>
        <time>2022-08-03T07:41:51.000Z</time>
      </trkpt>
      <trkpt lat="42.79634996317327022552490234375" lon="-0.2263883315026760101318359375">
        <ele>2437.199951171875</ele>
        <time>2022-08-03T07:41:54.000Z</time>
      </trkpt>
      <trkpt lat="42.79634124599397182464599609375" lon="-0.22630828432738780975341796875">
        <ele>2436.199951171875</ele>
        <time>2022-08-03T07:42:00.000Z</time>
      </trkpt>
      <trkpt lat="42.79633236117660999298095703125" lon="-0.2260993234813213348388671875">
        <ele>2434.199951171875</ele>
        <time>2022-08-03T07:42:43.000Z</time>
      </trkpt>
      <trkpt lat="42.79639589600265026092529296875" lon="-0.22586571983993053436279296875">
        <ele>2436</ele>
        <time>2022-08-03T07:43:01.000Z</time>
      </trkpt>
      <trkpt lat="42.796463705599308013916015625" lon="-0.225637145340442657470703125">
        <ele>2438.60009765625</ele>
        <time>2022-08-03T07:43:21.000Z</time>
      </trkpt>
      <trkpt lat="42.79652162455022335052490234375" lon="-0.22550110705196857452392578125">
        <ele>2441.199951171875</ele>
        <time>2022-08-03T07:43:35.000Z</time>
      </trkpt>
      <trkpt lat="42.79657778330147266387939453125" lon="-0.22572021000087261199951171875">
        <ele>2444.199951171875</ele>
        <time>2022-08-03T07:43:59.000Z</time>
      </trkpt>
      <trkpt lat="42.7966885082423686981201171875" lon="-0.22555022500455379486083984375">
        <ele>2448.39990234375</ele>
        <time>2022-08-03T07:44:28.000Z</time>
      </trkpt>
      <trkpt lat="42.7967974729835987091064453125" lon="-0.22536699660122394561767578125">
        <ele>2452.199951171875</ele>
        <time>2022-08-03T07:44:59.000Z</time>
      </trkpt>
      <trkpt lat="42.79679822735488414764404296875" lon="-0.2251209877431392669677734375">
        <ele>2451.199951171875</ele>
        <time>2022-08-03T07:45:23.000Z</time>
      </trkpt>
      <trkpt lat="42.79684223234653472900390625" lon="-0.2248873002827167510986328125">
        <ele>2451.60009765625</ele>
        <time>2022-08-03T07:45:55.000Z</time>
      </trkpt>
      <trkpt lat="42.79694390483200550079345703125" lon="-0.22468035109341144561767578125">
        <ele>2453.800048828125</ele>
        <time>2022-08-03T07:46:23.000Z</time>
      </trkpt>
      <trkpt lat="42.7970214374363422393798828125" lon="-0.224454961717128753662109375">
        <ele>2454.39990234375</ele>
        <time>2022-08-03T07:46:40.000Z</time>
      </trkpt>
      <trkpt lat="42.79711321927607059478759765625" lon="-0.22424415685236454010009765625">
        <ele>2455</ele>
        <time>2022-08-03T07:46:57.000Z</time>
      </trkpt>
      <trkpt lat="42.79699721373617649078369140625" lon="-0.2240853197872638702392578125">
        <ele>2449.39990234375</ele>
        <time>2022-08-03T07:47:17.000Z</time>
      </trkpt>
      <trkpt lat="42.797002159059047698974609375" lon="-0.2240759320557117462158203125">
        <ele>2449.39990234375</ele>
        <time>2022-08-03T07:47:18.000Z</time>
      </trkpt>
      <trkpt lat="42.79705815017223358154296875" lon="-0.2238571643829345703125">
        <ele>2448.199951171875</ele>
        <time>2022-08-03T07:47:46.000Z</time>
      </trkpt>
      <trkpt lat="42.79714666306972503662109375" lon="-0.22365004755556583404541015625">
        <ele>2447.199951171875</ele>
        <time>2022-08-03T07:48:02.000Z</time>
      </trkpt>
      <trkpt lat="42.79718798585236072540283203125" lon="-0.223407559096813201904296875">
        <ele>2444.199951171875</ele>
        <time>2022-08-03T07:48:15.000Z</time>
      </trkpt>
      <trkpt lat="42.7972128801047801971435546875" lon="-0.22331343032419681549072265625">
        <ele>2443.199951171875</ele>
        <time>2022-08-03T07:48:21.000Z</time>
      </trkpt>
      <trkpt lat="42.7973121218383312225341796875" lon="-0.223111175000667572021484375">
        <ele>2444.199951171875</ele>
        <time>2022-08-03T07:48:39.000Z</time>
      </trkpt>
      <trkpt lat="42.79745369218289852142333984375" lon="-0.22317294962704181671142578125">
        <ele>2446.39990234375</ele>
        <time>2022-08-03T07:49:18.000Z</time>
      </trkpt>
      <trkpt lat="42.7976336516439914703369140625" lon="-0.22317445836961269378662109375">
        <ele>2449.39990234375</ele>
        <time>2022-08-03T07:49:40.000Z</time>
      </trkpt>
      <trkpt lat="42.79781562276184558868408203125" lon="-0.22315283305943012237548828125">
        <ele>2451</ele>
        <time>2022-08-03T07:50:02.000Z</time>
      </trkpt>
      <trkpt lat="42.79799482785165309906005859375" lon="-0.2231101691722869873046875">
        <ele>2451</ele>
        <time>2022-08-03T07:50:25.000Z</time>
      </trkpt>
      <trkpt lat="42.7981759607791900634765625" lon="-0.2231441996991634368896484375">
        <ele>2450.60009765625</ele>
        <time>2022-08-03T07:50:49.000Z</time>
      </trkpt>
      <trkpt lat="42.7983514778316020965576171875" lon="-0.223218463361263275146484375">
        <ele>2453.60009765625</ele>
        <time>2022-08-03T07:51:07.000Z</time>
      </trkpt>
      <trkpt lat="42.798509895801544189453125" lon="-0.22332885302603244781494140625">
        <ele>2457.60009765625</ele>
        <time>2022-08-03T07:51:27.000Z</time>
      </trkpt>
      <trkpt lat="42.79869119636714458465576171875" lon="-0.2233651466667652130126953125">
        <ele>2458.60009765625</ele>
        <time>2022-08-03T07:51:45.000Z</time>
      </trkpt>
      <trkpt lat="42.79886000789701938629150390625" lon="-0.2232809923589229583740234375">
        <ele>2461.800048828125</ele>
        <time>2022-08-03T07:52:05.000Z</time>
      </trkpt>
      <trkpt lat="42.7989707328379154205322265625" lon="-0.223207734525203704833984375">
        <ele>2464.60009765625</ele>
        <time>2022-08-03T07:52:30.000Z</time>
      </trkpt>
      <trkpt lat="42.79910123907029628753662109375" lon="-0.22337646223604679107666015625">
        <ele>2467.800048828125</ele>
        <time>2022-08-03T07:52:52.000Z</time>
      </trkpt>
      <trkpt lat="42.79920148663222789764404296875" lon="-0.22358902730047702789306640625">
        <ele>2467.199951171875</ele>
        <time>2022-08-03T07:53:16.000Z</time>
      </trkpt>
      <trkpt lat="42.7993482537567615509033203125" lon="-0.2237349562346935272216796875">
        <ele>2467</ele>
        <time>2022-08-03T07:53:38.000Z</time>
      </trkpt>
      <trkpt lat="42.799446992576122283935546875" lon="-0.223932601511478424072265625">
        <ele>2468.39990234375</ele>
        <time>2022-08-03T07:54:10.000Z</time>
      </trkpt>
      <trkpt lat="42.79957674443721771240234375" lon="-0.22409521043300628662109375">
        <ele>2472</ele>
        <time>2022-08-03T07:54:40.000Z</time>
      </trkpt>
      <trkpt lat="42.79971814714372158050537109375" lon="-0.224240384995937347412109375">
        <ele>2475</ele>
        <time>2022-08-03T07:55:01.000Z</time>
      </trkpt>
      <trkpt lat="42.79979509301483631134033203125" lon="-0.224197469651699066162109375">
        <ele>2479.199951171875</ele>
        <time>2022-08-03T07:56:16.000Z</time>
      </trkpt>
      <trkpt lat="42.79986516572535037994384765625" lon="-0.22397995926439762115478515625">
        <ele>2484.800048828125</ele>
        <time>2022-08-03T07:56:40.000Z</time>
      </trkpt>
      <trkpt lat="42.79998821206390857696533203125" lon="-0.2238643728196620941162109375">
        <ele>2489.60009765625</ele>
        <time>2022-08-03T07:57:06.000Z</time>
      </trkpt>
      <trkpt lat="42.8000861965119838714599609375" lon="-0.22404533810913562774658203125">
        <ele>2493.199951171875</ele>
        <time>2022-08-03T07:57:33.000Z</time>
      </trkpt>
      <trkpt lat="42.80020949430763721466064453125" lon="-0.22411691956222057342529296875">
        <ele>2497.60009765625</ele>
        <time>2022-08-03T07:57:47.000Z</time>
      </trkpt>
      <trkpt lat="42.8002278506755828857421875" lon="-0.22408506833016872406005859375">
        <ele>2498.800048828125</ele>
        <time>2022-08-03T07:57:51.000Z</time>
      </trkpt>
      <trkpt lat="42.800285853445529937744140625" lon="-0.22384836338460445404052734375">
        <ele>2501.800048828125</ele>
        <time>2022-08-03T07:58:11.000Z</time>
      </trkpt>
      <trkpt lat="42.80037377960979938507080078125" lon="-0.2236377261579036712646484375">
        <ele>2505.39990234375</ele>
        <time>2022-08-03T07:58:32.000Z</time>
      </trkpt>
      <trkpt lat="42.80046246014535427093505859375" lon="-0.22342423908412456512451171875">
        <ele>2508.60009765625</ele>
        <time>2022-08-03T07:58:59.000Z</time>
      </trkpt>
      <trkpt lat="42.80059824697673320770263671875" lon="-0.2232866920530796051025390625">
        <ele>2513.60009765625</ele>
        <time>2022-08-03T07:59:23.000Z</time>
      </trkpt>
      <trkpt lat="42.80063278041779994964599609375" lon="-0.2230431139469146728515625">
        <ele>2514.800048828125</ele>
        <time>2022-08-03T07:59:43.000Z</time>
      </trkpt>
      <trkpt lat="42.80056455172598361968994140625" lon="-0.22281571291387081146240234375">
        <ele>2514.39990234375</ele>
        <time>2022-08-03T08:00:03.000Z</time>
      </trkpt>
      <trkpt lat="42.80051258392632007598876953125" lon="-0.22258755750954151153564453125">
        <ele>2515.60009765625</ele>
        <time>2022-08-03T08:00:30.000Z</time>
      </trkpt>
      <trkpt lat="42.8004799783229827880859375" lon="-0.222348757088184356689453125">
        <ele>2517.60009765625</ele>
        <time>2022-08-03T08:00:51.000Z</time>
      </trkpt>
      <trkpt lat="42.8005267493426799774169921875" lon="-0.2222791872918605804443359375">
        <ele>2520</ele>
        <time>2022-08-03T08:01:09.000Z</time>
      </trkpt>
      <trkpt lat="42.80066178180277347564697265625" lon="-0.222438611090183258056640625">
        <ele>2522.800048828125</ele>
        <time>2022-08-03T08:01:30.000Z</time>
      </trkpt>
      <trkpt lat="42.80077326111495494842529296875" lon="-0.22262929938733577728271484375">
        <ele>2525</ele>
        <time>2022-08-03T08:01:50.000Z</time>
      </trkpt>
      <trkpt lat="42.80085724778473377227783203125" lon="-0.2228491567075252532958984375">
        <ele>2526.199951171875</ele>
        <time>2022-08-03T08:02:10.000Z</time>
      </trkpt>
      <trkpt lat="42.80095883645117282867431640625" lon="-0.22305761463940143585205078125">
        <ele>2528.60009765625</ele>
        <time>2022-08-03T08:02:31.000Z</time>
      </trkpt>
      <trkpt lat="42.80101030133664608001708984375" lon="-0.2232672460377216339111328125">
        <ele>2529</ele>
        <time>2022-08-03T08:02:55.000Z</time>
      </trkpt>
      <trkpt lat="42.80097761191427707672119140625" lon="-0.22349833510816097259521484375">
        <ele>2526.39990234375</ele>
        <time>2022-08-03T08:03:20.000Z</time>
      </trkpt>
      <trkpt lat="42.80094911344349384307861328125" lon="-0.22361450828611850738525390625">
        <ele>2525.800048828125</ele>
        <time>2022-08-03T08:03:30.000Z</time>
      </trkpt>
      <trkpt lat="42.80110468156635761260986328125" lon="-0.223550386726856231689453125">
        <ele>2530.800048828125</ele>
        <time>2022-08-03T08:03:51.000Z</time>
      </trkpt>
      <trkpt lat="42.8011332638561725616455078125" lon="-0.2233636379241943359375">
        <ele>2532.39990234375</ele>
        <time>2022-08-03T08:04:06.000Z</time>
      </trkpt>
      <trkpt lat="42.80120375566184520721435546875" lon="-0.22347562015056610107421875">
        <ele>2534.199951171875</ele>
        <time>2022-08-03T08:04:39.000Z</time>
      </trkpt>
      <trkpt lat="42.80134423635900020599365234375" lon="-0.22360092960298061370849609375">
        <ele>2536.60009765625</ele>
        <time>2022-08-03T08:05:06.000Z</time>
      </trkpt>
      <trkpt lat="42.80142017640173435211181640625" lon="-0.22362138144671916961669921875">
        <ele>2537.800048828125</ele>
        <time>2022-08-03T08:06:13.000Z</time>
      </trkpt>
      <trkpt lat="42.80152562074363231658935546875" lon="-0.22378667257726192474365234375">
        <ele>2538.60009765625</ele>
        <time>2022-08-03T08:07:01.000Z</time>
      </trkpt>
      <trkpt lat="42.80158462934195995330810546875" lon="-0.2238566614687442779541015625">
        <ele>2538.60009765625</ele>
        <time>2022-08-03T08:07:48.000Z</time>
      </trkpt>
      <trkpt lat="42.8014775924384593963623046875" lon="-0.2236652188003063201904296875">
        <ele>2538.800048828125</ele>
        <time>2022-08-03T08:08:08.000Z</time>
      </trkpt>
      <trkpt lat="42.8014702163636684417724609375" lon="-0.22365272976458072662353515625">
        <ele>2538.800048828125</ele>
        <time>2022-08-03T08:09:49.000Z</time>
      </trkpt>
      <trkpt lat="42.80147977173328399658203125" lon="-0.22369078360497951507568359375">
        <ele>2539</ele>
        <time>2022-08-03T08:11:14.000Z</time>
      </trkpt>
      <trkpt lat="42.8014802746474742889404296875" lon="-0.22365742363035678863525390625">
        <ele>2538.800048828125</ele>
        <time>2022-08-03T08:13:10.000Z</time>
      </trkpt>
      <trkpt lat="42.80145554803311824798583984375" lon="-0.22367536090314388275146484375">
        <ele>2538.800048828125</ele>
        <time>2022-08-03T08:15:10.000Z</time>
      </trkpt>
      <trkpt lat="42.801466695964336395263671875" lon="-0.22367888130247592926025390625">
        <ele>2539</ele>
        <time>2022-08-03T08:19:26.000Z</time>
      </trkpt>
      <trkpt lat="42.801474742591381072998046875" lon="-0.2236803062260150909423828125">
        <ele>2539</ele>
        <time>2022-08-03T08:22:06.000Z</time>
      </trkpt>
      <trkpt lat="42.8014671988785266876220703125" lon="-0.22364552132785320281982421875">
        <ele>2538.800048828125</ele>
        <time>2022-08-03T08:23:59.000Z</time>
      </trkpt>
      <trkpt lat="42.80139318667352199554443359375" lon="-0.2235696651041507720947265625">
        <ele>2537.199951171875</ele>
        <time>2022-08-03T08:25:09.000Z</time>
      </trkpt>
      <trkpt lat="42.80137650668621063232421875" lon="-0.2233369834721088409423828125">
        <ele>2536</ele>
        <time>2022-08-03T08:25:32.000Z</time>
      </trkpt>
      <trkpt lat="42.80148983001708984375" lon="-0.2233353070914745330810546875">
        <ele>2536.800048828125</ele>
        <time>2022-08-03T08:25:51.000Z</time>
      </trkpt>
      <trkpt lat="42.8015168197453022003173828125" lon="-0.2233031205832958221435546875">
        <ele>2536</ele>
        <time>2022-08-03T08:25:56.000Z</time>
      </trkpt>
      <trkpt lat="42.80166476033627986907958984375" lon="-0.22318233735859394073486328125">
        <ele>2532.60009765625</ele>
        <time>2022-08-03T08:26:21.000Z</time>
      </trkpt>
      <trkpt lat="42.80183725990355014801025390625" lon="-0.22310639731585979461669921875">
        <ele>2528</ele>
        <time>2022-08-03T08:26:42.000Z</time>
      </trkpt>
      <trkpt lat="42.80201076529920101165771484375" lon="-0.223036743700504302978515625">
        <ele>2522</ele>
        <time>2022-08-03T08:27:02.000Z</time>
      </trkpt>
      <trkpt lat="42.80218577943742275238037109375" lon="-0.2230017073452472686767578125">
        <ele>2517.800048828125</ele>
        <time>2022-08-03T08:27:26.000Z</time>
      </trkpt>
      <trkpt lat="42.80226700007915496826171875" lon="-0.22297346033155918121337890625">
        <ele>2516</ele>
        <time>2022-08-03T08:27:35.000Z</time>
      </trkpt>
      <trkpt lat="42.8023280203342437744140625" lon="-0.22296088747680187225341796875">
        <ele>2514.800048828125</ele>
        <time>2022-08-03T08:27:42.000Z</time>
      </trkpt>
      <trkpt lat="42.8023362345993518829345703125" lon="-0.2229591272771358489990234375">
        <ele>2514.60009765625</ele>
        <time>2022-08-03T08:27:43.000Z</time>
      </trkpt>
      <trkpt lat="42.80248769558966159820556640625" lon="-0.222818814218044281005859375">
        <ele>2513.39990234375</ele>
        <time>2022-08-03T08:28:09.000Z</time>
      </trkpt>
      <trkpt lat="42.80257805250585079193115234375" lon="-0.222625024616718292236328125">
        <ele>2514.60009765625</ele>
        <time>2022-08-03T08:28:34.000Z</time>
      </trkpt>
      <trkpt lat="42.8027462773025035858154296875" lon="-0.2225289680063724517822265625">
        <ele>2510.199951171875</ele>
        <time>2022-08-03T08:28:56.000Z</time>
      </trkpt>
      <trkpt lat="42.80291517265141010284423828125" lon="-0.22245177067816257476806640625">
        <ele>2504</ele>
        <time>2022-08-03T08:29:17.000Z</time>
      </trkpt>
      <trkpt lat="42.80307292006909847259521484375" lon="-0.222331993281841278076171875">
        <ele>2497</ele>
        <time>2022-08-03T08:29:32.000Z</time>
      </trkpt>
      <trkpt lat="42.80325950123369693756103515625" lon="-0.222322940826416015625">
        <ele>2489.800048828125</ele>
        <time>2022-08-03T08:29:48.000Z</time>
      </trkpt>
      <trkpt lat="42.8034275583922863006591796875" lon="-0.22222059778869152069091796875">
        <ele>2487.199951171875</ele>
        <time>2022-08-03T08:30:05.000Z</time>
      </trkpt>
      <trkpt lat="42.8035338409245014190673828125" lon="-0.22202513180673122406005859375">
        <ele>2488.60009765625</ele>
        <time>2022-08-03T08:30:22.000Z</time>
      </trkpt>
      <trkpt lat="42.8037142194807529449462890625" lon="-0.22199361585080623626708984375">
        <ele>2485.800048828125</ele>
        <time>2022-08-03T08:30:41.000Z</time>
      </trkpt>
      <trkpt lat="42.80388864688575267791748046875" lon="-0.2219432406127452850341796875">
        <ele>2482</ele>
        <time>2022-08-03T08:31:01.000Z</time>
      </trkpt>
      <trkpt lat="42.80405762605369091033935546875" lon="-0.22193829528987407684326171875">
        <ele>2478.199951171875</ele>
        <time>2022-08-03T08:31:27.000Z</time>
      </trkpt>
      <trkpt lat="42.8042406029999256134033203125" lon="-0.221900828182697296142578125">
        <ele>2475</ele>
        <time>2022-08-03T08:31:48.000Z</time>
      </trkpt>
      <trkpt lat="42.804390303790569305419921875" lon="-0.22177903912961483001708984375">
        <ele>2471</ele>
        <time>2022-08-03T08:32:11.000Z</time>
      </trkpt>
      <trkpt lat="42.80451175756752490997314453125" lon="-0.22164828144013881683349609375">
        <ele>2467.39990234375</ele>
        <time>2022-08-03T08:32:52.000Z</time>
      </trkpt>
      <trkpt lat="42.804587781429290771484375" lon="-0.2217581681907176971435546875">
        <ele>2464.39990234375</ele>
        <time>2022-08-03T08:33:12.000Z</time>
      </trkpt>
      <trkpt lat="42.80467906035482883453369140625" lon="-0.22172204218804836273193359375">
        <ele>2460.60009765625</ele>
        <time>2022-08-03T08:34:05.000Z</time>
      </trkpt>
      <trkpt lat="42.80483395792543888092041015625" lon="-0.2217819727957248687744140625">
        <ele>2456.199951171875</ele>
        <time>2022-08-03T08:34:29.000Z</time>
      </trkpt>
      <trkpt lat="42.804940156638622283935546875" lon="-0.22175230085849761962890625">
        <ele>2452.800048828125</ele>
        <time>2022-08-03T08:35:04.000Z</time>
      </trkpt>
      <trkpt lat="42.8049969859421253204345703125" lon="-0.22172606550157070159912109375">
        <ele>2450.60009765625</ele>
        <time>2022-08-03T08:35:17.000Z</time>
      </trkpt>
      <trkpt lat="42.8049983270466327667236328125" lon="-0.22166521288454532623291015625">
        <ele>2450.39990234375</ele>
        <time>2022-08-03T08:35:21.000Z</time>
      </trkpt>
      <trkpt lat="42.80499002896249294281005859375" lon="-0.22165062837302684783935546875">
        <ele>2450.39990234375</ele>
        <time>2022-08-03T08:35:22.000Z</time>
      </trkpt>
      <trkpt lat="42.80497745610773563385009765625" lon="-0.2216116525232791900634765625">
        <ele>2450.39990234375</ele>
        <time>2022-08-03T08:35:26.000Z</time>
      </trkpt>
      <trkpt lat="42.80495298095047473907470703125" lon="-0.22150696255266666412353515625">
        <ele>2450.39990234375</ele>
        <time>2022-08-03T08:35:37.000Z</time>
      </trkpt>
      <trkpt lat="42.8050050325691699981689453125" lon="-0.221467651426792144775390625">
        <ele>2448.800048828125</ele>
        <time>2022-08-03T08:35:59.000Z</time>
      </trkpt>
      <trkpt lat="42.80514635145664215087890625" lon="-0.221521295607089996337890625">
        <ele>2444.60009765625</ele>
        <time>2022-08-03T08:36:15.000Z</time>
      </trkpt>
      <trkpt lat="42.80515481717884540557861328125" lon="-0.221464969217777252197265625">
        <ele>2444</ele>
        <time>2022-08-03T08:36:20.000Z</time>
      </trkpt>
      <trkpt lat="42.8051927872002124786376953125" lon="-0.22131375968456268310546875">
        <ele>2442.199951171875</ele>
        <time>2022-08-03T08:36:45.000Z</time>
      </trkpt>
      <trkpt lat="42.8053258918225765228271484375" lon="-0.221347622573375701904296875">
        <ele>2437.39990234375</ele>
        <time>2022-08-03T08:37:02.000Z</time>
      </trkpt>
      <trkpt lat="42.80541457235813140869140625" lon="-0.22117403335869312286376953125">
        <ele>2433.199951171875</ele>
        <time>2022-08-03T08:37:23.000Z</time>
      </trkpt>
      <trkpt lat="42.80552295036613941192626953125" lon="-0.22096909582614898681640625">
        <ele>2428.199951171875</ele>
        <time>2022-08-03T08:37:41.000Z</time>
      </trkpt>
      <trkpt lat="42.805577181279659271240234375" lon="-0.22082551382482051849365234375">
        <ele>2425.39990234375</ele>
        <time>2022-08-03T08:37:53.000Z</time>
      </trkpt>
      <trkpt lat="42.805742137134075164794921875" lon="-0.22069752216339111328125">
        <ele>2419</ele>
        <time>2022-08-03T08:38:12.000Z</time>
      </trkpt>
      <trkpt lat="42.80586258508265018463134765625" lon="-0.22052192129194736480712890625">
        <ele>2412.39990234375</ele>
        <time>2022-08-03T08:38:33.000Z</time>
      </trkpt>
      <trkpt lat="42.8059763275086879730224609375" lon="-0.22032176144421100616455078125">
        <ele>2405</ele>
        <time>2022-08-03T08:38:55.000Z</time>
      </trkpt>
      <trkpt lat="42.8060080111026763916015625" lon="-0.2202222682535648345947265625">
        <ele>2401.800048828125</ele>
        <time>2022-08-03T08:39:05.000Z</time>
      </trkpt>
      <trkpt lat="42.8059954382479190826416015625" lon="-0.2201646007597446441650390625">
        <ele>2400.800048828125</ele>
        <time>2022-08-03T08:39:11.000Z</time>
      </trkpt>
      <trkpt lat="42.8061573766171932220458984375" lon="-0.22005219943821430206298828125">
        <ele>2392.800048828125</ele>
        <time>2022-08-03T08:39:38.000Z</time>
      </trkpt>
      <trkpt lat="42.8063325583934783935546875" lon="-0.22000056691467761993408203125">
        <ele>2388.800048828125</ele>
        <time>2022-08-03T08:40:02.000Z</time>
      </trkpt>
      <trkpt lat="42.80649944208562374114990234375" lon="-0.22004733793437480926513671875">
        <ele>2387.800048828125</ele>
        <time>2022-08-03T08:40:23.000Z</time>
      </trkpt>
      <trkpt lat="42.8066115081310272216796875" lon="-0.22024112753570079803466796875">
        <ele>2394</ele>
        <time>2022-08-03T08:40:43.000Z</time>
      </trkpt>
      <trkpt lat="42.80664579011499881744384765625" lon="-0.2202460728585720062255859375">
        <ele>2394.60009765625</ele>
        <time>2022-08-03T08:40:47.000Z</time>
      </trkpt>
      <trkpt lat="42.80682331882417201995849609375" lon="-0.220172815024852752685546875">
        <ele>2393.199951171875</ele>
        <time>2022-08-03T08:41:09.000Z</time>
      </trkpt>
      <trkpt lat="42.80699037015438079833984375" lon="-0.22007080726325511932373046875">
        <ele>2389.800048828125</ele>
        <time>2022-08-03T08:41:29.000Z</time>
      </trkpt>
      <trkpt lat="42.80714116059243679046630859375" lon="-0.21993820555508136749267578125">
        <ele>2384</ele>
        <time>2022-08-03T08:41:48.000Z</time>
      </trkpt>
      <trkpt lat="42.8072926215827465057373046875" lon="-0.219808705151081085205078125">
        <ele>2376</ele>
        <time>2022-08-03T08:42:11.000Z</time>
      </trkpt>
      <trkpt lat="42.80743352137506008148193359375" lon="-0.2196569927036762237548828125">
        <ele>2369.39990234375</ele>
        <time>2022-08-03T08:42:28.000Z</time>
      </trkpt>
      <trkpt lat="42.8075953759253025054931640625" lon="-0.21964450366795063018798828125">
        <ele>2370.199951171875</ele>
        <time>2022-08-03T08:42:49.000Z</time>
      </trkpt>
      <trkpt lat="42.80759160406887531280517578125" lon="-0.21963092498481273651123046875">
        <ele>2369.800048828125</ele>
        <time>2022-08-03T08:42:52.000Z</time>
      </trkpt>
      <trkpt lat="42.8075662069022655487060546875" lon="-0.21959018893539905548095703125">
        <ele>2368.39990234375</ele>
        <time>2022-08-03T08:42:56.000Z</time>
      </trkpt>
      <trkpt lat="42.80746168456971645355224609375" lon="-0.21938030607998371124267578125">
        <ele>2362.39990234375</ele>
        <time>2022-08-03T08:43:17.000Z</time>
      </trkpt>
      <trkpt lat="42.8073419071733951568603515625" lon="-0.21918768994510173797607421875">
        <ele>2356.199951171875</ele>
        <time>2022-08-03T08:43:43.000Z</time>
      </trkpt>
      <trkpt lat="42.80745171010494232177734375" lon="-0.21905994974076747894287109375">
        <ele>2353.60009765625</ele>
        <time>2022-08-03T08:44:08.000Z</time>
      </trkpt>
      <trkpt lat="42.807366885244846343994140625" lon="-0.218833722174167633056640625">
        <ele>2345.199951171875</ele>
        <time>2022-08-03T08:44:30.000Z</time>
      </trkpt>
      <trkpt lat="42.8073284961283206939697265625" lon="-0.21860280074179172515869140625">
        <ele>2339.60009765625</ele>
        <time>2022-08-03T08:44:53.000Z</time>
      </trkpt>
      <trkpt lat="42.8073221258819103240966796875" lon="-0.2183638326823711395263671875">
        <ele>2335.199951171875</ele>
        <time>2022-08-03T08:45:16.000Z</time>
      </trkpt>
      <trkpt lat="42.807420194149017333984375" lon="-0.2181614935398101806640625">
        <ele>2332.60009765625</ele>
        <time>2022-08-03T08:45:37.000Z</time>
      </trkpt>
      <trkpt lat="42.8074723295867443084716796875" lon="-0.21793409250676631927490234375">
        <ele>2327.60009765625</ele>
        <time>2022-08-03T08:45:57.000Z</time>
      </trkpt>
      <trkpt lat="42.80747945420444011688232421875" lon="-0.21793057210743427276611328125">
        <ele>2327.60009765625</ele>
        <time>2022-08-03T08:47:22.000Z</time>
      </trkpt>
      <trkpt lat="42.80746151693165302276611328125" lon="-0.21794029511511325836181640625">
        <ele>2327.800048828125</ele>
        <time>2022-08-03T08:48:50.000Z</time>
      </trkpt>
      <trkpt lat="42.80728348530828952789306640625" lon="-0.21790291182696819305419921875">
        <ele>2324</ele>
        <time>2022-08-03T08:49:15.000Z</time>
      </trkpt>
      <trkpt lat="42.807105369865894317626953125" lon="-0.21795085631310939788818359375">
        <ele>2319.60009765625</ele>
        <time>2022-08-03T08:49:34.000Z</time>
      </trkpt>
      <trkpt lat="42.8069580160081386566162109375" lon="-0.2179256267845630645751953125">
        <ele>2315.60009765625</ele>
        <time>2022-08-03T08:49:52.000Z</time>
      </trkpt>
      <trkpt lat="42.80700772069394588470458984375" lon="-0.2176947891712188720703125">
        <ele>2310.39990234375</ele>
        <time>2022-08-03T08:50:13.000Z</time>
      </trkpt>
      <trkpt lat="42.80714057385921478271484375" lon="-0.217552296817302703857421875">
        <ele>2306.60009765625</ele>
        <time>2022-08-03T08:50:38.000Z</time>
      </trkpt>
      <trkpt lat="42.80714803375303745269775390625" lon="-0.2173821441829204559326171875">
        <ele>2298.199951171875</ele>
        <time>2022-08-03T08:51:08.000Z</time>
      </trkpt>
      <trkpt lat="42.807273678481578826904296875" lon="-0.2171913720667362213134765625">
        <ele>2289.199951171875</ele>
        <time>2022-08-03T08:51:30.000Z</time>
      </trkpt>
      <trkpt lat="42.807347774505615234375" lon="-0.21697201766073703765869140625">
        <ele>2281</ele>
        <time>2022-08-03T08:51:55.000Z</time>
      </trkpt>
      <trkpt lat="42.8074458427727222442626953125" lon="-0.2168661542236804962158203125">
        <ele>2278.60009765625</ele>
        <time>2022-08-03T08:52:12.000Z</time>
      </trkpt>
      <trkpt lat="42.807287089526653289794921875" lon="-0.21683690138161182403564453125">
        <ele>2275</ele>
        <time>2022-08-03T08:52:42.000Z</time>
      </trkpt>
      <trkpt lat="42.80732120387256145477294921875" lon="-0.21664110012352466583251953125">
        <ele>2269.800048828125</ele>
        <time>2022-08-03T08:53:14.000Z</time>
      </trkpt>
      <trkpt lat="42.80733763240277767181396484375" lon="-0.21647262386977672576904296875">
        <ele>2266.39990234375</ele>
        <time>2022-08-03T08:53:31.000Z</time>
      </trkpt>
      <trkpt lat="42.8072316013276576995849609375" lon="-0.2165164612233638763427734375">
        <ele>2267.800048828125</ele>
        <time>2022-08-03T08:53:39.000Z</time>
      </trkpt>
      <trkpt lat="42.80706337653100490570068359375" lon="-0.21655761636793613433837890625">
        <ele>2270.199951171875</ele>
        <time>2022-08-03T08:53:56.000Z</time>
      </trkpt>
      <trkpt lat="42.80704812146723270416259765625" lon="-0.216526687145233154296875">
        <ele>2269</ele>
        <time>2022-08-03T08:54:00.000Z</time>
      </trkpt>
      <trkpt lat="42.80697553418576717376708984375" lon="-0.2163295447826385498046875">
        <ele>2262</ele>
        <time>2022-08-03T08:54:27.000Z</time>
      </trkpt>
      <trkpt lat="42.80696430243551731109619140625" lon="-0.2162455581128597259521484375">
        <ele>2259</ele>
        <time>2022-08-03T08:54:37.000Z</time>
      </trkpt>
      <trkpt lat="42.8069083951413631439208984375" lon="-0.2162552811205387115478515625">
        <ele>2259.800048828125</ele>
        <time>2022-08-03T08:54:41.000Z</time>
      </trkpt>
      <trkpt lat="42.80680353753268718719482421875" lon="-0.2161148004233837127685546875">
        <ele>2256</ele>
        <time>2022-08-03T08:54:58.000Z</time>
      </trkpt>
      <trkpt lat="42.80669532716274261474609375" lon="-0.2159414626657962799072265625">
        <ele>2248.60009765625</ele>
        <time>2022-08-03T08:55:25.000Z</time>
      </trkpt>
      <trkpt lat="42.8065479733049869537353515625" lon="-0.215818583965301513671875">
        <ele>2243</ele>
        <time>2022-08-03T08:55:45.000Z</time>
      </trkpt>
      <trkpt lat="42.80639517121016979217529296875" lon="-0.21570065058767795562744140625">
        <ele>2238.199951171875</ele>
        <time>2022-08-03T08:56:11.000Z</time>
      </trkpt>
      <trkpt lat="42.80635527335107326507568359375" lon="-0.21567843854427337646484375">
        <ele>2237.199951171875</ele>
        <time>2022-08-03T08:56:16.000Z</time>
      </trkpt>
      <trkpt lat="42.80617925338447093963623046875" lon="-0.21557492204010486602783203125">
        <ele>2233.39990234375</ele>
        <time>2022-08-03T08:56:36.000Z</time>
      </trkpt>
      <trkpt lat="42.80608638189733028411865234375" lon="-0.21544910967350006103515625">
        <ele>2228.800048828125</ele>
        <time>2022-08-03T08:57:19.000Z</time>
      </trkpt>
      <trkpt lat="42.8060209192335605621337890625" lon="-0.2152511291205883026123046875">
        <ele>2220</ele>
        <time>2022-08-03T08:57:48.000Z</time>
      </trkpt>
      <trkpt lat="42.80590667389333248138427734375" lon="-0.215079300105571746826171875">
        <ele>2214.800048828125</ele>
        <time>2022-08-03T08:58:30.000Z</time>
      </trkpt>
      <trkpt lat="42.805791758000850677490234375" lon="-0.21489950828254222869873046875">
        <ele>2211.199951171875</ele>
        <time>2022-08-03T08:58:56.000Z</time>
      </trkpt>
      <trkpt lat="42.805669717490673065185546875" lon="-0.2147763781249523162841796875">
        <ele>2210.800048828125</ele>
        <time>2022-08-03T08:59:29.000Z</time>
      </trkpt>
      <trkpt lat="42.8058462403714656829833984375" lon="-0.21472332067787647247314453125">
        <ele>2202.60009765625</ele>
        <time>2022-08-03T08:59:49.000Z</time>
      </trkpt>
      <trkpt lat="42.80602301470935344696044921875" lon="-0.2147203870117664337158203125">
        <ele>2197.800048828125</ele>
        <time>2022-08-03T09:00:10.000Z</time>
      </trkpt>
      <trkpt lat="42.806198783218860626220703125" lon="-0.214752741158008575439453125">
        <ele>2195.800048828125</ele>
        <time>2022-08-03T09:00:43.000Z</time>
      </trkpt>
      <trkpt lat="42.80631244182586669921875" lon="-0.214703790843486785888671875">
        <ele>2193.60009765625</ele>
        <time>2022-08-03T09:01:12.000Z</time>
      </trkpt>
      <trkpt lat="42.8062494099140167236328125" lon="-0.2144763059914112091064453125">
        <ele>2184</ele>
        <time>2022-08-03T09:01:35.000Z</time>
      </trkpt>
      <trkpt lat="42.80614824034273624420166015625" lon="-0.21427019499242305755615234375">
        <ele>2177.39990234375</ele>
        <time>2022-08-03T09:01:55.000Z</time>
      </trkpt>
      <trkpt lat="42.8060125373303890228271484375" lon="-0.2141006290912628173828125">
        <ele>2176.800048828125</ele>
        <time>2022-08-03T09:02:14.000Z</time>
      </trkpt>
      <trkpt lat="42.80594137497246265411376953125" lon="-0.21402393467724323272705078125">
        <ele>2176.800048828125</ele>
        <time>2022-08-03T09:03:20.000Z</time>
      </trkpt>
      <trkpt lat="42.80593617819249629974365234375" lon="-0.21399828605353832244873046875">
        <ele>2176.199951171875</ele>
        <time>2022-08-03T09:05:06.000Z</time>
      </trkpt>
      <trkpt lat="42.805917821824550628662109375" lon="-0.213844142854213714599609375">
        <ele>2172.199951171875</ele>
        <time>2022-08-03T09:05:43.000Z</time>
      </trkpt>
      <trkpt lat="42.80587767250835895538330078125" lon="-0.21360400132834911346435546875">
        <ele>2167.39990234375</ele>
        <time>2022-08-03T09:06:04.000Z</time>
      </trkpt>
      <trkpt lat="42.80583626590669155120849609375" lon="-0.213462598621845245361328125">
        <ele>2166.800048828125</ele>
        <time>2022-08-03T09:06:46.000Z</time>
      </trkpt>
      <trkpt lat="42.80589527450501918792724609375" lon="-0.2133675478398799896240234375">
        <ele>2162.800048828125</ele>
        <time>2022-08-03T09:07:21.000Z</time>
      </trkpt>
      <trkpt lat="42.80604916624724864959716796875" lon="-0.2135284803807735443115234375">
        <ele>2157.39990234375</ele>
        <time>2022-08-03T09:07:47.000Z</time>
      </trkpt>
      <trkpt lat="42.80621747486293315887451171875" lon="-0.213616825640201568603515625">
        <ele>2151.39990234375</ele>
        <time>2022-08-03T09:08:09.000Z</time>
      </trkpt>
      <trkpt lat="42.80639399774372577667236328125" lon="-0.21362713538110256195068359375">
        <ele>2145.39990234375</ele>
        <time>2022-08-03T09:08:37.000Z</time>
      </trkpt>
      <trkpt lat="42.8064661659300327301025390625" lon="-0.21362696774303913116455078125">
        <ele>2143.60009765625</ele>
        <time>2022-08-03T09:08:48.000Z</time>
      </trkpt>
      <trkpt lat="42.8065439499914646148681640625" lon="-0.21352537907660007476806640625">
        <ele>2138.39990234375</ele>
        <time>2022-08-03T09:09:11.000Z</time>
      </trkpt>
      <trkpt lat="42.80661846511065959930419921875" lon="-0.2134094573557376861572265625">
        <ele>2133.800048828125</ele>
        <time>2022-08-03T09:09:38.000Z</time>
      </trkpt>
      <trkpt lat="42.80679322779178619384765625" lon="-0.21342798136174678802490234375">
        <ele>2130</ele>
        <time>2022-08-03T09:10:03.000Z</time>
      </trkpt>
      <trkpt lat="42.80694083310663700103759765625" lon="-0.2135247923433780670166015625">
        <ele>2128.39990234375</ele>
        <time>2022-08-03T09:10:27.000Z</time>
      </trkpt>
      <trkpt lat="42.80709958635270595550537109375" lon="-0.2135143987834453582763671875">
        <ele>2124.199951171875</ele>
        <time>2022-08-03T09:10:57.000Z</time>
      </trkpt>
      <trkpt lat="42.80726320110261440277099609375" lon="-0.21339763887226581573486328125">
        <ele>2117</ele>
        <time>2022-08-03T09:11:17.000Z</time>
      </trkpt>
      <trkpt lat="42.80743033625185489654541015625" lon="-0.21330158226191997528076171875">
        <ele>2115</ele>
        <time>2022-08-03T09:11:37.000Z</time>
      </trkpt>
      <trkpt lat="42.8075876645743846893310546875" lon="-0.21318800747394561767578125">
        <ele>2113</ele>
        <time>2022-08-03T09:11:56.000Z</time>
      </trkpt>
      <trkpt lat="42.80760149471461772918701171875" lon="-0.21315858699381351470947265625">
        <ele>2112</ele>
        <time>2022-08-03T09:11:59.000Z</time>
      </trkpt>
      <trkpt lat="42.807430587708950042724609375" lon="-0.2131181024014949798583984375">
        <ele>2107</ele>
        <time>2022-08-03T09:12:15.000Z</time>
      </trkpt>
      <trkpt lat="42.80737032182514667510986328125" lon="-0.2130906097590923309326171875">
        <ele>2106</ele>
        <time>2022-08-03T09:12:21.000Z</time>
      </trkpt>
      <trkpt lat="42.8074763529002666473388671875" lon="-0.21302565000951290130615234375">
        <ele>2104.199951171875</ele>
        <time>2022-08-03T09:12:44.000Z</time>
      </trkpt>
      <trkpt lat="42.807617001235485076904296875" lon="-0.21286572329699993133544921875">
        <ele>2099</ele>
        <time>2022-08-03T09:13:07.000Z</time>
      </trkpt>
      <trkpt lat="42.80769637785851955413818359375" lon="-0.212760865688323974609375">
        <ele>2096.60009765625</ele>
        <time>2022-08-03T09:13:20.000Z</time>
      </trkpt>
      <trkpt lat="42.80768078751862049102783203125" lon="-0.21264343522489070892333984375">
        <ele>2089.800048828125</ele>
        <time>2022-08-03T09:13:44.000Z</time>
      </trkpt>
      <trkpt lat="42.80785580165684223175048828125" lon="-0.21258576773107051849365234375">
        <ele>2090.60009765625</ele>
        <time>2022-08-03T09:14:18.000Z</time>
      </trkpt>
      <trkpt lat="42.80802176333963871002197265625" lon="-0.21247722208499908447265625">
        <ele>2081.39990234375</ele>
        <time>2022-08-03T09:14:36.000Z</time>
      </trkpt>
      <trkpt lat="42.8081814385950565338134765625" lon="-0.2123717777431011199951171875">
        <ele>2072.800048828125</ele>
        <time>2022-08-03T09:15:03.000Z</time>
      </trkpt>
      <trkpt lat="42.808351926505565643310546875" lon="-0.2122785709798336029052734375">
        <ele>2064.60009765625</ele>
        <time>2022-08-03T09:15:25.000Z</time>
      </trkpt>
      <trkpt lat="42.80853532254695892333984375" lon="-0.212230123579502105712890625">
        <ele>2059.60009765625</ele>
        <time>2022-08-03T09:15:45.000Z</time>
      </trkpt>
      <trkpt lat="42.8087165392935276031494140625" lon="-0.21219785325229167938232421875">
        <ele>2055.60009765625</ele>
        <time>2022-08-03T09:16:04.000Z</time>
      </trkpt>
      <trkpt lat="42.80885207466781139373779296875" lon="-0.21204404532909393310546875">
        <ele>2047</ele>
        <time>2022-08-03T09:16:25.000Z</time>
      </trkpt>
      <trkpt lat="42.80896170996129512786865234375" lon="-0.21187833510339260101318359375">
        <ele>2038.800048828125</ele>
        <time>2022-08-03T09:17:03.000Z</time>
      </trkpt>
      <trkpt lat="42.8090335428714752197265625" lon="-0.21182452328503131866455078125">
        <ele>2035</ele>
        <time>2022-08-03T09:18:00.000Z</time>
      </trkpt>
      <trkpt lat="42.8091513924300670623779296875" lon="-0.211642049252986907958984375">
        <ele>2025.800048828125</ele>
        <time>2022-08-03T09:18:25.000Z</time>
      </trkpt>
      <trkpt lat="42.8092871792614459991455078125" lon="-0.2114799432456493377685546875">
        <ele>2018.4000244140625</ele>
        <time>2022-08-03T09:18:47.000Z</time>
      </trkpt>
      <trkpt lat="42.809415757656097412109375" lon="-0.21130551584064960479736328125">
        <ele>2013.800048828125</ele>
        <time>2022-08-03T09:19:03.000Z</time>
      </trkpt>
      <trkpt lat="42.8094585053622722625732421875" lon="-0.21123410202562808990478515625">
        <ele>2012.800048828125</ele>
        <time>2022-08-03T09:19:09.000Z</time>
      </trkpt>
      <trkpt lat="42.80955900438129901885986328125" lon="-0.21108825691044330596923828125">
        <ele>2010.5999755859375</ele>
        <time>2022-08-03T09:19:23.000Z</time>
      </trkpt>
      <trkpt lat="42.80956956557929515838623046875" lon="-0.21108490414917469024658203125">
        <ele>2010.4000244140625</ele>
        <time>2022-08-03T09:19:24.000Z</time>
      </trkpt>
      <trkpt lat="42.809658832848072052001953125" lon="-0.2109736762940883636474609375">
        <ele>2008.5999755859375</ele>
        <time>2022-08-03T09:19:35.000Z</time>
      </trkpt>
      <trkpt lat="42.8097025863826274871826171875" lon="-0.2109180204570293426513671875">
        <ele>2007.4000244140625</ele>
        <time>2022-08-03T09:19:41.000Z</time>
      </trkpt>
      <trkpt lat="42.80971189029514789581298828125" lon="-0.21083629690110683441162109375">
        <ele>2006</ele>
        <time>2022-08-03T09:19:47.000Z</time>
      </trkpt>
      <trkpt lat="42.8097143210470676422119140625" lon="-0.210738144814968109130859375">
        <ele>2004.800048828125</ele>
        <time>2022-08-03T09:19:54.000Z</time>
      </trkpt>
      <trkpt lat="42.80986846424639225006103515625" lon="-0.21060847677290439605712890625">
        <ele>2001.199951171875</ele>
        <time>2022-08-03T09:20:09.000Z</time>
      </trkpt>
      <trkpt lat="42.8100157342851161956787109375" lon="-0.21045475266873836517333984375">
        <ele>1998</ele>
        <time>2022-08-03T09:20:23.000Z</time>
      </trkpt>
      <trkpt lat="42.81005521304905414581298828125" lon="-0.210402198135852813720703125">
        <ele>1997.4000244140625</ele>
        <time>2022-08-03T09:20:27.000Z</time>
      </trkpt>
      <trkpt lat="42.810078598558902740478515625" lon="-0.2103282697498798370361328125">
        <ele>1996.4000244140625</ele>
        <time>2022-08-03T09:20:32.000Z</time>
      </trkpt>
      <trkpt lat="42.8101240284740924835205078125" lon="-0.210215784609317779541015625">
        <ele>1995.199951171875</ele>
        <time>2022-08-03T09:20:40.000Z</time>
      </trkpt>
      <trkpt lat="42.81015763990581035614013671875" lon="-0.2101435326039791107177734375">
        <ele>1994.4000244140625</ele>
        <time>2022-08-03T09:20:46.000Z</time>
      </trkpt>
      <trkpt lat="42.81016987748444080352783203125" lon="-0.2101217396557331085205078125">
        <ele>1994.199951171875</ele>
        <time>2022-08-03T09:20:48.000Z</time>
      </trkpt>
      <trkpt lat="42.81021161936223506927490234375" lon="-0.2100302092730998992919921875">
        <ele>1993.4000244140625</ele>
        <time>2022-08-03T09:20:56.000Z</time>
      </trkpt>
      <trkpt lat="42.81030314974486827850341796875" lon="-0.2098132856190204620361328125">
        <ele>1991</ele>
        <time>2022-08-03T09:21:14.000Z</time>
      </trkpt>
      <trkpt lat="42.8103255294263362884521484375" lon="-0.20975989289581775665283203125">
        <ele>1990.4000244140625</ele>
        <time>2022-08-03T09:21:18.000Z</time>
      </trkpt>
      <trkpt lat="42.81035654246807098388671875" lon="-0.20972603000700473785400390625">
        <ele>1990</ele>
        <time>2022-08-03T09:21:22.000Z</time>
      </trkpt>
      <trkpt lat="42.810419909656047821044921875" lon="-0.2096476592123508453369140625">
        <ele>1988.5999755859375</ele>
        <time>2022-08-03T09:21:29.000Z</time>
      </trkpt>
      <trkpt lat="42.8104596398770809173583984375" lon="-0.209610946476459503173828125">
        <ele>1988.199951171875</ele>
        <time>2022-08-03T09:21:33.000Z</time>
      </trkpt>
      <trkpt lat="42.8105246834456920623779296875" lon="-0.20953458733856678009033203125">
        <ele>1987.4000244140625</ele>
        <time>2022-08-03T09:21:40.000Z</time>
      </trkpt>
      <trkpt lat="42.8105712868273258209228515625" lon="-0.2094635926187038421630859375">
        <ele>1986.800048828125</ele>
        <time>2022-08-03T09:21:46.000Z</time>
      </trkpt>
      <trkpt lat="42.81060598790645599365234375" lon="-0.20941690541803836822509765625">
        <ele>1986.4000244140625</ele>
        <time>2022-08-03T09:21:51.000Z</time>
      </trkpt>
      <trkpt lat="42.81067212112247943878173828125" lon="-0.2093717269599437713623046875">
        <ele>1985.5999755859375</ele>
        <time>2022-08-03T09:21:58.000Z</time>
      </trkpt>
      <trkpt lat="42.81074143946170806884765625" lon="-0.209322273731231689453125">
        <ele>1984.800048828125</ele>
        <time>2022-08-03T09:22:06.000Z</time>
      </trkpt>
      <trkpt lat="42.81082467176020145416259765625" lon="-0.209248848259449005126953125">
        <ele>1983.800048828125</ele>
        <time>2022-08-03T09:22:15.000Z</time>
      </trkpt>
      <trkpt lat="42.810908071696758270263671875" lon="-0.20922864787280559539794921875">
        <ele>1982.5999755859375</ele>
        <time>2022-08-03T09:23:35.000Z</time>
      </trkpt>
      <trkpt lat="42.81106338836252689361572265625" lon="-0.2093452401459217071533203125">
        <ele>1980</ele>
        <time>2022-08-03T09:24:06.000Z</time>
      </trkpt>
      <trkpt lat="42.81113170087337493896484375" lon="-0.20942813716828823089599609375">
        <ele>1978.800048828125</ele>
        <time>2022-08-03T09:24:18.000Z</time>
      </trkpt>
      <trkpt lat="42.81131434254348278045654296875" lon="-0.20942796953022480010986328125">
        <ele>1975.5999755859375</ele>
        <time>2022-08-03T09:24:37.000Z</time>
      </trkpt>
      <trkpt lat="42.8113858401775360107421875" lon="-0.20931263454258441925048828125">
        <ele>1975.199951171875</ele>
        <time>2022-08-03T09:24:50.000Z</time>
      </trkpt>
      <trkpt lat="42.811375446617603302001953125" lon="-0.20926536060869693756103515625">
        <ele>1975.4000244140625</ele>
        <time>2022-08-03T09:24:54.000Z</time>
      </trkpt>
      <trkpt lat="42.81150025315582752227783203125" lon="-0.2090884186327457427978515625">
        <ele>1973.4000244140625</ele>
        <time>2022-08-03T09:25:30.000Z</time>
      </trkpt>
      <trkpt lat="42.8116500377655029296875" lon="-0.208981297910213470458984375">
        <ele>1968</ele>
        <time>2022-08-03T09:26:03.000Z</time>
      </trkpt>
      <trkpt lat="42.81178758479654788970947265625" lon="-0.2089630253612995147705078125">
        <ele>1965</ele>
        <time>2022-08-03T09:26:35.000Z</time>
      </trkpt>
      <trkpt lat="42.81178842298686504364013671875" lon="-0.2088969759643077850341796875">
        <ele>1964</ele>
        <time>2022-08-03T09:26:39.000Z</time>
      </trkpt>
      <trkpt lat="42.81186972744762897491455078125" lon="-0.2089707367122173309326171875">
        <ele>1964.5999755859375</ele>
        <time>2022-08-03T09:27:31.000Z</time>
      </trkpt>
      <trkpt lat="42.812008447945117950439453125" lon="-0.2088091336190700531005859375">
        <ele>1961.199951171875</ele>
        <time>2022-08-03T09:27:55.000Z</time>
      </trkpt>
      <trkpt lat="42.81201272271573543548583984375" lon="-0.20876730792224407196044921875">
        <ele>1960.5999755859375</ele>
        <time>2022-08-03T09:27:59.000Z</time>
      </trkpt>
      <trkpt lat="42.8121179156005382537841796875" lon="-0.2085774578154087066650390625">
        <ele>1960</ele>
        <time>2022-08-03T09:28:26.000Z</time>
      </trkpt>
      <trkpt lat="42.8121628426015377044677734375" lon="-0.20853973925113677978515625">
        <ele>1960.4000244140625</ele>
        <time>2022-08-03T09:28:31.000Z</time>
      </trkpt>
      <trkpt lat="42.81219880096614360809326171875" lon="-0.20851417444646358489990234375">
        <ele>1960.800048828125</ele>
        <time>2022-08-03T09:28:35.000Z</time>
      </trkpt>
      <trkpt lat="42.8122146427631378173828125" lon="-0.208497159183025360107421875">
        <ele>1961</ele>
        <time>2022-08-03T09:28:37.000Z</time>
      </trkpt>
      <trkpt lat="42.81230759806931018829345703125" lon="-0.2084490470588207244873046875">
        <ele>1962</ele>
        <time>2022-08-03T09:28:45.000Z</time>
      </trkpt>
      <trkpt lat="42.812347747385501861572265625" lon="-0.20840353332459926605224609375">
        <ele>1961.800048828125</ele>
        <time>2022-08-03T09:28:51.000Z</time>
      </trkpt>
      <trkpt lat="42.812362499535083770751953125" lon="-0.20839263685047626495361328125">
        <ele>1961.800048828125</ele>
        <time>2022-08-03T09:28:53.000Z</time>
      </trkpt>
      <trkpt lat="42.812412120401859283447265625" lon="-0.208387859165668487548828125">
        <ele>1961.800048828125</ele>
        <time>2022-08-03T09:28:57.000Z</time>
      </trkpt>
      <trkpt lat="42.812461741268634796142578125" lon="-0.20836648531258106231689453125">
        <ele>1961.800048828125</ele>
        <time>2022-08-03T09:29:01.000Z</time>
      </trkpt>
      <trkpt lat="42.812544219195842742919921875" lon="-0.20829909481108188629150390625">
        <ele>1961.4000244140625</ele>
        <time>2022-08-03T09:29:09.000Z</time>
      </trkpt>
      <trkpt lat="42.812643460929393768310546875" lon="-0.20810379646718502044677734375">
        <ele>1959.800048828125</ele>
        <time>2022-08-03T09:29:26.000Z</time>
      </trkpt>
      <trkpt lat="42.81276424415409564971923828125" lon="-0.20792526192963123321533203125">
        <ele>1959.199951171875</ele>
        <time>2022-08-03T09:29:43.000Z</time>
      </trkpt>
      <trkpt lat="42.81277514062821865081787109375" lon="-0.2079141139984130859375">
        <ele>1959.199951171875</ele>
        <time>2022-08-03T09:29:44.000Z</time>
      </trkpt>
      <trkpt lat="42.81291008926928043365478515625" lon="-0.207765586674213409423828125">
        <ele>1960.5999755859375</ele>
        <time>2022-08-03T09:29:58.000Z</time>
      </trkpt>
      <trkpt lat="42.81305409036576747894287109375" lon="-0.2075882256031036376953125">
        <ele>1963.5999755859375</ele>
        <time>2022-08-03T09:30:16.000Z</time>
      </trkpt>
      <trkpt lat="42.81317730434238910675048828125" lon="-0.20740524865686893463134765625">
        <ele>1965</ele>
        <time>2022-08-03T09:30:30.000Z</time>
      </trkpt>
      <trkpt lat="42.81319457106292247772216796875" lon="-0.2073768340051174163818359375">
        <ele>1964.800048828125</ele>
        <time>2022-08-03T09:30:32.000Z</time>
      </trkpt>
      <trkpt lat="42.81323832459747791290283203125" lon="-0.207302905619144439697265625">
        <ele>1964.5999755859375</ele>
        <time>2022-08-03T09:30:38.000Z</time>
      </trkpt>
      <trkpt lat="42.81334527768194675445556640625" lon="-0.20716887898743152618408203125">
        <ele>1964</ele>
        <time>2022-08-03T09:30:51.000Z</time>
      </trkpt>
      <trkpt lat="42.81342909671366214752197265625" lon="-0.20709897391498088836669921875">
        <ele>1963.4000244140625</ele>
        <time>2022-08-03T09:30:59.000Z</time>
      </trkpt>
      <trkpt lat="42.81356890685856342315673828125" lon="-0.2070190943777561187744140625">
        <ele>1961.199951171875</ele>
        <time>2022-08-03T09:31:10.000Z</time>
      </trkpt>
      <trkpt lat="42.81365708447992801666259765625" lon="-0.20692907273769378662109375">
        <ele>1959.199951171875</ele>
        <time>2022-08-03T09:31:19.000Z</time>
      </trkpt>
      <trkpt lat="42.8136719204485416412353515625" lon="-0.2069051004946231842041015625">
        <ele>1958.800048828125</ele>
        <time>2022-08-03T09:31:21.000Z</time>
      </trkpt>
      <trkpt lat="42.8137694858014583587646484375" lon="-0.20672547630965709686279296875">
        <ele>1955</ele>
        <time>2022-08-03T09:31:57.000Z</time>
      </trkpt>
      <trkpt lat="42.81391189433634281158447265625" lon="-0.206565968692302703857421875">
        <ele>1951.5999755859375</ele>
        <time>2022-08-03T09:32:14.000Z</time>
      </trkpt>
      <trkpt lat="42.814002670347690582275390625" lon="-0.20646907389163970947265625">
        <ele>1950.199951171875</ele>
        <time>2022-08-03T09:32:23.000Z</time>
      </trkpt>
      <trkpt lat="42.8140534646809101104736328125" lon="-0.20639807917177677154541015625">
        <ele>1949.800048828125</ele>
        <time>2022-08-03T09:32:29.000Z</time>
      </trkpt>
      <trkpt lat="42.8141731582581996917724609375" lon="-0.20624821074306964874267578125">
        <ele>1949.199951171875</ele>
        <time>2022-08-03T09:32:42.000Z</time>
      </trkpt>
      <trkpt lat="42.81428924761712551116943359375" lon="-0.20605291239917278289794921875">
        <ele>1948.800048828125</ele>
        <time>2022-08-03T09:32:56.000Z</time>
      </trkpt>
      <trkpt lat="42.8143002279102802276611328125" lon="-0.20602575503289699554443359375">
        <ele>1948.5999755859375</ele>
        <time>2022-08-03T09:32:58.000Z</time>
      </trkpt>
      <trkpt lat="42.81435160897672176361083984375" lon="-0.2058519981801509857177734375">
        <ele>1949</ele>
        <time>2022-08-03T09:33:09.000Z</time>
      </trkpt>
      <trkpt lat="42.81438161619007587432861328125" lon="-0.205795504152774810791015625">
        <ele>1949.4000244140625</ele>
        <time>2022-08-03T09:33:13.000Z</time>
      </trkpt>
      <trkpt lat="42.81452058814465999603271484375" lon="-0.2056396007537841796875">
        <ele>1950.4000244140625</ele>
        <time>2022-08-03T09:33:28.000Z</time>
      </trkpt>
      <trkpt lat="42.81452444382011890411376953125" lon="-0.20562493242323398590087890625">
        <ele>1950.4000244140625</ele>
        <time>2022-08-03T09:33:29.000Z</time>
      </trkpt>
      <trkpt lat="42.8146264515817165374755859375" lon="-0.20553440786898136138916015625">
        <ele>1948.5999755859375</ele>
        <time>2022-08-03T09:33:41.000Z</time>
      </trkpt>
      <trkpt lat="42.814794592559337615966796875" lon="-0.20544773899018764495849609375">
        <ele>1944.800048828125</ele>
        <time>2022-08-03T09:33:57.000Z</time>
      </trkpt>
      <trkpt lat="42.81497220508754253387451171875" lon="-0.20537464879453182220458984375">
        <ele>1942.5999755859375</ele>
        <time>2022-08-03T09:34:12.000Z</time>
      </trkpt>
      <trkpt lat="42.8150079958140850067138671875" lon="-0.20538143813610076904296875">
        <ele>1942.5999755859375</ele>
        <time>2022-08-03T09:34:16.000Z</time>
      </trkpt>
      <trkpt lat="42.81517990864813327789306640625" lon="-0.20533374510705471038818359375">
        <ele>1943.800048828125</ele>
        <time>2022-08-03T09:34:31.000Z</time>
      </trkpt>
      <trkpt lat="42.8153415955603122711181640625" lon="-0.20519678480923175811767578125">
        <ele>1944.4000244140625</ele>
        <time>2022-08-03T09:34:47.000Z</time>
      </trkpt>
      <trkpt lat="42.81547361053526401519775390625" lon="-0.20501087419688701629638671875">
        <ele>1942.5999755859375</ele>
        <time>2022-08-03T09:35:03.000Z</time>
      </trkpt>
      <trkpt lat="42.81560671515762805938720703125" lon="-0.20484357140958309173583984375">
        <ele>1941.5999755859375</ele>
        <time>2022-08-03T09:35:18.000Z</time>
      </trkpt>
      <trkpt lat="42.81571199186146259307861328125" lon="-0.20464709959924221038818359375">
        <ele>1940.5999755859375</ele>
        <time>2022-08-03T09:35:33.000Z</time>
      </trkpt>
      <trkpt lat="42.81579664908349514007568359375" lon="-0.204530842602252960205078125">
        <ele>1940</ele>
        <time>2022-08-03T09:35:43.000Z</time>
      </trkpt>
      <trkpt lat="42.81588482670485973358154296875" lon="-0.204525478184223175048828125">
        <ele>1940.5999755859375</ele>
        <time>2022-08-03T09:35:50.000Z</time>
      </trkpt>
      <trkpt lat="42.8159652091562747955322265625" lon="-0.20447510294616222381591796875">
        <ele>1939.800048828125</ele>
        <time>2022-08-03T09:35:58.000Z</time>
      </trkpt>
      <trkpt lat="42.816065959632396697998046875" lon="-0.20439195446670055389404296875">
        <ele>1938.199951171875</ele>
        <time>2022-08-03T09:36:07.000Z</time>
      </trkpt>
      <trkpt lat="42.81611951999366283416748046875" lon="-0.2043855004012584686279296875">
        <ele>1937.800048828125</ele>
        <time>2022-08-03T09:36:12.000Z</time>
      </trkpt>
      <trkpt lat="42.81616277061402797698974609375" lon="-0.20435792393982410430908203125">
        <ele>1937.199951171875</ele>
        <time>2022-08-03T09:36:16.000Z</time>
      </trkpt>
      <trkpt lat="42.81618892215192317962646484375" lon="-0.20416899584233760833740234375">
        <ele>1935.5999755859375</ele>
        <time>2022-08-03T09:36:56.000Z</time>
      </trkpt>
      <trkpt lat="42.81620166264474391937255859375" lon="-0.20398308522999286651611328125">
        <ele>1935.800048828125</ele>
        <time>2022-08-03T09:37:54.000Z</time>
      </trkpt>
      <trkpt lat="42.81624491326510906219482421875" lon="-0.203744955360889434814453125">
        <ele>1936.5999755859375</ele>
        <time>2022-08-03T09:38:18.000Z</time>
      </trkpt>
      <trkpt lat="42.81623703427612781524658203125" lon="-0.20349274389445781707763671875">
        <ele>1937</ele>
        <time>2022-08-03T09:38:34.000Z</time>
      </trkpt>
      <trkpt lat="42.8162951208651065826416015625" lon="-0.20325888879597187042236328125">
        <ele>1935</ele>
        <time>2022-08-03T09:38:54.000Z</time>
      </trkpt>
      <trkpt lat="42.81634868122637271881103515625" lon="-0.2030242793262004852294921875">
        <ele>1930</ele>
        <time>2022-08-03T09:39:14.000Z</time>
      </trkpt>
      <trkpt lat="42.8163363598287105560302734375" lon="-0.20288891158998012542724609375">
        <ele>1928.5999755859375</ele>
        <time>2022-08-03T09:39:32.000Z</time>
      </trkpt>
      <trkpt lat="42.8164255432784557342529296875" lon="-0.20268053747713565826416015625">
        <ele>1924.800048828125</ele>
        <time>2022-08-03T09:39:51.000Z</time>
      </trkpt>
      <trkpt lat="42.81658991239964962005615234375" lon="-0.20261205732822418212890625">
        <ele>1921.800048828125</ele>
        <time>2022-08-03T09:40:24.000Z</time>
      </trkpt>
      <trkpt lat="42.81664892099797725677490234375" lon="-0.2025729976594448089599609375">
        <ele>1921.199951171875</ele>
        <time>2022-08-03T09:40:31.000Z</time>
      </trkpt>
      <trkpt lat="42.8168194927275180816650390625" lon="-0.20245380699634552001953125">
        <ele>1919.199951171875</ele>
        <time>2022-08-03T09:40:50.000Z</time>
      </trkpt>
      <trkpt lat="42.81688612885773181915283203125" lon="-0.2023954689502716064453125">
        <ele>1918.5999755859375</ele>
        <time>2022-08-03T09:40:57.000Z</time>
      </trkpt>
      <trkpt lat="42.81695100478827953338623046875" lon="-0.20232715643942356109619140625">
        <ele>1918.199951171875</ele>
        <time>2022-08-03T09:41:04.000Z</time>
      </trkpt>
      <trkpt lat="42.81710657291114330291748046875" lon="-0.20222657360136508941650390625">
        <ele>1916.4000244140625</ele>
        <time>2022-08-03T09:41:18.000Z</time>
      </trkpt>
      <trkpt lat="42.8172942437231540679931640625" lon="-0.20213487558066844940185546875">
        <ele>1913.4000244140625</ele>
        <time>2022-08-03T09:41:31.000Z</time>
      </trkpt>
      <trkpt lat="42.81734880991280078887939453125" lon="-0.2020979113876819610595703125">
        <ele>1912.4000244140625</ele>
        <time>2022-08-03T09:41:35.000Z</time>
      </trkpt>
      <trkpt lat="42.817419134080410003662109375" lon="-0.20204451866447925567626953125">
        <ele>1911.199951171875</ele>
        <time>2022-08-03T09:41:40.000Z</time>
      </trkpt>
      <trkpt lat="42.81756288371980190277099609375" lon="-0.2018749527633190155029296875">
        <ele>1909.5999755859375</ele>
        <time>2022-08-03T09:41:55.000Z</time>
      </trkpt>
      <trkpt lat="42.81770311295986175537109375" lon="-0.2017110027372837066650390625">
        <ele>1907.4000244140625</ele>
        <time>2022-08-03T09:42:10.000Z</time>
      </trkpt>
      <trkpt lat="42.81771040521562099456787109375" lon="-0.201685018837451934814453125">
        <ele>1907.4000244140625</ele>
        <time>2022-08-03T09:42:13.000Z</time>
      </trkpt>
      <trkpt lat="42.81781576573848724365234375" lon="-0.20149382762610912322998046875">
        <ele>1906.800048828125</ele>
        <time>2022-08-03T09:42:41.000Z</time>
      </trkpt>
      <trkpt lat="42.81794677488505840301513671875" lon="-0.20131462253630161285400390625">
        <ele>1903.5999755859375</ele>
        <time>2022-08-03T09:43:03.000Z</time>
      </trkpt>
      <trkpt lat="42.81807987950742244720458984375" lon="-0.20115570165216922760009765625">
        <ele>1900.199951171875</ele>
        <time>2022-08-03T09:43:23.000Z</time>
      </trkpt>
      <trkpt lat="42.81812899746000766754150390625" lon="-0.201014466583728790283203125">
        <ele>1900.199951171875</ele>
        <time>2022-08-03T09:43:35.000Z</time>
      </trkpt>
      <trkpt lat="42.81813905574381351470947265625" lon="-0.200861580669879913330078125">
        <ele>1899</ele>
        <time>2022-08-03T09:43:46.000Z</time>
      </trkpt>
      <trkpt lat="42.8180995769798755645751953125" lon="-0.20060517825186252593994140625">
        <ele>1899</ele>
        <time>2022-08-03T09:44:01.000Z</time>
      </trkpt>
      <trkpt lat="42.8180873394012451171875" lon="-0.20053745247423648834228515625">
        <ele>1899.199951171875</ele>
        <time>2022-08-03T09:44:07.000Z</time>
      </trkpt>
      <trkpt lat="42.817993462085723876953125" lon="-0.20034827291965484619140625">
        <ele>1902.4000244140625</ele>
        <time>2022-08-03T09:44:38.000Z</time>
      </trkpt>
      <trkpt lat="42.81800611875951290130615234375" lon="-0.20023553632199764251708984375">
        <ele>1900.5999755859375</ele>
        <time>2022-08-03T09:44:48.000Z</time>
      </trkpt>
      <trkpt lat="42.81800092197954654693603515625" lon="-0.200061611831188201904296875">
        <ele>1897.5999755859375</ele>
        <time>2022-08-03T09:45:01.000Z</time>
      </trkpt>
      <trkpt lat="42.81802095472812652587890625" lon="-0.1998163573443889617919921875">
        <ele>1895.199951171875</ele>
        <time>2022-08-03T09:45:16.000Z</time>
      </trkpt>
      <trkpt lat="42.8180160932242870330810546875" lon="-0.1997990906238555908203125">
        <ele>1895.4000244140625</ele>
        <time>2022-08-03T09:45:17.000Z</time>
      </trkpt>
      <trkpt lat="42.81804920174181461334228515625" lon="-0.1997402496635913848876953125">
        <ele>1894.4000244140625</ele>
        <time>2022-08-03T09:45:22.000Z</time>
      </trkpt>
      <trkpt lat="42.81809262000024318695068359375" lon="-0.19970412366092205047607421875">
        <ele>1893.4000244140625</ele>
        <time>2022-08-03T09:45:26.000Z</time>
      </trkpt>
      <trkpt lat="42.81812028028070926666259765625" lon="-0.1996185444295406341552734375">
        <ele>1893</ele>
        <time>2022-08-03T09:45:32.000Z</time>
      </trkpt>
      <trkpt lat="42.81817761249840259552001953125" lon="-0.199453420937061309814453125">
        <ele>1893.4000244140625</ele>
        <time>2022-08-03T09:45:46.000Z</time>
      </trkpt>
      <trkpt lat="42.818189598619937896728515625" lon="-0.1994016207754611968994140625">
        <ele>1893.800048828125</ele>
        <time>2022-08-03T09:45:50.000Z</time>
      </trkpt>
      <trkpt lat="42.8181954659521579742431640625" lon="-0.1993915624916553497314453125">
        <ele>1893.800048828125</ele>
        <time>2022-08-03T09:45:51.000Z</time>
      </trkpt>
      <trkpt lat="42.81824684701859951019287109375" lon="-0.199144966900348663330078125">
        <ele>1898.5999755859375</ele>
        <time>2022-08-03T09:46:07.000Z</time>
      </trkpt>
      <trkpt lat="42.8183037601411342620849609375" lon="-0.19891287200152873992919921875">
        <ele>1893.199951171875</ele>
        <time>2022-08-03T09:46:23.000Z</time>
      </trkpt>
      <trkpt lat="42.8183771856129169464111328125" lon="-0.1986747421324253082275390625">
        <ele>1886.5999755859375</ele>
        <time>2022-08-03T09:46:39.000Z</time>
      </trkpt>
      <trkpt lat="42.81837911345064640045166015625" lon="-0.19866007380187511444091796875">
        <ele>1886.5999755859375</ele>
        <time>2022-08-03T09:46:40.000Z</time>
      </trkpt>
      <trkpt lat="42.8184227831661701202392578125" lon="-0.19846276380121707916259765625">
        <ele>1884.800048828125</ele>
        <time>2022-08-03T09:46:53.000Z</time>
      </trkpt>
      <trkpt lat="42.81846611760556697845458984375" lon="-0.19826746545732021331787109375">
        <ele>1882.5999755859375</ele>
        <time>2022-08-03T09:47:05.000Z</time>
      </trkpt>
      <trkpt lat="42.81846041791141033172607421875" lon="-0.19823276437819004058837890625">
        <ele>1882.5999755859375</ele>
        <time>2022-08-03T09:47:07.000Z</time>
      </trkpt>
      <trkpt lat="42.81848522834479808807373046875" lon="-0.19798935391008853912353515625">
        <ele>1877.4000244140625</ele>
        <time>2022-08-03T09:47:24.000Z</time>
      </trkpt>
      <trkpt lat="42.818537615239620208740234375" lon="-0.197836719453334808349609375">
        <ele>1875.800048828125</ele>
        <time>2022-08-03T09:47:35.000Z</time>
      </trkpt>
      <trkpt lat="42.81854222528636455535888671875" lon="-0.1978234760463237762451171875">
        <ele>1875.5999755859375</ele>
        <time>2022-08-03T09:47:36.000Z</time>
      </trkpt>
      <trkpt lat="42.81861414201557636260986328125" lon="-0.197669751942157745361328125">
        <ele>1873.800048828125</ele>
        <time>2022-08-03T09:48:02.000Z</time>
      </trkpt>
      <trkpt lat="42.81859016977250576019287109375" lon="-0.19757126457989215850830078125">
        <ele>1874.5999755859375</ele>
        <time>2022-08-03T09:48:11.000Z</time>
      </trkpt>
      <trkpt lat="42.8186273016035556793212890625" lon="-0.19742927514016628265380859375">
        <ele>1873</ele>
        <time>2022-08-03T09:48:22.000Z</time>
      </trkpt>
      <trkpt lat="42.81865119002759456634521484375" lon="-0.19734864123165607452392578125">
        <ele>1872</ele>
        <time>2022-08-03T09:48:28.000Z</time>
      </trkpt>
      <trkpt lat="42.8186554647982120513916015625" lon="-0.19732416607439517974853515625">
        <ele>1871.800048828125</ele>
        <time>2022-08-03T09:48:30.000Z</time>
      </trkpt>
      <trkpt lat="42.8186745755374431610107421875" lon="-0.19719022326171398162841796875">
        <ele>1870.800048828125</ele>
        <time>2022-08-03T09:48:39.000Z</time>
      </trkpt>
      <trkpt lat="42.81864297576248645782470703125" lon="-0.19695703871548175811767578125">
        <ele>1869.800048828125</ele>
        <time>2022-08-03T09:49:00.000Z</time>
      </trkpt>
      <trkpt lat="42.81859821639955043792724609375" lon="-0.19671899266541004180908203125">
        <ele>1867.800048828125</ele>
        <time>2022-08-03T09:49:21.000Z</time>
      </trkpt>
      <trkpt lat="42.81872746534645557403564453125" lon="-0.1965604908764362335205078125">
        <ele>1863.800048828125</ele>
        <time>2022-08-03T09:49:38.000Z</time>
      </trkpt>
      <trkpt lat="42.8188187442719936370849609375" lon="-0.1963408850133419036865234375">
        <ele>1862.199951171875</ele>
        <time>2022-08-03T09:50:00.000Z</time>
      </trkpt>
      <trkpt lat="42.81880239956080913543701171875" lon="-0.1963070221245288848876953125">
        <ele>1862</ele>
        <time>2022-08-03T09:50:02.000Z</time>
      </trkpt>
      <trkpt lat="42.81889761798083782196044921875" lon="-0.19614499993622303009033203125">
        <ele>1860.199951171875</ele>
        <time>2022-08-03T09:50:22.000Z</time>
      </trkpt>
      <trkpt lat="42.818982191383838653564453125" lon="-0.19633744843304157257080078125">
        <ele>1861.800048828125</ele>
        <time>2022-08-03T09:50:49.000Z</time>
      </trkpt>
      <trkpt lat="42.819004319608211517333984375" lon="-0.19657851196825504302978515625">
        <ele>1861</ele>
        <time>2022-08-03T09:51:07.000Z</time>
      </trkpt>
      <trkpt lat="42.81901144422590732574462890625" lon="-0.19661706872284412384033203125">
        <ele>1861</ele>
        <time>2022-08-03T09:51:12.000Z</time>
      </trkpt>
      <trkpt lat="42.81899887137115001678466796875" lon="-0.19665109924972057342529296875">
        <ele>1861</ele>
        <time>2022-08-03T09:52:37.000Z</time>
      </trkpt>
      <trkpt lat="42.818947322666645050048828125" lon="-0.19660868681967258453369140625">
        <ele>1861.800048828125</ele>
        <time>2022-08-03T09:54:07.000Z</time>
      </trkpt>
      <trkpt lat="42.8190269507467746734619140625" lon="-0.1966262049973011016845703125">
        <ele>1861</ele>
        <time>2022-08-03T09:55:25.000Z</time>
      </trkpt>
      <trkpt lat="42.81902167014777660369873046875" lon="-0.19665579311549663543701171875">
        <ele>1861</ele>
        <time>2022-08-03T09:56:09.000Z</time>
      </trkpt>
      <trkpt lat="42.819066345691680908203125" lon="-0.19661287777125835418701171875">
        <ele>1861</ele>
        <time>2022-08-03T09:56:44.000Z</time>
      </trkpt>
      <trkpt lat="42.819034159183502197265625" lon="-0.19659376703202724456787109375">
        <ele>1861</ele>
        <time>2022-08-03T09:57:58.000Z</time>
      </trkpt>
      <trkpt lat="42.81907506287097930908203125" lon="-0.1966325752437114715576171875">
        <ele>1861</ele>
        <time>2022-08-03T09:58:32.000Z</time>
      </trkpt>
      <trkpt lat="42.8189991228282451629638671875" lon="-0.19662746228277683258056640625">
        <ele>1861</ele>
        <time>2022-08-03T09:59:46.000Z</time>
      </trkpt>
      <trkpt lat="42.818934582173824310302734375" lon="-0.1966201700270175933837890625">
        <ele>1862</ele>
        <time>2022-08-03T10:00:56.000Z</time>
      </trkpt>
      <trkpt lat="42.818984203040599822998046875" lon="-0.1966137997806072235107421875">
        <ele>1861</ele>
        <time>2022-08-03T10:02:22.000Z</time>
      </trkpt>
      <trkpt lat="42.81897406093776226043701171875" lon="-0.19662578590214252471923828125">
        <ele>1861</ele>
        <time>2022-08-03T10:03:06.000Z</time>
      </trkpt>
      <trkpt lat="42.81901462934911251068115234375" lon="-0.1966272108256816864013671875">
        <ele>1861</ele>
        <time>2022-08-03T10:05:04.000Z</time>
      </trkpt>
      <trkpt lat="42.81899903900921344757080078125" lon="-0.19661170430481433868408203125">
        <ele>1861</ele>
        <time>2022-08-03T10:06:37.000Z</time>
      </trkpt>
      <trkpt lat="42.819029130041599273681640625" lon="-0.19660214893519878387451171875">
        <ele>1861</ele>
        <time>2022-08-03T10:08:33.000Z</time>
      </trkpt>
      <trkpt lat="42.81900205649435520172119140625" lon="-0.1966386102139949798583984375">
        <ele>1861</ele>
        <time>2022-08-03T10:10:14.000Z</time>
      </trkpt>
      <trkpt lat="42.8190011344850063323974609375" lon="-0.19656577147543430328369140625">
        <ele>1860.800048828125</ele>
        <time>2022-08-03T10:12:19.000Z</time>
      </trkpt>
      <trkpt lat="42.81898093409836292266845703125" lon="-0.19661555998027324676513671875">
        <ele>1861</ele>
        <time>2022-08-03T10:13:46.000Z</time>
      </trkpt>
      <trkpt lat="42.818985879421234130859375" lon="-0.19662695936858654022216796875">
        <ele>1861</ele>
        <time>2022-08-03T10:15:18.000Z</time>
      </trkpt>
      <trkpt lat="42.8189847059547901153564453125" lon="-0.19662612117826938629150390625">
        <ele>1861</ele>
        <time>2022-08-03T10:17:06.000Z</time>
      </trkpt>
      <trkpt lat="42.818991243839263916015625" lon="-0.1966694556176662445068359375">
        <ele>1861</ele>
        <time>2022-08-03T10:18:18.000Z</time>
      </trkpt>
      <trkpt lat="42.8189639188349246978759765625" lon="-0.19660055637359619140625">
        <ele>1861.4000244140625</ele>
        <time>2022-08-03T10:19:42.000Z</time>
      </trkpt>
      <trkpt lat="42.81905586831271648406982421875" lon="-0.19653056748211383819580078125">
        <ele>1860.5999755859375</ele>
        <time>2022-08-03T10:21:11.000Z</time>
      </trkpt>
      <trkpt lat="42.81904287636280059814453125" lon="-0.19649184308946132659912109375">
        <ele>1860.5999755859375</ele>
        <time>2022-08-03T10:21:36.000Z</time>
      </trkpt>
      <trkpt lat="42.819080762565135955810546875" lon="-0.19626586697995662689208984375">
        <ele>1860.800048828125</ele>
        <time>2022-08-03T10:22:08.000Z</time>
      </trkpt>
      <trkpt lat="42.81900264322757720947265625" lon="-0.19619680009782314300537109375">
        <ele>1860.800048828125</ele>
        <time>2022-08-03T10:22:45.000Z</time>
      </trkpt>
      <trkpt lat="42.8188469074666500091552734375" lon="-0.1961403898894786834716796875">
        <ele>1860.4000244140625</ele>
        <time>2022-08-03T10:23:17.000Z</time>
      </trkpt>
      <trkpt lat="42.81874774955213069915771484375" lon="-0.19596143625676631927490234375">
        <ele>1860.4000244140625</ele>
        <time>2022-08-03T10:23:40.000Z</time>
      </trkpt>
      <trkpt lat="42.81862637959420680999755859375" lon="-0.1957920379936695098876953125">
        <ele>1860.199951171875</ele>
        <time>2022-08-03T10:24:06.000Z</time>
      </trkpt>
      <trkpt lat="42.81853602267801761627197265625" lon="-0.19561761058866977691650390625">
        <ele>1860.5999755859375</ele>
        <time>2022-08-03T10:24:57.000Z</time>
      </trkpt>
      <trkpt lat="42.8184623457491397857666015625" lon="-0.195399262011051177978515625">
        <ele>1860</ele>
        <time>2022-08-03T10:25:32.000Z</time>
      </trkpt>
      <trkpt lat="42.818454466760158538818359375" lon="-0.1951747946441173553466796875">
        <ele>1860.5999755859375</ele>
        <time>2022-08-03T10:26:02.000Z</time>
      </trkpt>
      <trkpt lat="42.81853032298386096954345703125" lon="-0.19495678134262561798095703125">
        <ele>1859.800048828125</ele>
        <time>2022-08-03T10:26:28.000Z</time>
      </trkpt>
      <trkpt lat="42.81852864660322666168212890625" lon="-0.194743461906909942626953125">
        <ele>1859.5999755859375</ele>
        <time>2022-08-03T10:27:02.000Z</time>
      </trkpt>
      <trkpt lat="42.81853820197284221649169921875" lon="-0.19450516439974308013916015625">
        <ele>1858.800048828125</ele>
        <time>2022-08-03T10:27:27.000Z</time>
      </trkpt>
      <trkpt lat="42.81846913509070873260498046875" lon="-0.19427080638706684112548828125">
        <ele>1860.199951171875</ele>
        <time>2022-08-03T10:27:43.000Z</time>
      </trkpt>
      <trkpt lat="42.81846779398620128631591796875" lon="-0.19423794932663440704345703125">
        <ele>1860.199951171875</ele>
        <time>2022-08-03T10:27:46.000Z</time>
      </trkpt>
      <trkpt lat="42.81845748424530029296875" lon="-0.19411037676036357879638671875">
        <ele>1860.4000244140625</ele>
        <time>2022-08-03T10:27:54.000Z</time>
      </trkpt>
      <trkpt lat="42.8184046782553195953369140625" lon="-0.1940167509019374847412109375">
        <ele>1860.5999755859375</ele>
        <time>2022-08-03T10:28:38.000Z</time>
      </trkpt>
      <trkpt lat="42.8184261359274387359619140625" lon="-0.1938246376812458038330078125">
        <ele>1858.199951171875</ele>
        <time>2022-08-03T10:29:15.000Z</time>
      </trkpt>
      <trkpt lat="42.81844046898186206817626953125" lon="-0.1935855858027935028076171875">
        <ele>1855.4000244140625</ele>
        <time>2022-08-03T10:29:38.000Z</time>
      </trkpt>
      <trkpt lat="42.81852185726165771484375" lon="-0.193348713219165802001953125">
        <ele>1850.5999755859375</ele>
        <time>2022-08-03T10:30:00.000Z</time>
      </trkpt>
      <trkpt lat="42.81863878481090068817138671875" lon="-0.19314696080982685089111328125">
        <ele>1847</ele>
        <time>2022-08-03T10:30:22.000Z</time>
      </trkpt>
      <trkpt lat="42.81874020583927631378173828125" lon="-0.19294344820082187652587890625">
        <ele>1844.5999755859375</ele>
        <time>2022-08-03T10:30:42.000Z</time>
      </trkpt>
      <trkpt lat="42.8188613243401050567626953125" lon="-0.19276256673038005828857421875">
        <ele>1842.800048828125</ele>
        <time>2022-08-03T10:31:01.000Z</time>
      </trkpt>
      <trkpt lat="42.81900473870337009429931640625" lon="-0.19269383512437343597412109375">
        <ele>1842.199951171875</ele>
        <time>2022-08-03T10:31:36.000Z</time>
      </trkpt>
      <trkpt lat="42.8190165571868419647216796875" lon="-0.19256450235843658447265625">
        <ele>1841</ele>
        <time>2022-08-03T10:32:04.000Z</time>
      </trkpt>
      <trkpt lat="42.8191489912569522857666015625" lon="-0.19251295365393161773681640625">
        <ele>1841.199951171875</ele>
        <time>2022-08-03T10:32:47.000Z</time>
      </trkpt>
      <trkpt lat="42.8190757334232330322265625" lon="-0.19245763309299945831298828125">
        <ele>1840.199951171875</ele>
        <time>2022-08-03T10:33:04.000Z</time>
      </trkpt>
      <trkpt lat="42.8190998733043670654296875" lon="-0.19232318736612796783447265625">
        <ele>1838.800048828125</ele>
        <time>2022-08-03T10:33:18.000Z</time>
      </trkpt>
      <trkpt lat="42.8190460614860057830810546875" lon="-0.19221472553908824920654296875">
        <ele>1838.199951171875</ele>
        <time>2022-08-03T10:33:42.000Z</time>
      </trkpt>
      <trkpt lat="42.819052599370479583740234375" lon="-0.1924498379230499267578125">
        <ele>1840</ele>
        <time>2022-08-03T10:33:59.000Z</time>
      </trkpt>
      <trkpt lat="42.81909861601889133453369140625" lon="-0.19254170358180999755859375">
        <ele>1841.199951171875</ele>
        <time>2022-08-03T10:34:41.000Z</time>
      </trkpt>
      <trkpt lat="42.81907849945127964019775390625" lon="-0.192519240081310272216796875">
        <ele>1840.800048828125</ele>
        <time>2022-08-03T10:35:53.000Z</time>
      </trkpt>
      <trkpt lat="42.81904153525829315185546875" lon="-0.1925075054168701171875">
        <ele>1840.4000244140625</ele>
        <time>2022-08-03T10:36:00.000Z</time>
      </trkpt>
      <trkpt lat="42.81900574453175067901611328125" lon="-0.19254463724792003631591796875">
        <ele>1840.5999755859375</ele>
        <time>2022-08-03T10:36:04.000Z</time>
      </trkpt>
      <trkpt lat="42.8189666010439395904541015625" lon="-0.1925851218402385711669921875">
        <ele>1840.800048828125</ele>
        <time>2022-08-03T10:36:08.000Z</time>
      </trkpt>
      <trkpt lat="42.81897808425128459930419921875" lon="-0.1926898956298828125">
        <ele>1842</ele>
        <time>2022-08-03T10:36:21.000Z</time>
      </trkpt>
      <trkpt lat="42.818931899964809417724609375" lon="-0.1926732994616031646728515625">
        <ele>1841.800048828125</ele>
        <time>2022-08-03T10:36:35.000Z</time>
      </trkpt>
      <trkpt lat="42.81881413422524929046630859375" lon="-0.1927906461060047149658203125">
        <ele>1843</ele>
        <time>2022-08-03T10:37:03.000Z</time>
      </trkpt>
      <trkpt lat="42.81882536597549915313720703125" lon="-0.19296322949230670928955078125">
        <ele>1844.4000244140625</ele>
        <time>2022-08-03T10:37:28.000Z</time>
      </trkpt>
      <trkpt lat="42.81880374066531658172607421875" lon="-0.19283783622086048126220703125">
        <ele>1843.5999755859375</ele>
        <time>2022-08-03T10:37:58.000Z</time>
      </trkpt>
      <trkpt lat="42.81875562854111194610595703125" lon="-0.19282727502286434173583984375">
        <ele>1843.4000244140625</ele>
        <time>2022-08-03T10:38:48.000Z</time>
      </trkpt>
      <trkpt lat="42.81864934600889682769775390625" lon="-0.1930199749767780303955078125">
        <ele>1845.5999755859375</ele>
        <time>2022-08-03T10:39:17.000Z</time>
      </trkpt>
      <trkpt lat="42.81857575289905071258544921875" lon="-0.19323748536407947540283203125">
        <ele>1847.800048828125</ele>
        <time>2022-08-03T10:39:43.000Z</time>
      </trkpt>
      <trkpt lat="42.81863995827734470367431640625" lon="-0.1933054625988006591796875">
        <ele>1849.4000244140625</ele>
        <time>2022-08-03T10:41:03.000Z</time>
      </trkpt>
      <trkpt lat="42.81874573789536952972412109375" lon="-0.19348776899278163909912109375">
        <ele>1850.4000244140625</ele>
        <time>2022-08-03T10:41:29.000Z</time>
      </trkpt>
      <trkpt lat="42.81884330324828624725341796875" lon="-0.19359153695404529571533203125">
        <ele>1851.4000244140625</ele>
        <time>2022-08-03T10:41:50.000Z</time>
      </trkpt>
      <trkpt lat="42.81889535486698150634765625" lon="-0.19366060383617877960205078125">
        <ele>1851.800048828125</ele>
        <time>2022-08-03T10:41:59.000Z</time>
      </trkpt>
      <trkpt lat="42.81905335374176502227783203125" lon="-0.193645767867565155029296875">
        <ele>1850.800048828125</ele>
        <time>2022-08-03T10:42:31.000Z</time>
      </trkpt>
      <trkpt lat="42.8190059959888458251953125" lon="-0.193627662956714630126953125">
        <ele>1850.800048828125</ele>
        <time>2022-08-03T10:43:14.000Z</time>
      </trkpt>
      <trkpt lat="42.8191385976970195770263671875" lon="-0.1936023496091365814208984375">
        <ele>1850.5999755859375</ele>
        <time>2022-08-03T10:43:34.000Z</time>
      </trkpt>
      <trkpt lat="42.8192505799233913421630859375" lon="-0.1937555707991123199462890625">
        <ele>1850.800048828125</ele>
        <time>2022-08-03T10:44:05.000Z</time>
      </trkpt>
      <trkpt lat="42.81932651996612548828125" lon="-0.1935510523617267608642578125">
        <ele>1851.199951171875</ele>
        <time>2022-08-03T10:44:28.000Z</time>
      </trkpt>
      <trkpt lat="42.81935728155076503753662109375" lon="-0.1933079771697521209716796875">
        <ele>1850.5999755859375</ele>
        <time>2022-08-03T10:44:48.000Z</time>
      </trkpt>
      <trkpt lat="42.8191768191754817962646484375" lon="-0.19328425638377666473388671875">
        <ele>1848.199951171875</ele>
        <time>2022-08-03T10:45:05.000Z</time>
      </trkpt>
      <trkpt lat="42.819087468087673187255859375" lon="-0.1931068114936351776123046875">
        <ele>1846.5999755859375</ele>
        <time>2022-08-03T10:45:37.000Z</time>
      </trkpt>
      <trkpt lat="42.81915058381855487823486328125" lon="-0.1928711123764514923095703125">
        <ele>1844.800048828125</ele>
        <time>2022-08-03T10:45:55.000Z</time>
      </trkpt>
      <trkpt lat="42.819167934358119964599609375" lon="-0.1926196552813053131103515625">
        <ele>1842.5999755859375</ele>
        <time>2022-08-03T10:46:16.000Z</time>
      </trkpt>
      <trkpt lat="42.81919316388666629791259765625" lon="-0.1923725567758083343505859375">
        <ele>1840</ele>
        <time>2022-08-03T10:46:41.000Z</time>
      </trkpt>
      <trkpt lat="42.819220907986164093017578125" lon="-0.1921214349567890167236328125">
        <ele>1838</ele>
        <time>2022-08-03T10:47:01.000Z</time>
      </trkpt>
      <trkpt lat="42.8192023001611232757568359375" lon="-0.192053876817226409912109375">
        <ele>1838</ele>
        <time>2022-08-03T10:47:07.000Z</time>
      </trkpt>
      <trkpt lat="42.8191000409424304962158203125" lon="-0.19185530953109264373779296875">
        <ele>1836.800048828125</ele>
        <time>2022-08-03T10:47:31.000Z</time>
      </trkpt>
      <trkpt lat="42.81922015361487865447998046875" lon="-0.19171264953911304473876953125">
        <ele>1837.800048828125</ele>
        <time>2022-08-03T10:47:52.000Z</time>
      </trkpt>
      <trkpt lat="42.81931051053106784820556640625" lon="-0.1915001682937145233154296875">
        <ele>1838.199951171875</ele>
        <time>2022-08-03T10:48:11.000Z</time>
      </trkpt>
      <trkpt lat="42.8193370811641216278076171875" lon="-0.1913231424987316131591796875">
        <ele>1836.4000244140625</ele>
        <time>2022-08-03T10:48:26.000Z</time>
      </trkpt>
      <trkpt lat="42.8193478100001811981201171875" lon="-0.19124862737953662872314453125">
        <ele>1835.800048828125</ele>
        <time>2022-08-03T10:48:32.000Z</time>
      </trkpt>
      <trkpt lat="42.81936096958816051483154296875" lon="-0.19116103649139404296875">
        <ele>1835.199951171875</ele>
        <time>2022-08-03T10:48:39.000Z</time>
      </trkpt>
      <trkpt lat="42.819373123347759246826171875" lon="-0.19109456799924373626708984375">
        <ele>1835</ele>
        <time>2022-08-03T10:48:44.000Z</time>
      </trkpt>
      <trkpt lat="42.81936415471136569976806640625" lon="-0.19087764434516429901123046875">
        <ele>1833.800048828125</ele>
        <time>2022-08-03T10:49:00.000Z</time>
      </trkpt>
      <trkpt lat="42.8193431161344051361083984375" lon="-0.19062618725001811981201171875">
        <ele>1833.4000244140625</ele>
        <time>2022-08-03T10:49:20.000Z</time>
      </trkpt>
      <trkpt lat="42.8193585388362407684326171875" lon="-0.19038445316255092620849609375">
        <ele>1831.199951171875</ele>
        <time>2022-08-03T10:49:46.000Z</time>
      </trkpt>
      <trkpt lat="42.819450907409191131591796875" lon="-0.19018446095287799835205078125">
        <ele>1830</ele>
        <time>2022-08-03T10:50:14.000Z</time>
      </trkpt>
      <trkpt lat="42.819470353424549102783203125" lon="-0.1901324093341827392578125">
        <ele>1829.4000244140625</ele>
        <time>2022-08-03T10:50:17.000Z</time>
      </trkpt>
      <trkpt lat="42.8195781446993350982666015625" lon="-0.18994641490280628204345703125">
        <ele>1828.199951171875</ele>
        <time>2022-08-03T10:50:32.000Z</time>
      </trkpt>
      <trkpt lat="42.81967529095709323883056640625" lon="-0.18973787315189838409423828125">
        <ele>1826</ele>
        <time>2022-08-03T10:50:45.000Z</time>
      </trkpt>
      <trkpt lat="42.819729857146739959716796875" lon="-0.18949882127344608306884765625">
        <ele>1823.5999755859375</ele>
        <time>2022-08-03T10:50:58.000Z</time>
      </trkpt>
      <trkpt lat="42.81979632563889026641845703125" lon="-0.1892709173262119293212890625">
        <ele>1822.5999755859375</ele>
        <time>2022-08-03T10:51:11.000Z</time>
      </trkpt>
      <trkpt lat="42.81990252435207366943359375" lon="-0.18906547687947750091552734375">
        <ele>1822.5999755859375</ele>
        <time>2022-08-03T10:51:24.000Z</time>
      </trkpt>
      <trkpt lat="42.81999397091567516326904296875" lon="-0.18884972669184207916259765625">
        <ele>1823.4000244140625</ele>
        <time>2022-08-03T10:51:38.000Z</time>
      </trkpt>
      <trkpt lat="42.82000570558011531829833984375" lon="-0.18881955184042453765869140625">
        <ele>1823.5999755859375</ele>
        <time>2022-08-03T10:51:40.000Z</time>
      </trkpt>
      <trkpt lat="42.82001878134906291961669921875" lon="-0.18876875750720500946044921875">
        <ele>1823.800048828125</ele>
        <time>2022-08-03T10:51:44.000Z</time>
      </trkpt>
      <trkpt lat="42.82014450989663600921630859375" lon="-0.1885866187512874603271484375">
        <ele>1824.4000244140625</ele>
        <time>2022-08-03T10:51:58.000Z</time>
      </trkpt>
      <trkpt lat="42.82031315378844738006591796875" lon="-0.18845267593860626220703125">
        <ele>1825</ele>
        <time>2022-08-03T10:52:12.000Z</time>
      </trkpt>
      <trkpt lat="42.82043620012700557708740234375" lon="-0.18828009255230426788330078125">
        <ele>1825.199951171875</ele>
        <time>2022-08-03T10:52:24.000Z</time>
      </trkpt>
      <trkpt lat="42.82050023786723613739013671875" lon="-0.18804070539772510528564453125">
        <ele>1824.5999755859375</ele>
        <time>2022-08-03T10:52:38.000Z</time>
      </trkpt>
      <trkpt lat="42.82063216902315616607666015625" lon="-0.18786887638270854949951171875">
        <ele>1825.800048828125</ele>
        <time>2022-08-03T10:52:52.000Z</time>
      </trkpt>
      <trkpt lat="42.82077650539577007293701171875" lon="-0.18772118724882602691650390625">
        <ele>1827.800048828125</ele>
        <time>2022-08-03T10:53:07.000Z</time>
      </trkpt>
      <trkpt lat="42.82085579819977283477783203125" lon="-0.18766452558338642120361328125">
        <ele>1828.5999755859375</ele>
        <time>2022-08-03T10:53:14.000Z</time>
      </trkpt>
      <trkpt lat="42.82101237215101718902587890625" lon="-0.18752102740108966827392578125">
        <ele>1828.800048828125</ele>
        <time>2022-08-03T10:53:28.000Z</time>
      </trkpt>
      <trkpt lat="42.8210402838885784149169921875" lon="-0.1874609291553497314453125">
        <ele>1828.4000244140625</ele>
        <time>2022-08-03T10:53:32.000Z</time>
      </trkpt>
      <trkpt lat="42.8210560418665409088134765625" lon="-0.187418349087238311767578125">
        <ele>1828</ele>
        <time>2022-08-03T10:53:35.000Z</time>
      </trkpt>
      <trkpt lat="42.82106299884617328643798828125" lon="-0.187357999384403228759765625">
        <ele>1826.800048828125</ele>
        <time>2022-08-03T10:53:39.000Z</time>
      </trkpt>
      <trkpt lat="42.8210671059787273406982421875" lon="-0.1873266510665416717529296875">
        <ele>1826.199951171875</ele>
        <time>2022-08-03T10:53:41.000Z</time>
      </trkpt>
      <trkpt lat="42.82108680345118045806884765625" lon="-0.1872562430799007415771484375">
        <ele>1825</ele>
        <time>2022-08-03T10:53:45.000Z</time>
      </trkpt>
      <trkpt lat="42.82112770713865756988525390625" lon="-0.18714241683483123779296875">
        <ele>1822.800048828125</ele>
        <time>2022-08-03T10:53:52.000Z</time>
      </trkpt>
      <trkpt lat="42.82114195637404918670654296875" lon="-0.1871036924421787261962890625">
        <ele>1822.199951171875</ele>
        <time>2022-08-03T10:53:55.000Z</time>
      </trkpt>
      <trkpt lat="42.82116794027388095855712890625" lon="-0.18701761029660701751708984375">
        <ele>1820.4000244140625</ele>
        <time>2022-08-03T10:54:01.000Z</time>
      </trkpt>
      <trkpt lat="42.82126148231327533721923828125" lon="-0.18680638633668422698974609375">
        <ele>1817</ele>
        <time>2022-08-03T10:54:16.000Z</time>
      </trkpt>
      <trkpt lat="42.82132518477737903594970703125" lon="-0.18664729781448841094970703125">
        <ele>1814</ele>
        <time>2022-08-03T10:54:28.000Z</time>
      </trkpt>
      <trkpt lat="42.8213973529636859893798828125" lon="-0.186448730528354644775390625">
        <ele>1811.199951171875</ele>
        <time>2022-08-03T10:54:41.000Z</time>
      </trkpt>
      <trkpt lat="42.8213797509670257568359375" lon="-0.18639181740581989288330078125">
        <ele>1809.5999755859375</ele>
        <time>2022-08-03T10:54:45.000Z</time>
      </trkpt>
      <trkpt lat="42.8214070759713649749755859375" lon="-0.18633238971233367919921875">
        <ele>1809.199951171875</ele>
        <time>2022-08-03T10:54:49.000Z</time>
      </trkpt>
      <trkpt lat="42.82150791026651859283447265625" lon="-0.18612292595207691192626953125">
        <ele>1808.800048828125</ele>
        <time>2022-08-03T10:55:07.000Z</time>
      </trkpt>
      <trkpt lat="42.8215472213923931121826171875" lon="-0.1860232651233673095703125">
        <ele>1808.4000244140625</ele>
        <time>2022-08-03T10:55:13.000Z</time>
      </trkpt>
      <trkpt lat="42.8216843493282794952392578125" lon="-0.1858960278332233428955078125">
        <ele>1809.199951171875</ele>
        <time>2022-08-03T10:55:24.000Z</time>
      </trkpt>
      <trkpt lat="42.82178786583244800567626953125" lon="-0.18583492375910282135009765625">
        <ele>1810.199951171875</ele>
        <time>2022-08-03T10:55:32.000Z</time>
      </trkpt>
      <trkpt lat="42.82179356552660465240478515625" lon="-0.1858179084956645965576171875">
        <ele>1810.199951171875</ele>
        <time>2022-08-03T10:55:33.000Z</time>
      </trkpt>
      <trkpt lat="42.82185693271458148956298828125" lon="-0.18576820380985736846923828125">
        <ele>1810.5999755859375</ele>
        <time>2022-08-03T10:55:52.000Z</time>
      </trkpt>
      <trkpt lat="42.82196153886616230010986328125" lon="-0.18568807281553745269775390625">
        <ele>1810.4000244140625</ele>
        <time>2022-08-03T10:56:51.000Z</time>
      </trkpt>
      <trkpt lat="42.82214510254561901092529296875" lon="-0.1856499351561069488525390625">
        <ele>1812.5999755859375</ele>
        <time>2022-08-03T10:57:07.000Z</time>
      </trkpt>
      <trkpt lat="42.82232095487415790557861328125" lon="-0.18557642586529254913330078125">
        <ele>1814</ele>
        <time>2022-08-03T10:57:23.000Z</time>
      </trkpt>
      <trkpt lat="42.82249311916530132293701171875" lon="-0.185509957373142242431640625">
        <ele>1815.4000244140625</ele>
        <time>2022-08-03T10:57:41.000Z</time>
      </trkpt>
      <trkpt lat="42.82264231704175472259521484375" lon="-0.18535648472607135772705078125">
        <ele>1810.4000244140625</ele>
        <time>2022-08-03T10:58:01.000Z</time>
      </trkpt>
      <trkpt lat="42.822826467454433441162109375" lon="-0.18530351109802722930908203125">
        <ele>1806.800048828125</ele>
        <time>2022-08-03T10:58:18.000Z</time>
      </trkpt>
      <trkpt lat="42.823010869324207305908203125" lon="-0.1852653734385967254638671875">
        <ele>1803.4000244140625</ele>
        <time>2022-08-03T10:58:39.000Z</time>
      </trkpt>
      <trkpt lat="42.82319049350917339324951171875" lon="-0.18519245088100433349609375">
        <ele>1800.199951171875</ele>
        <time>2022-08-03T10:58:54.000Z</time>
      </trkpt>
      <trkpt lat="42.82335226424038410186767578125" lon="-0.185087509453296661376953125">
        <ele>1798.5999755859375</ele>
        <time>2022-08-03T10:59:10.000Z</time>
      </trkpt>
      <trkpt lat="42.82351411879062652587890625" lon="-0.18499262630939483642578125">
        <ele>1797</ele>
        <time>2022-08-03T10:59:25.000Z</time>
      </trkpt>
      <trkpt lat="42.82354672439396381378173828125" lon="-0.1849596016108989715576171875">
        <ele>1796.4000244140625</ele>
        <time>2022-08-03T10:59:27.000Z</time>
      </trkpt>
      <trkpt lat="42.82358041964471340179443359375" lon="-0.18490034155547618865966796875">
        <ele>1795.4000244140625</ele>
        <time>2022-08-03T10:59:31.000Z</time>
      </trkpt>
      <trkpt lat="42.82373582012951374053955078125" lon="-0.18479204736649990081787109375">
        <ele>1795.199951171875</ele>
        <time>2022-08-03T10:59:46.000Z</time>
      </trkpt>
      <trkpt lat="42.8237613849341869354248046875" lon="-0.1847423426806926727294921875">
        <ele>1794.800048828125</ele>
        <time>2022-08-03T10:59:50.000Z</time>
      </trkpt>
      <trkpt lat="42.82379885204136371612548828125" lon="-0.18466807901859283447265625">
        <ele>1794.199951171875</ele>
        <time>2022-08-03T10:59:55.000Z</time>
      </trkpt>
      <trkpt lat="42.8238690085709095001220703125" lon="-0.1845160312950611114501953125">
        <ele>1793.199951171875</ele>
        <time>2022-08-03T11:00:05.000Z</time>
      </trkpt>
      <trkpt lat="42.823899351060390472412109375" lon="-0.18445174209773540496826171875">
        <ele>1792.5999755859375</ele>
        <time>2022-08-03T11:00:09.000Z</time>
      </trkpt>
      <trkpt lat="42.82392642460763454437255859375" lon="-0.18438770435750484466552734375">
        <ele>1792</ele>
        <time>2022-08-03T11:00:15.000Z</time>
      </trkpt>
      <trkpt lat="42.8239491395652294158935546875" lon="-0.18435434438288211822509765625">
        <ele>1791.5999755859375</ele>
        <time>2022-08-03T11:00:19.000Z</time>
      </trkpt>
      <trkpt lat="42.82399616204202175140380859375" lon="-0.18427806906402111053466796875">
        <ele>1791.800048828125</ele>
        <time>2022-08-03T11:00:27.000Z</time>
      </trkpt>
      <trkpt lat="42.82401208765804767608642578125" lon="-0.184225849807262420654296875">
        <ele>1791.5999755859375</ele>
        <time>2022-08-03T11:00:31.000Z</time>
      </trkpt>
      <trkpt lat="42.82408065162599086761474609375" lon="-0.1841348223388195037841796875">
        <ele>1793</ele>
        <time>2022-08-03T11:00:39.000Z</time>
      </trkpt>
      <trkpt lat="42.8242257423698902130126953125" lon="-0.18397363834083080291748046875">
        <ele>1794.800048828125</ele>
        <time>2022-08-03T11:00:54.000Z</time>
      </trkpt>
      <trkpt lat="42.82437418587505817413330078125" lon="-0.18382988870143890380859375">
        <ele>1794.4000244140625</ele>
        <time>2022-08-03T11:01:08.000Z</time>
      </trkpt>
      <trkpt lat="42.8245103918015956878662109375" lon="-0.18365361727774143218994140625">
        <ele>1792.4000244140625</ele>
        <time>2022-08-03T11:01:23.000Z</time>
      </trkpt>
      <trkpt lat="42.8246666304767131805419921875" lon="-0.183543227612972259521484375">
        <ele>1791.800048828125</ele>
        <time>2022-08-03T11:01:43.000Z</time>
      </trkpt>
      <trkpt lat="42.82485111616551876068115234375" lon="-0.18353325314819812774658203125">
        <ele>1793.800048828125</ele>
        <time>2022-08-03T11:02:01.000Z</time>
      </trkpt>
      <trkpt lat="42.8250297345221042633056640625" lon="-0.183507017791271209716796875">
        <ele>1795</ele>
        <time>2022-08-03T11:02:20.000Z</time>
      </trkpt>
      <trkpt lat="42.82505949027836322784423828125" lon="-0.18347851932048797607421875">
        <ele>1794.5999755859375</ele>
        <time>2022-08-03T11:02:25.000Z</time>
      </trkpt>
      <trkpt lat="42.8251155652105808258056640625" lon="-0.18343082629144191741943359375">
        <ele>1794.4000244140625</ele>
        <time>2022-08-03T11:02:32.000Z</time>
      </trkpt>
      <trkpt lat="42.8251785971224308013916015625" lon="-0.18336041830480098724365234375">
        <ele>1794.199951171875</ele>
        <time>2022-08-03T11:02:41.000Z</time>
      </trkpt>
      <trkpt lat="42.82528898678719997406005859375" lon="-0.1831635273993015289306640625">
        <ele>1793.800048828125</ele>
        <time>2022-08-03T11:03:01.000Z</time>
      </trkpt>
      <trkpt lat="42.82532201148569583892822265625" lon="-0.18292103894054889678955078125">
        <ele>1793.199951171875</ele>
        <time>2022-08-03T11:03:17.000Z</time>
      </trkpt>
      <trkpt lat="42.82543458044528961181640625" lon="-0.182711072266101837158203125">
        <ele>1795</ele>
        <time>2022-08-03T11:03:32.000Z</time>
      </trkpt>
      <trkpt lat="42.82553407363593578338623046875" lon="-0.18261174671351909637451171875">
        <ele>1795.800048828125</ele>
        <time>2022-08-03T11:03:42.000Z</time>
      </trkpt>
      <trkpt lat="42.8256010450422763824462890625" lon="-0.18250747583806514739990234375">
        <ele>1795.199951171875</ele>
        <time>2022-08-03T11:03:51.000Z</time>
      </trkpt>
      <trkpt lat="42.82561034895479679107666015625" lon="-0.1824881136417388916015625">
        <ele>1794.800048828125</ele>
        <time>2022-08-03T11:03:53.000Z</time>
      </trkpt>
      <trkpt lat="42.8256409429013729095458984375" lon="-0.18242801539599895477294921875">
        <ele>1794.199951171875</ele>
        <time>2022-08-03T11:03:59.000Z</time>
      </trkpt>
      <trkpt lat="42.8256469778716564178466796875" lon="-0.1824165321886539459228515625">
        <ele>1794.199951171875</ele>
        <time>2022-08-03T11:04:00.000Z</time>
      </trkpt>
      <trkpt lat="42.82570539973676204681396484375" lon="-0.1823444478213787078857421875">
        <ele>1793.199951171875</ele>
        <time>2022-08-03T11:04:09.000Z</time>
      </trkpt>
      <trkpt lat="42.82573624514043331146240234375" lon="-0.1823068968951702117919921875">
        <ele>1792.5999755859375</ele>
        <time>2022-08-03T11:04:14.000Z</time>
      </trkpt>
      <trkpt lat="42.82587538473308086395263671875" lon="-0.18216582946479320526123046875">
        <ele>1791</ele>
        <time>2022-08-03T11:04:36.000Z</time>
      </trkpt>
      <trkpt lat="42.82600413076579570770263671875" lon="-0.18199793994426727294921875">
        <ele>1788.5999755859375</ele>
        <time>2022-08-03T11:05:01.000Z</time>
      </trkpt>
      <trkpt lat="42.8261354751884937286376953125" lon="-0.1818344928324222564697265625">
        <ele>1786.5999755859375</ele>
        <time>2022-08-03T11:05:23.000Z</time>
      </trkpt>
      <trkpt lat="42.82631208188831806182861328125" lon="-0.181748829782009124755859375">
        <ele>1789.4000244140625</ele>
        <time>2022-08-03T11:05:47.000Z</time>
      </trkpt>
      <trkpt lat="42.8264452703297138214111328125" lon="-0.18158429302275180816650390625">
        <ele>1787</ele>
        <time>2022-08-03T11:06:07.000Z</time>
      </trkpt>
      <trkpt lat="42.82657041214406490325927734375" lon="-0.1814036630094051361083984375">
        <ele>1786</ele>
        <time>2022-08-03T11:06:25.000Z</time>
      </trkpt>
      <trkpt lat="42.82657862640917301177978515625" lon="-0.1813775114715099334716796875">
        <ele>1785.4000244140625</ele>
        <time>2022-08-03T11:06:27.000Z</time>
      </trkpt>
      <trkpt lat="42.82664853148162364959716796875" lon="-0.18131439574062824249267578125">
        <ele>1785.800048828125</ele>
        <time>2022-08-03T11:06:34.000Z</time>
      </trkpt>
      <trkpt lat="42.82677224837243556976318359375" lon="-0.181131251156330108642578125">
        <ele>1783.5999755859375</ele>
        <time>2022-08-03T11:06:49.000Z</time>
      </trkpt>
      <trkpt lat="42.826914153993129730224609375" lon="-0.1809771917760372161865234375">
        <ele>1784</ele>
        <time>2022-08-03T11:07:08.000Z</time>
      </trkpt>
      <trkpt lat="42.8270558081567287445068359375" lon="-0.1808212883770465850830078125">
        <ele>1784.800048828125</ele>
        <time>2022-08-03T11:07:27.000Z</time>
      </trkpt>
      <trkpt lat="42.827147506177425384521484375" lon="-0.1806006766855716705322265625">
        <ele>1781.800048828125</ele>
        <time>2022-08-03T11:07:45.000Z</time>
      </trkpt>
      <trkpt lat="42.827217914164066314697265625" lon="-0.18036807887256145477294921875">
        <ele>1778.199951171875</ele>
        <time>2022-08-03T11:08:06.000Z</time>
      </trkpt>
      <trkpt lat="42.8272918425500392913818359375" lon="-0.18014176748692989349365234375">
        <ele>1773.5999755859375</ele>
        <time>2022-08-03T11:08:19.000Z</time>
      </trkpt>
      <trkpt lat="42.82740742899477481842041015625" lon="-0.1800001971423625946044921875">
        <ele>1771.5999755859375</ele>
        <time>2022-08-03T11:08:33.000Z</time>
      </trkpt>
      <trkpt lat="42.8274567984044551849365234375" lon="-0.17999206669628620147705078125">
        <ele>1772.5999755859375</ele>
        <time>2022-08-03T11:08:39.000Z</time>
      </trkpt>
      <trkpt lat="42.82756383530795574188232421875" lon="-0.17990053631365299224853515625">
        <ele>1772</ele>
        <time>2022-08-03T11:08:54.000Z</time>
      </trkpt>
      <trkpt lat="42.82751320861279964447021484375" lon="-0.17976927570998668670654296875">
        <ele>1766</ele>
        <time>2022-08-03T11:09:05.000Z</time>
      </trkpt>
      <trkpt lat="42.82748638652265071868896484375" lon="-0.17965813167393207550048828125">
        <ele>1761.800048828125</ele>
        <time>2022-08-03T11:09:16.000Z</time>
      </trkpt>
      <trkpt lat="42.8275557048618793487548828125" lon="-0.17966886050999164581298828125">
        <ele>1763.4000244140625</ele>
        <time>2022-08-03T11:09:22.000Z</time>
      </trkpt>
      <trkpt lat="42.82771169207990169525146484375" lon="-0.1795599795877933502197265625">
        <ele>1762.800048828125</ele>
        <time>2022-08-03T11:09:47.000Z</time>
      </trkpt>
      <trkpt lat="42.82786793075501918792724609375" lon="-0.17945118248462677001953125">
        <ele>1761.800048828125</ele>
        <time>2022-08-03T11:10:05.000Z</time>
      </trkpt>
      <trkpt lat="42.82802936621010303497314453125" lon="-0.17932922579348087310791015625">
        <ele>1760.5999755859375</ele>
        <time>2022-08-03T11:10:25.000Z</time>
      </trkpt>
      <trkpt lat="42.82808787189424037933349609375" lon="-0.17926904372870922088623046875">
        <ele>1759.5999755859375</ele>
        <time>2022-08-03T11:10:32.000Z</time>
      </trkpt>
      <trkpt lat="42.82822382636368274688720703125" lon="-0.1791083626449108123779296875">
        <ele>1757.800048828125</ele>
        <time>2022-08-03T11:10:51.000Z</time>
      </trkpt>
      <trkpt lat="42.82836313359439373016357421875" lon="-0.17894080840051174163818359375">
        <ele>1757.4000244140625</ele>
        <time>2022-08-03T11:11:07.000Z</time>
      </trkpt>
      <trkpt lat="42.82848634757101535797119140625" lon="-0.17875556834042072296142578125">
        <ele>1756.199951171875</ele>
        <time>2022-08-03T11:11:24.000Z</time>
      </trkpt>
      <trkpt lat="42.82855038531124591827392578125" lon="-0.17865322530269622802734375">
        <ele>1755</ele>
        <time>2022-08-03T11:11:35.000Z</time>
      </trkpt>
      <trkpt lat="42.8285253234207630157470703125" lon="-0.1786279119551181793212890625">
        <ele>1753</ele>
        <time>2022-08-03T11:11:39.000Z</time>
      </trkpt>
      <trkpt lat="42.8283382393419742584228515625" lon="-0.17861776985228061676025390625">
        <ele>1744.4000244140625</ele>
        <time>2022-08-03T11:12:00.000Z</time>
      </trkpt>
      <trkpt lat="42.82815291546285152435302734375" lon="-0.17864115536212921142578125">
        <ele>1738.5999755859375</ele>
        <time>2022-08-03T11:12:14.000Z</time>
      </trkpt>
      <trkpt lat="42.82803037203848361968994140625" lon="-0.178599916398525238037109375">
        <ele>1735</ele>
        <time>2022-08-03T11:12:25.000Z</time>
      </trkpt>
      <trkpt lat="42.82800690270960330963134765625" lon="-0.17854501493275165557861328125">
        <ele>1734</ele>
        <time>2022-08-03T11:12:30.000Z</time>
      </trkpt>
      <trkpt lat="42.82803690992295742034912109375" lon="-0.1785005070269107818603515625">
        <ele>1733.4000244140625</ele>
        <time>2022-08-03T11:13:56.000Z</time>
      </trkpt>
      <trkpt lat="42.8281659074127674102783203125" lon="-0.17837184481322765350341796875">
        <ele>1732.800048828125</ele>
        <time>2022-08-03T11:14:22.000Z</time>
      </trkpt>
      <trkpt lat="42.82830395735800266265869140625" lon="-0.17819649539887905120849609375">
        <ele>1732.4000244140625</ele>
        <time>2022-08-03T11:14:36.000Z</time>
      </trkpt>
      <trkpt lat="42.82843421213328838348388671875" lon="-0.1780086569488048553466796875">
        <ele>1729.4000244140625</ele>
        <time>2022-08-03T11:14:49.000Z</time>
      </trkpt>
      <trkpt lat="42.82857083715498447418212890625" lon="-0.17782869748771190643310546875">
        <ele>1728.199951171875</ele>
        <time>2022-08-03T11:15:03.000Z</time>
      </trkpt>
      <trkpt lat="42.8286932967603206634521484375" lon="-0.1776334829628467559814453125">
        <ele>1728.4000244140625</ele>
        <time>2022-08-03T11:15:17.000Z</time>
      </trkpt>
      <trkpt lat="42.82878859899938106536865234375" lon="-0.17740742303431034088134765625">
        <ele>1731.800048828125</ele>
        <time>2022-08-03T11:15:31.000Z</time>
      </trkpt>
      <trkpt lat="42.82880209386348724365234375" lon="-0.1773706264793872833251953125">
        <ele>1731.4000244140625</ele>
        <time>2022-08-03T11:15:33.000Z</time>
      </trkpt>
      <trkpt lat="42.82890913076698780059814453125" lon="-0.1772264577448368072509765625">
        <ele>1731.199951171875</ele>
        <time>2022-08-03T11:15:47.000Z</time>
      </trkpt>
      <trkpt lat="42.8290496952831745147705078125" lon="-0.17706762067973613739013671875">
        <ele>1729.199951171875</ele>
        <time>2022-08-03T11:16:00.000Z</time>
      </trkpt>
      <trkpt lat="42.82917751930654048919677734375" lon="-0.17689310945570468902587890625">
        <ele>1724.199951171875</ele>
        <time>2022-08-03T11:16:15.000Z</time>
      </trkpt>
      <trkpt lat="42.82928531058132648468017578125" lon="-0.17673267982900142669677734375">
        <ele>1722.5999755859375</ele>
        <time>2022-08-03T11:16:27.000Z</time>
      </trkpt>
      <trkpt lat="42.82934264279901981353759765625" lon="-0.1766504533588886260986328125">
        <ele>1722.5999755859375</ele>
        <time>2022-08-03T11:16:33.000Z</time>
      </trkpt>
      <trkpt lat="42.8294258750975131988525390625" lon="-0.1765602640807628631591796875">
        <ele>1722.5999755859375</ele>
        <time>2022-08-03T11:16:41.000Z</time>
      </trkpt>
      <trkpt lat="42.82952637411653995513916015625" lon="-0.1764023490250110626220703125">
        <ele>1723.5999755859375</ele>
        <time>2022-08-03T11:16:52.000Z</time>
      </trkpt>
      <trkpt lat="42.82957046292722225189208984375" lon="-0.17636119388043880462646484375">
        <ele>1724.5999755859375</ele>
        <time>2022-08-03T11:16:56.000Z</time>
      </trkpt>
      <trkpt lat="42.8296317346394062042236328125" lon="-0.17624904401600360870361328125">
        <ele>1724.800048828125</ele>
        <time>2022-08-03T11:17:04.000Z</time>
      </trkpt>
      <trkpt lat="42.82971597276628017425537109375" lon="-0.1761143468320369720458984375">
        <ele>1723.4000244140625</ele>
        <time>2022-08-03T11:17:15.000Z</time>
      </trkpt>
      <trkpt lat="42.8298929147422313690185546875" lon="-0.17601284198462963104248046875">
        <ele>1724.800048828125</ele>
        <time>2022-08-03T11:17:29.000Z</time>
      </trkpt>
      <trkpt lat="42.83005678094923496246337890625" lon="-0.17589214257895946502685546875">
        <ele>1725.800048828125</ele>
        <time>2022-08-03T11:17:42.000Z</time>
      </trkpt>
      <trkpt lat="42.830195166170597076416015625" lon="-0.17572291195392608642578125">
        <ele>1727.199951171875</ele>
        <time>2022-08-03T11:17:55.000Z</time>
      </trkpt>
      <trkpt lat="42.8302758000791072845458984375" lon="-0.1756087504327297210693359375">
        <ele>1728.5999755859375</ele>
        <time>2022-08-03T11:18:03.000Z</time>
      </trkpt>
      <trkpt lat="42.83039658330380916595458984375" lon="-0.17545728944242000579833984375">
        <ele>1731</ele>
        <time>2022-08-03T11:18:14.000Z</time>
      </trkpt>
      <trkpt lat="42.83045726828277111053466796875" lon="-0.175418816506862640380859375">
        <ele>1732.4000244140625</ele>
        <time>2022-08-03T11:18:19.000Z</time>
      </trkpt>
      <trkpt lat="42.8305654786527156829833984375" lon="-0.175259895622730255126953125">
        <ele>1732.5999755859375</ele>
        <time>2022-08-03T11:18:31.000Z</time>
      </trkpt>
      <trkpt lat="42.83067435957491397857666015625" lon="-0.17513592727482318878173828125">
        <ele>1733.199951171875</ele>
        <time>2022-08-03T11:18:43.000Z</time>
      </trkpt>
      <trkpt lat="42.8308011777698993682861328125" lon="-0.17495043575763702392578125">
        <ele>1731.5999755859375</ele>
        <time>2022-08-03T11:19:00.000Z</time>
      </trkpt>
      <trkpt lat="42.8309329412877559661865234375" lon="-0.1747829653322696685791015625">
        <ele>1731.5999755859375</ele>
        <time>2022-08-03T11:19:18.000Z</time>
      </trkpt>
      <trkpt lat="42.83103545196354389190673828125" lon="-0.17458557151257991790771484375">
        <ele>1731.4000244140625</ele>
        <time>2022-08-03T11:19:42.000Z</time>
      </trkpt>
      <trkpt lat="42.8311290778219699859619140625" lon="-0.17437619157135486602783203125">
        <ele>1732</ele>
        <time>2022-08-03T11:19:54.000Z</time>
      </trkpt>
      <trkpt lat="42.83125321380794048309326171875" lon="-0.17420469783246517181396484375">
        <ele>1731.199951171875</ele>
        <time>2022-08-03T11:20:05.000Z</time>
      </trkpt>
      <trkpt lat="42.83125857822597026824951171875" lon="-0.17410411499440670013427734375">
        <ele>1728.800048828125</ele>
        <time>2022-08-03T11:20:11.000Z</time>
      </trkpt>
      <trkpt lat="42.831263355910778045654296875" lon="-0.1741489581763744354248046875">
        <ele>1730</ele>
        <time>2022-08-03T11:20:32.000Z</time>
      </trkpt>
      <trkpt lat="42.83133502118289470672607421875" lon="-0.17411618493497371673583984375">
        <ele>1730.4000244140625</ele>
        <time>2022-08-03T11:20:38.000Z</time>
      </trkpt>
      <trkpt lat="42.8313843905925750732421875" lon="-0.17388216219842433929443359375">
        <ele>1724.4000244140625</ele>
        <time>2022-08-03T11:20:55.000Z</time>
      </trkpt>
      <trkpt lat="42.831447087228298187255859375" lon="-0.1736681722104549407958984375">
        <ele>1724.5999755859375</ele>
        <time>2022-08-03T11:21:10.000Z</time>
      </trkpt>
      <trkpt lat="42.83150802366435527801513671875" lon="-0.1735813356935977935791015625">
        <ele>1723.800048828125</ele>
        <time>2022-08-03T11:21:18.000Z</time>
      </trkpt>
      <trkpt lat="42.83166795037686824798583984375" lon="-0.173467509448528289794921875">
        <ele>1722.4000244140625</ele>
        <time>2022-08-03T11:21:33.000Z</time>
      </trkpt>
      <trkpt lat="42.831689156591892242431640625" lon="-0.17345418222248554229736328125">
        <ele>1722.4000244140625</ele>
        <time>2022-08-03T11:21:35.000Z</time>
      </trkpt>
      <trkpt lat="42.83186542801558971405029296875" lon="-0.17351587302982807159423828125">
        <ele>1718.199951171875</ele>
        <time>2022-08-03T11:21:50.000Z</time>
      </trkpt>
      <trkpt lat="42.831929884850978851318359375" lon="-0.173537246882915496826171875">
        <ele>1718.199951171875</ele>
        <time>2022-08-03T11:21:56.000Z</time>
      </trkpt>
      <trkpt lat="42.8319360874593257904052734375" lon="-0.17353280447423458099365234375">
        <ele>1718.199951171875</ele>
        <time>2022-08-03T11:21:57.000Z</time>
      </trkpt>
      <trkpt lat="42.83207841217517852783203125" lon="-0.17357488162815570831298828125">
        <ele>1717.800048828125</ele>
        <time>2022-08-03T11:22:12.000Z</time>
      </trkpt>
      <trkpt lat="42.8321255184710025787353515625" lon="-0.17355610616505146026611328125">
        <ele>1718</ele>
        <time>2022-08-03T11:22:17.000Z</time>
      </trkpt>
      <trkpt lat="42.8321674279868602752685546875" lon="-0.1734934933483600616455078125">
        <ele>1719</ele>
        <time>2022-08-03T11:22:21.000Z</time>
      </trkpt>
      <trkpt lat="42.83221126534044742584228515625" lon="-0.17344127409160137176513671875">
        <ele>1720.4000244140625</ele>
        <time>2022-08-03T11:22:26.000Z</time>
      </trkpt>
      <trkpt lat="42.8323900513350963592529296875" lon="-0.17336633987724781036376953125">
        <ele>1722</ele>
        <time>2022-08-03T11:22:40.000Z</time>
      </trkpt>
      <trkpt lat="42.83245651982724666595458984375" lon="-0.17329593189060688018798828125">
        <ele>1723.4000244140625</ele>
        <time>2022-08-03T11:22:46.000Z</time>
      </trkpt>
      <trkpt lat="42.83255609683692455291748046875" lon="-0.17323113977909088134765625">
        <ele>1724.4000244140625</ele>
        <time>2022-08-03T11:22:55.000Z</time>
      </trkpt>
      <trkpt lat="42.83267118036746978759765625" lon="-0.17311102710664272308349609375">
        <ele>1727.199951171875</ele>
        <time>2022-08-03T11:23:05.000Z</time>
      </trkpt>
      <trkpt lat="42.83272775821387767791748046875" lon="-0.17302670516073703765869140625">
        <ele>1729.199951171875</ele>
        <time>2022-08-03T11:23:09.000Z</time>
      </trkpt>
      <trkpt lat="42.83279481343924999237060546875" lon="-0.17303123138844966888427734375">
        <ele>1728.5999755859375</ele>
        <time>2022-08-03T11:23:13.000Z</time>
      </trkpt>
      <trkpt lat="42.83284996636211872100830078125" lon="-0.173018239438533782958984375">
        <ele>1728.800048828125</ele>
        <time>2022-08-03T11:23:18.000Z</time>
      </trkpt>
      <trkpt lat="42.83296798355877399444580078125" lon="-0.17294104211032390594482421875">
        <ele>1730.800048828125</ele>
        <time>2022-08-03T11:23:29.000Z</time>
      </trkpt>
      <trkpt lat="42.83305901102721691131591796875" lon="-0.17292545177042484283447265625">
        <ele>1731.4000244140625</ele>
        <time>2022-08-03T11:23:39.000Z</time>
      </trkpt>
      <trkpt lat="42.8331829793751239776611328125" lon="-0.17294171266257762908935546875">
        <ele>1731.5999755859375</ele>
        <time>2022-08-03T11:23:53.000Z</time>
      </trkpt>
      <trkpt lat="42.83321524970233440399169921875" lon="-0.1729771681129932403564453125">
        <ele>1731.4000244140625</ele>
        <time>2022-08-03T11:23:58.000Z</time>
      </trkpt>
      <trkpt lat="42.8333911858499050140380859375" lon="-0.1730066724121570587158203125">
        <ele>1732</ele>
        <time>2022-08-03T11:24:13.000Z</time>
      </trkpt>
      <trkpt lat="42.833583466708660125732421875" lon="-0.1730391941964626312255859375">
        <ele>1729.5999755859375</ele>
        <time>2022-08-03T11:24:29.000Z</time>
      </trkpt>
      <trkpt lat="42.83376979641616344451904296875" lon="-0.17300860024988651275634765625">
        <ele>1728.800048828125</ele>
        <time>2022-08-03T11:24:44.000Z</time>
      </trkpt>
      <trkpt lat="42.83382193185389041900634765625" lon="-0.172992087900638580322265625">
        <ele>1728.800048828125</ele>
        <time>2022-08-03T11:24:49.000Z</time>
      </trkpt>
      <trkpt lat="42.83385948278009891510009765625" lon="-0.17297658137977123260498046875">
        <ele>1728.800048828125</ele>
        <time>2022-08-03T11:24:53.000Z</time>
      </trkpt>
      <trkpt lat="42.83392385579645633697509765625" lon="-0.1729496754705905914306640625">
        <ele>1728.800048828125</ele>
        <time>2022-08-03T11:24:59.000Z</time>
      </trkpt>
      <trkpt lat="42.83409484662115573883056640625" lon="-0.17289008013904094696044921875">
        <ele>1729.199951171875</ele>
        <time>2022-08-03T11:25:15.000Z</time>
      </trkpt>
      <trkpt lat="42.83420096151530742645263671875" lon="-0.17281414009630680084228515625">
        <ele>1730.5999755859375</ele>
        <time>2022-08-03T11:25:24.000Z</time>
      </trkpt>
      <trkpt lat="42.8342545218765735626220703125" lon="-0.17276770435273647308349609375">
        <ele>1731.4000244140625</ele>
        <time>2022-08-03T11:25:30.000Z</time>
      </trkpt>
      <trkpt lat="42.834328114986419677734375" lon="-0.17268137075006961822509765625">
        <ele>1733.199951171875</ele>
        <time>2022-08-03T11:25:39.000Z</time>
      </trkpt>
      <trkpt lat="42.834463231265544891357421875" lon="-0.17247341573238372802734375">
        <ele>1736.4000244140625</ele>
        <time>2022-08-03T11:25:50.000Z</time>
      </trkpt>
      <trkpt lat="42.83455635420978069305419921875" lon="-0.1723079569637775421142578125">
        <ele>1738.199951171875</ele>
        <time>2022-08-03T11:26:01.000Z</time>
      </trkpt>
      <trkpt lat="42.8346367366611957550048828125" lon="-0.1722700707614421844482421875">
        <ele>1738</ele>
        <time>2022-08-03T11:26:08.000Z</time>
      </trkpt>
      <trkpt lat="42.834731452167034149169921875" lon="-0.172221623361110687255859375">
        <ele>1737.5999755859375</ele>
        <time>2022-08-03T11:26:15.000Z</time>
      </trkpt>
      <trkpt lat="42.83485156483948230743408203125" lon="-0.1721926219761371612548828125">
        <ele>1737.199951171875</ele>
        <time>2022-08-03T11:26:25.000Z</time>
      </trkpt>
      <trkpt lat="42.83497695811092853546142578125" lon="-0.172165296971797943115234375">
        <ele>1737</ele>
        <time>2022-08-03T11:26:34.000Z</time>
      </trkpt>
      <trkpt lat="42.835132442414760589599609375" lon="-0.1721091382205486297607421875">
        <ele>1736.4000244140625</ele>
        <time>2022-08-03T11:26:49.000Z</time>
      </trkpt>
      <trkpt lat="42.8353213705122470855712890625" lon="-0.172041915357112884521484375">
        <ele>1734.199951171875</ele>
        <time>2022-08-03T11:27:02.000Z</time>
      </trkpt>
      <trkpt lat="42.8354038484394550323486328125" lon="-0.1719944737851619720458984375">
        <ele>1733.4000244140625</ele>
        <time>2022-08-03T11:27:08.000Z</time>
      </trkpt>
      <trkpt lat="42.8355879150331020355224609375" lon="-0.17199288122355937957763671875">
        <ele>1732.199951171875</ele>
        <time>2022-08-03T11:27:23.000Z</time>
      </trkpt>
      <trkpt lat="42.83562655560672283172607421875" lon="-0.1719606108963489532470703125">
        <ele>1731.800048828125</ele>
        <time>2022-08-03T11:27:27.000Z</time>
      </trkpt>
      <trkpt lat="42.8356499411165714263916015625" lon="-0.17192180268466472625732421875">
        <ele>1731.800048828125</ele>
        <time>2022-08-03T11:27:30.000Z</time>
      </trkpt>
      <trkpt lat="42.83569528721272945404052734375" lon="-0.17183479852974414825439453125">
        <ele>1731</ele>
        <time>2022-08-03T11:27:35.000Z</time>
      </trkpt>
      <trkpt lat="42.835729233920574188232421875" lon="-0.1717906259000301361083984375">
        <ele>1730.4000244140625</ele>
        <time>2022-08-03T11:27:39.000Z</time>
      </trkpt>
      <trkpt lat="42.8358125500380992889404296875" lon="-0.17162089236080646514892578125">
        <ele>1727.800048828125</ele>
        <time>2022-08-03T11:27:50.000Z</time>
      </trkpt>
      <trkpt lat="42.835827134549617767333984375" lon="-0.17155065201222896575927734375">
        <ele>1726.800048828125</ele>
        <time>2022-08-03T11:27:54.000Z</time>
      </trkpt>
      <trkpt lat="42.835835851728916168212890625" lon="-0.17130120657384395599365234375">
        <ele>1724.5999755859375</ele>
        <time>2022-08-03T11:28:10.000Z</time>
      </trkpt>
      <trkpt lat="42.83583258278667926788330078125" lon="-0.17105645500123500823974609375">
        <ele>1722.5999755859375</ele>
        <time>2022-08-03T11:28:27.000Z</time>
      </trkpt>
      <trkpt lat="42.8358075208961963653564453125" lon="-0.1708042435348033905029296875">
        <ele>1720.800048828125</ele>
        <time>2022-08-03T11:28:45.000Z</time>
      </trkpt>
      <trkpt lat="42.83585504628717899322509765625" lon="-0.170612633228302001953125">
        <ele>1720.4000244140625</ele>
        <time>2022-08-03T11:29:33.000Z</time>
      </trkpt>
      <trkpt lat="42.83592604100704193115234375" lon="-0.17047257162630558013916015625">
        <ele>1721</ele>
        <time>2022-08-03T11:30:11.000Z</time>
      </trkpt>
      <trkpt lat="42.836051769554615020751953125" lon="-0.17028364352881908416748046875">
        <ele>1723.800048828125</ele>
        <time>2022-08-03T11:30:28.000Z</time>
      </trkpt>
      <trkpt lat="42.83621714450418949127197265625" lon="-0.17014685086905956268310546875">
        <ele>1726.4000244140625</ele>
        <time>2022-08-03T11:30:44.000Z</time>
      </trkpt>
      <trkpt lat="42.83634605817496776580810546875" lon="-0.17000704072415828704833984375">
        <ele>1728</ele>
        <time>2022-08-03T11:30:57.000Z</time>
      </trkpt>
      <trkpt lat="42.83640640787780284881591796875" lon="-0.16993336379528045654296875">
        <ele>1728.800048828125</ele>
        <time>2022-08-03T11:31:04.000Z</time>
      </trkpt>
      <trkpt lat="42.83644781447947025299072265625" lon="-0.169840492308139801025390625">
        <ele>1728.800048828125</ele>
        <time>2022-08-03T11:31:10.000Z</time>
      </trkpt>
      <trkpt lat="42.83646960742771625518798828125" lon="-0.16979866661131381988525390625">
        <ele>1728.5999755859375</ele>
        <time>2022-08-03T11:31:13.000Z</time>
      </trkpt>
      <trkpt lat="42.8365065716207027435302734375" lon="-0.16961283981800079345703125">
        <ele>1727.5999755859375</ele>
        <time>2022-08-03T11:31:25.000Z</time>
      </trkpt>
      <trkpt lat="42.83659684471786022186279296875" lon="-0.16939214430749416351318359375">
        <ele>1725</ele>
        <time>2022-08-03T11:31:39.000Z</time>
      </trkpt>
      <trkpt lat="42.83659701235592365264892578125" lon="-0.16937588341534137725830078125">
        <ele>1725</ele>
        <time>2022-08-03T11:31:40.000Z</time>
      </trkpt>
      <trkpt lat="42.83662073314189910888671875" lon="-0.16929902136325836181640625">
        <ele>1724.800048828125</ele>
        <time>2022-08-03T11:31:45.000Z</time>
      </trkpt>
      <trkpt lat="42.83670480363070964813232421875" lon="-0.16913331113755702972412109375">
        <ele>1723.800048828125</ele>
        <time>2022-08-03T11:31:57.000Z</time>
      </trkpt>
      <trkpt lat="42.8367157839238643646240234375" lon="-0.169104225933551788330078125">
        <ele>1723.5999755859375</ele>
        <time>2022-08-03T11:31:59.000Z</time>
      </trkpt>
      <trkpt lat="42.83676230348646640777587890625" lon="-0.169037170708179473876953125">
        <ele>1723.199951171875</ele>
        <time>2022-08-03T11:32:04.000Z</time>
      </trkpt>
      <trkpt lat="42.83676682971417903900146484375" lon="-0.16902116127312183380126953125">
        <ele>1723.199951171875</ele>
        <time>2022-08-03T11:32:05.000Z</time>
      </trkpt>
      <trkpt lat="42.8368143551051616668701171875" lon="-0.168924517929553985595703125">
        <ele>1723</ele>
        <time>2022-08-03T11:32:13.000Z</time>
      </trkpt>
      <trkpt lat="42.83685165457427501678466796875" lon="-0.16888302750885486602783203125">
        <ele>1722.800048828125</ele>
        <time>2022-08-03T11:32:18.000Z</time>
      </trkpt>
      <trkpt lat="42.8368881158530712127685546875" lon="-0.16882292926311492919921875">
        <ele>1722.5999755859375</ele>
        <time>2022-08-03T11:32:23.000Z</time>
      </trkpt>
      <trkpt lat="42.83692508004605770111083984375" lon="-0.16876350156962871551513671875">
        <ele>1722.4000244140625</ele>
        <time>2022-08-03T11:32:28.000Z</time>
      </trkpt>
      <trkpt lat="42.83703203313052654266357421875" lon="-0.168559066951274871826171875">
        <ele>1722.800048828125</ele>
        <time>2022-08-03T11:32:46.000Z</time>
      </trkpt>
      <trkpt lat="42.83711501397192478179931640625" lon="-0.1683359406888484954833984375">
        <ele>1722.800048828125</ele>
        <time>2022-08-03T11:33:02.000Z</time>
      </trkpt>
      <trkpt lat="42.83714669756591320037841796875" lon="-0.1681797020137310028076171875">
        <ele>1721.800048828125</ele>
        <time>2022-08-03T11:33:37.000Z</time>
      </trkpt>
      <trkpt lat="42.837064303457736968994140625" lon="-0.1680113933980464935302734375">
        <ele>1721.800048828125</ele>
        <time>2022-08-03T11:34:15.000Z</time>
      </trkpt>
      <trkpt lat="42.83702599816024303436279296875" lon="-0.167881809175014495849609375">
        <ele>1721.800048828125</ele>
        <time>2022-08-03T11:34:25.000Z</time>
      </trkpt>
      <trkpt lat="42.83700001426041126251220703125" lon="-0.16780545003712177276611328125">
        <ele>1722</ele>
        <time>2022-08-03T11:34:33.000Z</time>
      </trkpt>
      <trkpt lat="42.8370249085128307342529296875" lon="-0.1675845868885517120361328125">
        <ele>1719.4000244140625</ele>
        <time>2022-08-03T11:35:12.000Z</time>
      </trkpt>
      <trkpt lat="42.83717117272317409515380859375" lon="-0.167418457567691802978515625">
        <ele>1712.4000244140625</ele>
        <time>2022-08-03T11:35:30.000Z</time>
      </trkpt>
      <trkpt lat="42.837327159941196441650390625" lon="-0.1672935672104358673095703125">
        <ele>1705.4000244140625</ele>
        <time>2022-08-03T11:35:45.000Z</time>
      </trkpt>
      <trkpt lat="42.83734082244336605072021484375" lon="-0.167255513370037078857421875">
        <ele>1704.800048828125</ele>
        <time>2022-08-03T11:35:48.000Z</time>
      </trkpt>
      <trkpt lat="42.8373072110116481781005859375" lon="-0.1670380868017673492431640625">
        <ele>1704.199951171875</ele>
        <time>2022-08-03T11:36:02.000Z</time>
      </trkpt>
      <trkpt lat="42.83725834451615810394287109375" lon="-0.1668067462742328643798828125">
        <ele>1706.5999755859375</ele>
        <time>2022-08-03T11:36:16.000Z</time>
      </trkpt>
      <trkpt lat="42.8372394852340221405029296875" lon="-0.16676475293934345245361328125">
        <ele>1707.5999755859375</ele>
        <time>2022-08-03T11:36:18.000Z</time>
      </trkpt>
      <trkpt lat="42.8372049517929553985595703125" lon="-0.16663290560245513916015625">
        <ele>1709.199951171875</ele>
        <time>2022-08-03T11:36:27.000Z</time>
      </trkpt>
      <trkpt lat="42.837211824953556060791015625" lon="-0.1665837876498699188232421875">
        <ele>1708.4000244140625</ele>
        <time>2022-08-03T11:36:31.000Z</time>
      </trkpt>
      <trkpt lat="42.8372133336961269378662109375" lon="-0.16657347790896892547607421875">
        <ele>1708.199951171875</ele>
        <time>2022-08-03T11:36:32.000Z</time>
      </trkpt>
      <trkpt lat="42.83727510832250118255615234375" lon="-0.1665495894849300384521484375">
        <ele>1705.4000244140625</ele>
        <time>2022-08-03T11:36:39.000Z</time>
      </trkpt>
      <trkpt lat="42.83729203976690769195556640625" lon="-0.16655771993100643157958984375">
        <ele>1704.4000244140625</ele>
        <time>2022-08-03T11:36:41.000Z</time>
      </trkpt>
      <trkpt lat="42.83739144913852214813232421875" lon="-0.16668730415403842926025390625">
        <ele>1701.5999755859375</ele>
        <time>2022-08-03T11:36:53.000Z</time>
      </trkpt>
      <trkpt lat="42.83742673695087432861328125" lon="-0.16671211458742618560791015625">
        <ele>1701</ele>
        <time>2022-08-03T11:36:56.000Z</time>
      </trkpt>
      <trkpt lat="42.8375097177922725677490234375" lon="-0.16678989864885807037353515625">
        <ele>1698.5999755859375</ele>
        <time>2022-08-03T11:37:03.000Z</time>
      </trkpt>
      <trkpt lat="42.83765765838325023651123046875" lon="-0.16692702658474445343017578125">
        <ele>1695.199951171875</ele>
        <time>2022-08-03T11:37:17.000Z</time>
      </trkpt>
      <trkpt lat="42.83767123706638813018798828125" lon="-0.16693088226020336151123046875">
        <ele>1694.800048828125</ele>
        <time>2022-08-03T11:37:18.000Z</time>
      </trkpt>
      <trkpt lat="42.83773108385503292083740234375" lon="-0.1669447124004364013671875">
        <ele>1693.800048828125</ele>
        <time>2022-08-03T11:37:22.000Z</time>
      </trkpt>
      <trkpt lat="42.83776762895286083221435546875" lon="-0.16694060526788234710693359375">
        <ele>1693.199951171875</ele>
        <time>2022-08-03T11:37:26.000Z</time>
      </trkpt>
      <trkpt lat="42.83791498281061649322509765625" lon="-0.16680884175002574920654296875">
        <ele>1690.199951171875</ele>
        <time>2022-08-03T11:37:40.000Z</time>
      </trkpt>
      <trkpt lat="42.8379227779805660247802734375" lon="-0.166798196732997894287109375">
        <ele>1690</ele>
        <time>2022-08-03T11:37:41.000Z</time>
      </trkpt>
      <trkpt lat="42.83794582821428775787353515625" lon="-0.16671982593834400177001953125">
        <ele>1689.800048828125</ele>
        <time>2022-08-03T11:37:48.000Z</time>
      </trkpt>
      <trkpt lat="42.83794884569942951202392578125" lon="-0.16670800745487213134765625">
        <ele>1689.800048828125</ele>
        <time>2022-08-03T11:37:49.000Z</time>
      </trkpt>
      <trkpt lat="42.83796527422964572906494140625" lon="-0.1664563827216625213623046875">
        <ele>1690.800048828125</ele>
        <time>2022-08-03T11:38:03.000Z</time>
      </trkpt>
      <trkpt lat="42.8380190022289752960205078125" lon="-0.16621992923319339752197265625">
        <ele>1690.800048828125</ele>
        <time>2022-08-03T11:38:17.000Z</time>
      </trkpt>
      <trkpt lat="42.8381326608359813690185546875" lon="-0.16601775772869586944580078125">
        <ele>1690.4000244140625</ele>
        <time>2022-08-03T11:38:40.000Z</time>
      </trkpt>
      <trkpt lat="42.838286720216274261474609375" lon="-0.165889263153076171875">
        <ele>1689.800048828125</ele>
        <time>2022-08-03T11:39:02.000Z</time>
      </trkpt>
      <trkpt lat="42.83831882290542125701904296875" lon="-0.16584567725658416748046875">
        <ele>1690</ele>
        <time>2022-08-03T11:39:06.000Z</time>
      </trkpt>
      <trkpt lat="42.83850808627903461456298828125" lon="-0.16581726260483264923095703125">
        <ele>1686.800048828125</ele>
        <time>2022-08-03T11:39:24.000Z</time>
      </trkpt>
      <trkpt lat="42.83868561498820781707763671875" lon="-0.16583704389631748199462890625">
        <ele>1681.5999755859375</ele>
        <time>2022-08-03T11:39:43.000Z</time>
      </trkpt>
      <trkpt lat="42.83887655474245548248291015625" lon="-0.165827907621860504150390625">
        <ele>1676.800048828125</ele>
        <time>2022-08-03T11:39:58.000Z</time>
      </trkpt>
      <trkpt lat="42.83906363882124423980712890625" lon="-0.1657982356846332550048828125">
        <ele>1673.4000244140625</ele>
        <time>2022-08-03T11:40:17.000Z</time>
      </trkpt>
      <trkpt lat="42.83924929797649383544921875" lon="-0.16584525816142559051513671875">
        <ele>1669.4000244140625</ele>
        <time>2022-08-03T11:40:35.000Z</time>
      </trkpt>
      <trkpt lat="42.8391944803297519683837890625" lon="-0.16595137305557727813720703125">
        <ele>1667.199951171875</ele>
        <time>2022-08-03T11:41:01.000Z</time>
      </trkpt>
      <trkpt lat="42.83905374817550182342529296875" lon="-0.16611582599580287933349609375">
        <ele>1665</ele>
        <time>2022-08-03T11:41:21.000Z</time>
      </trkpt>
      <trkpt lat="42.8389628045260906219482421875" lon="-0.16633124090731143951416015625">
        <ele>1663.4000244140625</ele>
        <time>2022-08-03T11:41:41.000Z</time>
      </trkpt>
      <trkpt lat="42.83887689001858234405517578125" lon="-0.1665522716939449310302734375">
        <ele>1664.199951171875</ele>
        <time>2022-08-03T11:42:00.000Z</time>
      </trkpt>
      <trkpt lat="42.83884621225297451019287109375" lon="-0.1668025553226470947265625">
        <ele>1664.199951171875</ele>
        <time>2022-08-03T11:42:19.000Z</time>
      </trkpt>
      <trkpt lat="42.838887535035610198974609375" lon="-0.16705267131328582763671875">
        <ele>1663</ele>
        <time>2022-08-03T11:42:36.000Z</time>
      </trkpt>
      <trkpt lat="42.83896070905029773712158203125" lon="-0.16727873124182224273681640625">
        <ele>1661.4000244140625</ele>
        <time>2022-08-03T11:42:51.000Z</time>
      </trkpt>
      <trkpt lat="42.8390221484005451202392578125" lon="-0.16751677729189395904541015625">
        <ele>1660.199951171875</ele>
        <time>2022-08-03T11:43:09.000Z</time>
      </trkpt>
      <trkpt lat="42.83901787362992763519287109375" lon="-0.167729593813419342041015625">
        <ele>1660.199951171875</ele>
        <time>2022-08-03T11:43:46.000Z</time>
      </trkpt>
      <trkpt lat="42.83899825997650623321533203125" lon="-0.1678655482828617095947265625">
        <ele>1660.5999755859375</ele>
        <time>2022-08-03T11:44:29.000Z</time>
      </trkpt>
      <trkpt lat="42.83896791748702526092529296875" lon="-0.1681168377399444580078125">
        <ele>1661.800048828125</ele>
        <time>2022-08-03T11:44:49.000Z</time>
      </trkpt>
      <trkpt lat="42.83898216672241687774658203125" lon="-0.16833736561238765716552734375">
        <ele>1661</ele>
        <time>2022-08-03T11:45:25.000Z</time>
      </trkpt>
      <trkpt lat="42.83914762549102306365966796875" lon="-0.16845990903675556182861328125">
        <ele>1654.5999755859375</ele>
        <time>2022-08-03T11:45:41.000Z</time>
      </trkpt>
      <trkpt lat="42.839284501969814300537109375" lon="-0.16859569586813449859619140625">
        <ele>1648.4000244140625</ele>
        <time>2022-08-03T11:46:00.000Z</time>
      </trkpt>
      <trkpt lat="42.8394295088946819305419921875" lon="-0.1687382720410823822021484375">
        <ele>1642.199951171875</ele>
        <time>2022-08-03T11:46:29.000Z</time>
      </trkpt>
      <trkpt lat="42.8395773656666278839111328125" lon="-0.16888654790818691253662109375">
        <ele>1637.4000244140625</ele>
        <time>2022-08-03T11:46:43.000Z</time>
      </trkpt>
      <trkpt lat="42.83975464291870594024658203125" lon="-0.1688759028911590576171875">
        <ele>1634.800048828125</ele>
        <time>2022-08-03T11:47:02.000Z</time>
      </trkpt>
      <trkpt lat="42.83992697484791278839111328125" lon="-0.1688264496624469757080078125">
        <ele>1632.5999755859375</ele>
        <time>2022-08-03T11:47:24.000Z</time>
      </trkpt>
      <trkpt lat="42.8400876559317111968994140625" lon="-0.16874573193490505218505859375">
        <ele>1631</ele>
        <time>2022-08-03T11:47:46.000Z</time>
      </trkpt>
      <trkpt lat="42.84025671891868114471435546875" lon="-0.16867549158632755279541015625">
        <ele>1629.5999755859375</ele>
        <time>2022-08-03T11:48:02.000Z</time>
      </trkpt>
      <trkpt lat="42.840419746935367584228515625" lon="-0.16856401227414608001708984375">
        <ele>1628.4000244140625</ele>
        <time>2022-08-03T11:48:20.000Z</time>
      </trkpt>
      <trkpt lat="42.8405734710395336151123046875" lon="-0.16843358986079692840576171875">
        <ele>1628.4000244140625</ele>
        <time>2022-08-03T11:48:35.000Z</time>
      </trkpt>
      <trkpt lat="42.84067966975271701812744140625" lon="-0.16823627986013889312744140625">
        <ele>1629.800048828125</ele>
        <time>2022-08-03T11:48:50.000Z</time>
      </trkpt>
      <trkpt lat="42.84076273441314697265625" lon="-0.168040730059146881103515625">
        <ele>1630.199951171875</ele>
        <time>2022-08-03T11:49:04.000Z</time>
      </trkpt>
      <trkpt lat="42.84081394784152507781982421875" lon="-0.1679684780538082122802734375">
        <ele>1630.199951171875</ele>
        <time>2022-08-03T11:49:10.000Z</time>
      </trkpt>
      <trkpt lat="42.84092626534402370452880859375" lon="-0.16776136122643947601318359375">
        <ele>1629.800048828125</ele>
        <time>2022-08-03T11:49:26.000Z</time>
      </trkpt>
      <trkpt lat="42.8410032950341701507568359375" lon="-0.16753521747887134552001953125">
        <ele>1629.199951171875</ele>
        <time>2022-08-03T11:49:42.000Z</time>
      </trkpt>
      <trkpt lat="42.841146625578403472900390625" lon="-0.16739322803914546966552734375">
        <ele>1626.4000244140625</ele>
        <time>2022-08-03T11:49:58.000Z</time>
      </trkpt>
      <trkpt lat="42.8412547521293163299560546875" lon="-0.167191810905933380126953125">
        <ele>1624.5999755859375</ele>
        <time>2022-08-03T11:50:14.000Z</time>
      </trkpt>
      <trkpt lat="42.84144007600843906402587890625" lon="-0.1670716144144535064697265625">
        <ele>1624</ele>
        <time>2022-08-03T11:50:30.000Z</time>
      </trkpt>
      <trkpt lat="42.84145415760576725006103515625" lon="-0.167050994932651519775390625">
        <ele>1624</ele>
        <time>2022-08-03T11:50:32.000Z</time>
      </trkpt>
      <trkpt lat="42.8414857573807239532470703125" lon="-0.16700732521712779998779296875">
        <ele>1624.4000244140625</ele>
        <time>2022-08-03T11:50:37.000Z</time>
      </trkpt>
      <trkpt lat="42.8415923751890659332275390625" lon="-0.16689618118107318878173828125">
        <ele>1625.5999755859375</ele>
        <time>2022-08-03T11:50:48.000Z</time>
      </trkpt>
      <trkpt lat="42.84163436852395534515380859375" lon="-0.16685552895069122314453125">
        <ele>1626</ele>
        <time>2022-08-03T11:50:52.000Z</time>
      </trkpt>
      <trkpt lat="42.84168918617069721221923828125" lon="-0.16679115593433380126953125">
        <ele>1625.800048828125</ele>
        <time>2022-08-03T11:50:58.000Z</time>
      </trkpt>
      <trkpt lat="42.84176831133663654327392578125" lon="-0.1667259447276592254638671875">
        <ele>1625.5999755859375</ele>
        <time>2022-08-03T11:51:07.000Z</time>
      </trkpt>
      <trkpt lat="42.84180033020675182342529296875" lon="-0.16665436327457427978515625">
        <ele>1625.199951171875</ele>
        <time>2022-08-03T11:51:13.000Z</time>
      </trkpt>
      <trkpt lat="42.8418984822928905487060546875" lon="-0.16644288785755634307861328125">
        <ele>1624.5999755859375</ele>
        <time>2022-08-03T11:51:31.000Z</time>
      </trkpt>
      <trkpt lat="42.842035107314586639404296875" lon="-0.1662713102996349334716796875">
        <ele>1624.199951171875</ele>
        <time>2022-08-03T11:51:46.000Z</time>
      </trkpt>
      <trkpt lat="42.84214884974062442779541015625" lon="-0.16606335528194904327392578125">
        <ele>1624.800048828125</ele>
        <time>2022-08-03T11:52:01.000Z</time>
      </trkpt>
      <trkpt lat="42.84218271262943744659423828125" lon="-0.16599680297076702117919921875">
        <ele>1625</ele>
        <time>2022-08-03T11:52:07.000Z</time>
      </trkpt>
      <trkpt lat="42.84232688136398792266845703125" lon="-0.1658691465854644775390625">
        <ele>1624.4000244140625</ele>
        <time>2022-08-03T11:52:24.000Z</time>
      </trkpt>
      <trkpt lat="42.8424718044698238372802734375" lon="-0.16576923429965972900390625">
        <ele>1623</ele>
        <time>2022-08-03T11:52:35.000Z</time>
      </trkpt>
      <trkpt lat="42.8426109440624713897705078125" lon="-0.1657033525407314300537109375">
        <ele>1622.5999755859375</ele>
        <time>2022-08-03T11:52:50.000Z</time>
      </trkpt>
      <trkpt lat="42.84279174171388149261474609375" lon="-0.16562917269766330718994140625">
        <ele>1625.800048828125</ele>
        <time>2022-08-03T11:53:04.000Z</time>
      </trkpt>
      <trkpt lat="42.84280515275895595550537109375" lon="-0.16561567783355712890625">
        <ele>1626.199951171875</ele>
        <time>2022-08-03T11:53:06.000Z</time>
      </trkpt>
      <trkpt lat="42.84287631511688232421875" lon="-0.1655850000679492950439453125">
        <ele>1627.4000244140625</ele>
        <time>2022-08-03T11:53:13.000Z</time>
      </trkpt>
      <trkpt lat="42.84298050217330455780029296875" lon="-0.16555725596845149993896484375">
        <ele>1629.199951171875</ele>
        <time>2022-08-03T11:53:22.000Z</time>
      </trkpt>
      <trkpt lat="42.84306331537663936614990234375" lon="-0.1655256561934947967529296875">
        <ele>1630.5999755859375</ele>
        <time>2022-08-03T11:53:28.000Z</time>
      </trkpt>
      <trkpt lat="42.84317211247980594635009765625" lon="-0.16550310887396335601806640625">
        <ele>1632</ele>
        <time>2022-08-03T11:53:37.000Z</time>
      </trkpt>
      <trkpt lat="42.8432305343449115753173828125" lon="-0.1654901169240474700927734375">
        <ele>1631.5999755859375</ele>
        <time>2022-08-03T11:53:41.000Z</time>
      </trkpt>
      <trkpt lat="42.8434166125953197479248046875" lon="-0.1654391549527645111083984375">
        <ele>1631.4000244140625</ele>
        <time>2022-08-03T11:53:54.000Z</time>
      </trkpt>
      <trkpt lat="42.84356229007244110107421875" lon="-0.165373943746089935302734375">
        <ele>1630.800048828125</ele>
        <time>2022-08-03T11:54:08.000Z</time>
      </trkpt>
      <trkpt lat="42.8436127491295337677001953125" lon="-0.16538358293473720550537109375">
        <ele>1630</ele>
        <time>2022-08-03T11:54:13.000Z</time>
      </trkpt>
      <trkpt lat="42.84379857592284679412841796875" lon="-0.16540705226361751556396484375">
        <ele>1628.199951171875</ele>
        <time>2022-08-03T11:54:28.000Z</time>
      </trkpt>
      <trkpt lat="42.843929417431354522705078125" lon="-0.1654297672212123870849609375">
        <ele>1626.4000244140625</ele>
        <time>2022-08-03T11:54:38.000Z</time>
      </trkpt>
      <trkpt lat="42.84399680793285369873046875" lon="-0.16542079858481884002685546875">
        <ele>1626.199951171875</ele>
        <time>2022-08-03T11:54:44.000Z</time>
      </trkpt>
      <trkpt lat="42.84406696446239948272705078125" lon="-0.1654508896172046661376953125">
        <ele>1625.800048828125</ele>
        <time>2022-08-03T11:54:50.000Z</time>
      </trkpt>
      <trkpt lat="42.84410485066473484039306640625" lon="-0.16544963233172893524169921875">
        <ele>1626</ele>
        <time>2022-08-03T11:54:53.000Z</time>
      </trkpt>
      <trkpt lat="42.844283469021320343017578125" lon="-0.165341086685657501220703125">
        <ele>1628.800048828125</ele>
        <time>2022-08-03T11:55:08.000Z</time>
      </trkpt>
      <trkpt lat="42.84446887671947479248046875" lon="-0.16539749689400196075439453125">
        <ele>1628.5999755859375</ele>
        <time>2022-08-03T11:55:27.000Z</time>
      </trkpt>
      <trkpt lat="42.844670377671718597412109375" lon="-0.1653097383677959442138671875">
        <ele>1629.199951171875</ele>
        <time>2022-08-03T11:55:44.000Z</time>
      </trkpt>
      <trkpt lat="42.844826616346836090087890625" lon="-0.165166072547435760498046875">
        <ele>1630.199951171875</ele>
        <time>2022-08-03T11:55:53.000Z</time>
      </trkpt>
      <trkpt lat="42.84488352946937084197998046875" lon="-0.16513732261955738067626953125">
        <ele>1629.800048828125</ele>
        <time>2022-08-03T11:55:58.000Z</time>
      </trkpt>
      <trkpt lat="42.84505753777921199798583984375" lon="-0.165081582963466644287109375">
        <ele>1628</ele>
        <time>2022-08-03T11:56:12.000Z</time>
      </trkpt>
      <trkpt lat="42.84523062407970428466796875" lon="-0.1650063134729862213134765625">
        <ele>1624.4000244140625</ele>
        <time>2022-08-03T11:56:28.000Z</time>
      </trkpt>
      <trkpt lat="42.84534436650574207305908203125" lon="-0.16494981944561004638671875">
        <ele>1622.199951171875</ele>
        <time>2022-08-03T11:56:38.000Z</time>
      </trkpt>
      <trkpt lat="42.845528014004230499267578125" lon="-0.16492567956447601318359375">
        <ele>1618.4000244140625</ele>
        <time>2022-08-03T11:56:51.000Z</time>
      </trkpt>
      <trkpt lat="42.84557000733911991119384765625" lon="-0.16489491797983646392822265625">
        <ele>1618</ele>
        <time>2022-08-03T11:56:55.000Z</time>
      </trkpt>
      <trkpt lat="42.84574720077216625213623046875" lon="-0.1648353226482868194580078125">
        <ele>1617.800048828125</ele>
        <time>2022-08-03T11:57:09.000Z</time>
      </trkpt>
      <trkpt lat="42.84584627486765384674072265625" lon="-0.164778493344783782958984375">
        <ele>1619.199951171875</ele>
        <time>2022-08-03T11:57:20.000Z</time>
      </trkpt>
      <trkpt lat="42.84601961262524127960205078125" lon="-0.1647176407277584075927734375">
        <ele>1620.800048828125</ele>
        <time>2022-08-03T11:57:36.000Z</time>
      </trkpt>
      <trkpt lat="42.84611784853041172027587890625" lon="-0.16469224356114864349365234375">
        <ele>1621</ele>
        <time>2022-08-03T11:57:44.000Z</time>
      </trkpt>
      <trkpt lat="42.8462108038365840911865234375" lon="-0.16464681364595890045166015625">
        <ele>1621.800048828125</ele>
        <time>2022-08-03T11:57:52.000Z</time>
      </trkpt>
      <trkpt lat="42.8463995642960071563720703125" lon="-0.16465217806398868560791015625">
        <ele>1622.4000244140625</ele>
        <time>2022-08-03T11:58:08.000Z</time>
      </trkpt>
      <trkpt lat="42.84658941440284252166748046875" lon="-0.16462921164929866790771484375">
        <ele>1621.800048828125</ele>
        <time>2022-08-03T11:58:24.000Z</time>
      </trkpt>
      <trkpt lat="42.84667138941586017608642578125" lon="-0.164514966309070587158203125">
        <ele>1625.5999755859375</ele>
        <time>2022-08-03T11:58:30.000Z</time>
      </trkpt>
      <trkpt lat="42.84670005552470684051513671875" lon="-0.16446165740489959716796875">
        <ele>1627.4000244140625</ele>
        <time>2022-08-03T11:58:33.000Z</time>
      </trkpt>
      <trkpt lat="42.84676484763622283935546875" lon="-0.164409019052982330322265625">
        <ele>1628.5999755859375</ele>
        <time>2022-08-03T11:58:39.000Z</time>
      </trkpt>
      <trkpt lat="42.84691178239881992340087890625" lon="-0.16427868045866489410400390625">
        <ele>1632.5999755859375</ele>
        <time>2022-08-03T11:58:56.000Z</time>
      </trkpt>
      <trkpt lat="42.84703147597610950469970703125" lon="-0.16424682922661304473876953125">
        <ele>1632.5999755859375</ele>
        <time>2022-08-03T11:59:06.000Z</time>
      </trkpt>
      <trkpt lat="42.8470878861844539642333984375" lon="-0.16422034241259098052978515625">
        <ele>1632.199951171875</ele>
        <time>2022-08-03T11:59:11.000Z</time>
      </trkpt>
      <trkpt lat="42.84724722616374492645263671875" lon="-0.16410400159657001495361328125">
        <ele>1632</ele>
        <time>2022-08-03T11:59:27.000Z</time>
      </trkpt>
      <trkpt lat="42.847410924732685089111328125" lon="-0.1640061847865581512451171875">
        <ele>1631.5999755859375</ele>
        <time>2022-08-03T11:59:43.000Z</time>
      </trkpt>
      <trkpt lat="42.84749734215438365936279296875" lon="-0.1639511995017528533935546875">
        <ele>1632</ele>
        <time>2022-08-03T11:59:51.000Z</time>
      </trkpt>
      <trkpt lat="42.8475405089557170867919921875" lon="-0.1639344356954097747802734375">
        <ele>1631.800048828125</ele>
        <time>2022-08-03T11:59:55.000Z</time>
      </trkpt>
      <trkpt lat="42.84759775735437870025634765625" lon="-0.1639163307845592498779296875">
        <ele>1631.4000244140625</ele>
        <time>2022-08-03T11:59:59.000Z</time>
      </trkpt>
      <trkpt lat="42.84775868989527225494384765625" lon="-0.163802839815616607666015625">
        <ele>1631.199951171875</ele>
        <time>2022-08-03T12:00:14.000Z</time>
      </trkpt>
      <trkpt lat="42.8478375636041164398193359375" lon="-0.16374425031244754791259765625">
        <ele>1631</ele>
        <time>2022-08-03T12:00:21.000Z</time>
      </trkpt>
      <trkpt lat="42.8478811495006084442138671875" lon="-0.163708291947841644287109375">
        <ele>1630.5999755859375</ele>
        <time>2022-08-03T12:00:25.000Z</time>
      </trkpt>
      <trkpt lat="42.8479042835533618927001953125" lon="-0.1636601798236370086669921875">
        <ele>1630.5999755859375</ele>
        <time>2022-08-03T12:00:29.000Z</time>
      </trkpt>
      <trkpt lat="42.8480705805122852325439453125" lon="-0.16356202773749828338623046875">
        <ele>1625.5999755859375</ele>
        <time>2022-08-03T12:00:43.000Z</time>
      </trkpt>
      <trkpt lat="42.8481909446418285369873046875" lon="-0.16338131390511989593505859375">
        <ele>1622.199951171875</ele>
        <time>2022-08-03T12:00:58.000Z</time>
      </trkpt>
      <trkpt lat="42.8481808863580226898193359375" lon="-0.1632514782249927520751953125">
        <ele>1622.4000244140625</ele>
        <time>2022-08-03T12:01:05.000Z</time>
      </trkpt>
      <trkpt lat="42.84817962907254695892333984375" lon="-0.1632129214704036712646484375">
        <ele>1622.4000244140625</ele>
        <time>2022-08-03T12:01:07.000Z</time>
      </trkpt>
      <trkpt lat="42.84822204150259494781494140625" lon="-0.16297110356390476226806640625">
        <ele>1621.199951171875</ele>
        <time>2022-08-03T12:01:21.000Z</time>
      </trkpt>
      <trkpt lat="42.84814643673598766326904296875" lon="-0.162811763584613800048828125">
        <ele>1622.199951171875</ele>
        <time>2022-08-03T12:01:33.000Z</time>
      </trkpt>
      <trkpt lat="42.848120369017124176025390625" lon="-0.16275334171950817108154296875">
        <ele>1622.800048828125</ele>
        <time>2022-08-03T12:01:37.000Z</time>
      </trkpt>
      <trkpt lat="42.84810268320143222808837890625" lon="-0.16269969753921031951904296875">
        <ele>1623.5999755859375</ele>
        <time>2022-08-03T12:01:42.000Z</time>
      </trkpt>
      <trkpt lat="42.84809296019375324249267578125" lon="-0.16245762817561626434326171875">
        <ele>1624.199951171875</ele>
        <time>2022-08-03T12:02:00.000Z</time>
      </trkpt>
      <trkpt lat="42.84816336818039417266845703125" lon="-0.1622315682470798492431640625">
        <ele>1618.4000244140625</ele>
        <time>2022-08-03T12:02:21.000Z</time>
      </trkpt>
      <trkpt lat="42.84829546697437763214111328125" lon="-0.16206786967813968658447265625">
        <ele>1615</ele>
        <time>2022-08-03T12:02:50.000Z</time>
      </trkpt>
      <trkpt lat="42.8484470956027507781982421875" lon="-0.16193442977964878082275390625">
        <ele>1612.800048828125</ele>
        <time>2022-08-03T12:03:07.000Z</time>
      </trkpt>
      <trkpt lat="42.8486211039125919342041015625" lon="-0.16183870844542980194091796875">
        <ele>1611.800048828125</ele>
        <time>2022-08-03T12:03:23.000Z</time>
      </trkpt>
      <trkpt lat="42.8487904183566570281982421875" lon="-0.1617460884153842926025390625">
        <ele>1611.800048828125</ele>
        <time>2022-08-03T12:03:42.000Z</time>
      </trkpt>
      <trkpt lat="42.84893617965281009674072265625" lon="-0.1615972258150577545166015625">
        <ele>1612.800048828125</ele>
        <time>2022-08-03T12:04:03.000Z</time>
      </trkpt>
      <trkpt lat="42.84911303780972957611083984375" lon="-0.16150812618434429168701171875">
        <ele>1614.199951171875</ele>
        <time>2022-08-03T12:04:19.000Z</time>
      </trkpt>
      <trkpt lat="42.84929148852825164794921875" lon="-0.16143285669386386871337890625">
        <ele>1615.4000244140625</ele>
        <time>2022-08-03T12:04:34.000Z</time>
      </trkpt>
      <trkpt lat="42.84942920319736003875732421875" lon="-0.16142028383910655975341796875">
        <ele>1615</ele>
        <time>2022-08-03T12:04:46.000Z</time>
      </trkpt>
      <trkpt lat="42.84946574829518795013427734375" lon="-0.1614057831466197967529296875">
        <ele>1615.199951171875</ele>
        <time>2022-08-03T12:04:50.000Z</time>
      </trkpt>
      <trkpt lat="42.8496524132788181304931640625" lon="-0.16142833046615123748779296875">
        <ele>1613.4000244140625</ele>
        <time>2022-08-03T12:05:09.000Z</time>
      </trkpt>
      <trkpt lat="42.8498468734323978424072265625" lon="-0.16145599074661731719970703125">
        <ele>1611.5999755859375</ele>
        <time>2022-08-03T12:05:23.000Z</time>
      </trkpt>
      <trkpt lat="42.8498726896941661834716796875" lon="-0.16146655194461345672607421875">
        <ele>1611.199951171875</ele>
        <time>2022-08-03T12:05:25.000Z</time>
      </trkpt>
      <trkpt lat="42.84996648319065570831298828125" lon="-0.1614654622972011566162109375">
        <ele>1609.800048828125</ele>
        <time>2022-08-03T12:05:32.000Z</time>
      </trkpt>
      <trkpt lat="42.850146107375621795654296875" lon="-0.16141357831656932830810546875">
        <ele>1606.800048828125</ele>
        <time>2022-08-03T12:05:45.000Z</time>
      </trkpt>
      <trkpt lat="42.850187681615352630615234375" lon="-0.16134551726281642913818359375">
        <ele>1606.5999755859375</ele>
        <time>2022-08-03T12:05:54.000Z</time>
      </trkpt>
      <trkpt lat="42.8502733446657657623291015625" lon="-0.161115266382694244384765625">
        <ele>1607.4000244140625</ele>
        <time>2022-08-03T12:06:09.000Z</time>
      </trkpt>
      <trkpt lat="42.8502773679792881011962890625" lon="-0.1610840857028961181640625">
        <ele>1607.5999755859375</ele>
        <time>2022-08-03T12:06:11.000Z</time>
      </trkpt>
      <trkpt lat="42.85029421560466289520263671875" lon="-0.16102046705782413482666015625">
        <ele>1607.800048828125</ele>
        <time>2022-08-03T12:06:16.000Z</time>
      </trkpt>
      <trkpt lat="42.8503276593983173370361328125" lon="-0.16088468022644519805908203125">
        <ele>1608</ele>
        <time>2022-08-03T12:06:25.000Z</time>
      </trkpt>
      <trkpt lat="42.85035431385040283203125" lon="-0.1608063094317913055419921875">
        <ele>1608</ele>
        <time>2022-08-03T12:06:31.000Z</time>
      </trkpt>
      <trkpt lat="42.85042128525674343109130859375" lon="-0.16060556285083293914794921875">
        <ele>1606.800048828125</ele>
        <time>2022-08-03T12:06:45.000Z</time>
      </trkpt>
      <trkpt lat="42.85044408403337001800537109375" lon="-0.160504393279552459716796875">
        <ele>1606.199951171875</ele>
        <time>2022-08-03T12:06:51.000Z</time>
      </trkpt>
      <trkpt lat="42.8504842333495616912841796875" lon="-0.1603630743920803070068359375">
        <ele>1605</ele>
        <time>2022-08-03T12:06:59.000Z</time>
      </trkpt>
      <trkpt lat="42.85056076012551784515380859375" lon="-0.1601897366344928741455078125">
        <ele>1604</ele>
        <time>2022-08-03T12:07:11.000Z</time>
      </trkpt>
      <trkpt lat="42.8505858220160007476806640625" lon="-0.1601541973650455474853515625">
        <ele>1603.5999755859375</ele>
        <time>2022-08-03T12:07:15.000Z</time>
      </trkpt>
      <trkpt lat="42.85065882839262485504150390625" lon="-0.15991799533367156982421875">
        <ele>1603.800048828125</ele>
        <time>2022-08-03T12:07:32.000Z</time>
      </trkpt>
      <trkpt lat="42.85066536627709865570068359375" lon="-0.159897543489933013916015625">
        <ele>1604</ele>
        <time>2022-08-03T12:07:34.000Z</time>
      </trkpt>
      <trkpt lat="42.85072873346507549285888671875" lon="-0.15980173833668231964111328125">
        <ele>1604.199951171875</ele>
        <time>2022-08-03T12:07:45.000Z</time>
      </trkpt>
      <trkpt lat="42.8507400490343570709228515625" lon="-0.1597659476101398468017578125">
        <ele>1604.5999755859375</ele>
        <time>2022-08-03T12:07:48.000Z</time>
      </trkpt>
      <trkpt lat="42.8509073518216609954833984375" lon="-0.1596566475927829742431640625">
        <ele>1603</ele>
        <time>2022-08-03T12:08:04.000Z</time>
      </trkpt>
      <trkpt lat="42.8509318269789218902587890625" lon="-0.15961700119078159332275390625">
        <ele>1603</ele>
        <time>2022-08-03T12:08:09.000Z</time>
      </trkpt>
      <trkpt lat="42.8509861417114734649658203125" lon="-0.15958079136908054351806640625">
        <ele>1602.4000244140625</ele>
        <time>2022-08-03T12:08:15.000Z</time>
      </trkpt>
      <trkpt lat="42.851029224693775177001953125" lon="-0.15954860486090183258056640625">
        <ele>1602</ele>
        <time>2022-08-03T12:08:20.000Z</time>
      </trkpt>
      <trkpt lat="42.851151935756206512451171875" lon="-0.159372501075267791748046875">
        <ele>1600.800048828125</ele>
        <time>2022-08-03T12:08:36.000Z</time>
      </trkpt>
      <trkpt lat="42.85117113031446933746337890625" lon="-0.15932329930365085601806640625">
        <ele>1600.5999755859375</ele>
        <time>2022-08-03T12:08:39.000Z</time>
      </trkpt>
      <trkpt lat="42.85116710700094699859619140625" lon="-0.1590670645236968994140625">
        <ele>1601</ele>
        <time>2022-08-03T12:08:53.000Z</time>
      </trkpt>
      <trkpt lat="42.85116677172482013702392578125" lon="-0.15885391272604465484619140625">
        <ele>1598.800048828125</ele>
        <time>2022-08-03T12:09:08.000Z</time>
      </trkpt>
      <trkpt lat="42.8510984592139720916748046875" lon="-0.1587661541998386383056640625">
        <ele>1598.4000244140625</ele>
        <time>2022-08-03T12:09:15.000Z</time>
      </trkpt>
      <trkpt lat="42.85097658634185791015625" lon="-0.1588498055934906005859375">
        <ele>1602.199951171875</ele>
        <time>2022-08-03T12:09:26.000Z</time>
      </trkpt>
      <trkpt lat="42.850921936333179473876953125" lon="-0.1588942296802997589111328125">
        <ele>1604</ele>
        <time>2022-08-03T12:09:31.000Z</time>
      </trkpt>
      <trkpt lat="42.8508947789669036865234375" lon="-0.1589436829090118408203125">
        <ele>1605.199951171875</ele>
        <time>2022-08-03T12:09:35.000Z</time>
      </trkpt>
      <trkpt lat="42.8508312441408634185791015625" lon="-0.15895818360149860382080078125">
        <ele>1606.4000244140625</ele>
        <time>2022-08-03T12:09:40.000Z</time>
      </trkpt>
      <trkpt lat="42.85081900656223297119140625" lon="-0.15895835123956203460693359375">
        <ele>1606.5999755859375</ele>
        <time>2022-08-03T12:09:41.000Z</time>
      </trkpt>
      <trkpt lat="42.85076695494353771209716796875" lon="-0.1589723490178585052490234375">
        <ele>1607.5999755859375</ele>
        <time>2022-08-03T12:09:46.000Z</time>
      </trkpt>
      <trkpt lat="42.85059931688010692596435546875" lon="-0.15887989662587642669677734375">
        <ele>1610</ele>
        <time>2022-08-03T12:10:10.000Z</time>
      </trkpt>
      <trkpt lat="42.85047191195189952850341796875" lon="-0.15870655886828899383544921875">
        <ele>1608.4000244140625</ele>
        <time>2022-08-03T12:10:25.000Z</time>
      </trkpt>
      <trkpt lat="42.850303687155246734619140625" lon="-0.1586722768843173980712890625">
        <ele>1609.800048828125</ele>
        <time>2022-08-03T12:10:41.000Z</time>
      </trkpt>
      <trkpt lat="42.85022296942770481109619140625" lon="-0.1586472988128662109375">
        <ele>1610</ele>
        <time>2022-08-03T12:10:50.000Z</time>
      </trkpt>
      <trkpt lat="42.850099168717861175537109375" lon="-0.1584747992455959320068359375">
        <ele>1607.199951171875</ele>
        <time>2022-08-03T12:11:10.000Z</time>
      </trkpt>
      <trkpt lat="42.85008969716727733612060546875" lon="-0.1582193188369274139404296875">
        <ele>1603</ele>
        <time>2022-08-03T12:11:26.000Z</time>
      </trkpt>
      <trkpt lat="42.85018290393054485321044921875" lon="-0.158009268343448638916015625">
        <ele>1600.5999755859375</ele>
        <time>2022-08-03T12:11:43.000Z</time>
      </trkpt>
      <trkpt lat="42.8503041900694370269775390625" lon="-0.157820172607898712158203125">
        <ele>1597.199951171875</ele>
        <time>2022-08-03T12:11:58.000Z</time>
      </trkpt>
      <trkpt lat="42.850360684096813201904296875" lon="-0.1577341742813587188720703125">
        <ele>1595.5999755859375</ele>
        <time>2022-08-03T12:12:04.000Z</time>
      </trkpt>
      <trkpt lat="42.85039027221500873565673828125" lon="-0.15768128447234630584716796875">
        <ele>1594.5999755859375</ele>
        <time>2022-08-03T12:12:09.000Z</time>
      </trkpt>
      <trkpt lat="42.85043117590248584747314453125" lon="-0.157568715512752532958984375">
        <ele>1593</ele>
        <time>2022-08-03T12:12:18.000Z</time>
      </trkpt>
      <trkpt lat="42.8504825569689273834228515625" lon="-0.157464779913425445556640625">
        <ele>1591.199951171875</ele>
        <time>2022-08-03T12:12:25.000Z</time>
      </trkpt>
      <trkpt lat="42.85052530467510223388671875" lon="-0.15735589899122714996337890625">
        <ele>1590</ele>
        <time>2022-08-03T12:12:33.000Z</time>
      </trkpt>
      <trkpt lat="42.85054416395723819732666015625" lon="-0.15729035250842571258544921875">
        <ele>1590</ele>
        <time>2022-08-03T12:12:37.000Z</time>
      </trkpt>
      <trkpt lat="42.85055908374488353729248046875" lon="-0.15723838470876216888427734375">
        <ele>1590</ele>
        <time>2022-08-03T12:12:40.000Z</time>
      </trkpt>
      <trkpt lat="42.8506253845989704132080078125" lon="-0.157062448561191558837890625">
        <ele>1589.5999755859375</ele>
        <time>2022-08-03T12:12:52.000Z</time>
      </trkpt>
      <trkpt lat="42.85065446980297565460205078125" lon="-0.156976617872714996337890625">
        <ele>1589.5999755859375</ele>
        <time>2022-08-03T12:12:58.000Z</time>
      </trkpt>
      <trkpt lat="42.8506522066891193389892578125" lon="-0.15693646855652332305908203125">
        <ele>1590</ele>
        <time>2022-08-03T12:13:02.000Z</time>
      </trkpt>
      <trkpt lat="42.85071515478193759918212890625" lon="-0.15670026652514934539794921875">
        <ele>1589</ele>
        <time>2022-08-03T12:13:33.000Z</time>
      </trkpt>
      <trkpt lat="42.8506743349134922027587890625" lon="-0.15645970590412616729736328125">
        <ele>1590</ele>
        <time>2022-08-03T12:13:52.000Z</time>
      </trkpt>
      <trkpt lat="42.850657068192958831787109375" lon="-0.15635962598025798797607421875">
        <ele>1590.199951171875</ele>
        <time>2022-08-03T12:13:59.000Z</time>
      </trkpt>
      <trkpt lat="42.850633598864078521728515625" lon="-0.15616826713085174560546875">
        <ele>1588.5999755859375</ele>
        <time>2022-08-03T12:14:09.000Z</time>
      </trkpt>
      <trkpt lat="42.85064575262367725372314453125" lon="-0.156003646552562713623046875">
        <ele>1586</ele>
        <time>2022-08-03T12:14:19.000Z</time>
      </trkpt>
      <trkpt lat="42.85060786642134189605712890625" lon="-0.1557684503495693206787109375">
        <ele>1581.800048828125</ele>
        <time>2022-08-03T12:14:33.000Z</time>
      </trkpt>
      <trkpt lat="42.85059680230915546417236328125" lon="-0.15571924857795238494873046875">
        <ele>1581.199951171875</ele>
        <time>2022-08-03T12:14:36.000Z</time>
      </trkpt>
      <trkpt lat="42.85059613175690174102783203125" lon="-0.15570265240967273712158203125">
        <ele>1581</ele>
        <time>2022-08-03T12:14:37.000Z</time>
      </trkpt>
      <trkpt lat="42.8505167551338672637939453125" lon="-0.1554710604250431060791015625">
        <ele>1580.4000244140625</ele>
        <time>2022-08-03T12:14:51.000Z</time>
      </trkpt>
      <trkpt lat="42.850486077368259429931640625" lon="-0.15533871017396450042724609375">
        <ele>1578.5999755859375</ele>
        <time>2022-08-03T12:15:00.000Z</time>
      </trkpt>
      <trkpt lat="42.85044944845139980316162109375" lon="-0.1553332619369029998779296875">
        <ele>1580.199951171875</ele>
        <time>2022-08-03T12:15:07.000Z</time>
      </trkpt>
      <trkpt lat="42.85046906210482120513916015625" lon="-0.15548271127045154571533203125">
        <ele>1582.4000244140625</ele>
        <time>2022-08-03T12:16:06.000Z</time>
      </trkpt>
      <trkpt lat="42.85042882896959781646728515625" lon="-0.1556182466447353363037109375">
        <ele>1585</ele>
        <time>2022-08-03T12:16:49.000Z</time>
      </trkpt>
      <trkpt lat="42.85052807070314884185791015625" lon="-0.155516155064105987548828125">
        <ele>1580.4000244140625</ele>
        <time>2022-08-03T12:17:33.000Z</time>
      </trkpt>
      <trkpt lat="42.85055405460298061370849609375" lon="-0.15546150505542755126953125">
        <ele>1579</ele>
        <time>2022-08-03T12:18:09.000Z</time>
      </trkpt>
      <trkpt lat="42.85043050535023212432861328125" lon="-0.1553191803395748138427734375">
        <ele>1580.800048828125</ele>
        <time>2022-08-03T12:18:41.000Z</time>
      </trkpt>
      <trkpt lat="42.8503833152353763580322265625" lon="-0.15509546734392642974853515625">
        <ele>1580</ele>
        <time>2022-08-03T12:19:09.000Z</time>
      </trkpt>
      <trkpt lat="42.8503782860934734344482421875" lon="-0.15502623282372951507568359375">
        <ele>1579.800048828125</ele>
        <time>2022-08-03T12:19:14.000Z</time>
      </trkpt>
      <trkpt lat="42.850398905575275421142578125" lon="-0.15487032942473888397216796875">
        <ele>1578.199951171875</ele>
        <time>2022-08-03T12:19:27.000Z</time>
      </trkpt>
      <trkpt lat="42.8503953851759433746337890625" lon="-0.154868066310882568359375">
        <ele>1578.4000244140625</ele>
        <time>2022-08-03T12:19:28.000Z</time>
      </trkpt>
      <trkpt lat="42.85035741515457630157470703125" lon="-0.1546915434300899505615234375">
        <ele>1582.4000244140625</ele>
        <time>2022-08-03T12:20:09.000Z</time>
      </trkpt>
      <trkpt lat="42.85038876347243785858154296875" lon="-0.1544538326561450958251953125">
        <ele>1581.4000244140625</ele>
        <time>2022-08-03T12:20:29.000Z</time>
      </trkpt>
      <trkpt lat="42.8504513762891292572021484375" lon="-0.15422777272760868072509765625">
        <ele>1577.5999755859375</ele>
        <time>2022-08-03T12:20:44.000Z</time>
      </trkpt>
      <trkpt lat="42.8504414856433868408203125" lon="-0.15412685461342334747314453125">
        <ele>1577</ele>
        <time>2022-08-03T12:20:51.000Z</time>
      </trkpt>
      <trkpt lat="42.8504148311913013458251953125" lon="-0.15400950796902179718017578125">
        <ele>1576.800048828125</ele>
        <time>2022-08-03T12:21:00.000Z</time>
      </trkpt>
      <trkpt lat="42.85039362497627735137939453125" lon="-0.1538288779556751251220703125">
        <ele>1574.199951171875</ele>
        <time>2022-08-03T12:21:20.000Z</time>
      </trkpt>
      <trkpt lat="42.85029974766075611114501953125" lon="-0.15372879803180694580078125">
        <ele>1575</ele>
        <time>2022-08-03T12:21:30.000Z</time>
      </trkpt>
      <trkpt lat="42.85024325363337993621826171875" lon="-0.153627209365367889404296875">
        <ele>1574.5999755859375</ele>
        <time>2022-08-03T12:21:38.000Z</time>
      </trkpt>
      <trkpt lat="42.85023302771151065826416015625" lon="-0.1535928435623645782470703125">
        <ele>1574</ele>
        <time>2022-08-03T12:21:41.000Z</time>
      </trkpt>
      <trkpt lat="42.850224561989307403564453125" lon="-0.153570882976055145263671875">
        <ele>1573.5999755859375</ele>
        <time>2022-08-03T12:21:43.000Z</time>
      </trkpt>
      <trkpt lat="42.85015239380300045013427734375" lon="-0.15351916663348674774169921875">
        <ele>1574</ele>
        <time>2022-08-03T12:21:50.000Z</time>
      </trkpt>
      <trkpt lat="42.85006069578230381011962890625" lon="-0.1533843018114566802978515625">
        <ele>1574.199951171875</ele>
        <time>2022-08-03T12:22:00.000Z</time>
      </trkpt>
      <trkpt lat="42.849985845386981964111328125" lon="-0.15318305231630802154541015625">
        <ele>1574</ele>
        <time>2022-08-03T12:22:13.000Z</time>
      </trkpt>
      <trkpt lat="42.84997553564608097076416015625" lon="-0.15311616472899913787841796875">
        <ele>1574</ele>
        <time>2022-08-03T12:22:17.000Z</time>
      </trkpt>
      <trkpt lat="42.84997352398931980133056640625" lon="-0.1530775241553783416748046875">
        <ele>1573.800048828125</ele>
        <time>2022-08-03T12:22:19.000Z</time>
      </trkpt>
      <trkpt lat="42.84996128641068935394287109375" lon="-0.1529615186154842376708984375">
        <ele>1573.4000244140625</ele>
        <time>2022-08-03T12:22:26.000Z</time>
      </trkpt>
      <trkpt lat="42.84992658533155918121337890625" lon="-0.15276563353836536407470703125">
        <ele>1573.199951171875</ele>
        <time>2022-08-03T12:22:37.000Z</time>
      </trkpt>
      <trkpt lat="42.84992138855159282684326171875" lon="-0.1526275835931301116943359375">
        <ele>1573.199951171875</ele>
        <time>2022-08-03T12:22:45.000Z</time>
      </trkpt>
      <trkpt lat="42.84992792643606662750244140625" lon="-0.15261375345289707183837890625">
        <ele>1572.800048828125</ele>
        <time>2022-08-03T12:22:46.000Z</time>
      </trkpt>
      <trkpt lat="42.849977798759937286376953125" lon="-0.15238442458212375640869140625">
        <ele>1568.800048828125</ele>
        <time>2022-08-03T12:23:00.000Z</time>
      </trkpt>
      <trkpt lat="42.850048206746578216552734375" lon="-0.15215509571135044097900390625">
        <ele>1563.5999755859375</ele>
        <time>2022-08-03T12:23:16.000Z</time>
      </trkpt>
      <trkpt lat="42.8500872664153575897216796875" lon="-0.1520686782896518707275390625">
        <ele>1560.800048828125</ele>
        <time>2022-08-03T12:23:23.000Z</time>
      </trkpt>
      <trkpt lat="42.850091457366943359375" lon="-0.1519929058849811553955078125">
        <ele>1559.800048828125</ele>
        <time>2022-08-03T12:23:29.000Z</time>
      </trkpt>
      <trkpt lat="42.8500966541469097137451171875" lon="-0.15188151039183139801025390625">
        <ele>1558.4000244140625</ele>
        <time>2022-08-03T12:23:35.000Z</time>
      </trkpt>
      <trkpt lat="42.85008466802537441253662109375" lon="-0.15184722840785980224609375">
        <ele>1558.5999755859375</ele>
        <time>2022-08-03T12:23:38.000Z</time>
      </trkpt>
      <trkpt lat="42.85007142461836338043212890625" lon="-0.15160725452005863189697265625">
        <ele>1555.5999755859375</ele>
        <time>2022-08-03T12:23:55.000Z</time>
      </trkpt>
      <trkpt lat="42.8500389866530895233154296875" lon="-0.15144892036914825439453125">
        <ele>1554.5999755859375</ele>
        <time>2022-08-03T12:24:07.000Z</time>
      </trkpt>
      <trkpt lat="42.85003236494958400726318359375" lon="-0.1514350064098834991455078125">
        <ele>1554.5999755859375</ele>
        <time>2022-08-03T12:24:08.000Z</time>
      </trkpt>
      <trkpt lat="42.85001040436327457427978515625" lon="-0.15129025094211101531982421875">
        <ele>1554</ele>
        <time>2022-08-03T12:24:16.000Z</time>
      </trkpt>
      <trkpt lat="42.8499970771372318267822265625" lon="-0.15116686932742595672607421875">
        <ele>1552</ele>
        <time>2022-08-03T12:24:24.000Z</time>
      </trkpt>
      <trkpt lat="42.84998391754925251007080078125" lon="-0.15108740888535976409912109375">
        <ele>1551.4000244140625</ele>
        <time>2022-08-03T12:24:31.000Z</time>
      </trkpt>
      <trkpt lat="42.849882580339908599853515625" lon="-0.1508782804012298583984375">
        <ele>1555.800048828125</ele>
        <time>2022-08-03T12:24:46.000Z</time>
      </trkpt>
      <trkpt lat="42.84984461031854152679443359375" lon="-0.1506336964666843414306640625">
        <ele>1555.5999755859375</ele>
        <time>2022-08-03T12:25:12.000Z</time>
      </trkpt>
      <trkpt lat="42.84986824728548526763916015625" lon="-0.150385089218616485595703125">
        <ele>1553.4000244140625</ele>
        <time>2022-08-03T12:25:28.000Z</time>
      </trkpt>
      <trkpt lat="42.8499640524387359619140625" lon="-0.15017897821962833404541015625">
        <ele>1548.5999755859375</ele>
        <time>2022-08-03T12:25:45.000Z</time>
      </trkpt>
      <trkpt lat="42.85005164332687854766845703125" lon="-0.149960629642009735107421875">
        <ele>1542.800048828125</ele>
        <time>2022-08-03T12:26:00.000Z</time>
      </trkpt>
      <trkpt lat="42.85015574656426906585693359375" lon="-0.14975334517657756805419921875">
        <ele>1538.800048828125</ele>
        <time>2022-08-03T12:26:15.000Z</time>
      </trkpt>
      <trkpt lat="42.85024367272853851318359375" lon="-0.14952703379094600677490234375">
        <ele>1537.4000244140625</ele>
        <time>2022-08-03T12:26:30.000Z</time>
      </trkpt>
      <trkpt lat="42.8502626158297061920166015625" lon="-0.14947992749512195587158203125">
        <ele>1537.199951171875</ele>
        <time>2022-08-03T12:26:33.000Z</time>
      </trkpt>
      <trkpt lat="42.8502981550991535186767578125" lon="-0.14933408237993717193603515625">
        <ele>1537</ele>
        <time>2022-08-03T12:26:42.000Z</time>
      </trkpt>
      <trkpt lat="42.85032673738896846771240234375" lon="-0.14916359446942806243896484375">
        <ele>1538.199951171875</ele>
        <time>2022-08-03T12:26:57.000Z</time>
      </trkpt>
      <trkpt lat="42.85033595748245716094970703125" lon="-0.14909930527210235595703125">
        <ele>1538.5999755859375</ele>
        <time>2022-08-03T12:27:01.000Z</time>
      </trkpt>
      <trkpt lat="42.85037686116993427276611328125" lon="-0.14900316484272480010986328125">
        <ele>1539.199951171875</ele>
        <time>2022-08-03T12:27:08.000Z</time>
      </trkpt>
      <trkpt lat="42.85038993693888187408447265625" lon="-0.1489620096981525421142578125">
        <ele>1539.4000244140625</ele>
        <time>2022-08-03T12:27:11.000Z</time>
      </trkpt>
      <trkpt lat="42.85041860304772853851318359375" lon="-0.14881708659231662750244140625">
        <ele>1541</ele>
        <time>2022-08-03T12:27:20.000Z</time>
      </trkpt>
      <trkpt lat="42.85042463801801204681396484375" lon="-0.1487673819065093994140625">
        <ele>1541.4000244140625</ele>
        <time>2022-08-03T12:27:23.000Z</time>
      </trkpt>
      <trkpt lat="42.85044576041400432586669921875" lon="-0.14867761172354221343994140625">
        <ele>1541.199951171875</ele>
        <time>2022-08-03T12:27:30.000Z</time>
      </trkpt>
      <trkpt lat="42.850471325218677520751953125" lon="-0.14851232059299945831298828125">
        <ele>1541.800048828125</ele>
        <time>2022-08-03T12:27:41.000Z</time>
      </trkpt>
      <trkpt lat="42.850504852831363677978515625" lon="-0.14839882962405681610107421875">
        <ele>1538.4000244140625</ele>
        <time>2022-08-03T12:27:48.000Z</time>
      </trkpt>
      <trkpt lat="42.85050661303102970123291015625" lon="-0.14825642108917236328125">
        <ele>1537</ele>
        <time>2022-08-03T12:28:00.000Z</time>
      </trkpt>
      <trkpt lat="42.85052396357059478759765625" lon="-0.14820277690887451171875">
        <ele>1536.5999755859375</ele>
        <time>2022-08-03T12:28:04.000Z</time>
      </trkpt>
      <trkpt lat="42.850561849772930145263671875" lon="-0.148117281496524810791015625">
        <ele>1536</ele>
        <time>2022-08-03T12:28:10.000Z</time>
      </trkpt>
      <trkpt lat="42.8505868278443813323974609375" lon="-0.14794050715863704681396484375">
        <ele>1537.5999755859375</ele>
        <time>2022-08-03T12:28:21.000Z</time>
      </trkpt>
      <trkpt lat="42.8505935333669185638427734375" lon="-0.14789692126214504241943359375">
        <ele>1537.5999755859375</ele>
        <time>2022-08-03T12:28:24.000Z</time>
      </trkpt>
      <trkpt lat="42.850609123706817626953125" lon="-0.1476473920047283172607421875">
        <ele>1537.800048828125</ele>
        <time>2022-08-03T12:28:38.000Z</time>
      </trkpt>
      <trkpt lat="42.85060769878327846527099609375" lon="-0.147604644298553466796875">
        <ele>1538</ele>
        <time>2022-08-03T12:28:41.000Z</time>
      </trkpt>
      <trkpt lat="42.85061373375356197357177734375" lon="-0.14747531153261661529541015625">
        <ele>1537.5999755859375</ele>
        <time>2022-08-03T12:28:50.000Z</time>
      </trkpt>
      <trkpt lat="42.85065363161265850067138671875" lon="-0.14730767346918582916259765625">
        <ele>1535</ele>
        <time>2022-08-03T12:28:59.000Z</time>
      </trkpt>
      <trkpt lat="42.85067014396190643310546875" lon="-0.14721010811626911163330078125">
        <ele>1533.5999755859375</ele>
        <time>2022-08-03T12:29:05.000Z</time>
      </trkpt>
      <trkpt lat="42.8507149033248424530029296875" lon="-0.14698044396936893463134765625">
        <ele>1530.800048828125</ele>
        <time>2022-08-03T12:29:20.000Z</time>
      </trkpt>
      <trkpt lat="42.8507016599178314208984375" lon="-0.146862007677555084228515625">
        <ele>1530.199951171875</ele>
        <time>2022-08-03T12:29:27.000Z</time>
      </trkpt>
      <trkpt lat="42.8507353551685810089111328125" lon="-0.14680241234600543975830078125">
        <ele>1529.4000244140625</ele>
        <time>2022-08-03T12:29:32.000Z</time>
      </trkpt>
      <trkpt lat="42.85074935294687747955322265625" lon="-0.14679537154734134674072265625">
        <ele>1529</ele>
        <time>2022-08-03T12:29:33.000Z</time>
      </trkpt>
      <trkpt lat="42.8509242832660675048828125" lon="-0.146855972707271575927734375">
        <ele>1526.199951171875</ele>
        <time>2022-08-03T12:29:48.000Z</time>
      </trkpt>
      <trkpt lat="42.85097415558993816375732421875" lon="-0.14688648283481597900390625">
        <ele>1526</ele>
        <time>2022-08-03T12:29:52.000Z</time>
      </trkpt>
      <trkpt lat="42.85115000791847705841064453125" lon="-0.1469604112207889556884765625">
        <ele>1525.4000244140625</ele>
        <time>2022-08-03T12:30:07.000Z</time>
      </trkpt>
      <trkpt lat="42.8512738086283206939697265625" lon="-0.1470024883747100830078125">
        <ele>1525.4000244140625</ele>
        <time>2022-08-03T12:30:19.000Z</time>
      </trkpt>
      <trkpt lat="42.85145158879458904266357421875" lon="-0.14702185057103633880615234375">
        <ele>1525.800048828125</ele>
        <time>2022-08-03T12:30:33.000Z</time>
      </trkpt>
      <trkpt lat="42.8516216576099395751953125" lon="-0.14711153693497180938720703125">
        <ele>1525.5999755859375</ele>
        <time>2022-08-03T12:30:48.000Z</time>
      </trkpt>
      <trkpt lat="42.8517539240419864654541015625" lon="-0.1471682824194431304931640625">
        <ele>1525.800048828125</ele>
        <time>2022-08-03T12:30:59.000Z</time>
      </trkpt>
      <trkpt lat="42.85177345387637615203857421875" lon="-0.14718546532094478607177734375">
        <ele>1525.800048828125</ele>
        <time>2022-08-03T12:31:01.000Z</time>
      </trkpt>
      <trkpt lat="42.85194293595850467681884765625" lon="-0.14727481640875339508056640625">
        <ele>1526.199951171875</ele>
        <time>2022-08-03T12:31:22.000Z</time>
      </trkpt>
      <trkpt lat="42.85193606279790401458740234375" lon="-0.1471518538892269134521484375">
        <ele>1526.5999755859375</ele>
        <time>2022-08-03T12:31:40.000Z</time>
      </trkpt>
      <trkpt lat="42.85193287767469882965087890625" lon="-0.14709359966218471527099609375">
        <ele>1526.800048828125</ele>
        <time>2022-08-03T12:32:02.000Z</time>
      </trkpt>
      <trkpt lat="42.8511370159685611724853515625" lon="-0.14236629009246826171875">
        <ele>1520.5999755859375</ele>
        <time>2022-08-04T06:30:45.000Z</time>
      </trkpt>
      <trkpt lat="42.851174734532833099365234375" lon="-0.142353884875774383544921875">
        <ele>1520.800048828125</ele>
        <time>2022-08-04T06:30:49.000Z</time>
      </trkpt>
      <trkpt lat="42.8511544503271579742431640625" lon="-0.14234323985874652862548828125">
        <ele>1520.5999755859375</ele>
        <time>2022-08-04T06:30:52.000Z</time>
      </trkpt>
      <trkpt lat="42.8509967029094696044921875" lon="-0.14217744581401348114013671875">
        <ele>1519.4000244140625</ele>
        <time>2022-08-04T06:31:15.000Z</time>
      </trkpt>
      <trkpt lat="42.8509690426290035247802734375" lon="-0.1421146653592586517333984375">
        <ele>1519.199951171875</ele>
        <time>2022-08-04T06:31:26.000Z</time>
      </trkpt>
      <trkpt lat="42.8510645963251590728759765625" lon="-0.1420296728610992431640625">
        <ele>1519.4000244140625</ele>
        <time>2022-08-04T06:31:33.000Z</time>
      </trkpt>
      <trkpt lat="42.85108194686472415924072265625" lon="-0.14202254824340343475341796875">
        <ele>1519.5999755859375</ele>
        <time>2022-08-04T06:31:35.000Z</time>
      </trkpt>
      <trkpt lat="42.8509107045829296112060546875" lon="-0.14193051494657993316650390625">
        <ele>1518.199951171875</ele>
        <time>2022-08-04T06:31:55.000Z</time>
      </trkpt>
      <trkpt lat="42.85080132074654102325439453125" lon="-0.1418239809572696685791015625">
        <ele>1517.199951171875</ele>
        <time>2022-08-04T06:32:05.000Z</time>
      </trkpt>
      <trkpt lat="42.85078137181699275970458984375" lon="-0.14180076308548450469970703125">
        <ele>1517</ele>
        <time>2022-08-04T06:32:09.000Z</time>
      </trkpt>
      <trkpt lat="42.8507695533335208892822265625" lon="-0.1417720131576061248779296875">
        <ele>1517.199951171875</ele>
        <time>2022-08-04T06:32:12.000Z</time>
      </trkpt>
      <trkpt lat="42.85074792802333831787109375" lon="-0.1417200453579425811767578125">
        <ele>1517</ele>
        <time>2022-08-04T06:32:38.000Z</time>
      </trkpt>
      <trkpt lat="42.8507276438176631927490234375" lon="-0.14180428348481655120849609375">
        <ele>1516.5999755859375</ele>
        <time>2022-08-04T06:32:50.000Z</time>
      </trkpt>
      <trkpt lat="42.85084004513919353485107421875" lon="-0.14172851108014583587646484375">
        <ele>1517.800048828125</ele>
        <time>2022-08-04T06:33:04.000Z</time>
      </trkpt>
      <trkpt lat="42.850881703197956085205078125" lon="-0.1416835002601146697998046875">
        <ele>1518.199951171875</ele>
        <time>2022-08-04T06:33:07.000Z</time>
      </trkpt>
      <trkpt lat="42.85089813172817230224609375" lon="-0.141595490276813507080078125">
        <ele>1518.5999755859375</ele>
        <time>2022-08-04T06:33:12.000Z</time>
      </trkpt>
      <trkpt lat="42.85090525634586811065673828125" lon="-0.14158518053591251373291015625">
        <ele>1518.800048828125</ele>
        <time>2022-08-04T06:33:13.000Z</time>
      </trkpt>
      <trkpt lat="42.850917913019657135009765625" lon="-0.1416090689599514007568359375">
        <ele>1518.800048828125</ele>
        <time>2022-08-04T06:33:24.000Z</time>
      </trkpt>
      <trkpt lat="42.85092956386506557464599609375" lon="-0.14152416028082370758056640625">
        <ele>1518.800048828125</ele>
        <time>2022-08-04T06:33:43.000Z</time>
      </trkpt>
      <trkpt lat="42.85104171372950077056884765625" lon="-0.14143749140202999114990234375">
        <ele>1518.5999755859375</ele>
        <time>2022-08-04T06:33:59.000Z</time>
      </trkpt>
      <trkpt lat="42.85108412615954875946044921875" lon="-0.1414129324257373809814453125">
        <ele>1518.4000244140625</ele>
        <time>2022-08-04T06:34:04.000Z</time>
      </trkpt>
      <trkpt lat="42.851195521652698516845703125" lon="-0.14137663878500461578369140625">
        <ele>1518.5999755859375</ele>
        <time>2022-08-04T06:34:12.000Z</time>
      </trkpt>
      <trkpt lat="42.85120189189910888671875" lon="-0.141374878585338592529296875">
        <ele>1518.5999755859375</ele>
        <time>2022-08-04T06:34:14.000Z</time>
      </trkpt>
      <trkpt lat="42.85126333124935626983642578125" lon="-0.14137110672891139984130859375">
        <ele>1518.5999755859375</ele>
        <time>2022-08-04T06:34:21.000Z</time>
      </trkpt>
      <trkpt lat="42.85129250027239322662353515625" lon="-0.1413777284324169158935546875">
        <ele>1518.5999755859375</ele>
        <time>2022-08-04T06:34:25.000Z</time>
      </trkpt>
      <trkpt lat="42.85141655243933200836181640625" lon="-0.14130304567515850067138671875">
        <ele>1518</ele>
        <time>2022-08-04T06:34:38.000Z</time>
      </trkpt>
      <trkpt lat="42.85145695321261882781982421875" lon="-0.14123833738267421722412109375">
        <ele>1517.4000244140625</ele>
        <time>2022-08-04T06:34:43.000Z</time>
      </trkpt>
      <trkpt lat="42.851500622928142547607421875" lon="-0.14112518168985843658447265625">
        <ele>1516.5999755859375</ele>
        <time>2022-08-04T06:34:52.000Z</time>
      </trkpt>
      <trkpt lat="42.85154965706169605255126953125" lon="-0.14102325774729251861572265625">
        <ele>1516.4000244140625</ele>
        <time>2022-08-04T06:35:04.000Z</time>
      </trkpt>
      <trkpt lat="42.85152836702764034271240234375" lon="-0.14091345481574535369873046875">
        <ele>1515.199951171875</ele>
        <time>2022-08-04T06:35:12.000Z</time>
      </trkpt>
      <trkpt lat="42.85152819938957691192626953125" lon="-0.14087590388953685760498046875">
        <ele>1514.800048828125</ele>
        <time>2022-08-04T06:35:16.000Z</time>
      </trkpt>
      <trkpt lat="42.8515618108212947845458984375" lon="-0.14072871766984462738037109375">
        <ele>1514</ele>
        <time>2022-08-04T06:35:32.000Z</time>
      </trkpt>
      <trkpt lat="42.85156809724867343902587890625" lon="-0.140673480927944183349609375">
        <ele>1513.4000244140625</ele>
        <time>2022-08-04T06:35:37.000Z</time>
      </trkpt>
      <trkpt lat="42.85160715691745281219482421875" lon="-0.1405821181833744049072265625">
        <ele>1513.199951171875</ele>
        <time>2022-08-04T06:35:46.000Z</time>
      </trkpt>
      <trkpt lat="42.85152979195117950439453125" lon="-0.14043987728655338287353515625">
        <ele>1508.199951171875</ele>
        <time>2022-08-04T06:36:04.000Z</time>
      </trkpt>
      <trkpt lat="42.85163632594048976898193359375" lon="-0.14025346376001834869384765625">
        <ele>1508.4000244140625</ele>
        <time>2022-08-04T06:36:33.000Z</time>
      </trkpt>
      <trkpt lat="42.8516338951885700225830078125" lon="-0.1402361132204532623291015625">
        <ele>1507.800048828125</ele>
        <time>2022-08-04T06:36:35.000Z</time>
      </trkpt>
      <trkpt lat="42.85160732455551624298095703125" lon="-0.1402190141379833221435546875">
        <ele>1506.199951171875</ele>
        <time>2022-08-04T06:36:42.000Z</time>
      </trkpt>
      <trkpt lat="42.8516905568540096282958984375" lon="-0.14008414931595325469970703125">
        <ele>1508.199951171875</ele>
        <time>2022-08-04T06:36:55.000Z</time>
      </trkpt>
      <trkpt lat="42.85167253576219081878662109375" lon="-0.13998608104884624481201171875">
        <ele>1506.5999755859375</ele>
        <time>2022-08-04T06:37:01.000Z</time>
      </trkpt>
      <trkpt lat="42.8516540117561817169189453125" lon="-0.1398984901607036590576171875">
        <ele>1504.800048828125</ele>
        <time>2022-08-04T06:37:07.000Z</time>
      </trkpt>
      <trkpt lat="42.85159684717655181884765625" lon="-0.1398718357086181640625">
        <ele>1501.800048828125</ele>
        <time>2022-08-04T06:37:12.000Z</time>
      </trkpt>
      <trkpt lat="42.851515375077724456787109375" lon="-0.1399078778922557830810546875">
        <ele>1498.4000244140625</ele>
        <time>2022-08-04T06:37:17.000Z</time>
      </trkpt>
      <trkpt lat="42.851330973207950592041015625" lon="-0.13998004607856273651123046875">
        <ele>1497</ele>
        <time>2022-08-04T06:37:27.000Z</time>
      </trkpt>
      <trkpt lat="42.85121002234518527984619140625" lon="-0.14008398167788982391357421875">
        <ele>1497.5999755859375</ele>
        <time>2022-08-04T06:37:36.000Z</time>
      </trkpt>
      <trkpt lat="42.8511913307011127471923828125" lon="-0.14009588398039340972900390625">
        <ele>1498.199951171875</ele>
        <time>2022-08-04T06:37:40.000Z</time>
      </trkpt>
      <trkpt lat="42.851104997098445892333984375" lon="-0.14022295363247394561767578125">
        <ele>1501.800048828125</ele>
        <time>2022-08-04T06:38:01.000Z</time>
      </trkpt>
      <trkpt lat="42.851051352918148040771484375" lon="-0.1402218639850616455078125">
        <ele>1503</ele>
        <time>2022-08-04T06:38:41.000Z</time>
      </trkpt>
      <trkpt lat="42.85102344118058681488037109375" lon="-0.14011859893798828125">
        <ele>1502.199951171875</ele>
        <time>2022-08-04T06:39:41.000Z</time>
      </trkpt>
      <trkpt lat="42.851024530827999114990234375" lon="-0.1401097141206264495849609375">
        <ele>1502</ele>
        <time>2022-08-04T06:41:12.000Z</time>
      </trkpt>
      <trkpt lat="42.85098622553050518035888671875" lon="-0.14018489979207515716552734375">
        <ele>1504</ele>
        <time>2022-08-04T06:41:54.000Z</time>
      </trkpt>
      <trkpt lat="42.85100952722132205963134765625" lon="-0.14025815762579441070556640625">
        <ele>1504.4000244140625</ele>
        <time>2022-08-04T06:42:33.000Z</time>
      </trkpt>
      <trkpt lat="42.85117398016154766082763671875" lon="-0.14013343490660190582275390625">
        <ele>1499.199951171875</ele>
        <time>2022-08-04T06:42:57.000Z</time>
      </trkpt>
      <trkpt lat="42.85122997127473354339599609375" lon="-0.1399652101099491119384765625">
        <ele>1496</ele>
        <time>2022-08-04T06:43:31.000Z</time>
      </trkpt>
      <trkpt lat="42.8512865491211414337158203125" lon="-0.13974484987556934356689453125">
        <ele>1496.199951171875</ele>
        <time>2022-08-04T06:43:58.000Z</time>
      </trkpt>
      <trkpt lat="42.8513971902430057525634765625" lon="-0.13956748880445957183837890625">
        <ele>1497.199951171875</ele>
        <time>2022-08-04T06:44:18.000Z</time>
      </trkpt>
      <trkpt lat="42.851550914347171783447265625" lon="-0.139429606497287750244140625">
        <ele>1499</ele>
        <time>2022-08-04T06:44:34.000Z</time>
      </trkpt>
      <trkpt lat="42.85146047361195087432861328125" lon="-0.13939482159912586212158203125">
        <ele>1497</ele>
        <time>2022-08-04T06:44:56.000Z</time>
      </trkpt>
      <trkpt lat="42.85135771147906780242919921875" lon="-0.1393962465226650238037109375">
        <ele>1496.5999755859375</ele>
        <time>2022-08-04T06:45:07.000Z</time>
      </trkpt>
      <trkpt lat="42.851256541907787322998046875" lon="-0.139321647584438323974609375">
        <ele>1496</ele>
        <time>2022-08-04T06:45:34.000Z</time>
      </trkpt>
      <trkpt lat="42.85121052525937557220458984375" lon="-0.13932659290730953216552734375">
        <ele>1496</ele>
        <time>2022-08-04T06:46:25.000Z</time>
      </trkpt>
      <trkpt lat="42.851181440055370330810546875" lon="-0.1392685063183307647705078125">
        <ele>1496.199951171875</ele>
        <time>2022-08-04T06:46:29.000Z</time>
      </trkpt>
      <trkpt lat="42.8511578030884265899658203125" lon="-0.13917990960180759429931640625">
        <ele>1496.4000244140625</ele>
        <time>2022-08-04T06:46:37.000Z</time>
      </trkpt>
      <trkpt lat="42.85116626881062984466552734375" lon="-0.13909324072301387786865234375">
        <ele>1495.800048828125</ele>
        <time>2022-08-04T06:46:44.000Z</time>
      </trkpt>
      <trkpt lat="42.85122863017022609710693359375" lon="-0.13903297483921051025390625">
        <ele>1494.199951171875</ele>
        <time>2022-08-04T06:46:57.000Z</time>
      </trkpt>
      <trkpt lat="42.851250171661376953125" lon="-0.13927378691732883453369140625">
        <ele>1495.5999755859375</ele>
        <time>2022-08-04T06:47:17.000Z</time>
      </trkpt>
      <trkpt lat="42.851257883012294769287109375" lon="-0.13937202282249927520751953125">
        <ele>1496.199951171875</ele>
        <time>2022-08-04T06:47:26.000Z</time>
      </trkpt>
      <trkpt lat="42.8512305580079555511474609375" lon="-0.139541588723659515380859375">
        <ele>1496</ele>
        <time>2022-08-04T06:47:51.000Z</time>
      </trkpt>
      <trkpt lat="42.85121018998324871063232421875" lon="-0.13958592899143695831298828125">
        <ele>1496</ele>
        <time>2022-08-04T06:47:55.000Z</time>
      </trkpt>
      <trkpt lat="42.85113961435854434967041015625" lon="-0.1396148465573787689208984375">
        <ele>1497</ele>
        <time>2022-08-04T06:48:20.000Z</time>
      </trkpt>
      <trkpt lat="42.85128395073115825653076171875" lon="-0.13942432589828968048095703125">
        <ele>1496.199951171875</ele>
        <time>2022-08-04T06:48:33.000Z</time>
      </trkpt>
      <trkpt lat="42.8513945080339908599853515625" lon="-0.13938845135271549224853515625">
        <ele>1496.5999755859375</ele>
        <time>2022-08-04T06:48:40.000Z</time>
      </trkpt>
      <trkpt lat="42.85147589631378650665283203125" lon="-0.1393898762762546539306640625">
        <ele>1497</ele>
        <time>2022-08-04T06:48:48.000Z</time>
      </trkpt>
      <trkpt lat="42.85141688771545886993408203125" lon="-0.1394103281199932098388671875">
        <ele>1496.800048828125</ele>
        <time>2022-08-04T06:49:14.000Z</time>
      </trkpt>
      <trkpt lat="42.85123500041663646697998046875" lon="-0.13950898312032222747802734375">
        <ele>1496</ele>
        <time>2022-08-04T06:49:31.000Z</time>
      </trkpt>
      <trkpt lat="42.85122427158057689666748046875" lon="-0.13950982131063938140869140625">
        <ele>1496</ele>
        <time>2022-08-04T06:49:32.000Z</time>
      </trkpt>
      <trkpt lat="42.8511457331478595733642578125" lon="-0.13964024372398853302001953125">
        <ele>1497</ele>
        <time>2022-08-04T06:49:48.000Z</time>
      </trkpt>
      <trkpt lat="42.8511433862149715423583984375" lon="-0.13965616934001445770263671875">
        <ele>1497</ele>
        <time>2022-08-04T06:49:50.000Z</time>
      </trkpt>
      <trkpt lat="42.8511199168860912322998046875" lon="-0.13976446352899074554443359375">
        <ele>1497</ele>
        <time>2022-08-04T06:49:59.000Z</time>
      </trkpt>
      <trkpt lat="42.8512966074049472808837890625" lon="-0.1397449336946010589599609375">
        <ele>1496.199951171875</ele>
        <time>2022-08-04T06:50:18.000Z</time>
      </trkpt>
      <trkpt lat="42.85139727406203746795654296875" lon="-0.1397502981126308441162109375">
        <ele>1496.800048828125</ele>
        <time>2022-08-04T06:50:26.000Z</time>
      </trkpt>
      <trkpt lat="42.85143700428307056427001953125" lon="-0.13992707245051860809326171875">
        <ele>1497</ele>
        <time>2022-08-04T06:50:45.000Z</time>
      </trkpt>
      <trkpt lat="42.8513968549668788909912109375" lon="-0.140041820704936981201171875">
        <ele>1498.199951171875</ele>
        <time>2022-08-04T06:50:53.000Z</time>
      </trkpt>
      <trkpt lat="42.85140163265168666839599609375" lon="-0.14017383567988872528076171875">
        <ele>1499.5999755859375</ele>
        <time>2022-08-04T06:51:05.000Z</time>
      </trkpt>
      <trkpt lat="42.85144287161529064178466796875" lon="-0.14029093086719512939453125">
        <ele>1502.5999755859375</ele>
        <time>2022-08-04T06:51:17.000Z</time>
      </trkpt>
      <trkpt lat="42.85132166929543018341064453125" lon="-0.1405449025332927703857421875">
        <ele>1507</ele>
        <time>2022-08-04T06:51:33.000Z</time>
      </trkpt>
      <trkpt lat="42.851303480565547943115234375" lon="-0.14079426415264606475830078125">
        <ele>1510.800048828125</ele>
        <time>2022-08-04T06:51:48.000Z</time>
      </trkpt>
      <trkpt lat="42.8513210825622081756591796875" lon="-0.14102845452725887298583984375">
        <ele>1514.199951171875</ele>
        <time>2022-08-04T06:52:04.000Z</time>
      </trkpt>
      <trkpt lat="42.85133625380694866180419921875" lon="-0.1410729624330997467041015625">
        <ele>1515</ele>
        <time>2022-08-04T06:52:08.000Z</time>
      </trkpt>
      <trkpt lat="42.8513596393167972564697265625" lon="-0.1411423645913600921630859375">
        <ele>1516.4000244140625</ele>
        <time>2022-08-04T06:52:13.000Z</time>
      </trkpt>
      <trkpt lat="42.85140699706971645355224609375" lon="-0.141196511685848236083984375">
        <ele>1517</ele>
        <time>2022-08-04T06:52:19.000Z</time>
      </trkpt>
      <trkpt lat="42.85142359323799610137939453125" lon="-0.14124906621873378753662109375">
        <ele>1517.5999755859375</ele>
        <time>2022-08-04T06:52:23.000Z</time>
      </trkpt>
      <trkpt lat="42.85142392851412296295166015625" lon="-0.1412786543369293212890625">
        <ele>1517.800048828125</ele>
        <time>2022-08-04T06:52:25.000Z</time>
      </trkpt>
      <trkpt lat="42.85146449692547321319580078125" lon="-0.1414072327315807342529296875">
        <ele>1518.800048828125</ele>
        <time>2022-08-04T06:52:36.000Z</time>
      </trkpt>
      <trkpt lat="42.85150473006069660186767578125" lon="-0.1414293609559535980224609375">
        <ele>1519.4000244140625</ele>
        <time>2022-08-04T06:52:40.000Z</time>
      </trkpt>
      <trkpt lat="42.85157681442797183990478515625" lon="-0.14145635068416595458984375">
        <ele>1520.800048828125</ele>
        <time>2022-08-04T06:52:47.000Z</time>
      </trkpt>
      <trkpt lat="42.8516268543899059295654296875" lon="-0.14149230904877185821533203125">
        <ele>1521.5999755859375</ele>
        <time>2022-08-04T06:52:53.000Z</time>
      </trkpt>
      <trkpt lat="42.8517584502696990966796875" lon="-0.1416281796991825103759765625">
        <ele>1523.199951171875</ele>
        <time>2022-08-04T06:53:10.000Z</time>
      </trkpt>
      <trkpt lat="42.8517740406095981597900390625" lon="-0.14165625907480716705322265625">
        <ele>1523.5999755859375</ele>
        <time>2022-08-04T06:53:14.000Z</time>
      </trkpt>
      <trkpt lat="42.8517777286469936370849609375" lon="-0.14167939312756061553955078125">
        <ele>1523.5999755859375</ele>
        <time>2022-08-04T06:53:16.000Z</time>
      </trkpt>
      <trkpt lat="42.8517257608473300933837890625" lon="-0.1417321152985095977783203125">
        <ele>1523.199951171875</ele>
        <time>2022-08-04T06:53:23.000Z</time>
      </trkpt>
      <trkpt lat="42.85160045139491558074951171875" lon="-0.1417508907616138458251953125">
        <ele>1521.800048828125</ele>
        <time>2022-08-04T06:53:35.000Z</time>
      </trkpt>
      <trkpt lat="42.8514736331999301910400390625" lon="-0.14183060266077518463134765625">
        <ele>1521</ele>
        <time>2022-08-04T06:53:51.000Z</time>
      </trkpt>
      <trkpt lat="42.851448990404605865478515625" lon="-0.141856670379638671875">
        <ele>1520.800048828125</ele>
        <time>2022-08-04T06:53:55.000Z</time>
      </trkpt>
      <trkpt lat="42.85126584582030773162841796875" lon="-0.1418045349419116973876953125">
        <ele>1520</ele>
        <time>2022-08-04T06:54:08.000Z</time>
      </trkpt>
      <trkpt lat="42.8512469865381717681884765625" lon="-0.14179824851453304290771484375">
        <ele>1520</ele>
        <time>2022-08-04T06:54:10.000Z</time>
      </trkpt>
      <trkpt lat="42.8512273728847503662109375" lon="-0.14178953133523464202880859375">
        <ele>1520</ele>
        <time>2022-08-04T06:54:13.000Z</time>
      </trkpt>
      <trkpt lat="42.85119342617690563201904296875" lon="-0.14178584329783916473388671875">
        <ele>1519.800048828125</ele>
        <time>2022-08-04T06:54:17.000Z</time>
      </trkpt>
      <trkpt lat="42.85104858689010143280029296875" lon="-0.14192179776728153228759765625">
        <ele>1519.199951171875</ele>
        <time>2022-08-04T06:54:34.000Z</time>
      </trkpt>
      <trkpt lat="42.850959487259387969970703125" lon="-0.14214056544005870819091796875">
        <ele>1519.199951171875</ele>
        <time>2022-08-04T06:54:52.000Z</time>
      </trkpt>
      <trkpt lat="42.850892432034015655517578125" lon="-0.14234458096325397491455078125">
        <ele>1519.800048828125</ele>
        <time>2022-08-04T06:55:06.000Z</time>
      </trkpt>
      <trkpt lat="42.85090810619294643402099609375" lon="-0.14246762730181217193603515625">
        <ele>1520.4000244140625</ele>
        <time>2022-08-04T06:55:13.000Z</time>
      </trkpt>
      <trkpt lat="42.85103132016956806182861328125" lon="-0.14243912883102893829345703125">
        <ele>1520.5999755859375</ele>
        <time>2022-08-04T06:56:09.000Z</time>
      </trkpt>
      <trkpt lat="42.85111631266772747039794921875" lon="-0.1424821279942989349365234375">
        <ele>1521</ele>
        <time>2022-08-04T06:57:07.000Z</time>
      </trkpt>
      <trkpt lat="42.85113475285470485687255859375" lon="-0.1424569822847843170166015625">
        <ele>1521</ele>
        <time>2022-08-04T06:57:16.000Z</time>
      </trkpt>
      <trkpt lat="42.849784679710865020751953125" lon="-0.143251754343509674072265625">
        <ele>1535.800048828125</ele>
        <time>2022-08-04T07:24:35.000Z</time>
      </trkpt>
      <trkpt lat="42.84961544908583164215087890625" lon="-0.1433546841144561767578125">
        <ele>1540.4000244140625</ele>
        <time>2022-08-04T07:24:56.000Z</time>
      </trkpt>
      <trkpt lat="42.84944009967148303985595703125" lon="-0.143449567258358001708984375">
        <ele>1549.5999755859375</ele>
        <time>2022-08-04T07:25:19.000Z</time>
      </trkpt>
      <trkpt lat="42.84927212633192539215087890625" lon="-0.143554508686065673828125">
        <ele>1562.5999755859375</ele>
        <time>2022-08-04T07:25:40.000Z</time>
      </trkpt>
      <trkpt lat="42.84909677691757678985595703125" lon="-0.14363489113748073577880859375">
        <ele>1575.199951171875</ele>
        <time>2022-08-04T07:26:02.000Z</time>
      </trkpt>
      <trkpt lat="42.8489188291132450103759765625" lon="-0.1437092386186122894287109375">
        <ele>1586.4000244140625</ele>
        <time>2022-08-04T07:26:23.000Z</time>
      </trkpt>
      <trkpt lat="42.8487538732588291168212890625" lon="-0.14381778426468372344970703125">
        <ele>1592.199951171875</ele>
        <time>2022-08-04T07:26:42.000Z</time>
      </trkpt>
      <trkpt lat="42.84858095459640026092529296875" lon="-0.143888108432292938232421875">
        <ele>1598.5999755859375</ele>
        <time>2022-08-04T07:27:04.000Z</time>
      </trkpt>
      <trkpt lat="42.8484021686017513275146484375" lon="-0.143927000463008880615234375">
        <ele>1605.5999755859375</ele>
        <time>2022-08-04T07:27:32.000Z</time>
      </trkpt>
      <trkpt lat="42.84822086803615093231201171875" lon="-0.14397284947335720062255859375">
        <ele>1616.4000244140625</ele>
        <time>2022-08-04T07:27:54.000Z</time>
      </trkpt>
      <trkpt lat="42.84805322997272014617919921875" lon="-0.14406345784664154052734375">
        <ele>1627.800048828125</ele>
        <time>2022-08-04T07:28:15.000Z</time>
      </trkpt>
      <trkpt lat="42.84786899574100971221923828125" lon="-0.14411685056984424591064453125">
        <ele>1642.4000244140625</ele>
        <time>2022-08-04T07:28:33.000Z</time>
      </trkpt>
      <trkpt lat="42.84769163466989994049072265625" lon="-0.1441947184503078460693359375">
        <ele>1653</ele>
        <time>2022-08-04T07:28:53.000Z</time>
      </trkpt>
      <trkpt lat="42.847520895302295684814453125" lon="-0.14428616501390933990478515625">
        <ele>1662.5999755859375</ele>
        <time>2022-08-04T07:29:16.000Z</time>
      </trkpt>
      <trkpt lat="42.847344540059566497802734375" lon="-0.144362188875675201416015625">
        <ele>1671.5999755859375</ele>
        <time>2022-08-04T07:29:39.000Z</time>
      </trkpt>
      <trkpt lat="42.8471680171787738800048828125" lon="-0.14442563988268375396728515625">
        <ele>1677.5999755859375</ele>
        <time>2022-08-04T07:30:02.000Z</time>
      </trkpt>
      <trkpt lat="42.847001887857913970947265625" lon="-0.1445299945771694183349609375">
        <ele>1683.5999755859375</ele>
        <time>2022-08-04T07:30:28.000Z</time>
      </trkpt>
      <trkpt lat="42.84682377241551876068115234375" lon="-0.144608281552791595458984375">
        <ele>1692.800048828125</ele>
        <time>2022-08-04T07:30:50.000Z</time>
      </trkpt>
      <trkpt lat="42.84666032530367374420166015625" lon="-0.14471448026597499847412109375">
        <ele>1701.800048828125</ele>
        <time>2022-08-04T07:31:14.000Z</time>
      </trkpt>
      <trkpt lat="42.846476845443248748779296875" lon="-0.1447626762092113494873046875">
        <ele>1708.4000244140625</ele>
        <time>2022-08-04T07:31:36.000Z</time>
      </trkpt>
      <trkpt lat="42.84630426205694675445556640625" lon="-0.14483685605227947235107421875">
        <ele>1717.199951171875</ele>
        <time>2022-08-04T07:32:00.000Z</time>
      </trkpt>
      <trkpt lat="42.8461390547454357147216796875" lon="-0.1449266262352466583251953125">
        <ele>1727</ele>
        <time>2022-08-04T07:32:23.000Z</time>
      </trkpt>
      <trkpt lat="42.84597896039485931396484375" lon="-0.14503483660519123077392578125">
        <ele>1738.4000244140625</ele>
        <time>2022-08-04T07:32:47.000Z</time>
      </trkpt>
      <trkpt lat="42.8458074666559696197509765625" lon="-0.1451147161424160003662109375">
        <ele>1749.4000244140625</ele>
        <time>2022-08-04T07:33:08.000Z</time>
      </trkpt>
      <trkpt lat="42.84563270397484302520751953125" lon="-0.145184285938739776611328125">
        <ele>1759.800048828125</ele>
        <time>2022-08-04T07:33:32.000Z</time>
      </trkpt>
      <trkpt lat="42.84545551054179668426513671875" lon="-0.14521320350468158721923828125">
        <ele>1767.199951171875</ele>
        <time>2022-08-04T07:33:51.000Z</time>
      </trkpt>
      <trkpt lat="42.84542332403361797332763671875" lon="-0.14524874277412891387939453125">
        <ele>1769.800048828125</ele>
        <time>2022-08-04T07:34:54.000Z</time>
      </trkpt>
      <trkpt lat="42.845407314598560333251953125" lon="-0.1452028937637805938720703125">
        <ele>1768.5999755859375</ele>
        <time>2022-08-04T07:36:35.000Z</time>
      </trkpt>
      <trkpt lat="42.8453997708857059478759765625" lon="-0.14523533172905445098876953125">
        <ele>1770</ele>
        <time>2022-08-04T07:38:27.000Z</time>
      </trkpt>
      <trkpt lat="42.8454413451254367828369140625" lon="-0.145222507417201995849609375">
        <ele>1768.199951171875</ele>
        <time>2022-08-04T07:39:02.000Z</time>
      </trkpt>
      <trkpt lat="42.8453065641224384307861328125" lon="-0.1451115310192108154296875">
        <ele>1767.5999755859375</ele>
        <time>2022-08-04T07:39:31.000Z</time>
      </trkpt>
      <trkpt lat="42.84514303319156169891357421875" lon="-0.14498077332973480224609375">
        <ele>1765.199951171875</ele>
        <time>2022-08-04T07:39:47.000Z</time>
      </trkpt>
      <trkpt lat="42.84497271291911602020263671875" lon="-0.1448803581297397613525390625">
        <ele>1767</ele>
        <time>2022-08-04T07:40:02.000Z</time>
      </trkpt>
      <trkpt lat="42.8448120318353176116943359375" lon="-0.14475806616246700286865234375">
        <ele>1767</ele>
        <time>2022-08-04T07:40:16.000Z</time>
      </trkpt>
      <trkpt lat="42.84464028663933277130126953125" lon="-0.14463753439486026763916015625">
        <ele>1765.5999755859375</ele>
        <time>2022-08-04T07:40:32.000Z</time>
      </trkpt>
      <trkpt lat="42.84452729858458042144775390625" lon="-0.14458321966230869293212890625">
        <ele>1766.199951171875</ele>
        <time>2022-08-04T07:40:42.000Z</time>
      </trkpt>
      <trkpt lat="42.8444137237966060638427734375" lon="-0.144510380923748016357421875">
        <ele>1765</ele>
        <time>2022-08-04T07:40:51.000Z</time>
      </trkpt>
      <trkpt lat="42.844350524246692657470703125" lon="-0.14447643421590328216552734375">
        <ele>1764.4000244140625</ele>
        <time>2022-08-04T07:40:58.000Z</time>
      </trkpt>
      <trkpt lat="42.84430869854986667633056640625" lon="-0.14446570537984371185302734375">
        <ele>1764.5999755859375</ele>
        <time>2022-08-04T07:41:02.000Z</time>
      </trkpt>
      <trkpt lat="42.8442537970840930938720703125" lon="-0.14444709755480289459228515625">
        <ele>1764.4000244140625</ele>
        <time>2022-08-04T07:41:06.000Z</time>
      </trkpt>
      <trkpt lat="42.844070903956890106201171875" lon="-0.14442916028201580047607421875">
        <ele>1764</ele>
        <time>2022-08-04T07:41:22.000Z</time>
      </trkpt>
      <trkpt lat="42.843892872333526611328125" lon="-0.1443378813564777374267578125">
        <ele>1761.4000244140625</ele>
        <time>2022-08-04T07:41:38.000Z</time>
      </trkpt>
      <trkpt lat="42.84372112713754177093505859375" lon="-0.144245512783527374267578125">
        <ele>1758.800048828125</ele>
        <time>2022-08-04T07:41:53.000Z</time>
      </trkpt>
      <trkpt lat="42.843551896512508392333984375" lon="-0.14414484612643718719482421875">
        <ele>1758.4000244140625</ele>
        <time>2022-08-04T07:42:08.000Z</time>
      </trkpt>
      <trkpt lat="42.8433750383555889129638671875" lon="-0.14405599795281887054443359375">
        <ele>1758.4000244140625</ele>
        <time>2022-08-04T07:42:23.000Z</time>
      </trkpt>
      <trkpt lat="42.8432496450841426849365234375" lon="-0.1439697481691837310791015625">
        <ele>1759.5999755859375</ele>
        <time>2022-08-04T07:42:34.000Z</time>
      </trkpt>
      <trkpt lat="42.843196503818035125732421875" lon="-0.14392524026334285736083984375">
        <ele>1758.5999755859375</ele>
        <time>2022-08-04T07:42:40.000Z</time>
      </trkpt>
      <trkpt lat="42.84301109611988067626953125" lon="-0.1438795588910579681396484375">
        <ele>1759.199951171875</ele>
        <time>2022-08-04T07:42:53.000Z</time>
      </trkpt>
      <trkpt lat="42.84282962791621685028076171875" lon="-0.143794231116771697998046875">
        <ele>1757</ele>
        <time>2022-08-04T07:43:06.000Z</time>
      </trkpt>
      <trkpt lat="42.84280599094927310943603515625" lon="-0.14378442429006099700927734375">
        <ele>1756.4000244140625</ele>
        <time>2022-08-04T07:43:08.000Z</time>
      </trkpt>
      <trkpt lat="42.8426179848611354827880859375" lon="-0.143741257488727569580078125">
        <ele>1753.800048828125</ele>
        <time>2022-08-04T07:43:23.000Z</time>
      </trkpt>
      <trkpt lat="42.84244372509419918060302734375" lon="-0.14366623945534229278564453125">
        <ele>1750.4000244140625</ele>
        <time>2022-08-04T07:43:36.000Z</time>
      </trkpt>
      <trkpt lat="42.8422635979950428009033203125" lon="-0.14362625777721405029296875">
        <ele>1748.199951171875</ele>
        <time>2022-08-04T07:43:50.000Z</time>
      </trkpt>
      <trkpt lat="42.84217282198369503021240234375" lon="-0.143602453172206878662109375">
        <ele>1747.4000244140625</ele>
        <time>2022-08-04T07:43:58.000Z</time>
      </trkpt>
      <trkpt lat="42.8419990651309490203857421875" lon="-0.143522657454013824462890625">
        <ele>1746.4000244140625</ele>
        <time>2022-08-04T07:44:12.000Z</time>
      </trkpt>
      <trkpt lat="42.8418096341192722320556640625" lon="-0.14350832439959049224853515625">
        <ele>1749.800048828125</ele>
        <time>2022-08-04T07:44:27.000Z</time>
      </trkpt>
      <trkpt lat="42.84162682481110095977783203125" lon="-0.14346557669341564178466796875">
        <ele>1749.4000244140625</ele>
        <time>2022-08-04T07:44:41.000Z</time>
      </trkpt>
      <trkpt lat="42.84143588505685329437255859375" lon="-0.14344797469675540924072265625">
        <ele>1749.4000244140625</ele>
        <time>2022-08-04T07:44:55.000Z</time>
      </trkpt>
      <trkpt lat="42.84125366248190402984619140625" lon="-0.14343908987939357757568359375">
        <ele>1750</ele>
        <time>2022-08-04T07:45:09.000Z</time>
      </trkpt>
      <trkpt lat="42.84107185900211334228515625" lon="-0.14348410069942474365234375">
        <ele>1754</ele>
        <time>2022-08-04T07:45:23.000Z</time>
      </trkpt>
      <trkpt lat="42.84088988788425922393798828125" lon="-0.14344931580126285552978515625">
        <ele>1754.4000244140625</ele>
        <time>2022-08-04T07:45:38.000Z</time>
      </trkpt>
      <trkpt lat="42.8407421149313449859619140625" lon="-0.1432971842586994171142578125">
        <ele>1748.4000244140625</ele>
        <time>2022-08-04T07:45:51.000Z</time>
      </trkpt>
      <trkpt lat="42.84069743938744068145751953125" lon="-0.1432344876229763031005859375">
        <ele>1746.199951171875</ele>
        <time>2022-08-04T07:45:56.000Z</time>
      </trkpt>
      <trkpt lat="42.8405494987964630126953125" lon="-0.14307313598692417144775390625">
        <ele>1742.4000244140625</ele>
        <time>2022-08-04T07:46:10.000Z</time>
      </trkpt>
      <trkpt lat="42.840390242636203765869140625" lon="-0.142953693866729736328125">
        <ele>1740.5999755859375</ele>
        <time>2022-08-04T07:46:24.000Z</time>
      </trkpt>
      <trkpt lat="42.84021950326859951019287109375" lon="-0.14286090619862079620361328125">
        <ele>1742.5999755859375</ele>
        <time>2022-08-04T07:46:38.000Z</time>
      </trkpt>
      <trkpt lat="42.84003376029431819915771484375" lon="-0.1427900791168212890625">
        <ele>1744.199951171875</ele>
        <time>2022-08-04T07:46:53.000Z</time>
      </trkpt>
      <trkpt lat="42.83985011279582977294921875" lon="-0.14270869083702564239501953125">
        <ele>1741.5999755859375</ele>
        <time>2022-08-04T07:47:08.000Z</time>
      </trkpt>
      <trkpt lat="42.83967350609600543975830078125" lon="-0.1426159031689167022705078125">
        <ele>1739.800048828125</ele>
        <time>2022-08-04T07:47:22.000Z</time>
      </trkpt>
      <trkpt lat="42.83949044533073902130126953125" lon="-0.14254373498260974884033203125">
        <ele>1738</ele>
        <time>2022-08-04T07:47:36.000Z</time>
      </trkpt>
      <trkpt lat="42.839312665164470672607421875" lon="-0.14247869141399860382080078125">
        <ele>1739</ele>
        <time>2022-08-04T07:47:51.000Z</time>
      </trkpt>
      <trkpt lat="42.83928860910236835479736328125" lon="-0.1424720697104930877685546875">
        <ele>1739.4000244140625</ele>
        <time>2022-08-04T07:47:53.000Z</time>
      </trkpt>
      <trkpt lat="42.839106805622577667236328125" lon="-0.1424167491495609283447265625">
        <ele>1740.4000244140625</ele>
        <time>2022-08-04T07:48:10.000Z</time>
      </trkpt>
      <trkpt lat="42.838933803141117095947265625" lon="-0.14233670197427272796630859375">
        <ele>1740.800048828125</ele>
        <time>2022-08-04T07:48:24.000Z</time>
      </trkpt>
      <trkpt lat="42.838819138705730438232421875" lon="-0.14229496009647846221923828125">
        <ele>1741.5999755859375</ele>
        <time>2022-08-04T07:48:33.000Z</time>
      </trkpt>
      <trkpt lat="42.83876591362059116363525390625" lon="-0.14227844774723052978515625">
        <ele>1741.800048828125</ele>
        <time>2022-08-04T07:48:38.000Z</time>
      </trkpt>
      <trkpt lat="42.8386473096907138824462890625" lon="-0.142221786081790924072265625">
        <ele>1741.800048828125</ele>
        <time>2022-08-04T07:48:47.000Z</time>
      </trkpt>
      <trkpt lat="42.838467769324779510498046875" lon="-0.14215481467545032501220703125">
        <ele>1741.800048828125</ele>
        <time>2022-08-04T07:49:02.000Z</time>
      </trkpt>
      <trkpt lat="42.83829040825366973876953125" lon="-0.14208826236426830291748046875">
        <ele>1739.5999755859375</ele>
        <time>2022-08-04T07:49:18.000Z</time>
      </trkpt>
      <trkpt lat="42.83811329863965511322021484375" lon="-0.14201533980667591094970703125">
        <ele>1736.4000244140625</ele>
        <time>2022-08-04T07:49:33.000Z</time>
      </trkpt>
      <trkpt lat="42.8379365243017673492431640625" lon="-0.141940154135227203369140625">
        <ele>1735.199951171875</ele>
        <time>2022-08-04T07:49:47.000Z</time>
      </trkpt>
      <trkpt lat="42.83786930143833160400390625" lon="-0.1419108174741268157958984375">
        <ele>1735</ele>
        <time>2022-08-04T07:49:53.000Z</time>
      </trkpt>
      <trkpt lat="42.83769755624234676361083984375" lon="-0.14182783663272857666015625">
        <ele>1735.800048828125</ele>
        <time>2022-08-04T07:50:07.000Z</time>
      </trkpt>
      <trkpt lat="42.83752505667507648468017578125" lon="-0.14170872978866100311279296875">
        <ele>1734.800048828125</ele>
        <time>2022-08-04T07:50:21.000Z</time>
      </trkpt>
      <trkpt lat="42.83735540695488452911376953125" lon="-0.141592808067798614501953125">
        <ele>1735.5999755859375</ele>
        <time>2022-08-04T07:50:35.000Z</time>
      </trkpt>
      <trkpt lat="42.8371747769415378570556640625" lon="-0.1415148563683032989501953125">
        <ele>1737</ele>
        <time>2022-08-04T07:50:50.000Z</time>
      </trkpt>
      <trkpt lat="42.837063968181610107421875" lon="-0.14146029017865657806396484375">
        <ele>1737.4000244140625</ele>
        <time>2022-08-04T07:50:59.000Z</time>
      </trkpt>
      <trkpt lat="42.83697570674121379852294921875" lon="-0.14141486026346683502197265625">
        <ele>1737.800048828125</ele>
        <time>2022-08-04T07:51:06.000Z</time>
      </trkpt>
      <trkpt lat="42.8368026204407215118408203125" lon="-0.14133908785879611968994140625">
        <ele>1738</ele>
        <time>2022-08-04T07:51:20.000Z</time>
      </trkpt>
      <trkpt lat="42.8366232477128505706787109375" lon="-0.141268931329250335693359375">
        <ele>1737.800048828125</ele>
        <time>2022-08-04T07:51:34.000Z</time>
      </trkpt>
      <trkpt lat="42.8364307992160320281982421875" lon="-0.1412332244217395782470703125">
        <ele>1739.800048828125</ele>
        <time>2022-08-04T07:51:49.000Z</time>
      </trkpt>
      <trkpt lat="42.8363250195980072021484375" lon="-0.14116105623543262481689453125">
        <ele>1740</ele>
        <time>2022-08-04T07:51:58.000Z</time>
      </trkpt>
      <trkpt lat="42.83615075983107089996337890625" lon="-0.14105913229286670684814453125">
        <ele>1740</ele>
        <time>2022-08-04T07:52:13.000Z</time>
      </trkpt>
      <trkpt lat="42.83597834408283233642578125" lon="-0.1409686915576457977294921875">
        <ele>1740</ele>
        <time>2022-08-04T07:52:28.000Z</time>
      </trkpt>
      <trkpt lat="42.8359138034284114837646484375" lon="-0.140906833112239837646484375">
        <ele>1739.199951171875</ele>
        <time>2022-08-04T07:52:34.000Z</time>
      </trkpt>
      <trkpt lat="42.8358863107860088348388671875" lon="-0.14086165465414524078369140625">
        <ele>1738.4000244140625</ele>
        <time>2022-08-04T07:52:38.000Z</time>
      </trkpt>
      <trkpt lat="42.8358205966651439666748046875" lon="-0.140807926654815673828125">
        <ele>1737.5999755859375</ele>
        <time>2022-08-04T07:52:44.000Z</time>
      </trkpt>
      <trkpt lat="42.83567852340638637542724609375" lon="-0.140638612210750579833984375">
        <ele>1734.5999755859375</ele>
        <time>2022-08-04T07:52:57.000Z</time>
      </trkpt>
      <trkpt lat="42.8355171717703342437744140625" lon="-0.1405529491603374481201171875">
        <ele>1732.4000244140625</ele>
        <time>2022-08-04T07:53:10.000Z</time>
      </trkpt>
      <trkpt lat="42.83536185510456562042236328125" lon="-0.140505172312259674072265625">
        <ele>1730.5999755859375</ele>
        <time>2022-08-04T07:53:30.000Z</time>
      </trkpt>
      <trkpt lat="42.8352284990251064300537109375" lon="-0.1404578983783721923828125">
        <ele>1729</ele>
        <time>2022-08-04T07:53:42.000Z</time>
      </trkpt>
      <trkpt lat="42.83524207770824432373046875" lon="-0.14051221311092376708984375">
        <ele>1729.5999755859375</ele>
        <time>2022-08-04T07:53:56.000Z</time>
      </trkpt>
      <trkpt lat="42.8352060355246067047119140625" lon="-0.14056677930057048797607421875">
        <ele>1730</ele>
        <time>2022-08-04T07:54:00.000Z</time>
      </trkpt>
      <trkpt lat="42.83509044907987117767333984375" lon="-0.14064976014196872711181640625">
        <ele>1730</ele>
        <time>2022-08-04T07:54:12.000Z</time>
      </trkpt>
      <trkpt lat="42.83497528173029422760009765625" lon="-0.14071765355765819549560546875">
        <ele>1729.199951171875</ele>
        <time>2022-08-04T07:54:55.000Z</time>
      </trkpt>
      <trkpt lat="42.83497746102511882781982421875" lon="-0.14070608653128147125244140625">
        <ele>1729</ele>
        <time>2022-08-04T07:56:03.000Z</time>
      </trkpt>
      <trkpt lat="42.83494410105049610137939453125" lon="-0.1407246105372905731201171875">
        <ele>1728.800048828125</ele>
        <time>2022-08-04T07:57:12.000Z</time>
      </trkpt>
      <trkpt lat="42.83506195060908794403076171875" lon="-0.14069133438169956207275390625">
        <ele>1730</ele>
        <time>2022-08-04T07:58:15.000Z</time>
      </trkpt>
      <trkpt lat="42.8351433388888835906982421875" lon="-0.1407609879970550537109375">
        <ele>1732</ele>
        <time>2022-08-04T07:58:39.000Z</time>
      </trkpt>
      <trkpt lat="42.83505474217236042022705078125" lon="-0.1409881375730037689208984375">
        <ele>1734.199951171875</ele>
        <time>2022-08-04T07:58:55.000Z</time>
      </trkpt>
      <trkpt lat="42.8349535726010799407958984375" lon="-0.1411955058574676513671875">
        <ele>1737.5999755859375</ele>
        <time>2022-08-04T07:59:14.000Z</time>
      </trkpt>
      <trkpt lat="42.83480160869657993316650390625" lon="-0.14133003540337085723876953125">
        <ele>1739.199951171875</ele>
        <time>2022-08-04T07:59:35.000Z</time>
      </trkpt>
      <trkpt lat="42.83464218489825725555419921875" lon="-0.1414467953145503997802734375">
        <ele>1741.199951171875</ele>
        <time>2022-08-04T07:59:55.000Z</time>
      </trkpt>
      <trkpt lat="42.83449851907789707183837890625" lon="-0.14153388328850269317626953125">
        <ele>1742.800048828125</ele>
        <time>2022-08-04T08:00:23.000Z</time>
      </trkpt>
      <trkpt lat="42.834326438605785369873046875" lon="-0.14161686412990093231201171875">
        <ele>1745</ele>
        <time>2022-08-04T08:00:37.000Z</time>
      </trkpt>
      <trkpt lat="42.8341344930231571197509765625" lon="-0.14160630293190479278564453125">
        <ele>1741</ele>
        <time>2022-08-04T08:00:49.000Z</time>
      </trkpt>
      <trkpt lat="42.834043465554714202880859375" lon="-0.1416526548564434051513671875">
        <ele>1740</ele>
        <time>2022-08-04T08:00:56.000Z</time>
      </trkpt>
      <trkpt lat="42.83400147221982479095458984375" lon="-0.14170311391353607177734375">
        <ele>1740.4000244140625</ele>
        <time>2022-08-04T08:01:00.000Z</time>
      </trkpt>
      <trkpt lat="42.83392838202416896820068359375" lon="-0.14173664152622222900390625">
        <ele>1740.199951171875</ele>
        <time>2022-08-04T08:01:07.000Z</time>
      </trkpt>
      <trkpt lat="42.83375035040080547332763671875" lon="-0.14178785495460033416748046875">
        <ele>1739.199951171875</ele>
        <time>2022-08-04T08:01:20.000Z</time>
      </trkpt>
      <trkpt lat="42.83356963656842708587646484375" lon="-0.14181249774992465972900390625">
        <ele>1740.199951171875</ele>
        <time>2022-08-04T08:01:33.000Z</time>
      </trkpt>
      <trkpt lat="42.83339495770633220672607421875" lon="-0.14174074865877628326416015625">
        <ele>1739.199951171875</ele>
        <time>2022-08-04T08:01:47.000Z</time>
      </trkpt>
      <trkpt lat="42.83329286612570285797119140625" lon="-0.14168475754559040069580078125">
        <ele>1738</ele>
        <time>2022-08-04T08:01:54.000Z</time>
      </trkpt>
      <trkpt lat="42.833217345178127288818359375" lon="-0.14165659435093402862548828125">
        <ele>1735.5999755859375</ele>
        <time>2022-08-04T08:02:00.000Z</time>
      </trkpt>
      <trkpt lat="42.83314551226794719696044921875" lon="-0.141650475561618804931640625">
        <ele>1734.199951171875</ele>
        <time>2022-08-04T08:02:06.000Z</time>
      </trkpt>
      <trkpt lat="42.8330421634018421173095703125" lon="-0.141669251024723052978515625">
        <ele>1734.4000244140625</ele>
        <time>2022-08-04T08:02:14.000Z</time>
      </trkpt>
      <trkpt lat="42.832918949425220489501953125" lon="-0.14167939312756061553955078125">
        <ele>1735.5999755859375</ele>
        <time>2022-08-04T08:02:22.000Z</time>
      </trkpt>
      <trkpt lat="42.8327389061450958251953125" lon="-0.1416848413646221160888671875">
        <ele>1738</ele>
        <time>2022-08-04T08:02:36.000Z</time>
      </trkpt>
      <trkpt lat="42.83256053924560546875" lon="-0.1416684128344058990478515625">
        <ele>1738.5999755859375</ele>
        <time>2022-08-04T08:02:52.000Z</time>
      </trkpt>
      <trkpt lat="42.83238460309803485870361328125" lon="-0.14165273867547512054443359375">
        <ele>1738.4000244140625</ele>
        <time>2022-08-04T08:03:08.000Z</time>
      </trkpt>
      <trkpt lat="42.83220673911273479461669921875" lon="-0.14157646335661411285400390625">
        <ele>1733.800048828125</ele>
        <time>2022-08-04T08:03:22.000Z</time>
      </trkpt>
      <trkpt lat="42.83203356899321079254150390625" lon="-0.1415068097412586212158203125">
        <ele>1731</ele>
        <time>2022-08-04T08:03:37.000Z</time>
      </trkpt>
      <trkpt lat="42.83192862756550312042236328125" lon="-0.14150588773190975189208984375">
        <ele>1731.199951171875</ele>
        <time>2022-08-04T08:03:46.000Z</time>
      </trkpt>
      <trkpt lat="42.831895016133785247802734375" lon="-0.14154712669551372528076171875">
        <ele>1732.199951171875</ele>
        <time>2022-08-04T08:03:53.000Z</time>
      </trkpt>
      <trkpt lat="42.83192611299455165863037109375" lon="-0.14155819080770015716552734375">
        <ele>1732.199951171875</ele>
        <time>2022-08-04T08:04:05.000Z</time>
      </trkpt>
      <trkpt lat="42.831744141876697540283203125" lon="-0.141639076173305511474609375">
        <ele>1736.4000244140625</ele>
        <time>2022-08-04T08:04:26.000Z</time>
      </trkpt>
      <trkpt lat="42.83169510774314403533935546875" lon="-0.14165542088449001312255859375">
        <ele>1737</ele>
        <time>2022-08-04T08:04:30.000Z</time>
      </trkpt>
      <trkpt lat="42.8315867297351360321044921875" lon="-0.14173940755426883697509765625">
        <ele>1740.4000244140625</ele>
        <time>2022-08-04T08:04:39.000Z</time>
      </trkpt>
      <trkpt lat="42.83140844665467739105224609375" lon="-0.14177544973790645599365234375">
        <ele>1741.800048828125</ele>
        <time>2022-08-04T08:04:52.000Z</time>
      </trkpt>
      <trkpt lat="42.83131104893982410430908203125" lon="-0.14181668870151042938232421875">
        <ele>1741.5999755859375</ele>
        <time>2022-08-04T08:05:01.000Z</time>
      </trkpt>
      <trkpt lat="42.83128179609775543212890625" lon="-0.14185960404574871063232421875">
        <ele>1742.800048828125</ele>
        <time>2022-08-04T08:05:05.000Z</time>
      </trkpt>
      <trkpt lat="42.8310989029705524444580078125" lon="-0.141907297074794769287109375">
        <ele>1742.800048828125</ele>
        <time>2022-08-04T08:05:19.000Z</time>
      </trkpt>
      <trkpt lat="42.83108490519225597381591796875" lon="-0.14191341586410999298095703125">
        <ele>1742.800048828125</ele>
        <time>2022-08-04T08:05:20.000Z</time>
      </trkpt>
      <trkpt lat="42.8309973143041133880615234375" lon="-0.1418923772871494293212890625">
        <ele>1741.4000244140625</ele>
        <time>2022-08-04T08:05:28.000Z</time>
      </trkpt>
      <trkpt lat="42.8309470228850841522216796875" lon="-0.1418923772871494293212890625">
        <ele>1741</ele>
        <time>2022-08-04T08:05:33.000Z</time>
      </trkpt>
      <trkpt lat="42.830765806138515472412109375" lon="-0.14187301509082317352294921875">
        <ele>1742.5999755859375</ele>
        <time>2022-08-04T08:05:49.000Z</time>
      </trkpt>
      <trkpt lat="42.830607891082763671875" lon="-0.1418404094874858856201171875">
        <ele>1744.4000244140625</ele>
        <time>2022-08-04T08:06:24.000Z</time>
      </trkpt>
      <trkpt lat="42.83042776398360729217529296875" lon="-0.1418018527328968048095703125">
        <ele>1746</ele>
        <time>2022-08-04T08:06:37.000Z</time>
      </trkpt>
      <trkpt lat="42.830303125083446502685546875" lon="-0.141741670668125152587890625">
        <ele>1745.199951171875</ele>
        <time>2022-08-04T08:06:48.000Z</time>
      </trkpt>
      <trkpt lat="42.83010673709213733673095703125" lon="-0.141665898263454437255859375">
        <ele>1744.4000244140625</ele>
        <time>2022-08-04T08:07:04.000Z</time>
      </trkpt>
      <trkpt lat="42.8299572877585887908935546875" lon="-0.14158937148749828338623046875">
        <ele>1742.199951171875</ele>
        <time>2022-08-04T08:07:18.000Z</time>
      </trkpt>
      <trkpt lat="42.829793505370616912841796875" lon="-0.14153589494526386260986328125">
        <ele>1740.4000244140625</ele>
        <time>2022-08-04T08:07:33.000Z</time>
      </trkpt>
      <trkpt lat="42.829713709652423858642578125" lon="-0.14150991104543209075927734375">
        <ele>1740.4000244140625</ele>
        <time>2022-08-04T08:07:40.000Z</time>
      </trkpt>
      <trkpt lat="42.82955311238765716552734375" lon="-0.141379572451114654541015625">
        <ele>1738.199951171875</ele>
        <time>2022-08-04T08:08:01.000Z</time>
      </trkpt>
      <trkpt lat="42.82939352095127105712890625" lon="-0.1412489823997020721435546875">
        <ele>1735.5999755859375</ele>
        <time>2022-08-04T08:08:20.000Z</time>
      </trkpt>
      <trkpt lat="42.82921490259468555450439453125" lon="-0.141252167522907257080078125">
        <ele>1736.199951171875</ele>
        <time>2022-08-04T08:08:43.000Z</time>
      </trkpt>
      <trkpt lat="42.8290781937539577484130859375" lon="-0.1410863734781742095947265625">
        <ele>1734.5999755859375</ele>
        <time>2022-08-04T08:08:59.000Z</time>
      </trkpt>
      <trkpt lat="42.82890125177800655364990234375" lon="-0.14100800268352031707763671875">
        <ele>1733.4000244140625</ele>
        <time>2022-08-04T08:09:16.000Z</time>
      </trkpt>
      <trkpt lat="42.82872204668819904327392578125" lon="-0.14098620973527431488037109375">
        <ele>1736.5999755859375</ele>
        <time>2022-08-04T08:09:34.000Z</time>
      </trkpt>
      <trkpt lat="42.82856128178536891937255859375" lon="-0.14086936600506305694580078125">
        <ele>1738.4000244140625</ele>
        <time>2022-08-04T08:09:51.000Z</time>
      </trkpt>
      <trkpt lat="42.82850864343345165252685546875" lon="-0.14083315618336200714111328125">
        <ele>1738.5999755859375</ele>
        <time>2022-08-04T08:09:56.000Z</time>
      </trkpt>
      <trkpt lat="42.82847980968654155731201171875" lon="-0.14080583117902278900146484375">
        <ele>1738.5999755859375</ele>
        <time>2022-08-04T08:10:00.000Z</time>
      </trkpt>
      <trkpt lat="42.8283892013132572174072265625" lon="-0.14066652394831180572509765625">
        <ele>1737.800048828125</ele>
        <time>2022-08-04T08:10:13.000Z</time>
      </trkpt>
      <trkpt lat="42.82835609279572963714599609375" lon="-0.14059997163712978363037109375">
        <ele>1737.5999755859375</ele>
        <time>2022-08-04T08:10:20.000Z</time>
      </trkpt>
      <trkpt lat="42.828351818025112152099609375" lon="-0.1405516080558300018310546875">
        <ele>1737.199951171875</ele>
        <time>2022-08-04T08:11:19.000Z</time>
      </trkpt>
      <trkpt lat="42.8283301927149295806884765625" lon="-0.1406830362975597381591796875">
        <ele>1738.4000244140625</ele>
        <time>2022-08-04T08:12:22.000Z</time>
      </trkpt>
      <trkpt lat="42.8281756304204463958740234375" lon="-0.14067624695599079132080078125">
        <ele>1739.199951171875</ele>
        <time>2022-08-04T08:13:04.000Z</time>
      </trkpt>
      <trkpt lat="42.828006483614444732666015625" lon="-0.1406572200357913970947265625">
        <ele>1740.199951171875</ele>
        <time>2022-08-04T08:13:32.000Z</time>
      </trkpt>
      <trkpt lat="42.82799533568322658538818359375" lon="-0.140657387673854827880859375">
        <ele>1740.199951171875</ele>
        <time>2022-08-04T08:13:33.000Z</time>
      </trkpt>
      <trkpt lat="42.82785133458673954010009765625" lon="-0.14058136381208896636962890625">
        <ele>1739.4000244140625</ele>
        <time>2022-08-04T08:13:57.000Z</time>
      </trkpt>
      <trkpt lat="42.82766357995569705963134765625" lon="-0.1405814476311206817626953125">
        <ele>1741.199951171875</ele>
        <time>2022-08-04T08:14:17.000Z</time>
      </trkpt>
      <trkpt lat="42.82752645201981067657470703125" lon="-0.14055437408387660980224609375">
        <ele>1741.4000244140625</ele>
        <time>2022-08-04T08:14:37.000Z</time>
      </trkpt>
      <trkpt lat="42.827486805617809295654296875" lon="-0.14055957086384296417236328125">
        <ele>1741.5999755859375</ele>
        <time>2022-08-04T08:14:41.000Z</time>
      </trkpt>
      <trkpt lat="42.82730869017541408538818359375" lon="-0.1405237801373004913330078125">
        <ele>1741.5999755859375</ele>
        <time>2022-08-04T08:15:00.000Z</time>
      </trkpt>
      <trkpt lat="42.8271530382335186004638671875" lon="-0.14042981900274753570556640625">
        <ele>1743</ele>
        <time>2022-08-04T08:15:21.000Z</time>
      </trkpt>
      <trkpt lat="42.826992608606815338134765625" lon="-0.14032990671694278717041015625">
        <ele>1744</ele>
        <time>2022-08-04T08:15:43.000Z</time>
      </trkpt>
      <trkpt lat="42.82681583426892757415771484375" lon="-0.14029922895133495330810546875">
        <ele>1745.5999755859375</ele>
        <time>2022-08-04T08:16:05.000Z</time>
      </trkpt>
      <trkpt lat="42.8266610205173492431640625" lon="-0.14021758921444416046142578125">
        <ele>1744.4000244140625</ele>
        <time>2022-08-04T08:16:27.000Z</time>
      </trkpt>
      <trkpt lat="42.8265119902789592742919921875" lon="-0.14007912017405033111572265625">
        <ele>1742.800048828125</ele>
        <time>2022-08-04T08:16:48.000Z</time>
      </trkpt>
      <trkpt lat="42.8263426758348941802978515625" lon="-0.14000720344483852386474609375">
        <ele>1743.5999755859375</ele>
        <time>2022-08-04T08:17:08.000Z</time>
      </trkpt>
      <trkpt lat="42.826188616454601287841796875" lon="-0.13995833694934844970703125">
        <ele>1743.800048828125</ele>
        <time>2022-08-04T08:17:30.000Z</time>
      </trkpt>
      <trkpt lat="42.82601117156445980072021484375" lon="-0.1399558223783969879150390625">
        <ele>1745.4000244140625</ele>
        <time>2022-08-04T08:17:50.000Z</time>
      </trkpt>
      <trkpt lat="42.825845293700695037841796875" lon="-0.13996344991028308868408203125">
        <ele>1747.4000244140625</ele>
        <time>2022-08-04T08:18:06.000Z</time>
      </trkpt>
      <trkpt lat="42.8256982751190662384033203125" lon="-0.13982699252665042877197265625">
        <ele>1745.4000244140625</ele>
        <time>2022-08-04T08:18:23.000Z</time>
      </trkpt>
      <trkpt lat="42.82551999203860759735107421875" lon="-0.1397714205086231231689453125">
        <ele>1746</ele>
        <time>2022-08-04T08:18:38.000Z</time>
      </trkpt>
      <trkpt lat="42.82543726265430450439453125" lon="-0.1397700794041156768798828125">
        <ele>1746.4000244140625</ele>
        <time>2022-08-04T08:18:45.000Z</time>
      </trkpt>
      <trkpt lat="42.82525629736483097076416015625" lon="-0.13980234973132610321044921875">
        <ele>1747.199951171875</ele>
        <time>2022-08-04T08:18:59.000Z</time>
      </trkpt>
      <trkpt lat="42.8250790201127529144287109375" lon="-0.13977753929793834686279296875">
        <ele>1748</ele>
        <time>2022-08-04T08:19:20.000Z</time>
      </trkpt>
      <trkpt lat="42.82489721663296222686767578125" lon="-0.1397415809333324432373046875">
        <ele>1752</ele>
        <time>2022-08-04T08:19:38.000Z</time>
      </trkpt>
      <trkpt lat="42.824728824198246002197265625" lon="-0.13970159925520420074462890625">
        <ele>1755.800048828125</ele>
        <time>2022-08-04T08:20:05.000Z</time>
      </trkpt>
      <trkpt lat="42.8245657123625278472900390625" lon="-0.1396161876618862152099609375">
        <ele>1759</ele>
        <time>2022-08-04T08:20:25.000Z</time>
      </trkpt>
      <trkpt lat="42.8244245611131191253662109375" lon="-0.13946455903351306915283203125">
        <ele>1760.800048828125</ele>
        <time>2022-08-04T08:20:43.000Z</time>
      </trkpt>
      <trkpt lat="42.82428751699626445770263671875" lon="-0.1392973400652408599853515625">
        <ele>1761.800048828125</ele>
        <time>2022-08-04T08:21:02.000Z</time>
      </trkpt>
      <trkpt lat="42.8241549991071224212646484375" lon="-0.139122493565082550048828125">
        <ele>1763.5999755859375</ele>
        <time>2022-08-04T08:21:20.000Z</time>
      </trkpt>
      <trkpt lat="42.82403170131146907806396484375" lon="-0.138933397829532623291015625">
        <ele>1766</ele>
        <time>2022-08-04T08:21:42.000Z</time>
      </trkpt>
      <trkpt lat="42.82385232858359813690185546875" lon="-0.13886542059481143951416015625">
        <ele>1771.4000244140625</ele>
        <time>2022-08-04T08:22:04.000Z</time>
      </trkpt>
      <trkpt lat="42.82384260557591915130615234375" lon="-0.13867900706827640533447265625">
        <ele>1772.5999755859375</ele>
        <time>2022-08-04T08:22:36.000Z</time>
      </trkpt>
      <trkpt lat="42.82391619868576526641845703125" lon="-0.138476751744747161865234375">
        <ele>1771.800048828125</ele>
        <time>2022-08-04T08:23:00.000Z</time>
      </trkpt>
      <trkpt lat="42.82399800606071949005126953125" lon="-0.13829846866428852081298828125">
        <ele>1774.199951171875</ele>
        <time>2022-08-04T08:23:25.000Z</time>
      </trkpt>
      <trkpt lat="42.82381125725805759429931640625" lon="-0.138274244964122772216796875">
        <ele>1776.800048828125</ele>
        <time>2022-08-04T08:23:45.000Z</time>
      </trkpt>
      <trkpt lat="42.82363557256758213043212890625" lon="-0.1383280567824840545654296875">
        <ele>1778.199951171875</ele>
        <time>2022-08-04T08:24:08.000Z</time>
      </trkpt>
      <trkpt lat="42.823469527065753936767578125" lon="-0.1384199224412441253662109375">
        <ele>1779.5999755859375</ele>
        <time>2022-08-04T08:24:30.000Z</time>
      </trkpt>
      <trkpt lat="42.82333038747310638427734375" lon="-0.13831020332872867584228515625">
        <ele>1780.199951171875</ele>
        <time>2022-08-04T08:24:58.000Z</time>
      </trkpt>
      <trkpt lat="42.82317674718797206878662109375" lon="-0.13817735016345977783203125">
        <ele>1780.4000244140625</ele>
        <time>2022-08-04T08:25:17.000Z</time>
      </trkpt>
      <trkpt lat="42.8230740688741207122802734375" lon="-0.1379793696105480194091796875">
        <ele>1782</ele>
        <time>2022-08-04T08:25:36.000Z</time>
      </trkpt>
      <trkpt lat="42.82305671833455562591552734375" lon="-0.1379106380045413970947265625">
        <ele>1783</ele>
        <time>2022-08-04T08:25:42.000Z</time>
      </trkpt>
      <trkpt lat="42.8229691274464130401611328125" lon="-0.1377000845968723297119140625">
        <ele>1786.800048828125</ele>
        <time>2022-08-04T08:25:58.000Z</time>
      </trkpt>
      <trkpt lat="42.8228004835546016693115234375" lon="-0.137616433203220367431640625">
        <ele>1790.4000244140625</ele>
        <time>2022-08-04T08:26:20.000Z</time>
      </trkpt>
      <trkpt lat="42.82262404449284076690673828125" lon="-0.13757896609604358673095703125">
        <ele>1792.199951171875</ele>
        <time>2022-08-04T08:26:39.000Z</time>
      </trkpt>
      <trkpt lat="42.822452969849109649658203125" lon="-0.13752758502960205078125">
        <ele>1793.5999755859375</ele>
        <time>2022-08-04T08:27:02.000Z</time>
      </trkpt>
      <trkpt lat="42.8222677297890186309814453125" lon="-0.1374828256666660308837890625">
        <ele>1794.800048828125</ele>
        <time>2022-08-04T08:27:22.000Z</time>
      </trkpt>
      <trkpt lat="42.82208458520472049713134765625" lon="-0.1374841667711734771728515625">
        <ele>1795.5999755859375</ele>
        <time>2022-08-04T08:27:40.000Z</time>
      </trkpt>
      <trkpt lat="42.82189867459237575531005859375" lon="-0.1374350488185882568359375">
        <ele>1796.5999755859375</ele>
        <time>2022-08-04T08:28:00.000Z</time>
      </trkpt>
      <trkpt lat="42.82173581421375274658203125" lon="-0.13731627725064754486083984375">
        <ele>1799.199951171875</ele>
        <time>2022-08-04T08:28:14.000Z</time>
      </trkpt>
      <trkpt lat="42.8216122649610042572021484375" lon="-0.137270428240299224853515625">
        <ele>1799.5999755859375</ele>
        <time>2022-08-04T08:28:26.000Z</time>
      </trkpt>
      <trkpt lat="42.8214360773563385009765625" lon="-0.137240253388881683349609375">
        <ele>1798.4000244140625</ele>
        <time>2022-08-04T08:28:46.000Z</time>
      </trkpt>
      <trkpt lat="42.82126148231327533721923828125" lon="-0.13716707937419414520263671875">
        <ele>1799.4000244140625</ele>
        <time>2022-08-04T08:29:06.000Z</time>
      </trkpt>
      <trkpt lat="42.8210798464715480804443359375" lon="-0.137161798775196075439453125">
        <ele>1800.5999755859375</ele>
        <time>2022-08-04T08:29:22.000Z</time>
      </trkpt>
      <trkpt lat="42.82090592198073863983154296875" lon="-0.137185938656330108642578125">
        <ele>1802</ele>
        <time>2022-08-04T08:29:49.000Z</time>
      </trkpt>
      <trkpt lat="42.82073400914669036865234375" lon="-0.137216784060001373291015625">
        <ele>1807.4000244140625</ele>
        <time>2022-08-04T08:30:14.000Z</time>
      </trkpt>
      <trkpt lat="42.82058648765087127685546875" lon="-0.1372481323778629302978515625">
        <ele>1811.800048828125</ele>
        <time>2022-08-04T08:30:42.000Z</time>
      </trkpt>
      <trkpt lat="42.82040099613368511199951171875" lon="-0.1372058875858783721923828125">
        <ele>1816.800048828125</ele>
        <time>2022-08-04T08:30:58.000Z</time>
      </trkpt>
      <trkpt lat="42.8202698193490505218505859375" lon="-0.13716020621359348297119140625">
        <ele>1819.199951171875</ele>
        <time>2022-08-04T08:31:09.000Z</time>
      </trkpt>
      <trkpt lat="42.82021634280681610107421875" lon="-0.137157775461673736572265625">
        <ele>1820</ele>
        <time>2022-08-04T08:31:15.000Z</time>
      </trkpt>
      <trkpt lat="42.8200482018291950225830078125" lon="-0.1372374035418033599853515625">
        <ele>1822</ele>
        <time>2022-08-04T08:31:36.000Z</time>
      </trkpt>
      <trkpt lat="42.8198745287954807281494140625" lon="-0.13734259642660617828369140625">
        <ele>1823.5999755859375</ele>
        <time>2022-08-04T08:31:54.000Z</time>
      </trkpt>
      <trkpt lat="42.819707058370113372802734375" lon="-0.13747687451541423797607421875">
        <ele>1825</ele>
        <time>2022-08-04T08:32:11.000Z</time>
      </trkpt>
      <trkpt lat="42.819625921547412872314453125" lon="-0.13752331025898456573486328125">
        <ele>1826</ele>
        <time>2022-08-04T08:32:24.000Z</time>
      </trkpt>
      <trkpt lat="42.8194534219801425933837890625" lon="-0.13757511042058467864990234375">
        <ele>1828.199951171875</ele>
        <time>2022-08-04T08:32:57.000Z</time>
      </trkpt>
      <trkpt lat="42.8193270228803157806396484375" lon="-0.1374013535678386688232421875">
        <ele>1832</ele>
        <time>2022-08-04T08:33:21.000Z</time>
      </trkpt>
      <trkpt lat="42.81924848444759845733642578125" lon="-0.13732616789638996124267578125">
        <ele>1834.5999755859375</ele>
        <time>2022-08-04T08:33:34.000Z</time>
      </trkpt>
      <trkpt lat="42.8192224167287349700927734375" lon="-0.137306638062000274658203125">
        <ele>1835.199951171875</ele>
        <time>2022-08-04T08:33:39.000Z</time>
      </trkpt>
      <trkpt lat="42.81905167736113071441650390625" lon="-0.13729163445532321929931640625">
        <ele>1836.4000244140625</ele>
        <time>2022-08-04T08:34:01.000Z</time>
      </trkpt>
      <trkpt lat="42.8189109452068805694580078125" lon="-0.137444771826267242431640625">
        <ele>1834</ele>
        <time>2022-08-04T08:34:18.000Z</time>
      </trkpt>
      <trkpt lat="42.8187402896583080291748046875" lon="-0.13752129860222339630126953125">
        <ele>1834</ele>
        <time>2022-08-04T08:34:36.000Z</time>
      </trkpt>
      <trkpt lat="42.8185907565057277679443359375" lon="-0.13766236603260040283203125">
        <ele>1835</ele>
        <time>2022-08-04T08:34:51.000Z</time>
      </trkpt>
      <trkpt lat="42.8184442408382892608642578125" lon="-0.1378067024052143096923828125">
        <ele>1837.199951171875</ele>
        <time>2022-08-04T08:35:08.000Z</time>
      </trkpt>
      <trkpt lat="42.81842387281358242034912109375" lon="-0.13781164772808551788330078125">
        <ele>1837.4000244140625</ele>
        <time>2022-08-04T08:35:10.000Z</time>
      </trkpt>
      <trkpt lat="42.818239890038967132568359375" lon="-0.1378217898309230804443359375">
        <ele>1841.199951171875</ele>
        <time>2022-08-04T08:35:28.000Z</time>
      </trkpt>
      <trkpt lat="42.818061523139476776123046875" lon="-0.13786009512841701507568359375">
        <ele>1843</ele>
        <time>2022-08-04T08:35:44.000Z</time>
      </trkpt>
      <trkpt lat="42.81788843683898448944091796875" lon="-0.1378060318529605865478515625">
        <ele>1845</ele>
        <time>2022-08-04T08:36:00.000Z</time>
      </trkpt>
      <trkpt lat="42.8177545778453350067138671875" lon="-0.13767904601991176605224609375">
        <ele>1848.5999755859375</ele>
        <time>2022-08-04T08:36:36.000Z</time>
      </trkpt>
      <trkpt lat="42.81764586456120014190673828125" lon="-0.13747486285865306854248046875">
        <ele>1855.199951171875</ele>
        <time>2022-08-04T08:36:52.000Z</time>
      </trkpt>
      <trkpt lat="42.81749364919960498809814453125" lon="-0.137352235615253448486328125">
        <ele>1863.5999755859375</ele>
        <time>2022-08-04T08:37:17.000Z</time>
      </trkpt>
      <trkpt lat="42.81731343828141689300537109375" lon="-0.13737176544964313507080078125">
        <ele>1867.4000244140625</ele>
        <time>2022-08-04T08:37:38.000Z</time>
      </trkpt>
      <trkpt lat="42.81714655458927154541015625" lon="-0.1373071409761905670166015625">
        <ele>1873.199951171875</ele>
        <time>2022-08-04T08:38:01.000Z</time>
      </trkpt>
      <trkpt lat="42.817078493535518646240234375" lon="-0.13723589479923248291015625">
        <ele>1880.5999755859375</ele>
        <time>2022-08-04T08:38:12.000Z</time>
      </trkpt>
      <trkpt lat="42.81704085879027843475341796875" lon="-0.137230195105075836181640625">
        <ele>1881.4000244140625</ele>
        <time>2022-08-04T08:38:17.000Z</time>
      </trkpt>
      <trkpt lat="42.8170347400009632110595703125" lon="-0.13723614625632762908935546875">
        <ele>1880.800048828125</ele>
        <time>2022-08-04T08:38:18.000Z</time>
      </trkpt>
      <trkpt lat="42.81699341721832752227783203125" lon="-0.13725006021559238433837890625">
        <ele>1879</ele>
        <time>2022-08-04T08:38:22.000Z</time>
      </trkpt>
      <trkpt lat="42.8169683553278446197509765625" lon="-0.1372615434229373931884765625">
        <ele>1877.5999755859375</ele>
        <time>2022-08-04T08:38:25.000Z</time>
      </trkpt>
      <trkpt lat="42.81685310415923595428466796875" lon="-0.13719725422561168670654296875">
        <ele>1882</ele>
        <time>2022-08-04T08:38:42.000Z</time>
      </trkpt>
      <trkpt lat="42.8168012201786041259765625" lon="-0.13716389425098896026611328125">
        <ele>1884</ele>
        <time>2022-08-04T08:38:51.000Z</time>
      </trkpt>
      <trkpt lat="42.81677775084972381591796875" lon="-0.13716607354581356048583984375">
        <ele>1883.4000244140625</ele>
        <time>2022-08-04T08:38:54.000Z</time>
      </trkpt>
      <trkpt lat="42.81672410666942596435546875" lon="-0.13716037385165691375732421875">
        <ele>1883.800048828125</ele>
        <time>2022-08-04T08:39:02.000Z</time>
      </trkpt>
      <trkpt lat="42.8167162276804447174072265625" lon="-0.137151069939136505126953125">
        <ele>1884.4000244140625</ele>
        <time>2022-08-04T08:39:03.000Z</time>
      </trkpt>
      <trkpt lat="42.8166226856410503387451171875" lon="-0.13716540299355983734130859375">
        <ele>1882.800048828125</ele>
        <time>2022-08-04T08:39:15.000Z</time>
      </trkpt>
      <trkpt lat="42.81660365872085094451904296875" lon="-0.13716724701225757598876953125">
        <ele>1882.4000244140625</ele>
        <time>2022-08-04T08:39:16.000Z</time>
      </trkpt>
      <trkpt lat="42.81657264567911624908447265625" lon="-0.137179233133792877197265625">
        <ele>1881.4000244140625</ele>
        <time>2022-08-04T08:39:20.000Z</time>
      </trkpt>
      <trkpt lat="42.8165210969746112823486328125" lon="-0.13725458644330501556396484375">
        <ele>1875.199951171875</ele>
        <time>2022-08-04T08:39:26.000Z</time>
      </trkpt>
      <trkpt lat="42.816477008163928985595703125" lon="-0.13727319426834583282470703125">
        <ele>1873.5999755859375</ele>
        <time>2022-08-04T08:39:31.000Z</time>
      </trkpt>
      <trkpt lat="42.81635555438697338104248046875" lon="-0.137310326099395751953125">
        <ele>1874.199951171875</ele>
        <time>2022-08-04T08:39:48.000Z</time>
      </trkpt>
      <trkpt lat="42.81618590466678142547607421875" lon="-0.13721250928938388824462890625">
        <ele>1878.5999755859375</ele>
        <time>2022-08-04T08:40:17.000Z</time>
      </trkpt>
      <trkpt lat="42.81603201292455196380615234375" lon="-0.1372129283845424652099609375">
        <ele>1886</ele>
        <time>2022-08-04T08:40:56.000Z</time>
      </trkpt>
      <trkpt lat="42.8158713318407535552978515625" lon="-0.1373265869915485382080078125">
        <ele>1889</ele>
        <time>2022-08-04T08:41:22.000Z</time>
      </trkpt>
      <trkpt lat="42.8157462738454341888427734375" lon="-0.1374821551144123077392578125">
        <ele>1886.800048828125</ele>
        <time>2022-08-04T08:41:41.000Z</time>
      </trkpt>
      <trkpt lat="42.8156057931482791900634765625" lon="-0.13743898831307888031005859375">
        <ele>1892.5999755859375</ele>
        <time>2022-08-04T08:42:20.000Z</time>
      </trkpt>
      <trkpt lat="42.8155417554080486297607421875" lon="-0.13742138631641864776611328125">
        <ele>1895.199951171875</ele>
        <time>2022-08-04T08:42:27.000Z</time>
      </trkpt>
      <trkpt lat="42.81549707986414432525634765625" lon="-0.13741048984229564666748046875">
        <ele>1897</ele>
        <time>2022-08-04T08:42:32.000Z</time>
      </trkpt>
      <trkpt lat="42.8153265081346035003662109375" lon="-0.13734519481658935546875">
        <ele>1903.800048828125</ele>
        <time>2022-08-04T08:42:54.000Z</time>
      </trkpt>
      <trkpt lat="42.8151690959930419921875" lon="-0.13718635775148868560791015625">
        <ele>1913</ele>
        <time>2022-08-04T08:43:15.000Z</time>
      </trkpt>
      <trkpt lat="42.81498963944613933563232421875" lon="-0.13723178766667842864990234375">
        <ele>1907.800048828125</ele>
        <time>2022-08-04T08:43:39.000Z</time>
      </trkpt>
      <trkpt lat="42.814823091030120849609375" lon="-0.13715031556785106658935546875">
        <ele>1906</ele>
        <time>2022-08-04T08:44:02.000Z</time>
      </trkpt>
      <trkpt lat="42.81465210020542144775390625" lon="-0.137122571468353271484375">
        <ele>1911</ele>
        <time>2022-08-04T08:44:27.000Z</time>
      </trkpt>
      <trkpt lat="42.81456383876502513885498046875" lon="-0.13708912767469882965087890625">
        <ele>1916</ele>
        <time>2022-08-04T08:44:56.000Z</time>
      </trkpt>
      <trkpt lat="42.8145999647676944732666015625" lon="-0.1369031332433223724365234375">
        <ele>1926</ele>
        <time>2022-08-04T08:45:23.000Z</time>
      </trkpt>
      <trkpt lat="42.8144296444952487945556640625" lon="-0.1369504071772098541259765625">
        <ele>1932.199951171875</ele>
        <time>2022-08-04T08:45:56.000Z</time>
      </trkpt>
      <trkpt lat="42.8142512775957584381103515625" lon="-0.13694646768271923065185546875">
        <ele>1944.5999755859375</ele>
        <time>2022-08-04T08:46:24.000Z</time>
      </trkpt>
      <trkpt lat="42.814128734171390533447265625" lon="-0.1370353996753692626953125">
        <ele>1950.199951171875</ele>
        <time>2022-08-04T08:47:01.000Z</time>
      </trkpt>
      <trkpt lat="42.814121358096599578857421875" lon="-0.1371183805167675018310546875">
        <ele>1948.5999755859375</ele>
        <time>2022-08-04T08:47:18.000Z</time>
      </trkpt>
      <trkpt lat="42.814173996448516845703125" lon="-0.13712718151509761810302734375">
        <ele>1945</ele>
        <time>2022-08-04T08:47:22.000Z</time>
      </trkpt>
      <trkpt lat="42.81407383270561695098876953125" lon="-0.13721116818487644195556640625">
        <ele>1948.199951171875</ele>
        <time>2022-08-04T08:47:27.000Z</time>
      </trkpt>
      <trkpt lat="42.81398347578942775726318359375" lon="-0.13737847097218036651611328125">
        <ele>1947.4000244140625</ele>
        <time>2022-08-04T08:48:04.000Z</time>
      </trkpt>
      <trkpt lat="42.81383612193167209625244140625" lon="-0.13741920702159404754638671875">
        <ele>1950.800048828125</ele>
        <time>2022-08-04T08:48:37.000Z</time>
      </trkpt>
      <trkpt lat="42.8136886842548847198486328125" lon="-0.1375518925487995147705078125">
        <ele>1950</ele>
        <time>2022-08-04T08:49:09.000Z</time>
      </trkpt>
      <trkpt lat="42.8135156817734241485595703125" lon="-0.137610398232936859130859375">
        <ele>1949</ele>
        <time>2022-08-04T08:49:39.000Z</time>
      </trkpt>
      <trkpt lat="42.8133886121213436126708984375" lon="-0.1377701573073863983154296875">
        <ele>1945.199951171875</ele>
        <time>2022-08-04T08:50:05.000Z</time>
      </trkpt>
      <trkpt lat="42.81327134929597377777099609375" lon="-0.1377899385988712310791015625">
        <ele>1948</ele>
        <time>2022-08-04T08:50:54.000Z</time>
      </trkpt>
      <trkpt lat="42.8131053037941455841064453125" lon="-0.13773822225630283355712890625">
        <ele>1951.800048828125</ele>
        <time>2022-08-04T08:51:26.000Z</time>
      </trkpt>
      <trkpt lat="42.8129913099110126495361328125" lon="-0.13772447593510150909423828125">
        <ele>1953</ele>
        <time>2022-08-04T08:51:34.000Z</time>
      </trkpt>
      <trkpt lat="42.81294713728129863739013671875" lon="-0.1377949677407741546630859375">
        <ele>1953</ele>
        <time>2022-08-04T08:51:39.000Z</time>
      </trkpt>
      <trkpt lat="42.81293406151235103607177734375" lon="-0.13782187364995479583740234375">
        <ele>1953</ele>
        <time>2022-08-04T08:51:41.000Z</time>
      </trkpt>
      <trkpt lat="42.812789641320705413818359375" lon="-0.13776521198451519012451171875">
        <ele>1954.199951171875</ele>
        <time>2022-08-04T08:52:06.000Z</time>
      </trkpt>
      <trkpt lat="42.8126241825520992279052734375" lon="-0.13764987699687480926513671875">
        <ele>1954.4000244140625</ele>
        <time>2022-08-04T08:52:25.000Z</time>
      </trkpt>
      <trkpt lat="42.8124414570629596710205078125" lon="-0.13768709264695644378662109375">
        <ele>1954.5999755859375</ele>
        <time>2022-08-04T08:52:46.000Z</time>
      </trkpt>
      <trkpt lat="42.81228496693074703216552734375" lon="-0.13756421394646167755126953125">
        <ele>1956</ele>
        <time>2022-08-04T08:53:04.000Z</time>
      </trkpt>
      <trkpt lat="42.81222159974277019500732421875" lon="-0.13752817176282405853271484375">
        <ele>1956.800048828125</ele>
        <time>2022-08-04T08:53:16.000Z</time>
      </trkpt>
      <trkpt lat="42.81218052841722965240478515625" lon="-0.1375478692352771759033203125">
        <ele>1956.800048828125</ele>
        <time>2022-08-04T08:53:20.000Z</time>
      </trkpt>
      <trkpt lat="42.81201221980154514312744140625" lon="-0.1376477815210819244384765625">
        <ele>1957.4000244140625</ele>
        <time>2022-08-04T08:53:37.000Z</time>
      </trkpt>
      <trkpt lat="42.8118389658629894256591796875" lon="-0.137736797332763671875">
        <ele>1957.5999755859375</ele>
        <time>2022-08-04T08:53:59.000Z</time>
      </trkpt>
      <trkpt lat="42.81166319735348224639892578125" lon="-0.13767980039119720458984375">
        <ele>1958.5999755859375</ele>
        <time>2022-08-04T08:54:16.000Z</time>
      </trkpt>
      <trkpt lat="42.81148550100624561309814453125" lon="-0.1376829855144023895263671875">
        <ele>1961.800048828125</ele>
        <time>2022-08-04T08:54:34.000Z</time>
      </trkpt>
      <trkpt lat="42.8113107383251190185546875" lon="-0.13765322975814342498779296875">
        <ele>1966</ele>
        <time>2022-08-04T08:54:59.000Z</time>
      </trkpt>
      <trkpt lat="42.8111283481121063232421875" lon="-0.1376276649534702301025390625">
        <ele>1970.4000244140625</ele>
        <time>2022-08-04T08:55:26.000Z</time>
      </trkpt>
      <trkpt lat="42.81096364371478557586669921875" lon="-0.1377005875110626220703125">
        <ele>1972.199951171875</ele>
        <time>2022-08-04T08:55:47.000Z</time>
      </trkpt>
      <trkpt lat="42.81084981746971607208251953125" lon="-0.13789563439786434173583984375">
        <ele>1974.5999755859375</ele>
        <time>2022-08-04T08:56:15.000Z</time>
      </trkpt>
      <trkpt lat="42.81074546277523040771484375" lon="-0.1380841434001922607421875">
        <ele>1977.5999755859375</ele>
        <time>2022-08-04T08:56:45.000Z</time>
      </trkpt>
      <trkpt lat="42.81057539395987987518310546875" lon="-0.13814994134008884429931640625">
        <ele>1980.4000244140625</ele>
        <time>2022-08-04T08:57:10.000Z</time>
      </trkpt>
      <trkpt lat="42.81039635650813579559326171875" lon="-0.13812102377414703369140625">
        <ele>1980.4000244140625</ele>
        <time>2022-08-04T08:57:33.000Z</time>
      </trkpt>
      <trkpt lat="42.810216732323169708251953125" lon="-0.1380519568920135498046875">
        <ele>1980.5999755859375</ele>
        <time>2022-08-04T08:57:55.000Z</time>
      </trkpt>
      <trkpt lat="42.8101391158998012542724609375" lon="-0.13799973763525485992431640625">
        <ele>1979.5999755859375</ele>
        <time>2022-08-04T08:58:04.000Z</time>
      </trkpt>
      <trkpt lat="42.8099768422544002532958984375" lon="-0.13787769712507724761962890625">
        <ele>1979.800048828125</ele>
        <time>2022-08-04T08:58:25.000Z</time>
      </trkpt>
      <trkpt lat="42.80988774262368679046630859375" lon="-0.13766060583293437957763671875">
        <ele>1980</ele>
        <time>2022-08-04T08:58:43.000Z</time>
      </trkpt>
      <trkpt lat="42.809755392372608184814453125" lon="-0.13750470243394374847412109375">
        <ele>1982.199951171875</ele>
        <time>2022-08-04T08:59:03.000Z</time>
      </trkpt>
      <trkpt lat="42.809634692966938018798828125" lon="-0.1373342983424663543701171875">
        <ele>1982.5999755859375</ele>
        <time>2022-08-04T08:59:21.000Z</time>
      </trkpt>
      <trkpt lat="42.80950452201068401336669921875" lon="-0.137153752148151397705078125">
        <ele>1982.5999755859375</ele>
        <time>2022-08-04T08:59:36.000Z</time>
      </trkpt>
      <trkpt lat="42.80941567383706569671630859375" lon="-0.13709382154047489166259765625">
        <ele>1981.5999755859375</ele>
        <time>2022-08-04T08:59:45.000Z</time>
      </trkpt>
      <trkpt lat="42.80930050648748874664306640625" lon="-0.1369165442883968353271484375">
        <ele>1981.800048828125</ele>
        <time>2022-08-04T09:00:06.000Z</time>
      </trkpt>
      <trkpt lat="42.8092502988874912261962890625" lon="-0.13682157732546329498291015625">
        <ele>1982.4000244140625</ele>
        <time>2022-08-04T09:00:15.000Z</time>
      </trkpt>
      <trkpt lat="42.80922071076929569244384765625" lon="-0.13676810078322887420654296875">
        <ele>1983.4000244140625</ele>
        <time>2022-08-04T09:00:21.000Z</time>
      </trkpt>
      <trkpt lat="42.80919942073523998260498046875" lon="-0.13673541136085987091064453125">
        <ele>1984.199951171875</ele>
        <time>2022-08-04T09:00:24.000Z</time>
      </trkpt>
      <trkpt lat="42.809178046882152557373046875" lon="-0.13669073581695556640625">
        <ele>1985</ele>
        <time>2022-08-04T09:00:28.000Z</time>
      </trkpt>
      <trkpt lat="42.80916488729417324066162109375" lon="-0.1366727985441684722900390625">
        <ele>1985.4000244140625</ele>
        <time>2022-08-04T09:00:30.000Z</time>
      </trkpt>
      <trkpt lat="42.8090147674083709716796875" lon="-0.1365081779658794403076171875">
        <ele>1989.800048828125</ele>
        <time>2022-08-04T09:00:51.000Z</time>
      </trkpt>
      <trkpt lat="42.80884654261171817779541015625" lon="-0.1364324055612087249755859375">
        <ele>1992.800048828125</ele>
        <time>2022-08-04T09:01:03.000Z</time>
      </trkpt>
      <trkpt lat="42.80877915211021900177001953125" lon="-0.13640197925269603729248046875">
        <ele>1993.4000244140625</ele>
        <time>2022-08-04T09:01:09.000Z</time>
      </trkpt>
      <trkpt lat="42.80871905386447906494140625" lon="-0.136410780251026153564453125">
        <ele>1993.199951171875</ele>
        <time>2022-08-04T09:01:13.000Z</time>
      </trkpt>
      <trkpt lat="42.80859567224979400634765625" lon="-0.136467106640338897705078125">
        <ele>1994.199951171875</ele>
        <time>2022-08-04T09:01:22.000Z</time>
      </trkpt>
      <trkpt lat="42.808583267033100128173828125" lon="-0.1366174779832363128662109375">
        <ele>1993</ele>
        <time>2022-08-04T09:01:29.000Z</time>
      </trkpt>
      <trkpt lat="42.8086612187325954437255859375" lon="-0.13677514158189296722412109375">
        <ele>1990.4000244140625</ele>
        <time>2022-08-04T09:01:39.000Z</time>
      </trkpt>
      <trkpt lat="42.80868695117533206939697265625" lon="-0.136801712214946746826171875">
        <ele>1989.5999755859375</ele>
        <time>2022-08-04T09:01:43.000Z</time>
      </trkpt>
      <trkpt lat="42.8087061457335948944091796875" lon="-0.136720240116119384765625">
        <ele>1989.800048828125</ele>
        <time>2022-08-04T09:01:47.000Z</time>
      </trkpt>
      <trkpt lat="42.80868820846080780029296875" lon="-0.1367083378136157989501953125">
        <ele>1990.199951171875</ele>
        <time>2022-08-04T09:01:48.000Z</time>
      </trkpt>
      <trkpt lat="42.80866582877933979034423828125" lon="-0.13668696396052837371826171875">
        <ele>1991</ele>
        <time>2022-08-04T09:01:52.000Z</time>
      </trkpt>
      <trkpt lat="42.80869449488818645477294921875" lon="-0.1367995329201221466064453125">
        <ele>1989.4000244140625</ele>
        <time>2022-08-04T09:02:21.000Z</time>
      </trkpt>
      <trkpt lat="42.8086622245609760284423828125" lon="-0.1367706991732120513916015625">
        <ele>1990.4000244140625</ele>
        <time>2022-08-04T09:02:28.000Z</time>
      </trkpt>
      <trkpt lat="42.80863800086081027984619140625" lon="-0.136867426335811614990234375">
        <ele>1990.800048828125</ele>
        <time>2022-08-04T09:02:57.000Z</time>
      </trkpt>
      <trkpt lat="42.80847388319671154022216796875" lon="-0.136948563158512115478515625">
        <ele>1996.199951171875</ele>
        <time>2022-08-04T09:03:23.000Z</time>
      </trkpt>
      <trkpt lat="42.80829928815364837646484375" lon="-0.13691076077520847320556640625">
        <ele>1997.800048828125</ele>
        <time>2022-08-04T09:03:39.000Z</time>
      </trkpt>
      <trkpt lat="42.8081304766237735748291015625" lon="-0.13680648989975452423095703125">
        <ele>1996.800048828125</ele>
        <time>2022-08-04T09:03:52.000Z</time>
      </trkpt>
      <trkpt lat="42.80803106725215911865234375" lon="-0.13678151182830333709716796875">
        <ele>1996.5999755859375</ele>
        <time>2022-08-04T09:04:00.000Z</time>
      </trkpt>
      <trkpt lat="42.807872481644153594970703125" lon="-0.1366652548313140869140625">
        <ele>1994.4000244140625</ele>
        <time>2022-08-04T09:04:15.000Z</time>
      </trkpt>
      <trkpt lat="42.80786217190325260162353515625" lon="-0.13666617684066295623779296875">
        <ele>1994.4000244140625</ele>
        <time>2022-08-04T09:04:16.000Z</time>
      </trkpt>
      <trkpt lat="42.80778623186051845550537109375" lon="-0.13666860759258270263671875">
        <ele>1995.4000244140625</ele>
        <time>2022-08-04T09:04:22.000Z</time>
      </trkpt>
      <trkpt lat="42.807731665670871734619140625" lon="-0.1367063261568546295166015625">
        <ele>1996.4000244140625</ele>
        <time>2022-08-04T09:04:27.000Z</time>
      </trkpt>
      <trkpt lat="42.80766167677938938140869140625" lon="-0.1366892270743846893310546875">
        <ele>1996.199951171875</ele>
        <time>2022-08-04T09:04:33.000Z</time>
      </trkpt>
      <trkpt lat="42.8076387941837310791015625" lon="-0.13667774386703968048095703125">
        <ele>1995.800048828125</ele>
        <time>2022-08-04T09:04:35.000Z</time>
      </trkpt>
      <trkpt lat="42.80756436288356781005859375" lon="-0.13664178550243377685546875">
        <ele>1994.800048828125</ele>
        <time>2022-08-04T09:04:41.000Z</time>
      </trkpt>
      <trkpt lat="42.80744274146854877471923828125" lon="-0.13656609691679477691650390625">
        <ele>1992.4000244140625</ele>
        <time>2022-08-04T09:04:51.000Z</time>
      </trkpt>
      <trkpt lat="42.807382978498935699462890625" lon="-0.1365526020526885986328125">
        <ele>1992.199951171875</ele>
        <time>2022-08-04T09:04:56.000Z</time>
      </trkpt>
      <trkpt lat="42.80726755969226360321044921875" lon="-0.13662242330610752105712890625">
        <ele>1993</ele>
        <time>2022-08-04T09:05:06.000Z</time>
      </trkpt>
      <trkpt lat="42.80714987777173519134521484375" lon="-0.1366687752306461334228515625">
        <ele>1993</ele>
        <time>2022-08-04T09:05:16.000Z</time>
      </trkpt>
      <trkpt lat="42.80709623359143733978271484375" lon="-0.136656872928142547607421875">
        <ele>1992.4000244140625</ele>
        <time>2022-08-04T09:05:21.000Z</time>
      </trkpt>
      <trkpt lat="42.80705474317073822021484375" lon="-0.13658470474183559417724609375">
        <ele>1990.5999755859375</ele>
        <time>2022-08-04T09:05:27.000Z</time>
      </trkpt>
      <trkpt lat="42.8070433437824249267578125" lon="-0.1365748979151248931884765625">
        <ele>1990.199951171875</ele>
        <time>2022-08-04T09:05:28.000Z</time>
      </trkpt>
      <trkpt lat="42.80702180229127407073974609375" lon="-0.13657917268574237823486328125">
        <ele>1990.199951171875</ele>
        <time>2022-08-04T09:05:30.000Z</time>
      </trkpt>
      <trkpt lat="42.806993387639522552490234375" lon="-0.13658168725669384002685546875">
        <ele>1990</ele>
        <time>2022-08-04T09:05:34.000Z</time>
      </trkpt>
      <trkpt lat="42.8068242408335208892822265625" lon="-0.13658034615218639373779296875">
        <ele>1989.4000244140625</ele>
        <time>2022-08-04T09:05:57.000Z</time>
      </trkpt>
      <trkpt lat="42.80663925223052501678466796875" lon="-0.13655067421495914459228515625">
        <ele>1989.199951171875</ele>
        <time>2022-08-04T09:06:18.000Z</time>
      </trkpt>
      <trkpt lat="42.80658267438411712646484375" lon="-0.13655872084200382232666015625">
        <ele>1989.5999755859375</ele>
        <time>2022-08-04T09:06:23.000Z</time>
      </trkpt>
      <trkpt lat="42.80640740878880023956298828125" lon="-0.1365722157061100006103515625">
        <ele>1991.199951171875</ele>
        <time>2022-08-04T09:06:52.000Z</time>
      </trkpt>
      <trkpt lat="42.806235663592815399169921875" lon="-0.13665645383298397064208984375">
        <ele>1995</ele>
        <time>2022-08-04T09:07:08.000Z</time>
      </trkpt>
      <trkpt lat="42.806153856217861175537109375" lon="-0.13679173775017261505126953125">
        <ele>1997.4000244140625</ele>
        <time>2022-08-04T09:07:22.000Z</time>
      </trkpt>
      <trkpt lat="42.806053273379802703857421875" lon="-0.1370050571858882904052734375">
        <ele>2000.800048828125</ele>
        <time>2022-08-04T09:07:39.000Z</time>
      </trkpt>
      <trkpt lat="42.8059401176869869232177734375" lon="-0.1372035406529903411865234375">
        <ele>2004.199951171875</ele>
        <time>2022-08-04T09:07:59.000Z</time>
      </trkpt>
      <trkpt lat="42.805852107703685760498046875" lon="-0.1374082267284393310546875">
        <ele>2007.4000244140625</ele>
        <time>2022-08-04T09:08:24.000Z</time>
      </trkpt>
      <trkpt lat="42.805738784372806549072265625" lon="-0.13760059140622615814208984375">
        <ele>2012.800048828125</ele>
        <time>2022-08-04T09:08:52.000Z</time>
      </trkpt>
      <trkpt lat="42.805571816861629486083984375" lon="-0.13765557669103145599365234375">
        <ele>2016.800048828125</ele>
        <time>2022-08-04T09:09:26.000Z</time>
      </trkpt>
      <trkpt lat="42.8054090403020381927490234375" lon="-0.137602351605892181396484375">
        <ele>2018.4000244140625</ele>
        <time>2022-08-04T09:09:48.000Z</time>
      </trkpt>
      <trkpt lat="42.805256657302379608154296875" lon="-0.13749464415013790130615234375">
        <ele>2019.800048828125</ele>
        <time>2022-08-04T09:10:13.000Z</time>
      </trkpt>
      <trkpt lat="42.80512296594679355621337890625" lon="-0.137409232556819915771484375">
        <ele>2019.4000244140625</ele>
        <time>2022-08-04T09:10:42.000Z</time>
      </trkpt>
      <trkpt lat="42.8049450181424617767333984375" lon="-0.1373755373060703277587890625">
        <ele>2027.4000244140625</ele>
        <time>2022-08-04T09:10:59.000Z</time>
      </trkpt>
      <trkpt lat="42.80476841144263744354248046875" lon="-0.137428008019924163818359375">
        <ele>2036.800048828125</ele>
        <time>2022-08-04T09:11:25.000Z</time>
      </trkpt>
      <trkpt lat="42.80459574423730373382568359375" lon="-0.13741501607000827789306640625">
        <ele>2040.800048828125</ele>
        <time>2022-08-04T09:11:55.000Z</time>
      </trkpt>
      <trkpt lat="42.804415114223957061767578125" lon="-0.13740277849137783050537109375">
        <ele>2042</ele>
        <time>2022-08-04T09:12:19.000Z</time>
      </trkpt>
      <trkpt lat="42.8042516671121120452880859375" lon="-0.13737201690673828125">
        <ele>2042</ele>
        <time>2022-08-04T09:12:57.000Z</time>
      </trkpt>
      <trkpt lat="42.8040741384029388427734375" lon="-0.13735936023294925689697265625">
        <ele>2043.199951171875</ele>
        <time>2022-08-04T09:13:22.000Z</time>
      </trkpt>
      <trkpt lat="42.80391521751880645751953125" lon="-0.137454830110073089599609375">
        <ele>2045</ele>
        <time>2022-08-04T09:13:47.000Z</time>
      </trkpt>
      <trkpt lat="42.80373953282833099365234375" lon="-0.13752314262092113494873046875">
        <ele>2047.800048828125</ele>
        <time>2022-08-04T09:14:05.000Z</time>
      </trkpt>
      <trkpt lat="42.803584299981594085693359375" lon="-0.13764283619821071624755859375">
        <ele>2049.60009765625</ele>
        <time>2022-08-04T09:14:24.000Z</time>
      </trkpt>
      <trkpt lat="42.803509198129177093505859375" lon="-0.1376782916486263275146484375">
        <ele>2050.39990234375</ele>
        <time>2022-08-04T09:14:33.000Z</time>
      </trkpt>
      <trkpt lat="42.8034889139235019683837890625" lon="-0.13774224556982517242431640625">
        <ele>2051.39990234375</ele>
        <time>2022-08-04T09:14:38.000Z</time>
      </trkpt>
      <trkpt lat="42.803332172334194183349609375" lon="-0.13784701935946941375732421875">
        <ele>2053.199951171875</ele>
        <time>2022-08-04T09:14:59.000Z</time>
      </trkpt>
      <trkpt lat="42.80315405689179897308349609375" lon="-0.13789781369268894195556640625">
        <ele>2053.39990234375</ele>
        <time>2022-08-04T09:15:21.000Z</time>
      </trkpt>
      <trkpt lat="42.802982144057750701904296875" lon="-0.137941651046276092529296875">
        <ele>2053.199951171875</ele>
        <time>2022-08-04T09:15:43.000Z</time>
      </trkpt>
      <trkpt lat="42.80280855484306812286376953125" lon="-0.13798012398183345794677734375">
        <ele>2053</ele>
        <time>2022-08-04T09:16:01.000Z</time>
      </trkpt>
      <trkpt lat="42.802758179605007171630859375" lon="-0.13796084560453891754150390625">
        <ele>2052.60009765625</ele>
        <time>2022-08-04T09:17:54.000Z</time>
      </trkpt>
      <trkpt lat="42.802734039723873138427734375" lon="-0.138012059032917022705078125">
        <ele>2053</ele>
        <time>2022-08-04T09:17:58.000Z</time>
      </trkpt>
      <trkpt lat="42.80261795036494731903076171875" lon="-0.1381909288465976715087890625">
        <ele>2053.800048828125</ele>
        <time>2022-08-04T09:18:30.000Z</time>
      </trkpt>
      <trkpt lat="42.802484594285488128662109375" lon="-0.13835848309099674224853515625">
        <ele>2054.800048828125</ele>
        <time>2022-08-04T09:18:49.000Z</time>
      </trkpt>
      <trkpt lat="42.8023486398160457611083984375" lon="-0.138457976281642913818359375">
        <ele>2054.800048828125</ele>
        <time>2022-08-04T09:19:01.000Z</time>
      </trkpt>
      <trkpt lat="42.80228736810386180877685546875" lon="-0.13850566931068897247314453125">
        <ele>2055</ele>
        <time>2022-08-04T09:19:07.000Z</time>
      </trkpt>
      <trkpt lat="42.8021461330354213714599609375" lon="-0.138647072017192840576171875">
        <ele>2057.39990234375</ele>
        <time>2022-08-04T09:19:30.000Z</time>
      </trkpt>
      <trkpt lat="42.80198763124644756317138671875" lon="-0.13875402510166168212890625">
        <ele>2059.39990234375</ele>
        <time>2022-08-04T09:19:49.000Z</time>
      </trkpt>
      <trkpt lat="42.801814042031764984130859375" lon="-0.13879635371267795562744140625">
        <ele>2060.199951171875</ele>
        <time>2022-08-04T09:20:06.000Z</time>
      </trkpt>
      <trkpt lat="42.80162871815264225006103515625" lon="-0.13883809559047222137451171875">
        <ele>2060.199951171875</ele>
        <time>2022-08-04T09:20:23.000Z</time>
      </trkpt>
      <trkpt lat="42.8014500997960567474365234375" lon="-0.13879752717912197113037109375">
        <ele>2057</ele>
        <time>2022-08-04T09:20:40.000Z</time>
      </trkpt>
      <trkpt lat="42.80126762576401233673095703125" lon="-0.1388172246515750885009765625">
        <ele>2056.199951171875</ele>
        <time>2022-08-04T09:20:56.000Z</time>
      </trkpt>
      <trkpt lat="42.8011610917747020721435546875" lon="-0.1388078369200229644775390625">
        <ele>2055.199951171875</ele>
        <time>2022-08-04T09:21:05.000Z</time>
      </trkpt>
      <trkpt lat="42.80111406929790973663330078125" lon="-0.138777829706668853759765625">
        <ele>2054.60009765625</ele>
        <time>2022-08-04T09:21:09.000Z</time>
      </trkpt>
      <trkpt lat="42.8010474331676959991455078125" lon="-0.1387949287891387939453125">
        <ele>2054.60009765625</ele>
        <time>2022-08-04T09:21:15.000Z</time>
      </trkpt>
      <trkpt lat="42.80101717449724674224853515625" lon="-0.13882535509765148162841796875">
        <ele>2054.800048828125</ele>
        <time>2022-08-04T09:21:19.000Z</time>
      </trkpt>
      <trkpt lat="42.80096570961177349090576171875" lon="-0.13884312473237514495849609375">
        <ele>2055</ele>
        <time>2022-08-04T09:21:24.000Z</time>
      </trkpt>
      <trkpt lat="42.80088993720710277557373046875" lon="-0.13886927627027034759521484375">
        <ele>2054.800048828125</ele>
        <time>2022-08-04T09:21:31.000Z</time>
      </trkpt>
      <trkpt lat="42.8007664717733860015869140625" lon="-0.13891822658479213714599609375">
        <ele>2054.39990234375</ele>
        <time>2022-08-04T09:21:43.000Z</time>
      </trkpt>
      <trkpt lat="42.800593636929988861083984375" lon="-0.13893264345824718475341796875">
        <ele>2053.39990234375</ele>
        <time>2022-08-04T09:22:00.000Z</time>
      </trkpt>
      <trkpt lat="42.8005421720445156097412109375" lon="-0.138919316232204437255859375">
        <ele>2053</ele>
        <time>2022-08-04T09:22:04.000Z</time>
      </trkpt>
      <trkpt lat="42.80040160752832889556884765625" lon="-0.13895611278712749481201171875">
        <ele>2053.39990234375</ele>
        <time>2022-08-04T09:22:16.000Z</time>
      </trkpt>
      <trkpt lat="42.80025525949895381927490234375" lon="-0.1389362476766109466552734375">
        <ele>2053.60009765625</ele>
        <time>2022-08-04T09:22:29.000Z</time>
      </trkpt>
      <trkpt lat="42.80007429420948028564453125" lon="-0.13891085051000118255615234375">
        <ele>2055.199951171875</ele>
        <time>2022-08-04T09:22:44.000Z</time>
      </trkpt>
      <trkpt lat="42.7998947538435459136962890625" lon="-0.13887665234506130218505859375">
        <ele>2056.800048828125</ele>
        <time>2022-08-04T09:23:00.000Z</time>
      </trkpt>
      <trkpt lat="42.799798361957073211669921875" lon="-0.1389282010495662689208984375">
        <ele>2057</ele>
        <time>2022-08-04T09:23:09.000Z</time>
      </trkpt>
      <trkpt lat="42.79976357705891132354736328125" lon="-0.138965584337711334228515625">
        <ele>2057.39990234375</ele>
        <time>2022-08-04T09:23:13.000Z</time>
      </trkpt>
      <trkpt lat="42.7997589670121669769287109375" lon="-0.1389634050428867340087890625">
        <ele>2057.39990234375</ele>
        <time>2022-08-04T09:23:14.000Z</time>
      </trkpt>
      <trkpt lat="42.79958956874907016754150390625" lon="-0.13907329179346561431884765625">
        <ele>2059.199951171875</ele>
        <time>2022-08-04T09:23:32.000Z</time>
      </trkpt>
      <trkpt lat="42.79942243359982967376708984375" lon="-0.139170773327350616455078125">
        <ele>2061.800048828125</ele>
        <time>2022-08-04T09:23:48.000Z</time>
      </trkpt>
      <trkpt lat="42.79923216439783573150634765625" lon="-0.13919466175138950347900390625">
        <ele>2063.199951171875</ele>
        <time>2022-08-04T09:24:05.000Z</time>
      </trkpt>
      <trkpt lat="42.799151949584484100341796875" lon="-0.1392535865306854248046875">
        <ele>2063.39990234375</ele>
        <time>2022-08-04T09:24:13.000Z</time>
      </trkpt>
      <trkpt lat="42.79899395070970058441162109375" lon="-0.13929692097008228302001953125">
        <ele>2062.800048828125</ele>
        <time>2022-08-04T09:24:26.000Z</time>
      </trkpt>
      <trkpt lat="42.79886730015277862548828125" lon="-0.13938157819211483001708984375">
        <ele>2062.800048828125</ele>
        <time>2022-08-04T09:24:37.000Z</time>
      </trkpt>
      <trkpt lat="42.79880284331738948822021484375" lon="-0.1394207216799259185791015625">
        <ele>2062.60009765625</ele>
        <time>2022-08-04T09:24:43.000Z</time>
      </trkpt>
      <trkpt lat="42.798648364841938018798828125" lon="-0.13941518962383270263671875">
        <ele>2062.39990234375</ele>
        <time>2022-08-04T09:24:56.000Z</time>
      </trkpt>
      <trkpt lat="42.79846941120922565460205078125" lon="-0.139445364475250244140625">
        <ele>2063.60009765625</ele>
        <time>2022-08-04T09:25:15.000Z</time>
      </trkpt>
      <trkpt lat="42.7983075566589832305908203125" lon="-0.1395474560558795928955078125">
        <ele>2064</ele>
        <time>2022-08-04T09:25:37.000Z</time>
      </trkpt>
      <trkpt lat="42.79820672236382961273193359375" lon="-0.13974317349493503570556640625">
        <ele>2064.39990234375</ele>
        <time>2022-08-04T09:25:57.000Z</time>
      </trkpt>
      <trkpt lat="42.79803003184497356414794921875" lon="-0.1398032717406749725341796875">
        <ele>2065</ele>
        <time>2022-08-04T09:26:18.000Z</time>
      </trkpt>
      <trkpt lat="42.79786683619022369384765625" lon="-0.1399229653179645538330078125">
        <ele>2066.199951171875</ele>
        <time>2022-08-04T09:26:35.000Z</time>
      </trkpt>
      <trkpt lat="42.797714285552501678466796875" lon="-0.14001332223415374755859375">
        <ele>2067</ele>
        <time>2022-08-04T09:26:51.000Z</time>
      </trkpt>
      <trkpt lat="42.7975377626717090606689453125" lon="-0.1400614343583583831787109375">
        <ele>2068.199951171875</ele>
        <time>2022-08-04T09:27:09.000Z</time>
      </trkpt>
      <trkpt lat="42.79737423174083232879638671875" lon="-0.14017869718372821807861328125">
        <ele>2068.800048828125</ele>
        <time>2022-08-04T09:27:27.000Z</time>
      </trkpt>
      <trkpt lat="42.79720994643867015838623046875" lon="-0.1402833871543407440185546875">
        <ele>2070</ele>
        <time>2022-08-04T09:27:45.000Z</time>
      </trkpt>
      <trkpt lat="42.79709461145102977752685546875" lon="-0.140471644699573516845703125">
        <ele>2071.60009765625</ele>
        <time>2022-08-04T09:28:03.000Z</time>
      </trkpt>
      <trkpt lat="42.79691926203668117523193359375" lon="-0.1405402086675167083740234375">
        <ele>2073.800048828125</ele>
        <time>2022-08-04T09:28:25.000Z</time>
      </trkpt>
      <trkpt lat="42.7967706508934497833251953125" lon="-0.1406786777079105377197265625">
        <ele>2076.39990234375</ele>
        <time>2022-08-04T09:28:43.000Z</time>
      </trkpt>
      <trkpt lat="42.79658683575689792633056640625" lon="-0.1406733132898807525634765625">
        <ele>2079.39990234375</ele>
        <time>2022-08-04T09:29:01.000Z</time>
      </trkpt>
      <trkpt lat="42.79641450382769107818603515625" lon="-0.14072452671825885772705078125">
        <ele>2082.60009765625</ele>
        <time>2022-08-04T09:29:25.000Z</time>
      </trkpt>
      <trkpt lat="42.79625642113387584686279296875" lon="-0.14082091860473155975341796875">
        <ele>2087.199951171875</ele>
        <time>2022-08-04T09:29:47.000Z</time>
      </trkpt>
      <trkpt lat="42.796108983457088470458984375" lon="-0.14097413979470729827880859375">
        <ele>2091.800048828125</ele>
        <time>2022-08-04T09:30:10.000Z</time>
      </trkpt>
      <trkpt lat="42.79594947583973407745361328125" lon="-0.14109182171523571014404296875">
        <ele>2093.60009765625</ele>
        <time>2022-08-04T09:30:36.000Z</time>
      </trkpt>
      <trkpt lat="42.79584587551653385162353515625" lon="-0.14127672649919986724853515625">
        <ele>2097</ele>
        <time>2022-08-04T09:31:05.000Z</time>
      </trkpt>
      <trkpt lat="42.7957431972026824951171875" lon="-0.14146733097732067108154296875">
        <ele>2102.800048828125</ele>
        <time>2022-08-04T09:31:37.000Z</time>
      </trkpt>
      <trkpt lat="42.7956251800060272216796875" lon="-0.14162977226078510284423828125">
        <ele>2108.60009765625</ele>
        <time>2022-08-04T09:32:10.000Z</time>
      </trkpt>
      <trkpt lat="42.79546315781772136688232421875" lon="-0.141747705638408660888671875">
        <ele>2116.800048828125</ele>
        <time>2022-08-04T09:32:36.000Z</time>
      </trkpt>
      <trkpt lat="42.7952857129275798797607421875" lon="-0.14172297902405261993408203125">
        <ele>2118.60009765625</ele>
        <time>2022-08-04T09:33:02.000Z</time>
      </trkpt>
      <trkpt lat="42.79512871988117694854736328125" lon="-0.14179757796227931976318359375">
        <ele>2123.39990234375</ele>
        <time>2022-08-04T09:33:29.000Z</time>
      </trkpt>
      <trkpt lat="42.7949546277523040771484375" lon="-0.14176287688314914703369140625">
        <ele>2122.800048828125</ele>
        <time>2022-08-04T09:33:57.000Z</time>
      </trkpt>
      <trkpt lat="42.79480283148586750030517578125" lon="-0.14184971340000629425048828125">
        <ele>2128.199951171875</ele>
        <time>2022-08-04T09:34:21.000Z</time>
      </trkpt>
      <trkpt lat="42.794690094888210296630859375" lon="-0.14200410805642604827880859375">
        <ele>2133</ele>
        <time>2022-08-04T09:34:52.000Z</time>
      </trkpt>
      <trkpt lat="42.79451700858771800994873046875" lon="-0.14204082079231739044189453125">
        <ele>2133.60009765625</ele>
        <time>2022-08-04T09:35:20.000Z</time>
      </trkpt>
      <trkpt lat="42.794549949467182159423828125" lon="-0.14224584214389324188232421875">
        <ele>2138</ele>
        <time>2022-08-04T09:35:57.000Z</time>
      </trkpt>
      <trkpt lat="42.79446043074131011962890625" lon="-0.1423520408570766448974609375">
        <ele>2139.199951171875</ele>
        <time>2022-08-04T09:36:42.000Z</time>
      </trkpt>
      <trkpt lat="42.7946325950324535369873046875" lon="-0.1423081196844577789306640625">
        <ele>2139.60009765625</ele>
        <time>2022-08-04T09:37:01.000Z</time>
      </trkpt>
      <trkpt lat="42.7947439067065715789794921875" lon="-0.14229915104806423187255859375">
        <ele>2141.800048828125</ele>
        <time>2022-08-04T09:37:36.000Z</time>
      </trkpt>
      <trkpt lat="42.7947858162224292755126953125" lon="-0.14248992316424846649169921875">
        <ele>2146.60009765625</ele>
        <time>2022-08-04T09:38:00.000Z</time>
      </trkpt>
      <trkpt lat="42.79479629360139369964599609375" lon="-0.1425967924296855926513671875">
        <ele>2148</ele>
        <time>2022-08-04T09:38:25.000Z</time>
      </trkpt>
      <trkpt lat="42.79464256949722766876220703125" lon="-0.14270282350480556488037109375">
        <ele>2146</ele>
        <time>2022-08-04T09:38:46.000Z</time>
      </trkpt>
      <trkpt lat="42.79457819648087024688720703125" lon="-0.142764262855052947998046875">
        <ele>2145.60009765625</ele>
        <time>2022-08-04T09:38:55.000Z</time>
      </trkpt>
      <trkpt lat="42.79439480043947696685791015625" lon="-0.14274288900196552276611328125">
        <ele>2145.60009765625</ele>
        <time>2022-08-04T09:39:15.000Z</time>
      </trkpt>
      <trkpt lat="42.7943301759660243988037109375" lon="-0.14272176660597324371337890625">
        <ele>2145.199951171875</ele>
        <time>2022-08-04T09:39:21.000Z</time>
      </trkpt>
      <trkpt lat="42.79431014321744441986083984375" lon="-0.14267466031014919281005859375">
        <ele>2143.800048828125</ele>
        <time>2022-08-04T09:39:25.000Z</time>
      </trkpt>
      <trkpt lat="42.79417133890092372894287109375" lon="-0.14252194203436374664306640625">
        <ele>2144</ele>
        <time>2022-08-04T09:39:44.000Z</time>
      </trkpt>
      <trkpt lat="42.7941062115132808685302734375" lon="-0.14247827231884002685546875">
        <ele>2145.199951171875</ele>
        <time>2022-08-04T09:40:41.000Z</time>
      </trkpt>
      <trkpt lat="42.79392910189926624298095703125" lon="-0.1425097882747650146484375">
        <ele>2149.800048828125</ele>
        <time>2022-08-04T09:41:03.000Z</time>
      </trkpt>
      <trkpt lat="42.79379817657172679901123046875" lon="-0.142669714987277984619140625">
        <ele>2152.39990234375</ele>
        <time>2022-08-04T09:41:23.000Z</time>
      </trkpt>
      <trkpt lat="42.79373749159276485443115234375" lon="-0.1426712237298488616943359375">
        <ele>2152.800048828125</ele>
        <time>2022-08-04T09:42:30.000Z</time>
      </trkpt>
      <trkpt lat="42.79378912411630153656005859375" lon="-0.14270760118961334228515625">
        <ele>2153.199951171875</ele>
        <time>2022-08-04T09:43:33.000Z</time>
      </trkpt>
      <trkpt lat="42.79384343884885311126708984375" lon="-0.1426584832370281219482421875">
        <ele>2152.199951171875</ele>
        <time>2022-08-04T09:43:39.000Z</time>
      </trkpt>
      <trkpt lat="42.7939439378678798675537109375" lon="-0.14245538972318172454833984375">
        <ele>2148.800048828125</ele>
        <time>2022-08-04T09:43:57.000Z</time>
      </trkpt>
      <trkpt lat="42.79379650019109249114990234375" lon="-0.14237442053854465484619140625">
        <ele>2148.800048828125</ele>
        <time>2022-08-04T09:44:18.000Z</time>
      </trkpt>
      <trkpt lat="42.79362022876739501953125" lon="-0.1423577405512332916259765625">
        <ele>2149.800048828125</ele>
        <time>2022-08-04T09:44:35.000Z</time>
      </trkpt>
      <trkpt lat="42.79346088878810405731201171875" lon="-0.14223645441234111785888671875">
        <ele>2150.199951171875</ele>
        <time>2022-08-04T09:44:51.000Z</time>
      </trkpt>
      <trkpt lat="42.79337874613702297210693359375" lon="-0.14201693236827850341796875">
        <ele>2151.39990234375</ele>
        <time>2022-08-04T09:45:06.000Z</time>
      </trkpt>
      <trkpt lat="42.79330917634069919586181640625" lon="-0.14194677583873271942138671875">
        <ele>2151.199951171875</ele>
        <time>2022-08-04T09:45:14.000Z</time>
      </trkpt>
      <trkpt lat="42.7932398580014705657958984375" lon="-0.1419396512210369110107421875">
        <ele>2150.39990234375</ele>
        <time>2022-08-04T09:45:21.000Z</time>
      </trkpt>
      <trkpt lat="42.79319182969629764556884765625" lon="-0.141876451671123504638671875">
        <ele>2150.39990234375</ele>
        <time>2022-08-04T09:45:28.000Z</time>
      </trkpt>
      <trkpt lat="42.79318227432668209075927734375" lon="-0.14187276363372802734375">
        <ele>2150.199951171875</ele>
        <time>2022-08-04T09:45:29.000Z</time>
      </trkpt>
      <trkpt lat="42.79305855743587017059326171875" lon="-0.14181048609316349029541015625">
        <ele>2148.800048828125</ele>
        <time>2022-08-04T09:45:41.000Z</time>
      </trkpt>
      <trkpt lat="42.79287499375641345977783203125" lon="-0.1418008469045162200927734375">
        <ele>2145.800048828125</ele>
        <time>2022-08-04T09:45:57.000Z</time>
      </trkpt>
      <trkpt lat="42.79277256689965724945068359375" lon="-0.14181953854858875274658203125">
        <ele>2144.60009765625</ele>
        <time>2022-08-04T09:46:07.000Z</time>
      </trkpt>
      <trkpt lat="42.7927713096141815185546875" lon="-0.14176438562572002410888671875">
        <ele>2145.199951171875</ele>
        <time>2022-08-04T09:46:15.000Z</time>
      </trkpt>
      <trkpt lat="42.7927342616021633148193359375" lon="-0.1416742801666259765625">
        <ele>2145.800048828125</ele>
        <time>2022-08-04T09:46:22.000Z</time>
      </trkpt>
      <trkpt lat="42.79273040592670440673828125" lon="-0.1416620425879955291748046875">
        <ele>2146</ele>
        <time>2022-08-04T09:46:23.000Z</time>
      </trkpt>
      <trkpt lat="42.7927034161984920501708984375" lon="-0.14160479418933391571044921875">
        <ele>2146</ele>
        <time>2022-08-04T09:46:28.000Z</time>
      </trkpt>
      <trkpt lat="42.79266812838613986968994140625" lon="-0.1413733698427677154541015625">
        <ele>2148.39990234375</ele>
        <time>2022-08-04T09:46:58.000Z</time>
      </trkpt>
      <trkpt lat="42.792754210531711578369140625" lon="-0.1411071605980396270751953125">
        <ele>2151</ele>
        <time>2022-08-04T10:18:19.000Z</time>
      </trkpt>
      <trkpt lat="42.79270467348396778106689453125" lon="-0.1409009657800197601318359375">
        <ele>2151.39990234375</ele>
        <time>2022-08-04T10:18:35.000Z</time>
      </trkpt>
      <trkpt lat="42.7926343493163585662841796875" lon="-0.14068127609789371490478515625">
        <ele>2152.199951171875</ele>
        <time>2022-08-04T10:19:04.000Z</time>
      </trkpt>
      <trkpt lat="42.7926306612789630889892578125" lon="-0.14061036519706249237060546875">
        <ele>2153</ele>
        <time>2022-08-04T10:19:08.000Z</time>
      </trkpt>
      <trkpt lat="42.79256268404424190521240234375" lon="-0.1404842175543308258056640625">
        <ele>2154.60009765625</ele>
        <time>2022-08-04T10:19:18.000Z</time>
      </trkpt>
      <trkpt lat="42.79248774982988834381103515625" lon="-0.140401907265186309814453125">
        <ele>2156.39990234375</ele>
        <time>2022-08-04T10:19:29.000Z</time>
      </trkpt>
      <trkpt lat="42.79240711592137813568115234375" lon="-0.140350274741649627685546875">
        <ele>2157.60009765625</ele>
        <time>2022-08-04T10:19:42.000Z</time>
      </trkpt>
      <trkpt lat="42.792370654642581939697265625" lon="-0.14021440409123897552490234375">
        <ele>2161.800048828125</ele>
        <time>2022-08-04T10:19:57.000Z</time>
      </trkpt>
      <trkpt lat="42.792279459536075592041015625" lon="-0.1401626877486705780029296875">
        <ele>2163.199951171875</ele>
        <time>2022-08-04T10:20:11.000Z</time>
      </trkpt>
      <trkpt lat="42.79224693775177001953125" lon="-0.14009739272296428680419921875">
        <ele>2165.199951171875</ele>
        <time>2022-08-04T10:20:20.000Z</time>
      </trkpt>
      <trkpt lat="42.7921465225517749786376953125" lon="-0.13999379239976406097412109375">
        <ele>2167</ele>
        <time>2022-08-04T10:20:38.000Z</time>
      </trkpt>
      <trkpt lat="42.79212581925094127655029296875" lon="-0.1399075426161289215087890625">
        <ele>2169.199951171875</ele>
        <time>2022-08-04T10:20:48.000Z</time>
      </trkpt>
      <trkpt lat="42.7921302616596221923828125" lon="-0.1398892700672149658203125">
        <ele>2170.199951171875</ele>
        <time>2022-08-04T10:20:49.000Z</time>
      </trkpt>
      <trkpt lat="42.79210486449301242828369140625" lon="-0.139862783253192901611328125">
        <ele>2171</ele>
        <time>2022-08-04T10:20:53.000Z</time>
      </trkpt>
      <trkpt lat="42.79207385145127773284912109375" lon="-0.13986102305352687835693359375">
        <ele>2170.39990234375</ele>
        <time>2022-08-04T10:20:56.000Z</time>
      </trkpt>
      <trkpt lat="42.79206245206296443939208984375" lon="-0.13979279436171054840087890625">
        <ele>2174</ele>
        <time>2022-08-04T10:21:03.000Z</time>
      </trkpt>
      <trkpt lat="42.79201668687164783477783203125" lon="-0.1397546567022800445556640625">
        <ele>2175.39990234375</ele>
        <time>2022-08-04T10:21:09.000Z</time>
      </trkpt>
      <trkpt lat="42.79193303547799587249755859375" lon="-0.13971693813800811767578125">
        <ele>2176.800048828125</ele>
        <time>2022-08-04T10:21:20.000Z</time>
      </trkpt>
      <trkpt lat="42.7918244898319244384765625" lon="-0.13961610384285449981689453125">
        <ele>2180.39990234375</ele>
        <time>2022-08-04T10:21:40.000Z</time>
      </trkpt>
      <trkpt lat="42.791848964989185333251953125" lon="-0.13953044079244136810302734375">
        <ele>2186.39990234375</ele>
        <time>2022-08-04T10:21:46.000Z</time>
      </trkpt>
      <trkpt lat="42.7918541617691516876220703125" lon="-0.139517448842525482177734375">
        <ele>2187.39990234375</ele>
        <time>2022-08-04T10:21:47.000Z</time>
      </trkpt>
      <trkpt lat="42.79180244542658329010009765625" lon="-0.13949054293334484100341796875">
        <ele>2187.39990234375</ele>
        <time>2022-08-04T10:21:52.000Z</time>
      </trkpt>
      <trkpt lat="42.791716195642948150634765625" lon="-0.13947143219411373138427734375">
        <ele>2186.39990234375</ele>
        <time>2022-08-04T10:22:02.000Z</time>
      </trkpt>
      <trkpt lat="42.79160530306398868560791015625" lon="-0.13931888155639171600341796875">
        <ele>2189.199951171875</ele>
        <time>2022-08-04T10:22:28.000Z</time>
      </trkpt>
      <trkpt lat="42.7914548479020595550537109375" lon="-0.13937353156507015228271484375">
        <ele>2181.60009765625</ele>
        <time>2022-08-04T10:22:31.000Z</time>
      </trkpt>
      <trkpt lat="42.791291736066341400146484375" lon="-0.13931871391832828521728515625">
        <ele>2180.800048828125</ele>
        <time>2022-08-04T10:22:55.000Z</time>
      </trkpt>
      <trkpt lat="42.7911547757685184478759765625" lon="-0.13926205225288867950439453125">
        <ele>2181.199951171875</ele>
        <time>2022-08-04T10:23:21.000Z</time>
      </trkpt>
      <trkpt lat="42.7911423705518245697021484375" lon="-0.13918141834437847137451171875">
        <ele>2184.60009765625</ele>
        <time>2022-08-04T10:23:27.000Z</time>
      </trkpt>
      <trkpt lat="42.79104866087436676025390625" lon="-0.13910849578678607940673828125">
        <ele>2187.199951171875</ele>
        <time>2022-08-04T10:23:41.000Z</time>
      </trkpt>
      <trkpt lat="42.7910253591835498809814453125" lon="-0.139006488025188446044921875">
        <ele>2191.800048828125</ele>
        <time>2022-08-04T10:23:50.000Z</time>
      </trkpt>
      <trkpt lat="42.79101806692779064178466796875" lon="-0.1390068233013153076171875">
        <ele>2191.800048828125</ele>
        <time>2022-08-04T10:23:51.000Z</time>
      </trkpt>
      <trkpt lat="42.79093290679156780242919921875" lon="-0.1389147900044918060302734375">
        <ele>2194.800048828125</ele>
        <time>2022-08-04T10:24:04.000Z</time>
      </trkpt>
      <trkpt lat="42.79093709774315357208251953125" lon="-0.138850919902324676513671875">
        <ele>2197.60009765625</ele>
        <time>2022-08-04T10:24:08.000Z</time>
      </trkpt>
      <trkpt lat="42.7909224294126033782958984375" lon="-0.1388423703610897064208984375">
        <ele>2197.800048828125</ele>
        <time>2022-08-04T10:24:10.000Z</time>
      </trkpt>
      <trkpt lat="42.79075638391077518463134765625" lon="-0.13873432762920856475830078125">
        <ele>2204.60009765625</ele>
        <time>2022-08-04T10:24:35.000Z</time>
      </trkpt>
      <trkpt lat="42.79058732092380523681640625" lon="-0.13884580694139003753662109375">
        <ele>2200.60009765625</ele>
        <time>2022-08-04T10:24:43.000Z</time>
      </trkpt>
      <trkpt lat="42.790538370609283447265625" lon="-0.13887883163988590240478515625">
        <ele>2199.39990234375</ele>
        <time>2022-08-04T10:24:48.000Z</time>
      </trkpt>
      <trkpt lat="42.79037131927907466888427734375" lon="-0.13898327015340328216552734375">
        <ele>2195.199951171875</ele>
        <time>2022-08-04T10:25:03.000Z</time>
      </trkpt>
      <trkpt lat="42.79029990546405315399169921875" lon="-0.13893817551434040069580078125">
        <ele>2197</ele>
        <time>2022-08-04T10:25:16.000Z</time>
      </trkpt>
      <trkpt lat="42.79016562737524509429931640625" lon="-0.13881764374673366546630859375">
        <ele>2201.800048828125</ele>
        <time>2022-08-04T10:25:34.000Z</time>
      </trkpt>
      <trkpt lat="42.79015623964369297027587890625" lon="-0.13879023492336273193359375">
        <ele>2203</ele>
        <time>2022-08-04T10:25:36.000Z</time>
      </trkpt>
      <trkpt lat="42.7900542318820953369140625" lon="-0.1387052424252033233642578125">
        <ele>2207</ele>
        <time>2022-08-04T10:25:51.000Z</time>
      </trkpt>
      <trkpt lat="42.7899947203695774078369140625" lon="-0.13872795738279819488525390625">
        <ele>2206.199951171875</ele>
        <time>2022-08-04T10:25:56.000Z</time>
      </trkpt>
      <trkpt lat="42.79004752635955810546875" lon="-0.13871052302420139312744140625">
        <ele>2206.800048828125</ele>
        <time>2022-08-04T10:26:11.000Z</time>
      </trkpt>
      <trkpt lat="42.789952643215656280517578125" lon="-0.138600803911685943603515625">
        <ele>2212.199951171875</ele>
        <time>2022-08-04T10:26:33.000Z</time>
      </trkpt>
      <trkpt lat="42.789894640445709228515625" lon="-0.13861111365258693695068359375">
        <ele>2211.60009765625</ele>
        <time>2022-08-04T10:26:39.000Z</time>
      </trkpt>
      <trkpt lat="42.789750136435031890869140625" lon="-0.13850969262421131134033203125">
        <ele>2215.800048828125</ele>
        <time>2022-08-04T10:27:03.000Z</time>
      </trkpt>
      <trkpt lat="42.78981207869946956634521484375" lon="-0.1383845508098602294921875">
        <ele>2221.39990234375</ele>
        <time>2022-08-04T10:27:38.000Z</time>
      </trkpt>
      <trkpt lat="42.78983898460865020751953125" lon="-0.1383495144546031951904296875">
        <ele>2222.800048828125</ele>
        <time>2022-08-04T10:27:43.000Z</time>
      </trkpt>
      <trkpt lat="42.78974954970180988311767578125" lon="-0.1381533779203891754150390625">
        <ele>2230.199951171875</ele>
        <time>2022-08-04T10:28:07.000Z</time>
      </trkpt>
      <trkpt lat="42.7895960770547389984130859375" lon="-0.13801834546029567718505859375">
        <ele>2234</ele>
        <time>2022-08-04T10:28:27.000Z</time>
      </trkpt>
      <trkpt lat="42.7895434387028217315673828125" lon="-0.1380045153200626373291015625">
        <ele>2234.199951171875</ele>
        <time>2022-08-04T10:28:33.000Z</time>
      </trkpt>
      <trkpt lat="42.78945232741534709930419921875" lon="-0.13801616616547107696533203125">
        <ele>2235</ele>
        <time>2022-08-04T10:28:40.000Z</time>
      </trkpt>
      <trkpt lat="42.78940320946276187896728515625" lon="-0.13801633380353450775146484375">
        <ele>2236.60009765625</ele>
        <time>2022-08-04T10:28:44.000Z</time>
      </trkpt>
      <trkpt lat="42.7893248386681079864501953125" lon="-0.13804533518850803375244140625">
        <ele>2237.60009765625</ele>
        <time>2022-08-04T10:28:49.000Z</time>
      </trkpt>
      <trkpt lat="42.7891404367983341217041015625" lon="-0.13803519308567047119140625">
        <ele>2243.60009765625</ele>
        <time>2022-08-04T10:29:13.000Z</time>
      </trkpt>
      <trkpt lat="42.788960225880146026611328125" lon="-0.1380224525928497314453125">
        <ele>2246.39990234375</ele>
        <time>2022-08-04T10:29:37.000Z</time>
      </trkpt>
      <trkpt lat="42.78877523727715015411376953125" lon="-0.138012059032917022705078125">
        <ele>2244.60009765625</ele>
        <time>2022-08-04T10:29:57.000Z</time>
      </trkpt>
      <trkpt lat="42.78860374353826045989990234375" lon="-0.13808305375277996063232421875">
        <ele>2240</ele>
        <time>2022-08-04T10:30:17.000Z</time>
      </trkpt>
      <trkpt lat="42.78842990286648273468017578125" lon="-0.13803494162857532501220703125">
        <ele>2240.60009765625</ele>
        <time>2022-08-04T10:30:36.000Z</time>
      </trkpt>
      <trkpt lat="42.78840743936598300933837890625" lon="-0.1380038447678089141845703125">
        <ele>2241.800048828125</ele>
        <time>2022-08-04T10:30:39.000Z</time>
      </trkpt>
      <trkpt lat="42.78824315406382083892822265625" lon="-0.13789647258818149566650390625">
        <ele>2246</ele>
        <time>2022-08-04T10:31:02.000Z</time>
      </trkpt>
      <trkpt lat="42.78817492537200450897216796875" lon="-0.137889683246612548828125">
        <ele>2246</ele>
        <time>2022-08-04T10:31:08.000Z</time>
      </trkpt>
      <trkpt lat="42.7880457602441310882568359375" lon="-0.137861184775829315185546875">
        <ele>2248.800048828125</ele>
        <time>2022-08-04T10:31:23.000Z</time>
      </trkpt>
      <trkpt lat="42.7879822254180908203125" lon="-0.13782639987766742706298828125">
        <ele>2251.800048828125</ele>
        <time>2022-08-04T10:31:32.000Z</time>
      </trkpt>
      <trkpt lat="42.78801298700273036956787109375" lon="-0.13778432272374629974365234375">
        <ele>2254.60009765625</ele>
        <time>2022-08-04T10:31:36.000Z</time>
      </trkpt>
      <trkpt lat="42.7880886755883693695068359375" lon="-0.1376434229314327239990234375">
        <ele>2264</ele>
        <time>2022-08-04T10:31:49.000Z</time>
      </trkpt>
      <trkpt lat="42.78815179131925106048583984375" lon="-0.137496404349803924560546875">
        <ele>2275</ele>
        <time>2022-08-04T10:32:01.000Z</time>
      </trkpt>
      <trkpt lat="42.7882140688598155975341796875" lon="-0.137417614459991455078125">
        <ele>2278.800048828125</ele>
        <time>2022-08-04T10:32:10.000Z</time>
      </trkpt>
      <trkpt lat="42.788293026387691497802734375" lon="-0.1373527385294437408447265625">
        <ele>2279.60009765625</ele>
        <time>2022-08-04T10:32:19.000Z</time>
      </trkpt>
      <trkpt lat="42.7884531207382678985595703125" lon="-0.13724972493946552276611328125">
        <ele>2279.60009765625</ele>
        <time>2022-08-04T10:32:39.000Z</time>
      </trkpt>
      <trkpt lat="42.7885024063289165496826171875" lon="-0.13721770606935024261474609375">
        <ele>2280.199951171875</ele>
        <time>2022-08-04T10:32:44.000Z</time>
      </trkpt>
      <trkpt lat="42.788565270602703094482421875" lon="-0.137178562581539154052734375">
        <ele>2280.800048828125</ele>
        <time>2022-08-04T10:32:50.000Z</time>
      </trkpt>
      <trkpt lat="42.78866224922239780426025390625" lon="-0.13716624118387699127197265625">
        <ele>2279.800048828125</ele>
        <time>2022-08-04T10:33:01.000Z</time>
      </trkpt>
      <trkpt lat="42.78869980014860630035400390625" lon="-0.13716288842260837554931640625">
        <ele>2280</ele>
        <time>2022-08-04T10:33:05.000Z</time>
      </trkpt>
      <trkpt lat="42.78871371410787105560302734375" lon="-0.137163810431957244873046875">
        <ele>2280</ele>
        <time>2022-08-04T10:33:07.000Z</time>
      </trkpt>
      <trkpt lat="42.78883659280836582183837890625" lon="-0.137120224535465240478515625">
        <ele>2282</ele>
        <time>2022-08-04T10:33:22.000Z</time>
      </trkpt>
      <trkpt lat="42.78897422365844249725341796875" lon="-0.137096084654331207275390625">
        <ele>2284</ele>
        <time>2022-08-04T10:33:37.000Z</time>
      </trkpt>
      <trkpt lat="42.78902283869683742523193359375" lon="-0.13710983097553253173828125">
        <ele>2282.60009765625</ele>
        <time>2022-08-04T10:33:44.000Z</time>
      </trkpt>
      <trkpt lat="42.78919584117829799652099609375" lon="-0.13710304163396358489990234375">
        <ele>2279.199951171875</ele>
        <time>2022-08-04T10:34:16.000Z</time>
      </trkpt>
      <trkpt lat="42.789363227784633636474609375" lon="-0.1370164565742015838623046875">
        <ele>2281</ele>
        <time>2022-08-04T10:34:34.000Z</time>
      </trkpt>
      <trkpt lat="42.78953597880899906158447265625" lon="-0.13693657703697681427001953125">
        <ele>2282.800048828125</ele>
        <time>2022-08-04T10:34:52.000Z</time>
      </trkpt>
      <trkpt lat="42.789544947445392608642578125" lon="-0.1369306258857250213623046875">
        <ele>2283</ele>
        <time>2022-08-04T10:34:53.000Z</time>
      </trkpt>
      <trkpt lat="42.78957637958228588104248046875" lon="-0.1368538476526737213134765625">
        <ele>2286.800048828125</ele>
        <time>2022-08-04T10:34:59.000Z</time>
      </trkpt>
      <trkpt lat="42.7896094880998134613037109375" lon="-0.13679307885468006134033203125">
        <ele>2288.60009765625</ele>
        <time>2022-08-04T10:35:05.000Z</time>
      </trkpt>
      <trkpt lat="42.7896765433251857757568359375" lon="-0.13677933253347873687744140625">
        <ele>2288.199951171875</ele>
        <time>2022-08-04T10:35:13.000Z</time>
      </trkpt>
      <trkpt lat="42.78985465876758098602294921875" lon="-0.13682979159057140350341796875">
        <ele>2284.800048828125</ele>
        <time>2022-08-04T10:35:30.000Z</time>
      </trkpt>
      <trkpt lat="42.7898720093071460723876953125" lon="-0.13682828284800052642822265625">
        <ele>2285.199951171875</ele>
        <time>2022-08-04T10:35:32.000Z</time>
      </trkpt>
      <trkpt lat="42.78993998654186725616455078125" lon="-0.13681487180292606353759765625">
        <ele>2286.39990234375</ele>
        <time>2022-08-04T10:35:40.000Z</time>
      </trkpt>
      <trkpt lat="42.79010309837758541107177734375" lon="-0.13671730645000934600830078125">
        <ele>2289</ele>
        <time>2022-08-04T10:36:03.000Z</time>
      </trkpt>
      <trkpt lat="42.79026537202298641204833984375" lon="-0.13661907054483890533447265625">
        <ele>2292.199951171875</ele>
        <time>2022-08-04T10:36:24.000Z</time>
      </trkpt>
      <trkpt lat="42.79013914056122303009033203125" lon="-0.13645981438457965850830078125">
        <ele>2293.199951171875</ele>
        <time>2022-08-04T10:36:49.000Z</time>
      </trkpt>
      <trkpt lat="42.7901308424770832061767578125" lon="-0.1364267058670520782470703125">
        <ele>2293.800048828125</ele>
        <time>2022-08-04T10:36:52.000Z</time>
      </trkpt>
      <trkpt lat="42.79020586051046848297119140625" lon="-0.1363965310156345367431640625">
        <ele>2297.39990234375</ele>
        <time>2022-08-04T10:37:21.000Z</time>
      </trkpt>
      <trkpt lat="42.7903538011014461517333984375" lon="-0.13632151298224925994873046875">
        <ele>2304.39990234375</ele>
        <time>2022-08-04T10:37:38.000Z</time>
      </trkpt>
      <trkpt lat="42.7902607619762420654296875" lon="-0.13615219853818416595458984375">
        <ele>2310.800048828125</ele>
        <time>2022-08-04T10:37:59.000Z</time>
      </trkpt>
      <trkpt lat="42.79011416248977184295654296875" lon="-0.13602680526673793792724609375">
        <ele>2312.39990234375</ele>
        <time>2022-08-04T10:38:23.000Z</time>
      </trkpt>
      <trkpt lat="42.79020267538726329803466796875" lon="-0.136102996766567230224609375">
        <ele>2311.39990234375</ele>
        <time>2022-08-04T10:39:25.000Z</time>
      </trkpt>
      <trkpt lat="42.79037517495453357696533203125" lon="-0.136033594608306884765625">
        <ele>2321.800048828125</ele>
        <time>2022-08-04T10:39:43.000Z</time>
      </trkpt>
      <trkpt lat="42.7904346026480197906494140625" lon="-0.1358510367572307586669921875">
        <ele>2332.39990234375</ele>
        <time>2022-08-04T10:40:01.000Z</time>
      </trkpt>
      <trkpt lat="42.79046301729977130889892578125" lon="-0.135726146399974822998046875">
        <ele>2339</ele>
        <time>2022-08-04T10:40:35.000Z</time>
      </trkpt>
      <trkpt lat="42.79062897898256778717041015625" lon="-0.1358044333755970001220703125">
        <ele>2339</ele>
        <time>2022-08-04T10:41:03.000Z</time>
      </trkpt>
      <trkpt lat="42.790677510201930999755859375" lon="-0.135691277682781219482421875">
        <ele>2346</ele>
        <time>2022-08-04T10:41:30.000Z</time>
      </trkpt>
      <trkpt lat="42.7904892526566982269287109375" lon="-0.13563889078795909881591796875">
        <ele>2343.60009765625</ele>
        <time>2022-08-04T10:41:53.000Z</time>
      </trkpt>
      <trkpt lat="42.79043845832347869873046875" lon="-0.13551265932619571685791015625">
        <ele>2349.199951171875</ele>
        <time>2022-08-04T10:42:18.000Z</time>
      </trkpt>
      <trkpt lat="42.79059964232146739959716796875" lon="-0.13539665378630161285400390625">
        <ele>2358</ele>
        <time>2022-08-04T10:42:39.000Z</time>
      </trkpt>
      <trkpt lat="42.79060073196887969970703125" lon="-0.13530881144106388092041015625">
        <ele>2362.199951171875</ele>
        <time>2022-08-04T10:43:07.000Z</time>
      </trkpt>
      <trkpt lat="42.79042395763099193572998046875" lon="-0.13525852002203464508056640625">
        <ele>2361.800048828125</ele>
        <time>2022-08-04T10:43:28.000Z</time>
      </trkpt>
      <trkpt lat="42.79024642892181873321533203125" lon="-0.1352401636540889739990234375">
        <ele>2362.800048828125</ele>
        <time>2022-08-04T10:43:53.000Z</time>
      </trkpt>
      <trkpt lat="42.79008901678025722503662109375" lon="-0.13512675650417804718017578125">
        <ele>2376</ele>
        <time>2022-08-04T10:44:14.000Z</time>
      </trkpt>
      <trkpt lat="42.78991450555622577667236328125" lon="-0.135190375149250030517578125">
        <ele>2371.800048828125</ele>
        <time>2022-08-04T10:44:34.000Z</time>
      </trkpt>
      <trkpt lat="42.78990712948143482208251953125" lon="-0.1351791433990001678466796875">
        <ele>2372.199951171875</ele>
        <time>2022-08-04T10:44:35.000Z</time>
      </trkpt>
      <trkpt lat="42.7897801436483860015869140625" lon="-0.13503137044608592987060546875">
        <ele>2377.800048828125</ele>
        <time>2022-08-04T10:45:04.000Z</time>
      </trkpt>
      <trkpt lat="42.78988349251449108123779296875" lon="-0.13494201935827732086181640625">
        <ele>2383.60009765625</ele>
        <time>2022-08-04T10:45:33.000Z</time>
      </trkpt>
      <trkpt lat="42.7900359593331813812255859375" lon="-0.13481645844876766204833984375">
        <ele>2391.199951171875</ele>
        <time>2022-08-04T10:45:54.000Z</time>
      </trkpt>
      <trkpt lat="42.7901995740830898284912109375" lon="-0.1347037218511104583740234375">
        <ele>2390.800048828125</ele>
        <time>2022-08-04T10:46:13.000Z</time>
      </trkpt>
      <trkpt lat="42.7903856523334980010986328125" lon="-0.13468586839735507965087890625">
        <ele>2385.199951171875</ele>
        <time>2022-08-04T10:46:37.000Z</time>
      </trkpt>
      <trkpt lat="42.79056209139525890350341796875" lon="-0.134665332734584808349609375">
        <ele>2389.39990234375</ele>
        <time>2022-08-04T10:46:59.000Z</time>
      </trkpt>
      <trkpt lat="42.7906116284430027008056640625" lon="-0.13456441462039947509765625">
        <ele>2394</ele>
        <time>2022-08-04T10:47:13.000Z</time>
      </trkpt>
      <trkpt lat="42.790595702826976776123046875" lon="-0.1345498301088809967041015625">
        <ele>2394</ele>
        <time>2022-08-04T10:47:15.000Z</time>
      </trkpt>
      <trkpt lat="42.7904351055622100830078125" lon="-0.13443524949252605438232421875">
        <ele>2396.39990234375</ele>
        <time>2022-08-04T10:47:31.000Z</time>
      </trkpt>
      <trkpt lat="42.7903970517218112945556640625" lon="-0.1344200782477855682373046875">
        <ele>2397.199951171875</ele>
        <time>2022-08-04T10:47:34.000Z</time>
      </trkpt>
      <trkpt lat="42.7902843989431858062744140625" lon="-0.13442586176097393035888671875">
        <ele>2398.39990234375</ele>
        <time>2022-08-04T10:47:44.000Z</time>
      </trkpt>
      <trkpt lat="42.79026771895587444305419921875" lon="-0.13441555202007293701171875">
        <ele>2398.60009765625</ele>
        <time>2022-08-04T10:47:46.000Z</time>
      </trkpt>
      <trkpt lat="42.7901834808290004730224609375" lon="-0.13435344211757183074951171875">
        <ele>2397.800048828125</ele>
        <time>2022-08-04T10:47:57.000Z</time>
      </trkpt>
      <trkpt lat="42.79020703397691249847412109375" lon="-0.1343134604394435882568359375">
        <ele>2399</ele>
        <time>2022-08-04T10:48:01.000Z</time>
      </trkpt>
      <trkpt lat="42.79032488353550434112548828125" lon="-0.1341310702264308929443359375">
        <ele>2405</ele>
        <time>2022-08-04T10:48:21.000Z</time>
      </trkpt>
      <trkpt lat="42.79047123156487941741943359375" lon="-0.13398237526416778564453125">
        <ele>2407.800048828125</ele>
        <time>2022-08-04T10:48:40.000Z</time>
      </trkpt>
      <trkpt lat="42.790627889335155487060546875" lon="-0.13385270722210407257080078125">
        <ele>2409</ele>
        <time>2022-08-04T10:49:01.000Z</time>
      </trkpt>
      <trkpt lat="42.79064909555017948150634765625" lon="-0.1337035931646823883056640625">
        <ele>2411.800048828125</ele>
        <time>2022-08-04T10:49:24.000Z</time>
      </trkpt>
      <trkpt lat="42.79047408141195774078369140625" lon="-0.133628658950328826904296875">
        <ele>2415.199951171875</ele>
        <time>2022-08-04T10:49:48.000Z</time>
      </trkpt>
      <trkpt lat="42.790294624865055084228515625" lon="-0.13359571807086467742919921875">
        <ele>2418.60009765625</ele>
        <time>2022-08-04T10:50:09.000Z</time>
      </trkpt>
      <trkpt lat="42.79025933705270290374755859375" lon="-0.13356529176235198974609375">
        <ele>2420.39990234375</ele>
        <time>2022-08-04T10:50:16.000Z</time>
      </trkpt>
      <trkpt lat="42.79041339643299579620361328125" lon="-0.1334450952708721160888671875">
        <ele>2421</ele>
        <time>2022-08-04T10:50:48.000Z</time>
      </trkpt>
      <trkpt lat="42.790568880736827850341796875" lon="-0.1333232223987579345703125">
        <ele>2424</ele>
        <time>2022-08-04T10:51:11.000Z</time>
      </trkpt>
      <trkpt lat="42.790485061705112457275390625" lon="-0.13325675390660762786865234375">
        <ele>2429.39990234375</ele>
        <time>2022-08-04T10:52:02.000Z</time>
      </trkpt>
      <trkpt lat="42.79033628292381763458251953125" lon="-0.13324300758540630340576171875">
        <ele>2434</ele>
        <time>2022-08-04T10:52:20.000Z</time>
      </trkpt>
      <trkpt lat="42.79049335978925228118896484375" lon="-0.1331078074872493743896484375">
        <ele>2436.39990234375</ele>
        <time>2022-08-04T10:52:45.000Z</time>
      </trkpt>
      <trkpt lat="42.79038456268608570098876953125" lon="-0.13306908309459686279296875">
        <ele>2442</ele>
        <time>2022-08-04T10:53:07.000Z</time>
      </trkpt>
      <trkpt lat="42.7902098000049591064453125" lon="-0.1330524869263172149658203125">
        <ele>2446.39990234375</ele>
        <time>2022-08-04T10:53:41.000Z</time>
      </trkpt>
      <trkpt lat="42.79003017581999301910400390625" lon="-0.13308911584317684173583984375">
        <ele>2447.60009765625</ele>
        <time>2022-08-04T10:54:04.000Z</time>
      </trkpt>
      <trkpt lat="42.789927832782268524169921875" lon="-0.1330172829329967498779296875">
        <ele>2453</ele>
        <time>2022-08-04T10:54:29.000Z</time>
      </trkpt>
      <trkpt lat="42.790023386478424072265625" lon="-0.132807902991771697998046875">
        <ele>2457.39990234375</ele>
        <time>2022-08-04T10:54:46.000Z</time>
      </trkpt>
      <trkpt lat="42.79014484025537967681884765625" lon="-0.132621489465236663818359375">
        <ele>2459.60009765625</ele>
        <time>2022-08-04T10:55:03.000Z</time>
      </trkpt>
      <trkpt lat="42.790130674839019775390625" lon="-0.13259944505989551544189453125">
        <ele>2460.39990234375</ele>
        <time>2022-08-04T10:55:05.000Z</time>
      </trkpt>
      <trkpt lat="42.790055237710475921630859375" lon="-0.13261939398944377899169921875">
        <ele>2461.60009765625</ele>
        <time>2022-08-04T10:55:13.000Z</time>
      </trkpt>
      <trkpt lat="42.78999581001698970794677734375" lon="-0.13252836652100086212158203125">
        <ele>2464.39990234375</ele>
        <time>2022-08-04T10:55:36.000Z</time>
      </trkpt>
      <trkpt lat="42.78997988440096378326416015625" lon="-0.13229149393737316131591796875">
        <ele>2467.39990234375</ele>
        <time>2022-08-04T10:55:57.000Z</time>
      </trkpt>
      <trkpt lat="42.7898787148296833038330078125" lon="-0.13215981423854827880859375">
        <ele>2470</ele>
        <time>2022-08-04T10:56:14.000Z</time>
      </trkpt>
      <trkpt lat="42.78973865322768688201904296875" lon="-0.132293589413166046142578125">
        <ele>2471.60009765625</ele>
        <time>2022-08-04T10:56:36.000Z</time>
      </trkpt>
      <trkpt lat="42.78960336931049823760986328125" lon="-0.13243381865322589874267578125">
        <ele>2472.39990234375</ele>
        <time>2022-08-04T10:56:52.000Z</time>
      </trkpt>
      <trkpt lat="42.78958258219063282012939453125" lon="-0.1324729621410369873046875">
        <ele>2472.39990234375</ele>
        <time>2022-08-04T10:56:57.000Z</time>
      </trkpt>
      <trkpt lat="42.7893989346921443939208984375" lon="-0.13249148614704608917236328125">
        <ele>2478</ele>
        <time>2022-08-04T10:57:19.000Z</time>
      </trkpt>
      <trkpt lat="42.78924261219799518585205078125" lon="-0.1325877942144870758056640625">
        <ele>2483.199951171875</ele>
        <time>2022-08-04T10:57:42.000Z</time>
      </trkpt>
      <trkpt lat="42.789072878658771514892578125" lon="-0.13267471455037593841552734375">
        <ele>2488.199951171875</ele>
        <time>2022-08-04T10:58:03.000Z</time>
      </trkpt>
      <trkpt lat="42.7890162169933319091796875" lon="-0.13273338787257671356201171875">
        <ele>2489.60009765625</ele>
        <time>2022-08-04T10:58:11.000Z</time>
      </trkpt>
      <trkpt lat="42.7889008820056915283203125" lon="-0.13292935676872730255126953125">
        <ele>2490</ele>
        <time>2022-08-04T10:58:27.000Z</time>
      </trkpt>
      <trkpt lat="42.78883541934192180633544921875" lon="-0.13306648470461368560791015625">
        <ele>2487.60009765625</ele>
        <time>2022-08-04T10:58:37.000Z</time>
      </trkpt>
      <trkpt lat="42.78876115567982196807861328125" lon="-0.1330457814037799835205078125">
        <ele>2489</ele>
        <time>2022-08-04T10:58:48.000Z</time>
      </trkpt>
      <trkpt lat="42.78873617760837078094482421875" lon="-0.13304167427122592926025390625">
        <ele>2489.199951171875</ele>
        <time>2022-08-04T10:58:50.000Z</time>
      </trkpt>
      <trkpt lat="42.78871555812656879425048828125" lon="-0.13308274559676647186279296875">
        <ele>2488.39990234375</ele>
        <time>2022-08-04T10:58:54.000Z</time>
      </trkpt>
      <trkpt lat="42.78866283595561981201171875" lon="-0.13311107642948627471923828125">
        <ele>2488.60009765625</ele>
        <time>2022-08-04T10:59:01.000Z</time>
      </trkpt>
      <trkpt lat="42.78855445794761180877685546875" lon="-0.13296958990395069122314453125">
        <ele>2495.39990234375</ele>
        <time>2022-08-04T10:59:23.000Z</time>
      </trkpt>
      <trkpt lat="42.78845270164310932159423828125" lon="-0.1330045424401760101318359375">
        <ele>2497.199951171875</ele>
        <time>2022-08-04T10:59:38.000Z</time>
      </trkpt>
      <trkpt lat="42.78831280767917633056640625" lon="-0.1328942365944385528564453125">
        <ele>2504.800048828125</ele>
        <time>2022-08-04T10:59:54.000Z</time>
      </trkpt>
      <trkpt lat="42.7882901765406131744384765625" lon="-0.13282877393066883087158203125">
        <ele>2507.199951171875</ele>
        <time>2022-08-04T10:59:59.000Z</time>
      </trkpt>
      <trkpt lat="42.78819789178669452667236328125" lon="-0.1326541788876056671142578125">
        <ele>2510.199951171875</ele>
        <time>2022-08-04T11:00:12.000Z</time>
      </trkpt>
      <trkpt lat="42.788136787712574005126953125" lon="-0.13255334459245204925537109375">
        <ele>2510.199951171875</ele>
        <time>2022-08-04T11:00:21.000Z</time>
      </trkpt>
      <trkpt lat="42.78812580741941928863525390625" lon="-0.13254848308861255645751953125">
        <ele>2510.199951171875</ele>
        <time>2022-08-04T11:00:22.000Z</time>
      </trkpt>
      <trkpt lat="42.78804902918636798858642578125" lon="-0.13271980918943881988525390625">
        <ele>2512</ele>
        <time>2022-08-04T11:00:37.000Z</time>
      </trkpt>
      <trkpt lat="42.7880504541099071502685546875" lon="-0.13273640535771846771240234375">
        <ele>2512</ele>
        <time>2022-08-04T11:00:38.000Z</time>
      </trkpt>
      <trkpt lat="42.78806495480239391326904296875" lon="-0.1328010298311710357666015625">
        <ele>2511.39990234375</ele>
        <time>2022-08-04T11:00:42.000Z</time>
      </trkpt>
      <trkpt lat="42.78806881047785282135009765625" lon="-0.132815279066562652587890625">
        <ele>2511.199951171875</ele>
        <time>2022-08-04T11:00:43.000Z</time>
      </trkpt>
      <trkpt lat="42.7880202792584896087646484375" lon="-0.132950730621814727783203125">
        <ele>2511</ele>
        <time>2022-08-04T11:00:55.000Z</time>
      </trkpt>
      <trkpt lat="42.787926234304904937744140625" lon="-0.133109651505947113037109375">
        <ele>2507.800048828125</ele>
        <time>2022-08-04T11:01:08.000Z</time>
      </trkpt>
      <trkpt lat="42.787920534610748291015625" lon="-0.13316052965819835662841796875">
        <ele>2506.199951171875</ele>
        <time>2022-08-04T11:01:11.000Z</time>
      </trkpt>
      <trkpt lat="42.78783738613128662109375" lon="-0.1331091485917568206787109375">
        <ele>2509.39990234375</ele>
        <time>2022-08-04T11:01:28.000Z</time>
      </trkpt>
      <trkpt lat="42.787794806063175201416015625" lon="-0.1330737769603729248046875">
        <ele>2511.60009765625</ele>
        <time>2022-08-04T11:01:33.000Z</time>
      </trkpt>
      <trkpt lat="42.78775717131793498992919921875" lon="-0.133053995668888092041015625">
        <ele>2513.199951171875</ele>
        <time>2022-08-04T11:01:37.000Z</time>
      </trkpt>
      <trkpt lat="42.78764066286385059356689453125" lon="-0.133112333714962005615234375">
        <ele>2514.199951171875</ele>
        <time>2022-08-04T11:01:50.000Z</time>
      </trkpt>
      <trkpt lat="42.78752951882779598236083984375" lon="-0.13308056630194187164306640625">
        <ele>2517.39990234375</ele>
        <time>2022-08-04T11:02:06.000Z</time>
      </trkpt>
      <trkpt lat="42.78747604228556156158447265625" lon="-0.133095569908618927001953125">
        <ele>2518.199951171875</ele>
        <time>2022-08-04T11:02:12.000Z</time>
      </trkpt>
      <trkpt lat="42.78728996403515338897705078125" lon="-0.13311862014234066009521484375">
        <ele>2521.39990234375</ele>
        <time>2022-08-04T11:02:29.000Z</time>
      </trkpt>
      <trkpt lat="42.7871428616344928741455078125" lon="-0.1332492940127849578857421875">
        <ele>2520.199951171875</ele>
        <time>2022-08-04T11:02:45.000Z</time>
      </trkpt>
      <trkpt lat="42.78696005232632160186767578125" lon="-0.1332549937069416046142578125">
        <ele>2523.199951171875</ele>
        <time>2022-08-04T11:03:03.000Z</time>
      </trkpt>
      <trkpt lat="42.7867787517607212066650390625" lon="-0.1332539878785610198974609375">
        <ele>2526.60009765625</ele>
        <time>2022-08-04T11:03:21.000Z</time>
      </trkpt>
      <trkpt lat="42.7866317331790924072265625" lon="-0.13326530344784259796142578125">
        <ele>2531.199951171875</ele>
        <time>2022-08-04T11:03:34.000Z</time>
      </trkpt>
      <trkpt lat="42.78658471070230007171630859375" lon="-0.13327619992196559906005859375">
        <ele>2532.60009765625</ele>
        <time>2022-08-04T11:03:39.000Z</time>
      </trkpt>
      <trkpt lat="42.7864082716405391693115234375" lon="-0.1333223842084407806396484375">
        <ele>2538.39990234375</ele>
        <time>2022-08-04T11:03:58.000Z</time>
      </trkpt>
      <trkpt lat="42.78629980981349945068359375" lon="-0.13336739502847194671630859375">
        <ele>2541.199951171875</ele>
        <time>2022-08-04T11:04:08.000Z</time>
      </trkpt>
      <trkpt lat="42.7861373685300350189208984375" lon="-0.13348356820642948150634765625">
        <ele>2542.800048828125</ele>
        <time>2022-08-04T11:04:26.000Z</time>
      </trkpt>
      <trkpt lat="42.7859579958021640777587890625" lon="-0.13353335671126842498779296875">
        <ele>2543.39990234375</ele>
        <time>2022-08-04T11:04:43.000Z</time>
      </trkpt>
      <trkpt lat="42.7859469316899776458740234375" lon="-0.133536122739315032958984375">
        <ele>2543.39990234375</ele>
        <time>2022-08-04T11:04:44.000Z</time>
      </trkpt>
      <trkpt lat="42.7858409844338893890380859375" lon="-0.13361616991460323333740234375">
        <ele>2544.199951171875</ele>
        <time>2022-08-04T11:04:56.000Z</time>
      </trkpt>
      <trkpt lat="42.7857172675430774688720703125" lon="-0.1337984763085842132568359375">
        <ele>2544.199951171875</ele>
        <time>2022-08-04T11:05:15.000Z</time>
      </trkpt>
      <trkpt lat="42.78557963669300079345703125" lon="-0.1339798606932163238525390625">
        <ele>2542.199951171875</ele>
        <time>2022-08-04T11:05:33.000Z</time>
      </trkpt>
      <trkpt lat="42.78547695837914943695068359375" lon="-0.1340509392321109771728515625">
        <ele>2544.199951171875</ele>
        <time>2022-08-04T11:05:43.000Z</time>
      </trkpt>
      <trkpt lat="42.78530244715511798858642578125" lon="-0.13413886539638042449951171875">
        <ele>2548.800048828125</ele>
        <time>2022-08-04T11:05:59.000Z</time>
      </trkpt>
      <trkpt lat="42.7852140180766582489013671875" lon="-0.1341656036674976348876953125">
        <ele>2552</ele>
        <time>2022-08-04T11:06:08.000Z</time>
      </trkpt>
      <trkpt lat="42.78518023900687694549560546875" lon="-0.134204663336277008056640625">
        <ele>2552.199951171875</ele>
        <time>2022-08-04T11:06:12.000Z</time>
      </trkpt>
      <trkpt lat="42.78516029007732868194580078125" lon="-0.13428873382508754730224609375">
        <ele>2550.199951171875</ele>
        <time>2022-08-04T11:06:18.000Z</time>
      </trkpt>
      <trkpt lat="42.78500069864094257354736328125" lon="-0.13440406881272792816162109375">
        <ele>2553.199951171875</ele>
        <time>2022-08-04T11:06:39.000Z</time>
      </trkpt>
      <trkpt lat="42.7849484793841838836669921875" lon="-0.1342779211699962615966796875">
        <ele>2559.199951171875</ele>
        <time>2022-08-04T11:07:19.000Z</time>
      </trkpt>
      <trkpt lat="42.78489944525063037872314453125" lon="-0.13424464501440525054931640625">
        <ele>2562.199951171875</ele>
        <time>2022-08-04T11:07:25.000Z</time>
      </trkpt>
      <trkpt lat="42.784791402518749237060546875" lon="-0.13419971801340579986572265625">
        <ele>2567.39990234375</ele>
        <time>2022-08-04T11:07:52.000Z</time>
      </trkpt>
      <trkpt lat="42.78472602367401123046875" lon="-0.134370625019073486328125">
        <ele>2564.39990234375</ele>
        <time>2022-08-04T11:08:15.000Z</time>
      </trkpt>
      <trkpt lat="42.7845756523311138153076171875" lon="-0.134493671357631683349609375">
        <ele>2564.800048828125</ele>
        <time>2022-08-04T11:08:39.000Z</time>
      </trkpt>
      <trkpt lat="42.78441916219890117645263671875" lon="-0.13450733385980129241943359375">
        <ele>2569</ele>
        <time>2022-08-04T11:09:29.000Z</time>
      </trkpt>
      <trkpt lat="42.78429360128939151763916015625" lon="-0.13447883538901805877685546875">
        <ele>2574.800048828125</ele>
        <time>2022-08-04T11:10:28.000Z</time>
      </trkpt>
      <trkpt lat="42.7841050922870635986328125" lon="-0.13445980846881866455078125">
        <ele>2581.39990234375</ele>
        <time>2022-08-04T11:10:44.000Z</time>
      </trkpt>
      <trkpt lat="42.78392563574016094207763671875" lon="-0.134468190371990203857421875">
        <ele>2585</ele>
        <time>2022-08-04T11:11:04.000Z</time>
      </trkpt>
      <trkpt lat="42.7837502025067806243896484375" lon="-0.134533904492855072021484375">
        <ele>2585.800048828125</ele>
        <time>2022-08-04T11:11:25.000Z</time>
      </trkpt>
      <trkpt lat="42.783614583313465118408203125" lon="-0.1344344951212406158447265625">
        <ele>2590.199951171875</ele>
        <time>2022-08-04T11:11:49.000Z</time>
      </trkpt>
      <trkpt lat="42.78350151143968105316162109375" lon="-0.134244225919246673583984375">
        <ele>2596.199951171875</ele>
        <time>2022-08-04T11:12:08.000Z</time>
      </trkpt>
      <trkpt lat="42.783328592777252197265625" lon="-0.134292505681514739990234375">
        <ele>2598.60009765625</ele>
        <time>2022-08-04T11:12:24.000Z</time>
      </trkpt>
      <trkpt lat="42.7832777984440326690673828125" lon="-0.134342797100543975830078125">
        <ele>2598.39990234375</ele>
        <time>2022-08-04T11:12:31.000Z</time>
      </trkpt>
      <trkpt lat="42.78324016369879245758056640625" lon="-0.1343744806945323944091796875">
        <ele>2598.39990234375</ele>
        <time>2022-08-04T11:12:37.000Z</time>
      </trkpt>
      <trkpt lat="42.78309867717325687408447265625" lon="-0.13438646681606769561767578125">
        <ele>2601.60009765625</ele>
        <time>2022-08-04T11:13:01.000Z</time>
      </trkpt>
      <trkpt lat="42.782933302223682403564453125" lon="-0.1343194954097270965576171875">
        <ele>2606.800048828125</ele>
        <time>2022-08-04T11:13:18.000Z</time>
      </trkpt>
      <trkpt lat="42.78285845182836055755615234375" lon="-0.13429887592792510986328125">
        <ele>2608.800048828125</ele>
        <time>2022-08-04T11:13:25.000Z</time>
      </trkpt>
      <trkpt lat="42.78281922452151775360107421875" lon="-0.13430868275463581085205078125">
        <ele>2609.199951171875</ele>
        <time>2022-08-04T11:13:29.000Z</time>
      </trkpt>
      <trkpt lat="42.78274948708713054656982421875" lon="-0.1343275420367717742919921875">
        <ele>2609.800048828125</ele>
        <time>2022-08-04T11:13:36.000Z</time>
      </trkpt>
      <trkpt lat="42.78269550763070583343505859375" lon="-0.1343412883579730987548828125">
        <ele>2610.39990234375</ele>
        <time>2022-08-04T11:13:42.000Z</time>
      </trkpt>
      <trkpt lat="42.7826732955873012542724609375" lon="-0.13433349318802356719970703125">
        <ele>2610.800048828125</ele>
        <time>2022-08-04T11:13:44.000Z</time>
      </trkpt>
      <trkpt lat="42.78262996114790439605712890625" lon="-0.1343459822237491607666015625">
        <ele>2611.199951171875</ele>
        <time>2022-08-04T11:13:49.000Z</time>
      </trkpt>
      <trkpt lat="42.78246425092220306396484375" lon="-0.13438629917800426483154296875">
        <ele>2613</ele>
        <time>2022-08-04T11:14:13.000Z</time>
      </trkpt>
      <trkpt lat="42.7822880633175373077392578125" lon="-0.1344291307032108306884765625">
        <ele>2614.800048828125</ele>
        <time>2022-08-04T11:14:32.000Z</time>
      </trkpt>
      <trkpt lat="42.78210751712322235107421875" lon="-0.13438864611089229583740234375">
        <ele>2617</ele>
        <time>2022-08-04T11:14:52.000Z</time>
      </trkpt>
      <trkpt lat="42.7819420583546161651611328125" lon="-0.1343386061489582061767578125">
        <ele>2618</ele>
        <time>2022-08-04T11:15:18.000Z</time>
      </trkpt>
      <trkpt lat="42.78176997788250446319580078125" lon="-0.13424280099570751190185546875">
        <ele>2617.199951171875</ele>
        <time>2022-08-04T11:15:36.000Z</time>
      </trkpt>
      <trkpt lat="42.781641148030757904052734375" lon="-0.134139955043792724609375">
        <ele>2617.60009765625</ele>
        <time>2022-08-04T11:16:23.000Z</time>
      </trkpt>
      <trkpt lat="42.78150544501841068267822265625" lon="-0.13397625647485256195068359375">
        <ele>2624</ele>
        <time>2022-08-04T11:16:43.000Z</time>
      </trkpt>
      <trkpt lat="42.78139673173427581787109375" lon="-0.13382571749389171600341796875">
        <ele>2627.199951171875</ele>
        <time>2022-08-04T11:17:11.000Z</time>
      </trkpt>
      <trkpt lat="42.78132271952927112579345703125" lon="-0.13363637030124664306640625">
        <ele>2634</ele>
        <time>2022-08-04T11:17:40.000Z</time>
      </trkpt>
      <trkpt lat="42.781399749219417572021484375" lon="-0.13356889598071575164794921875">
        <ele>2639.39990234375</ele>
        <time>2022-08-04T11:17:57.000Z</time>
      </trkpt>
      <trkpt lat="42.7813167683780193328857421875" lon="-0.13338482938706874847412109375">
        <ele>2643.800048828125</ele>
        <time>2022-08-04T11:18:23.000Z</time>
      </trkpt>
      <trkpt lat="42.78114619664847850799560546875" lon="-0.13330067507922649383544921875">
        <ele>2647.800048828125</ele>
        <time>2022-08-04T11:18:50.000Z</time>
      </trkpt>
      <trkpt lat="42.781317941844463348388671875" lon="-0.1332231424748897552490234375">
        <ele>2651.800048828125</ele>
        <time>2022-08-04T11:19:16.000Z</time>
      </trkpt>
      <trkpt lat="42.7812637947499752044677734375" lon="-0.13306514360010623931884765625">
        <ele>2657.199951171875</ele>
        <time>2022-08-04T11:19:40.000Z</time>
      </trkpt>
      <trkpt lat="42.78110110200941562652587890625" lon="-0.1329624652862548828125">
        <ele>2661</ele>
        <time>2022-08-04T11:20:02.000Z</time>
      </trkpt>
      <trkpt lat="42.78094687499105930328369140625" lon="-0.1328402571380138397216796875">
        <ele>2664.39990234375</ele>
        <time>2022-08-04T11:20:24.000Z</time>
      </trkpt>
      <trkpt lat="42.78076766990125179290771484375" lon="-0.132781080901622772216796875">
        <ele>2664.199951171875</ele>
        <time>2022-08-04T11:20:45.000Z</time>
      </trkpt>
      <trkpt lat="42.7807595394551753997802734375" lon="-0.13278787024319171905517578125">
        <ele>2664</ele>
        <time>2022-08-04T11:20:47.000Z</time>
      </trkpt>
      <trkpt lat="42.78059743344783782958984375" lon="-0.1326848566532135009765625">
        <ele>2665.39990234375</ele>
        <time>2022-08-04T11:21:11.000Z</time>
      </trkpt>
      <trkpt lat="42.78043650090694427490234375" lon="-0.1325797475874423980712890625">
        <ele>2672.199951171875</ele>
        <time>2022-08-04T11:21:31.000Z</time>
      </trkpt>
      <trkpt lat="42.780263833701610565185546875" lon="-0.13249416835606098175048828125">
        <ele>2677.800048828125</ele>
        <time>2022-08-04T11:21:56.000Z</time>
      </trkpt>
      <trkpt lat="42.78008320368826389312744140625" lon="-0.1324318908154964447021484375">
        <ele>2686</ele>
        <time>2022-08-04T11:22:16.000Z</time>
      </trkpt>
      <trkpt lat="42.77993358671665191650390625" lon="-0.13228897936642169952392578125">
        <ele>2690.800048828125</ele>
        <time>2022-08-04T11:22:40.000Z</time>
      </trkpt>
      <trkpt lat="42.7797768451273441314697265625" lon="-0.1321757398545742034912109375">
        <ele>2699.199951171875</ele>
        <time>2022-08-04T11:23:05.000Z</time>
      </trkpt>
      <trkpt lat="42.7795936167240142822265625" lon="-0.132100470364093780517578125">
        <ele>2703.199951171875</ele>
        <time>2022-08-04T11:23:35.000Z</time>
      </trkpt>
      <trkpt lat="42.77962320484220981597900390625" lon="-0.131970383226871490478515625">
        <ele>2708.199951171875</ele>
        <time>2022-08-04T11:24:20.000Z</time>
      </trkpt>
      <trkpt lat="42.77979520149528980255126953125" lon="-0.1319511048495769500732421875">
        <ele>2710.199951171875</ele>
        <time>2022-08-04T11:24:48.000Z</time>
      </trkpt>
      <trkpt lat="42.77974926866590976715087890625" lon="-0.131768546998500823974609375">
        <ele>2718</ele>
        <time>2022-08-04T11:25:26.000Z</time>
      </trkpt>
      <trkpt lat="42.77967483736574649810791015625" lon="-0.131541900336742401123046875">
        <ele>2727.800048828125</ele>
        <time>2022-08-04T11:25:56.000Z</time>
      </trkpt>
      <trkpt lat="42.7795103006064891815185546875" lon="-0.1314247213304042816162109375">
        <ele>2726.39990234375</ele>
        <time>2022-08-04T11:26:24.000Z</time>
      </trkpt>
      <trkpt lat="42.77934442274272441864013671875" lon="-0.13132522813975811004638671875">
        <ele>2724.800048828125</ele>
        <time>2022-08-04T11:26:49.000Z</time>
      </trkpt>
      <trkpt lat="42.7792502939701080322265625" lon="-0.13138775713741779327392578125">
        <ele>2721.39990234375</ele>
        <time>2022-08-04T11:28:32.000Z</time>
      </trkpt>
      <trkpt lat="42.77924291789531707763671875" lon="-0.131392367184162139892578125">
        <ele>2721</ele>
        <time>2022-08-04T11:31:10.000Z</time>
      </trkpt>
      <trkpt lat="42.77920008637011051177978515625" lon="-0.1313358731567859649658203125">
        <ele>2722</ele>
        <time>2022-08-04T11:33:00.000Z</time>
      </trkpt>
      <trkpt lat="42.77907452546060085296630859375" lon="-0.13135137967765331268310546875">
        <ele>2722</ele>
        <time>2022-08-04T11:33:28.000Z</time>
      </trkpt>
      <trkpt lat="42.77895935811102390289306640625" lon="-0.13138289563357830047607421875">
        <ele>2721.60009765625</ele>
        <time>2022-08-04T11:33:39.000Z</time>
      </trkpt>
      <trkpt lat="42.77893471531569957733154296875" lon="-0.1314123161137104034423828125">
        <ele>2721.39990234375</ele>
        <time>2022-08-04T11:33:43.000Z</time>
      </trkpt>
      <trkpt lat="42.77880429290235042572021484375" lon="-0.131388343870639801025390625">
        <ele>2723.800048828125</ele>
        <time>2022-08-04T11:33:59.000Z</time>
      </trkpt>
      <trkpt lat="42.778637073934078216552734375" lon="-0.13131030835211277008056640625">
        <ele>2726.800048828125</ele>
        <time>2022-08-04T11:34:22.000Z</time>
      </trkpt>
      <trkpt lat="42.77853791601955890655517578125" lon="-0.13131885789334774017333984375">
        <ele>2728.199951171875</ele>
        <time>2022-08-04T11:34:38.000Z</time>
      </trkpt>
      <trkpt lat="42.7785242535173892974853515625" lon="-0.13151415623724460601806640625">
        <ele>2727.39990234375</ele>
        <time>2022-08-04T11:35:08.000Z</time>
      </trkpt>
      <trkpt lat="42.77838192880153656005859375" lon="-0.13151281513273715972900390625">
        <ele>2731.39990234375</ele>
        <time>2022-08-04T11:35:36.000Z</time>
      </trkpt>
      <trkpt lat="42.7782463096082210540771484375" lon="-0.13150929473340511322021484375">
        <ele>2738.199951171875</ele>
        <time>2022-08-04T11:36:07.000Z</time>
      </trkpt>
      <trkpt lat="42.77811496518552303314208984375" lon="-0.131576098501682281494140625">
        <ele>2744.800048828125</ele>
        <time>2022-08-04T11:36:41.000Z</time>
      </trkpt>
      <trkpt lat="42.778000719845294952392578125" lon="-0.13160149566829204559326171875">
        <ele>2751</ele>
        <time>2022-08-04T11:37:11.000Z</time>
      </trkpt>
      <trkpt lat="42.777905501425266265869140625" lon="-0.1316731609404087066650390625">
        <ele>2755.199951171875</ele>
        <time>2022-08-04T11:37:44.000Z</time>
      </trkpt>
      <trkpt lat="42.7778322435915470123291015625" lon="-0.13179511763155460357666015625">
        <ele>2758.199951171875</ele>
        <time>2022-08-04T11:38:22.000Z</time>
      </trkpt>
      <trkpt lat="42.777666784822940826416015625" lon="-0.13173392973840236663818359375">
        <ele>2776.199951171875</ele>
        <time>2022-08-04T11:38:50.000Z</time>
      </trkpt>
      <trkpt lat="42.7776619233191013336181640625" lon="-0.1318934373557567596435546875">
        <ele>2774</ele>
        <time>2022-08-04T11:39:26.000Z</time>
      </trkpt>
      <trkpt lat="42.77753175236284732818603515625" lon="-0.131910033524036407470703125">
        <ele>2788.800048828125</ele>
        <time>2022-08-04T11:39:51.000Z</time>
      </trkpt>
      <trkpt lat="42.77743033133447170257568359375" lon="-0.13195336796343326568603515625">
        <ele>2801</ele>
        <time>2022-08-04T11:40:31.000Z</time>
      </trkpt>
      <trkpt lat="42.777336873114109039306640625" lon="-0.13204908929765224456787109375">
        <ele>2812</ele>
        <time>2022-08-04T11:41:16.000Z</time>
      </trkpt>
      <trkpt lat="42.77724224142730236053466796875" lon="-0.13213659636676311492919921875">
        <ele>2820.39990234375</ele>
        <time>2022-08-04T11:41:50.000Z</time>
      </trkpt>
      <trkpt lat="42.777133025228977203369140625" lon="-0.13224656693637371063232421875">
        <ele>2826</ele>
        <time>2022-08-04T11:42:18.000Z</time>
      </trkpt>
      <trkpt lat="42.77700503356754779815673828125" lon="-0.1322344131767749786376953125">
        <ele>2834.199951171875</ele>
        <time>2022-08-04T11:42:53.000Z</time>
      </trkpt>
      <trkpt lat="42.77688550762832164764404296875" lon="-0.1322964392602443695068359375">
        <ele>2839.39990234375</ele>
        <time>2022-08-04T11:43:34.000Z</time>
      </trkpt>
      <trkpt lat="42.77676246128976345062255859375" lon="-0.1324047334492206573486328125">
        <ele>2844</ele>
        <time>2022-08-04T11:44:23.000Z</time>
      </trkpt>
      <trkpt lat="42.7766369841992855072021484375" lon="-0.13237229548394680023193359375">
        <ele>2853</ele>
        <time>2022-08-04T11:44:57.000Z</time>
      </trkpt>
      <trkpt lat="42.77652340941131114959716796875" lon="-0.13237363658845424652099609375">
        <ele>2861.60009765625</ele>
        <time>2022-08-04T11:45:35.000Z</time>
      </trkpt>
      <trkpt lat="42.776414863765239715576171875" lon="-0.13243071734905242919921875">
        <ele>2871</ele>
        <time>2022-08-04T11:46:13.000Z</time>
      </trkpt>
      <trkpt lat="42.77627195231616497039794921875" lon="-0.132363997399806976318359375">
        <ele>2880.800048828125</ele>
        <time>2022-08-04T11:46:54.000Z</time>
      </trkpt>
      <trkpt lat="42.77616281993687152862548828125" lon="-0.13238268904387950897216796875">
        <ele>2889</ele>
        <time>2022-08-04T11:47:29.000Z</time>
      </trkpt>
      <trkpt lat="42.77604916132986545562744140625" lon="-0.13241705484688282012939453125">
        <ele>2897.800048828125</ele>
        <time>2022-08-04T11:48:04.000Z</time>
      </trkpt>
      <trkpt lat="42.7759188227355480194091796875" lon="-0.132297612726688385009765625">
        <ele>2901.199951171875</ele>
        <time>2022-08-04T11:48:58.000Z</time>
      </trkpt>
      <trkpt lat="42.775787226855754852294921875" lon="-0.13234832324087619781494140625">
        <ele>2907</ele>
        <time>2022-08-04T11:49:34.000Z</time>
      </trkpt>
      <trkpt lat="42.77566895820200443267822265625" lon="-0.1323764026165008544921875">
        <ele>2911.199951171875</ele>
        <time>2022-08-04T11:50:09.000Z</time>
      </trkpt>
      <trkpt lat="42.77562922798097133636474609375" lon="-0.13258134014904499053955078125">
        <ele>2920.199951171875</ele>
        <time>2022-08-04T11:50:49.000Z</time>
      </trkpt>
      <trkpt lat="42.77554272674024105072021484375" lon="-0.132654346525669097900390625">
        <ele>2920</ele>
        <time>2022-08-04T11:51:20.000Z</time>
      </trkpt>
      <trkpt lat="42.77557843364775180816650390625" lon="-0.13288208283483982086181640625">
        <ele>2934.800048828125</ele>
        <time>2022-08-04T11:51:50.000Z</time>
      </trkpt>
      <trkpt lat="42.77550852857530117034912109375" lon="-0.1328979246318340301513671875">
        <ele>2932.60009765625</ele>
        <time>2022-08-04T11:52:25.000Z</time>
      </trkpt>
      <trkpt lat="42.77540224604308605194091796875" lon="-0.13288191519677639007568359375">
        <ele>2926.800048828125</ele>
        <time>2022-08-04T11:52:55.000Z</time>
      </trkpt>
      <trkpt lat="42.775405347347259521484375" lon="-0.133102275431156158447265625">
        <ele>2941</ele>
        <time>2022-08-04T11:53:38.000Z</time>
      </trkpt>
      <trkpt lat="42.7752965502440929412841796875" lon="-0.1332013495266437530517578125">
        <ele>2941.800048828125</ele>
        <time>2022-08-04T11:54:28.000Z</time>
      </trkpt>
      <trkpt lat="42.77520929463207721710205078125" lon="-0.1332838274538516998291015625">
        <ele>2941</ele>
        <time>2022-08-04T11:55:14.000Z</time>
      </trkpt>
      <trkpt lat="42.775121368467807769775390625" lon="-0.13340075500309467315673828125">
        <ele>2941</ele>
        <time>2022-08-04T11:56:02.000Z</time>
      </trkpt>
      <trkpt lat="42.77518465183675289154052734375" lon="-0.133566297590732574462890625">
        <ele>2949</ele>
        <time>2022-08-04T11:57:04.000Z</time>
      </trkpt>
      <trkpt lat="42.77520862407982349395751953125" lon="-0.13361516408622264862060546875">
        <ele>2951.199951171875</ele>
        <time>2022-08-04T11:57:13.000Z</time>
      </trkpt>
      <trkpt lat="42.77526059187948703765869140625" lon="-0.13379956595599651336669921875">
        <ele>2958.39990234375</ele>
        <time>2022-08-04T11:58:00.000Z</time>
      </trkpt>
      <trkpt lat="42.7752108871936798095703125" lon="-0.13390400446951389312744140625">
        <ele>2963</ele>
        <time>2022-08-04T11:58:50.000Z</time>
      </trkpt>
      <trkpt lat="42.775207869708538055419921875" lon="-0.134072564542293548583984375">
        <ele>2972</ele>
        <time>2022-08-04T11:59:38.000Z</time>
      </trkpt>
      <trkpt lat="42.775233350694179534912109375" lon="-0.1342946849763393402099609375">
        <ele>2987.39990234375</ele>
        <time>2022-08-04T12:00:28.000Z</time>
      </trkpt>
      <trkpt lat="42.77520460076630115509033203125" lon="-0.13446290977299213409423828125">
        <ele>2994.39990234375</ele>
        <time>2022-08-04T12:01:22.000Z</time>
      </trkpt>
      <trkpt lat="42.77513084001839160919189453125" lon="-0.13455779291689395904541015625">
        <ele>2998.39990234375</ele>
        <time>2022-08-04T12:02:00.000Z</time>
      </trkpt>
      <trkpt lat="42.77497912757098674774169921875" lon="-0.1346148736774921417236328125">
        <ele>3000</ele>
        <time>2022-08-04T12:02:43.000Z</time>
      </trkpt>
      <trkpt lat="42.77490855194628238677978515625" lon="-0.13475619256496429443359375">
        <ele>3000.199951171875</ele>
        <time>2022-08-04T12:03:22.000Z</time>
      </trkpt>
      <trkpt lat="42.77483026497066020965576171875" lon="-0.1349206455051898956298828125">
        <ele>2999.199951171875</ele>
        <time>2022-08-04T12:04:19.000Z</time>
      </trkpt>
      <trkpt lat="42.7748378925025463104248046875" lon="-0.13491821475327014923095703125">
        <ele>2999</ele>
        <time>2022-08-04T12:06:15.000Z</time>
      </trkpt>
      <trkpt lat="42.77484007179737091064453125" lon="-0.13491167686879634857177734375">
        <ele>2999.199951171875</ele>
        <time>2022-08-04T12:07:42.000Z</time>
      </trkpt>
      <trkpt lat="42.77485893107950687408447265625" lon="-0.13489122502505779266357421875">
        <ele>2999</ele>
        <time>2022-08-04T12:09:32.000Z</time>
      </trkpt>
      <trkpt lat="42.774872593581676483154296875" lon="-0.13487379066646099090576171875">
        <ele>2999.199951171875</ele>
        <time>2022-08-04T12:11:42.000Z</time>
      </trkpt>
      <trkpt lat="42.77494358830153942108154296875" lon="-0.13476968742907047271728515625">
        <ele>3000.199951171875</ele>
        <time>2022-08-04T12:12:23.000Z</time>
      </trkpt>
      <trkpt lat="42.774983905255794525146484375" lon="-0.13464731164276599884033203125">
        <ele>3000.39990234375</ele>
        <time>2022-08-04T12:13:01.000Z</time>
      </trkpt>
      <trkpt lat="42.7751305885612964630126953125" lon="-0.1346058212220668792724609375">
        <ele>2997.60009765625</ele>
        <time>2022-08-04T12:13:44.000Z</time>
      </trkpt>
      <trkpt lat="42.77525137178599834442138671875" lon="-0.13461763970553874969482421875">
        <ele>2989.199951171875</ele>
        <time>2022-08-04T12:14:21.000Z</time>
      </trkpt>
      <trkpt lat="42.77539352886378765106201171875" lon="-0.1345327310264110565185546875">
        <ele>2982</ele>
        <time>2022-08-04T12:14:56.000Z</time>
      </trkpt>
      <trkpt lat="42.77544063515961170196533203125" lon="-0.1343771629035472869873046875">
        <ele>2983.199951171875</ele>
        <time>2022-08-04T12:15:20.000Z</time>
      </trkpt>
      <trkpt lat="42.7754303254187107086181640625" lon="-0.1343094371259212493896484375">
        <ele>2984.60009765625</ele>
        <time>2022-08-04T12:15:27.000Z</time>
      </trkpt>
      <trkpt lat="42.77544868178665637969970703125" lon="-0.1341555453836917877197265625">
        <ele>2978.800048828125</ele>
        <time>2022-08-04T12:15:59.000Z</time>
      </trkpt>
      <trkpt lat="42.77557122521102428436279296875" lon="-0.13410030864179134368896484375">
        <ele>2975.199951171875</ele>
        <time>2022-08-04T12:16:24.000Z</time>
      </trkpt>
      <trkpt lat="42.77560181915760040283203125" lon="-0.1340770907700061798095703125">
        <ele>2973.800048828125</ele>
        <time>2022-08-04T12:16:28.000Z</time>
      </trkpt>
      <trkpt lat="42.77567532844841480255126953125" lon="-0.1339615881443023681640625">
        <ele>2967.39990234375</ele>
        <time>2022-08-04T12:17:07.000Z</time>
      </trkpt>
      <trkpt lat="42.77568438090384006500244140625" lon="-0.13384516350924968719482421875">
        <ele>2961.800048828125</ele>
        <time>2022-08-04T12:17:24.000Z</time>
      </trkpt>
      <trkpt lat="42.77568823657929897308349609375" lon="-0.1337820477783679962158203125">
        <ele>2959</ele>
        <time>2022-08-04T12:17:29.000Z</time>
      </trkpt>
      <trkpt lat="42.7756502665579319000244140625" lon="-0.133719854056835174560546875">
        <ele>2959</ele>
        <time>2022-08-04T12:17:37.000Z</time>
      </trkpt>
      <trkpt lat="42.7756546251475811004638671875" lon="-0.1336036808788776397705078125">
        <ele>2957.800048828125</ele>
        <time>2022-08-04T12:18:07.000Z</time>
      </trkpt>
      <trkpt lat="42.775716818869113922119140625" lon="-0.1334615238010883331298828125">
        <ele>2956.199951171875</ele>
        <time>2022-08-04T12:18:40.000Z</time>
      </trkpt>
      <trkpt lat="42.775783874094486236572265625" lon="-0.13336270116269588470458984375">
        <ele>2955.800048828125</ele>
        <time>2022-08-04T12:19:17.000Z</time>
      </trkpt>
      <trkpt lat="42.77578798122704029083251953125" lon="-0.1332231424748897552490234375">
        <ele>2953.39990234375</ele>
        <time>2022-08-04T12:20:05.000Z</time>
      </trkpt>
      <trkpt lat="42.77572997845709323883056640625" lon="-0.1330179534852504730224609375">
        <ele>2941.39990234375</ele>
        <time>2022-08-04T12:20:52.000Z</time>
      </trkpt>
      <trkpt lat="42.77564247138798236846923828125" lon="-0.1328672468662261962890625">
        <ele>2936.199951171875</ele>
        <time>2022-08-04T12:21:12.000Z</time>
      </trkpt>
      <trkpt lat="42.77571924962103366851806640625" lon="-0.13287386856973171234130859375">
        <ele>2934.60009765625</ele>
        <time>2022-08-04T12:21:22.000Z</time>
      </trkpt>
      <trkpt lat="42.77571422047913074493408203125" lon="-0.1327031292021274566650390625">
        <ele>2923.800048828125</ele>
        <time>2022-08-04T12:21:37.000Z</time>
      </trkpt>
      <trkpt lat="42.77571472339332103729248046875" lon="-0.13264604844152927398681640625">
        <ele>2920.800048828125</ele>
        <time>2022-08-04T12:21:41.000Z</time>
      </trkpt>
      <trkpt lat="42.77572293765842914581298828125" lon="-0.13241370208561420440673828125">
        <ele>2911.39990234375</ele>
        <time>2022-08-04T12:21:55.000Z</time>
      </trkpt>
      <trkpt lat="42.7757381089031696319580078125" lon="-0.1323292963206768035888671875">
        <ele>2907.39990234375</ele>
        <time>2022-08-04T12:22:00.000Z</time>
      </trkpt>
      <trkpt lat="42.77574137784540653228759765625" lon="-0.13229903765022754669189453125">
        <ele>2906</ele>
        <time>2022-08-04T12:22:03.000Z</time>
      </trkpt>
      <trkpt lat="42.77573534287512302398681640625" lon="-0.1322972774505615234375">
        <ele>2906</ele>
        <time>2022-08-04T12:22:05.000Z</time>
      </trkpt>
      <trkpt lat="42.77586140669882297515869140625" lon="-0.13240330852568149566650390625">
        <ele>2907.39990234375</ele>
        <time>2022-08-04T12:22:21.000Z</time>
      </trkpt>
      <trkpt lat="42.77597975917160511016845703125" lon="-0.13236810453236103057861328125">
        <ele>2900.39990234375</ele>
        <time>2022-08-04T12:22:40.000Z</time>
      </trkpt>
      <trkpt lat="42.7760857902467250823974609375" lon="-0.13247053138911724090576171875">
        <ele>2897.39990234375</ele>
        <time>2022-08-04T12:22:50.000Z</time>
      </trkpt>
      <trkpt lat="42.77616332285106182098388671875" lon="-0.13245125301182270050048828125">
        <ele>2891.39990234375</ele>
        <time>2022-08-04T12:23:00.000Z</time>
      </trkpt>
      <trkpt lat="42.7761857025325298309326171875" lon="-0.13241772539913654327392578125">
        <ele>2888.800048828125</ele>
        <time>2022-08-04T12:23:03.000Z</time>
      </trkpt>
      <trkpt lat="42.77619198895990848541259765625" lon="-0.132310353219509124755859375">
        <ele>2884.60009765625</ele>
        <time>2022-08-04T12:23:12.000Z</time>
      </trkpt>
      <trkpt lat="42.77630464173853397369384765625" lon="-0.13239182531833648681640625">
        <ele>2878.60009765625</ele>
        <time>2022-08-04T12:23:27.000Z</time>
      </trkpt>
      <trkpt lat="42.7763999439775943756103515625" lon="-0.13233818113803863525390625">
        <ele>2870.39990234375</ele>
        <time>2022-08-04T12:23:46.000Z</time>
      </trkpt>
      <trkpt lat="42.7764234133064746856689453125" lon="-0.13233952224254608154296875">
        <ele>2868.60009765625</ele>
        <time>2022-08-04T12:23:49.000Z</time>
      </trkpt>
      <trkpt lat="42.776551656424999237060546875" lon="-0.132410936057567596435546875">
        <ele>2860</ele>
        <time>2022-08-04T12:24:10.000Z</time>
      </trkpt>
      <trkpt lat="42.77667864225804805755615234375" lon="-0.132388137280941009521484375">
        <ele>2850</ele>
        <time>2022-08-04T12:24:34.000Z</time>
      </trkpt>
      <trkpt lat="42.77672591619193553924560546875" lon="-0.132386796176433563232421875">
        <ele>2846.39990234375</ele>
        <time>2022-08-04T12:24:40.000Z</time>
      </trkpt>
      <trkpt lat="42.7768629603087902069091796875" lon="-0.1323879696428775787353515625">
        <ele>2839.199951171875</ele>
        <time>2022-08-04T12:25:19.000Z</time>
      </trkpt>
      <trkpt lat="42.77700059115886688232421875" lon="-0.13232451863586902618408203125">
        <ele>2833.199951171875</ele>
        <time>2022-08-04T12:25:52.000Z</time>
      </trkpt>
      <trkpt lat="42.7771125733852386474609375" lon="-0.1322545297443866729736328125">
        <ele>2827.199951171875</ele>
        <time>2022-08-04T12:26:18.000Z</time>
      </trkpt>
      <trkpt lat="42.77714048512279987335205078125" lon="-0.13225771486759185791015625">
        <ele>2825.39990234375</ele>
        <time>2022-08-04T12:26:22.000Z</time>
      </trkpt>
      <trkpt lat="42.77720443904399871826171875" lon="-0.1322404481470584869384765625">
        <ele>2821.60009765625</ele>
        <time>2022-08-04T12:26:31.000Z</time>
      </trkpt>
      <trkpt lat="42.7772076241672039031982421875" lon="-0.1321894861757755279541015625">
        <ele>2822</ele>
        <time>2022-08-04T12:26:35.000Z</time>
      </trkpt>
      <trkpt lat="42.77721508406102657318115234375" lon="-0.13217716477811336517333984375">
        <ele>2821.60009765625</ele>
        <time>2022-08-04T12:26:37.000Z</time>
      </trkpt>
      <trkpt lat="42.777379453182220458984375" lon="-0.13213726691901683807373046875">
        <ele>2805.60009765625</ele>
        <time>2022-08-04T12:27:06.000Z</time>
      </trkpt>
      <trkpt lat="42.77745195664465427398681640625" lon="-0.1320526935160160064697265625">
        <ele>2797</ele>
        <time>2022-08-04T12:27:40.000Z</time>
      </trkpt>
      <trkpt lat="42.77744717895984649658203125" lon="-0.13184591196477413177490234375">
        <ele>2797.60009765625</ele>
        <time>2022-08-04T12:28:03.000Z</time>
      </trkpt>
      <trkpt lat="42.7774802036583423614501953125" lon="-0.13174247927963733673095703125">
        <ele>2793.39990234375</ele>
        <time>2022-08-04T12:28:14.000Z</time>
      </trkpt>
      <trkpt lat="42.777558825910091400146484375" lon="-0.1316986419260501861572265625">
        <ele>2784.800048828125</ele>
        <time>2022-08-04T12:28:26.000Z</time>
      </trkpt>
      <trkpt lat="42.7775707282125949859619140625" lon="-0.131688080728054046630859375">
        <ele>2783.60009765625</ele>
        <time>2022-08-04T12:28:27.000Z</time>
      </trkpt>
      <trkpt lat="42.77772000990808010101318359375" lon="-0.1316812075674533843994140625">
        <ele>2771.60009765625</ele>
        <time>2022-08-04T12:28:52.000Z</time>
      </trkpt>
      <trkpt lat="42.77775806374847888946533203125" lon="-0.13165949843823909759521484375">
        <ele>2768.39990234375</ele>
        <time>2022-08-04T12:28:57.000Z</time>
      </trkpt>
      <trkpt lat="42.77782293967902660369873046875" lon="-0.13167005963623523712158203125">
        <ele>2761.39990234375</ele>
        <time>2022-08-04T12:29:07.000Z</time>
      </trkpt>
      <trkpt lat="42.77793341316282749176025390625" lon="-0.1316885836422443389892578125">
        <ele>2753.199951171875</ele>
        <time>2022-08-04T12:29:22.000Z</time>
      </trkpt>
      <trkpt lat="42.77801823802292346954345703125" lon="-0.1317087002098560333251953125">
        <ele>2747.800048828125</ele>
        <time>2022-08-04T12:29:33.000Z</time>
      </trkpt>
      <trkpt lat="42.778067104518413543701171875" lon="-0.13154692947864532470703125">
        <ele>2747.800048828125</ele>
        <time>2022-08-04T12:29:50.000Z</time>
      </trkpt>
      <trkpt lat="42.77810859493911266326904296875" lon="-0.13154936023056507110595703125">
        <ele>2745.39990234375</ele>
        <time>2022-08-04T12:29:54.000Z</time>
      </trkpt>
      <trkpt lat="42.77815620414912700653076171875" lon="-0.13156168162822723388671875">
        <ele>2742.800048828125</ele>
        <time>2022-08-04T12:29:59.000Z</time>
      </trkpt>
      <trkpt lat="42.778213284909725189208984375" lon="-0.131505690515041351318359375">
        <ele>2740</ele>
        <time>2022-08-04T12:30:10.000Z</time>
      </trkpt>
      <trkpt lat="42.7783785760402679443359375" lon="-0.13159026391804218292236328125">
        <ele>2731</ele>
        <time>2022-08-04T12:30:32.000Z</time>
      </trkpt>
      <trkpt lat="42.7784270234405994415283203125" lon="-0.13154835440218448638916015625">
        <ele>2729.800048828125</ele>
        <time>2022-08-04T12:30:43.000Z</time>
      </trkpt>
      <trkpt lat="42.7784642390906810760498046875" lon="-0.13154433108866214752197265625">
        <ele>2728.800048828125</ele>
        <time>2022-08-04T12:30:49.000Z</time>
      </trkpt>
      <trkpt lat="42.77855099178850650787353515625" lon="-0.1315538026392459869384765625">
        <ele>2726.199951171875</ele>
        <time>2022-08-04T12:31:02.000Z</time>
      </trkpt>
      <trkpt lat="42.77862064540386199951171875" lon="-0.13145933859050273895263671875">
        <ele>2725.39990234375</ele>
        <time>2022-08-04T12:31:19.000Z</time>
      </trkpt>
      <trkpt lat="42.7787297777831554412841796875" lon="-0.1314388029277324676513671875">
        <ele>2723.60009765625</ele>
        <time>2022-08-04T12:31:36.000Z</time>
      </trkpt>
      <trkpt lat="42.7788801491260528564453125" lon="-0.13144777156412601470947265625">
        <ele>2721.39990234375</ele>
        <time>2022-08-04T12:32:00.000Z</time>
      </trkpt>
      <trkpt lat="42.77895382605493068695068359375" lon="-0.1314468495547771453857421875">
        <ele>2720.199951171875</ele>
        <time>2022-08-04T12:32:06.000Z</time>
      </trkpt>
      <trkpt lat="42.77897226624190807342529296875" lon="-0.13144358061254024505615234375">
        <ele>2720</ele>
        <time>2022-08-04T12:32:08.000Z</time>
      </trkpt>
      <trkpt lat="42.7791371382772922515869140625" lon="-0.13137619011104106903076171875">
        <ele>2721.199951171875</ele>
        <time>2022-08-04T12:32:25.000Z</time>
      </trkpt>
      <trkpt lat="42.7793004177510738372802734375" lon="-0.1313801296055316925048828125">
        <ele>2722.800048828125</ele>
        <time>2022-08-04T12:33:19.000Z</time>
      </trkpt>
      <trkpt lat="42.779453806579113006591796875" lon="-0.1315046846866607666015625">
        <ele>2723.199951171875</ele>
        <time>2022-08-04T12:33:37.000Z</time>
      </trkpt>
      <trkpt lat="42.77949647046625614166259765625" lon="-0.1315444149076938629150390625">
        <ele>2723</ele>
        <time>2022-08-04T12:33:43.000Z</time>
      </trkpt>
      <trkpt lat="42.77960945852100849151611328125" lon="-0.13166184537112712860107421875">
        <ele>2720.60009765625</ele>
        <time>2022-08-04T12:33:57.000Z</time>
      </trkpt>
      <trkpt lat="42.77963988482952117919921875" lon="-0.13173711486160755157470703125">
        <ele>2717.800048828125</ele>
        <time>2022-08-04T12:34:03.000Z</time>
      </trkpt>
      <trkpt lat="42.77977022342383861541748046875" lon="-0.13190357945859432220458984375">
        <ele>2712.199951171875</ele>
        <time>2022-08-04T12:34:21.000Z</time>
      </trkpt>
      <trkpt lat="42.7798043377697467803955078125" lon="-0.13194833882153034210205078125">
        <ele>2710.39990234375</ele>
        <time>2022-08-04T12:34:26.000Z</time>
      </trkpt>
      <trkpt lat="42.7796853147447109222412109375" lon="-0.13199594803154468536376953125">
        <ele>2708</ele>
        <time>2022-08-04T12:34:56.000Z</time>
      </trkpt>
      <trkpt lat="42.7795300818979740142822265625" lon="-0.13206769712269306182861328125">
        <ele>2703.60009765625</ele>
        <time>2022-08-04T12:35:16.000Z</time>
      </trkpt>
      <trkpt lat="42.7795840613543987274169921875" lon="-0.13218663632869720458984375">
        <ele>2697.60009765625</ele>
        <time>2022-08-04T12:35:28.000Z</time>
      </trkpt>
      <trkpt lat="42.7797258831560611724853515625" lon="-0.13233692385256290435791015625">
        <ele>2688.39990234375</ele>
        <time>2022-08-04T12:35:46.000Z</time>
      </trkpt>
      <trkpt lat="42.7798861451447010040283203125" lon="-0.13247631490230560302734375">
        <ele>2680.800048828125</ele>
        <time>2022-08-04T12:36:05.000Z</time>
      </trkpt>
      <trkpt lat="42.78004489839076995849609375" lon="-0.13259089551866054534912109375">
        <ele>2676.199951171875</ele>
        <time>2022-08-04T12:36:21.000Z</time>
      </trkpt>
      <trkpt lat="42.78022334910929203033447265625" lon="-0.13266733847558498382568359375">
        <ele>2670.800048828125</ele>
        <time>2022-08-04T12:36:35.000Z</time>
      </trkpt>
      <trkpt lat="42.7803478203713893890380859375" lon="-0.1327014528214931488037109375">
        <ele>2668.39990234375</ele>
        <time>2022-08-04T12:36:47.000Z</time>
      </trkpt>
      <trkpt lat="42.78051839210093021392822265625" lon="-0.1327795721590518951416015625">
        <ele>2664.39990234375</ele>
        <time>2022-08-04T12:37:08.000Z</time>
      </trkpt>
      <trkpt lat="42.780688963830471038818359375" lon="-0.13285048305988311767578125">
        <ele>2661.800048828125</ele>
        <time>2022-08-04T12:37:20.000Z</time>
      </trkpt>
      <trkpt lat="42.78070447035133838653564453125" lon="-0.1328593678772449493408203125">
        <ele>2661.800048828125</ele>
        <time>2022-08-04T12:37:21.000Z</time>
      </trkpt>
      <trkpt lat="42.78077739290893077850341796875" lon="-0.13289012946188449859619140625">
        <ele>2662</ele>
        <time>2022-08-04T12:37:25.000Z</time>
      </trkpt>
      <trkpt lat="42.7809412591159343719482421875" lon="-0.1329850964248180389404296875">
        <ele>2661</ele>
        <time>2022-08-04T12:37:34.000Z</time>
      </trkpt>
      <trkpt lat="42.78111535124480724334716796875" lon="-0.1331005990505218505859375">
        <ele>2656.800048828125</ele>
        <time>2022-08-04T12:37:43.000Z</time>
      </trkpt>
      <trkpt lat="42.78121241368353366851806640625" lon="-0.13316296041011810302734375">
        <ele>2654.199951171875</ele>
        <time>2022-08-04T12:37:50.000Z</time>
      </trkpt>
      <trkpt lat="42.78121727518737316131591796875" lon="-0.13316287659108638763427734375">
        <ele>2654.199951171875</ele>
        <time>2022-08-04T12:37:52.000Z</time>
      </trkpt>
      <trkpt lat="42.781343758106231689453125" lon="-0.13325138948857784271240234375">
        <ele>2650.39990234375</ele>
        <time>2022-08-04T12:38:06.000Z</time>
      </trkpt>
      <trkpt lat="42.7811734378337860107421875" lon="-0.13331609778106212615966796875">
        <ele>2647.39990234375</ele>
        <time>2022-08-04T12:38:24.000Z</time>
      </trkpt>
      <trkpt lat="42.781134545803070068359375" lon="-0.13333286158740520477294921875">
        <ele>2646</ele>
        <time>2022-08-04T12:38:28.000Z</time>
      </trkpt>
      <trkpt lat="42.78119011782109737396240234375" lon="-0.13337225653231143951416015625">
        <ele>2645</ele>
        <time>2022-08-04T12:39:12.000Z</time>
      </trkpt>
      <trkpt lat="42.78133177198469638824462890625" lon="-0.1335077919065952301025390625">
        <ele>2641.199951171875</ele>
        <time>2022-08-04T12:39:31.000Z</time>
      </trkpt>
      <trkpt lat="42.781385667622089385986328125" lon="-0.13356453739106655120849609375">
        <ele>2639.199951171875</ele>
        <time>2022-08-04T12:39:38.000Z</time>
      </trkpt>
      <trkpt lat="42.78129807673394680023193359375" lon="-0.1337253861129283905029296875">
        <ele>2629.199951171875</ele>
        <time>2022-08-04T12:39:58.000Z</time>
      </trkpt>
      <trkpt lat="42.7813526429235935211181640625" lon="-0.13377693481743335723876953125">
        <ele>2628.800048828125</ele>
        <time>2022-08-04T12:40:04.000Z</time>
      </trkpt>
      <trkpt lat="42.78135792352259159088134765625" lon="-0.13380543328821659088134765625">
        <ele>2627.199951171875</ele>
        <time>2022-08-04T12:40:07.000Z</time>
      </trkpt>
      <trkpt lat="42.78145515359938144683837890625" lon="-0.1339704729616641998291015625">
        <ele>2623.39990234375</ele>
        <time>2022-08-04T12:40:25.000Z</time>
      </trkpt>
      <trkpt lat="42.781549282371997833251953125" lon="-0.13415127061307430267333984375">
        <ele>2615.60009765625</ele>
        <time>2022-08-04T12:40:44.000Z</time>
      </trkpt>
      <trkpt lat="42.78161323629319667816162109375" lon="-0.13420156203210353851318359375">
        <ele>2613.39990234375</ele>
        <time>2022-08-04T12:40:51.000Z</time>
      </trkpt>
      <trkpt lat="42.78172002173960208892822265625" lon="-0.13432142324745655059814453125">
        <ele>2612.800048828125</ele>
        <time>2022-08-04T12:41:02.000Z</time>
      </trkpt>
      <trkpt lat="42.781775258481502532958984375" lon="-0.1343308947980403900146484375">
        <ele>2614</ele>
        <time>2022-08-04T12:41:07.000Z</time>
      </trkpt>
      <trkpt lat="42.78184524737298488616943359375" lon="-0.1343882270157337188720703125">
        <ele>2613</ele>
        <time>2022-08-04T12:41:15.000Z</time>
      </trkpt>
      <trkpt lat="42.78190945275127887725830078125" lon="-0.134438015520572662353515625">
        <ele>2612</ele>
        <time>2022-08-04T12:41:22.000Z</time>
      </trkpt>
      <trkpt lat="42.7820912562310695648193359375" lon="-0.13444027863442897796630859375">
        <ele>2614.199951171875</ele>
        <time>2022-08-04T12:41:43.000Z</time>
      </trkpt>
      <trkpt lat="42.78218530118465423583984375" lon="-0.1344432123005390167236328125">
        <ele>2613.39990234375</ele>
        <time>2022-08-04T12:41:51.000Z</time>
      </trkpt>
      <trkpt lat="42.7822179906070232391357421875" lon="-0.1344653405249118804931640625">
        <ele>2612.800048828125</ele>
        <time>2022-08-04T12:41:54.000Z</time>
      </trkpt>
      <trkpt lat="42.7823407016694545745849609375" lon="-0.13448336161673069000244140625">
        <ele>2612</ele>
        <time>2022-08-04T12:42:07.000Z</time>
      </trkpt>
      <trkpt lat="42.78244757093489170074462890625" lon="-0.13442083261907100677490234375">
        <ele>2612</ele>
        <time>2022-08-04T12:42:16.000Z</time>
      </trkpt>
      <trkpt lat="42.7824945934116840362548828125" lon="-0.13443835079669952392578125">
        <ele>2610.60009765625</ele>
        <time>2022-08-04T12:42:21.000Z</time>
      </trkpt>
      <trkpt lat="42.7825599722564220428466796875" lon="-0.134456455707550048828125">
        <ele>2610</ele>
        <time>2022-08-04T12:42:27.000Z</time>
      </trkpt>
      <trkpt lat="42.78260900638997554779052734375" lon="-0.1344282925128936767578125">
        <ele>2610</ele>
        <time>2022-08-04T12:42:32.000Z</time>
      </trkpt>
      <trkpt lat="42.78275853954255580902099609375" lon="-0.134393759071826934814453125">
        <ele>2608.39990234375</ele>
        <time>2022-08-04T12:42:46.000Z</time>
      </trkpt>
      <trkpt lat="42.7828620560467243194580078125" lon="-0.13434623368084430694580078125">
        <ele>2607.800048828125</ele>
        <time>2022-08-04T12:42:55.000Z</time>
      </trkpt>
      <trkpt lat="42.7829136885702610015869140625" lon="-0.13434003107249736785888671875">
        <ele>2606.800048828125</ele>
        <time>2022-08-04T12:42:59.000Z</time>
      </trkpt>
      <trkpt lat="42.78292466886341571807861328125" lon="-0.1343397796154022216796875">
        <ele>2606.60009765625</ele>
        <time>2022-08-04T12:43:00.000Z</time>
      </trkpt>
      <trkpt lat="42.78294579125940799713134765625" lon="-0.13434715569019317626953125">
        <ele>2606</ele>
        <time>2022-08-04T12:43:02.000Z</time>
      </trkpt>
      <trkpt lat="42.78310622088611125946044921875" lon="-0.13441689312458038330078125">
        <ele>2600.39990234375</ele>
        <time>2022-08-04T12:43:19.000Z</time>
      </trkpt>
      <trkpt lat="42.7831584401428699493408203125" lon="-0.13443675823509693145751953125">
        <ele>2598.39990234375</ele>
        <time>2022-08-04T12:43:24.000Z</time>
      </trkpt>
      <trkpt lat="42.7833032794296741485595703125" lon="-0.1344147138297557830810546875">
        <ele>2595.39990234375</ele>
        <time>2022-08-04T12:43:53.000Z</time>
      </trkpt>
      <trkpt lat="42.78345189057290554046630859375" lon="-0.13427071273326873779296875">
        <ele>2596.39990234375</ele>
        <time>2022-08-04T12:44:13.000Z</time>
      </trkpt>
      <trkpt lat="42.7836062014102935791015625" lon="-0.13436132110655307769775390625">
        <ele>2592.39990234375</ele>
        <time>2022-08-04T12:44:30.000Z</time>
      </trkpt>
      <trkpt lat="42.78363176621496677398681640625" lon="-0.13447296805679798126220703125">
        <ele>2588.800048828125</ele>
        <time>2022-08-04T12:44:38.000Z</time>
      </trkpt>
      <trkpt lat="42.78369178064167499542236328125" lon="-0.13456366024911403656005859375">
        <ele>2585.60009765625</ele>
        <time>2022-08-04T12:44:47.000Z</time>
      </trkpt>
      <trkpt lat="42.78370703570544719696044921875" lon="-0.13456651009619235992431640625">
        <ele>2585.39990234375</ele>
        <time>2022-08-04T12:44:49.000Z</time>
      </trkpt>
      <trkpt lat="42.78375648893415927886962890625" lon="-0.134559385478496551513671875">
        <ele>2585</ele>
        <time>2022-08-04T12:44:54.000Z</time>
      </trkpt>
      <trkpt lat="42.78378984890878200531005859375" lon="-0.13454471714794635772705078125">
        <ele>2584.800048828125</ele>
        <time>2022-08-04T12:44:58.000Z</time>
      </trkpt>
      <trkpt lat="42.783964611589908599853515625" lon="-0.134499035775661468505859375">
        <ele>2582.800048828125</ele>
        <time>2022-08-04T12:45:17.000Z</time>
      </trkpt>
      <trkpt lat="42.78415144421160221099853515625" lon="-0.134509094059467315673828125">
        <ele>2578</ele>
        <time>2022-08-04T12:45:34.000Z</time>
      </trkpt>
      <trkpt lat="42.78434179723262786865234375" lon="-0.134527198970317840576171875">
        <ele>2570.60009765625</ele>
        <time>2022-08-04T12:45:48.000Z</time>
      </trkpt>
      <trkpt lat="42.78452846221625804901123046875" lon="-0.134510099887847900390625">
        <ele>2565.800048828125</ele>
        <time>2022-08-04T12:46:02.000Z</time>
      </trkpt>
      <trkpt lat="42.78470565564930438995361328125" lon="-0.1344536058604717254638671875">
        <ele>2562.199951171875</ele>
        <time>2022-08-04T12:46:16.000Z</time>
      </trkpt>
      <trkpt lat="42.78480640612542629241943359375" lon="-0.13430281542241573333740234375">
        <ele>2564</ele>
        <time>2022-08-04T12:46:29.000Z</time>
      </trkpt>
      <trkpt lat="42.7848458848893642425537109375" lon="-0.13418965972959995269775390625">
        <ele>2565.800048828125</ele>
        <time>2022-08-04T12:46:38.000Z</time>
      </trkpt>
      <trkpt lat="42.78486005030572414398193359375" lon="-0.13427113182842731475830078125">
        <ele>2563</ele>
        <time>2022-08-04T12:46:44.000Z</time>
      </trkpt>
      <trkpt lat="42.78487111441791057586669921875" lon="-0.1343349181115627288818359375">
        <ele>2560.39990234375</ele>
        <time>2022-08-04T12:46:49.000Z</time>
      </trkpt>
      <trkpt lat="42.7849102579057216644287109375" lon="-0.134327709674835205078125">
        <ele>2559.199951171875</ele>
        <time>2022-08-04T12:46:53.000Z</time>
      </trkpt>
      <trkpt lat="42.7849499881267547607421875" lon="-0.13426937162876129150390625">
        <ele>2559.39990234375</ele>
        <time>2022-08-04T12:47:00.000Z</time>
      </trkpt>
      <trkpt lat="42.7849722839891910552978515625" lon="-0.13435184955596923828125">
        <ele>2556</ele>
        <time>2022-08-04T12:47:10.000Z</time>
      </trkpt>
      <trkpt lat="42.7849726192653179168701171875" lon="-0.13445134274661540985107421875">
        <ele>2552.60009765625</ele>
        <time>2022-08-04T12:47:19.000Z</time>
      </trkpt>
      <trkpt lat="42.78501712717115879058837890625" lon="-0.13444446958601474761962890625">
        <ele>2550.800048828125</ele>
        <time>2022-08-04T12:47:23.000Z</time>
      </trkpt>
      <trkpt lat="42.7851243317127227783203125" lon="-0.13439409434795379638671875">
        <ele>2547.60009765625</ele>
        <time>2022-08-04T12:47:32.000Z</time>
      </trkpt>
      <trkpt lat="42.7852364815771579742431640625" lon="-0.1341967843472957611083984375">
        <ele>2549.800048828125</ele>
        <time>2022-08-04T12:47:46.000Z</time>
      </trkpt>
      <trkpt lat="42.78525567613542079925537109375" lon="-0.13418613933026790618896484375">
        <ele>2549.39990234375</ele>
        <time>2022-08-04T12:47:48.000Z</time>
      </trkpt>
      <trkpt lat="42.78529859147965908050537109375" lon="-0.13418731279671192169189453125">
        <ele>2547.39990234375</ele>
        <time>2022-08-04T12:47:52.000Z</time>
      </trkpt>
      <trkpt lat="42.7854768745601177215576171875" lon="-0.1341076008975505828857421875">
        <ele>2542.199951171875</ele>
        <time>2022-08-04T12:48:06.000Z</time>
      </trkpt>
      <trkpt lat="42.7856458537280559539794921875" lon="-0.133991427719593048095703125">
        <ele>2539.199951171875</ele>
        <time>2022-08-04T12:48:19.000Z</time>
      </trkpt>
      <trkpt lat="42.78578558005392551422119140625" lon="-0.1338283158838748931884765625">
        <ele>2542</ele>
        <time>2022-08-04T12:48:32.000Z</time>
      </trkpt>
      <trkpt lat="42.78588951565325260162353515625" lon="-0.1336187683045864105224609375">
        <ele>2543.199951171875</ele>
        <time>2022-08-04T12:48:46.000Z</time>
      </trkpt>
      <trkpt lat="42.7859013341367244720458984375" lon="-0.13360963203012943267822265625">
        <ele>2543.199951171875</ele>
        <time>2022-08-04T12:48:47.000Z</time>
      </trkpt>
      <trkpt lat="42.786011137068271636962890625" lon="-0.1335845701396465301513671875">
        <ele>2542.39990234375</ele>
        <time>2022-08-04T12:48:57.000Z</time>
      </trkpt>
      <trkpt lat="42.786143906414508819580078125" lon="-0.1335292495787143707275390625">
        <ele>2542.199951171875</ele>
        <time>2022-08-04T12:49:49.000Z</time>
      </trkpt>
      <trkpt lat="42.7863103710114955902099609375" lon="-0.13341483660042285919189453125">
        <ele>2539.800048828125</ele>
        <time>2022-08-04T12:50:03.000Z</time>
      </trkpt>
      <trkpt lat="42.78648714534938335418701171875" lon="-0.13335071504116058349609375">
        <ele>2533.60009765625</ele>
        <time>2022-08-04T12:50:17.000Z</time>
      </trkpt>
      <trkpt lat="42.78650592081248760223388671875" lon="-0.133335292339324951171875">
        <ele>2533.39990234375</ele>
        <time>2022-08-04T12:50:19.000Z</time>
      </trkpt>
      <trkpt lat="42.7865688689053058624267578125" lon="-0.13332255184650421142578125">
        <ele>2531.39990234375</ele>
        <time>2022-08-04T12:50:26.000Z</time>
      </trkpt>
      <trkpt lat="42.78675218112766742706298828125" lon="-0.1332858391106128692626953125">
        <ele>2525.800048828125</ele>
        <time>2022-08-04T12:50:45.000Z</time>
      </trkpt>
      <trkpt lat="42.7869316376745700836181640625" lon="-0.13329464010894298553466796875">
        <ele>2522.199951171875</ele>
        <time>2022-08-04T12:50:59.000Z</time>
      </trkpt>
      <trkpt lat="42.787012271583080291748046875" lon="-0.13329866342246532440185546875">
        <ele>2520.800048828125</ele>
        <time>2022-08-04T12:51:05.000Z</time>
      </trkpt>
      <trkpt lat="42.7871914766728878021240234375" lon="-0.1332787983119487762451171875">
        <ele>2518.199951171875</ele>
        <time>2022-08-04T12:51:18.000Z</time>
      </trkpt>
      <trkpt lat="42.78733958490192890167236328125" lon="-0.13314896263182163238525390625">
        <ele>2519.60009765625</ele>
        <time>2022-08-04T12:51:31.000Z</time>
      </trkpt>
      <trkpt lat="42.7875207178294658660888671875" lon="-0.133113004267215728759765625">
        <ele>2516.60009765625</ele>
        <time>2022-08-04T12:51:44.000Z</time>
      </trkpt>
      <trkpt lat="42.7875971607863903045654296875" lon="-0.1331071369349956512451171875">
        <ele>2515.199951171875</ele>
        <time>2022-08-04T12:51:50.000Z</time>
      </trkpt>
      <trkpt lat="42.7877259068191051483154296875" lon="-0.13310370035469532012939453125">
        <ele>2512.39990234375</ele>
        <time>2022-08-04T12:52:06.000Z</time>
      </trkpt>
      <trkpt lat="42.787743173539638519287109375" lon="-0.1330952346324920654296875">
        <ele>2512.199951171875</ele>
        <time>2022-08-04T12:52:08.000Z</time>
      </trkpt>
      <trkpt lat="42.78781416825950145721435546875" lon="-0.1331017725169658660888671875">
        <ele>2510.199951171875</ele>
        <time>2022-08-04T12:52:15.000Z</time>
      </trkpt>
      <trkpt lat="42.78783529065549373626708984375" lon="-0.13313320465385913848876953125">
        <ele>2508.800048828125</ele>
        <time>2022-08-04T12:52:19.000Z</time>
      </trkpt>
      <trkpt lat="42.78783931396901607513427734375" lon="-0.13315030373632907867431640625">
        <ele>2508</ele>
        <time>2022-08-04T12:52:21.000Z</time>
      </trkpt>
      <trkpt lat="42.787898741662502288818359375" lon="-0.13323345221579074859619140625">
        <ele>2503.800048828125</ele>
        <time>2022-08-04T12:52:34.000Z</time>
      </trkpt>
      <trkpt lat="42.7879458479583263397216796875" lon="-0.133159272372722625732421875">
        <ele>2505.60009765625</ele>
        <time>2022-08-04T12:52:40.000Z</time>
      </trkpt>
      <trkpt lat="42.78795540332794189453125" lon="-0.13308760710060596466064453125">
        <ele>2508</ele>
        <time>2022-08-04T12:52:44.000Z</time>
      </trkpt>
      <trkpt lat="42.7880977280437946319580078125" lon="-0.132935307919979095458984375">
        <ele>2509.800048828125</ele>
        <time>2022-08-04T12:52:58.000Z</time>
      </trkpt>
      <trkpt lat="42.78809999115765094757080078125" lon="-0.13283514417707920074462890625">
        <ele>2510.39990234375</ele>
        <time>2022-08-04T12:53:06.000Z</time>
      </trkpt>
      <trkpt lat="42.78807585127651691436767578125" lon="-0.132709331810474395751953125">
        <ele>2511.800048828125</ele>
        <time>2022-08-04T12:53:14.000Z</time>
      </trkpt>
      <trkpt lat="42.78807652182877063751220703125" lon="-0.13263565488159656524658203125">
        <ele>2511.60009765625</ele>
        <time>2022-08-04T12:53:20.000Z</time>
      </trkpt>
      <trkpt lat="42.78812681324779987335205078125" lon="-0.132567174732685089111328125">
        <ele>2510.39990234375</ele>
        <time>2022-08-04T12:53:28.000Z</time>
      </trkpt>
      <trkpt lat="42.78816184960305690765380859375" lon="-0.13259978033602237701416015625">
        <ele>2510.199951171875</ele>
        <time>2022-08-04T12:53:33.000Z</time>
      </trkpt>
      <trkpt lat="42.78818783350288867950439453125" lon="-0.13262475840747356414794921875">
        <ele>2510.199951171875</ele>
        <time>2022-08-04T12:53:36.000Z</time>
      </trkpt>
      <trkpt lat="42.78829160146415233612060546875" lon="-0.1328270137310028076171875">
        <ele>2507.199951171875</ele>
        <time>2022-08-04T12:53:49.000Z</time>
      </trkpt>
      <trkpt lat="42.7883483469486236572265625" lon="-0.13290722854435443878173828125">
        <ele>2503.199951171875</ele>
        <time>2022-08-04T12:53:56.000Z</time>
      </trkpt>
      <trkpt lat="42.78849310241639614105224609375" lon="-0.1330551691353321075439453125">
        <ele>2494.39990234375</ele>
        <time>2022-08-04T12:54:11.000Z</time>
      </trkpt>
      <trkpt lat="42.78850282542407512664794921875" lon="-0.133061707019805908203125">
        <ele>2494</ele>
        <time>2022-08-04T12:54:12.000Z</time>
      </trkpt>
      <trkpt lat="42.78854884207248687744140625" lon="-0.13305525295436382293701171875">
        <ele>2492.800048828125</ele>
        <time>2022-08-04T12:54:16.000Z</time>
      </trkpt>
      <trkpt lat="42.788666188716888427734375" lon="-0.133114345371723175048828125">
        <ele>2488.39990234375</ele>
        <time>2022-08-04T12:54:37.000Z</time>
      </trkpt>
      <trkpt lat="42.78870642185211181640625" lon="-0.1331450231373310089111328125">
        <ele>2487</ele>
        <time>2022-08-04T12:54:42.000Z</time>
      </trkpt>
      <trkpt lat="42.7888016402721405029296875" lon="-0.13310872949659824371337890625">
        <ele>2487</ele>
        <time>2022-08-04T12:54:57.000Z</time>
      </trkpt>
      <trkpt lat="42.78885059058666229248046875" lon="-0.1330528222024440765380859375">
        <ele>2487.800048828125</ele>
        <time>2022-08-04T12:55:02.000Z</time>
      </trkpt>
      <trkpt lat="42.78890079818665981292724609375" lon="-0.13292114250361919403076171875">
        <ele>2490</ele>
        <time>2022-08-04T12:55:11.000Z</time>
      </trkpt>
      <trkpt lat="42.78901378624141216278076171875" lon="-0.13272383250296115875244140625">
        <ele>2489.800048828125</ele>
        <time>2022-08-04T12:55:28.000Z</time>
      </trkpt>
      <trkpt lat="42.78917974792420864105224609375" lon="-0.1326323859393596649169921875">
        <ele>2484.800048828125</ele>
        <time>2022-08-04T12:55:50.000Z</time>
      </trkpt>
      <trkpt lat="42.78921947814524173736572265625" lon="-0.13261889107525348663330078125">
        <ele>2483.60009765625</ele>
        <time>2022-08-04T12:55:53.000Z</time>
      </trkpt>
      <trkpt lat="42.78935157693922519683837890625" lon="-0.13250053860247135162353515625">
        <ele>2479.800048828125</ele>
        <time>2022-08-04T12:56:08.000Z</time>
      </trkpt>
      <trkpt lat="42.78943874873220920562744140625" lon="-0.13250422663986682891845703125">
        <ele>2476.199951171875</ele>
        <time>2022-08-04T12:56:17.000Z</time>
      </trkpt>
      <trkpt lat="42.78959783725440502166748046875" lon="-0.13246868737041950225830078125">
        <ele>2472.199951171875</ele>
        <time>2022-08-04T12:56:30.000Z</time>
      </trkpt>
      <trkpt lat="42.7896155230700969696044921875" lon="-0.13242342509329319000244140625">
        <ele>2472.39990234375</ele>
        <time>2022-08-04T12:56:33.000Z</time>
      </trkpt>
      <trkpt lat="42.7897694148123264312744140625" lon="-0.1322786696255207061767578125">
        <ele>2471.39990234375</ele>
        <time>2022-08-04T12:56:48.000Z</time>
      </trkpt>
      <trkpt lat="42.78983957134187221527099609375" lon="-0.1322179846465587615966796875">
        <ele>2470.39990234375</ele>
        <time>2022-08-04T12:56:56.000Z</time>
      </trkpt>
      <trkpt lat="42.7899601869285106658935546875" lon="-0.1322833634912967681884765625">
        <ele>2467.800048828125</ele>
        <time>2022-08-04T12:57:14.000Z</time>
      </trkpt>
      <trkpt lat="42.78999296016991138458251953125" lon="-0.13251897878944873809814453125">
        <ele>2464.60009765625</ele>
        <time>2022-08-04T12:57:29.000Z</time>
      </trkpt>
      <trkpt lat="42.78993361629545688629150390625" lon="-0.13260145671665668487548828125">
        <ele>2463.800048828125</ele>
        <time>2022-08-04T12:57:36.000Z</time>
      </trkpt>
      <trkpt lat="42.7899844944477081298828125" lon="-0.13266247697174549102783203125">
        <ele>2461.60009765625</ele>
        <time>2022-08-04T12:57:42.000Z</time>
      </trkpt>
      <trkpt lat="42.78999815694987773895263671875" lon="-0.1326692663133144378662109375">
        <ele>2461.39990234375</ele>
        <time>2022-08-04T12:57:43.000Z</time>
      </trkpt>
      <trkpt lat="42.790117599070072174072265625" lon="-0.1326944120228290557861328125">
        <ele>2459</ele>
        <time>2022-08-04T12:57:57.000Z</time>
      </trkpt>
      <trkpt lat="42.78998591937124729156494140625" lon="-0.13288325630128383636474609375">
        <ele>2456</ele>
        <time>2022-08-04T12:58:15.000Z</time>
      </trkpt>
      <trkpt lat="42.78990310616791248321533203125" lon="-0.13304871506989002227783203125">
        <ele>2452.39990234375</ele>
        <time>2022-08-04T12:58:30.000Z</time>
      </trkpt>
      <trkpt lat="42.789878882467746734619140625" lon="-0.1330871880054473876953125">
        <ele>2451.60009765625</ele>
        <time>2022-08-04T12:58:35.000Z</time>
      </trkpt>
      <trkpt lat="42.789891622960567474365234375" lon="-0.13310931622982025146484375">
        <ele>2450.39990234375</ele>
        <time>2022-08-04T12:58:37.000Z</time>
      </trkpt>
      <trkpt lat="42.78994602151215076446533203125" lon="-0.1331185363233089447021484375">
        <ele>2448.800048828125</ele>
        <time>2022-08-04T12:58:43.000Z</time>
      </trkpt>
      <trkpt lat="42.79013209976255893707275390625" lon="-0.1331225596368312835693359375">
        <ele>2444.199951171875</ele>
        <time>2022-08-04T12:58:59.000Z</time>
      </trkpt>
      <trkpt lat="42.790205776691436767578125" lon="-0.133126415312290191650390625">
        <ele>2443</ele>
        <time>2022-08-04T12:59:07.000Z</time>
      </trkpt>
      <trkpt lat="42.79038590379059314727783203125" lon="-0.13309699483215808868408203125">
        <ele>2440.39990234375</ele>
        <time>2022-08-04T12:59:29.000Z</time>
      </trkpt>
      <trkpt lat="42.79039554297924041748046875" lon="-0.1330974139273166656494140625">
        <ele>2440</ele>
        <time>2022-08-04T12:59:30.000Z</time>
      </trkpt>
      <trkpt lat="42.7904538810253143310546875" lon="-0.1330742798745632171630859375">
        <ele>2439.39990234375</ele>
        <time>2022-08-04T12:59:35.000Z</time>
      </trkpt>
      <trkpt lat="42.790510542690753936767578125" lon="-0.13307067565619945526123046875">
        <ele>2437.800048828125</ele>
        <time>2022-08-04T12:59:40.000Z</time>
      </trkpt>
      <trkpt lat="42.790485061705112457275390625" lon="-0.1331262476742267608642578125">
        <ele>2435.800048828125</ele>
        <time>2022-08-04T12:59:46.000Z</time>
      </trkpt>
      <trkpt lat="42.79036461375653743743896484375" lon="-0.13327167369425296783447265625">
        <ele>2431.60009765625</ele>
        <time>2022-08-04T13:00:02.000Z</time>
      </trkpt>
      <trkpt lat="42.79042881913483142852783203125" lon="-0.1332885213196277618408203125">
        <ele>2429.199951171875</ele>
        <time>2022-08-04T13:00:08.000Z</time>
      </trkpt>
      <trkpt lat="42.790580280125141143798828125" lon="-0.13328843750059604644775390625">
        <ele>2425.39990234375</ele>
        <time>2022-08-04T13:00:22.000Z</time>
      </trkpt>
      <trkpt lat="42.79045061208307743072509765625" lon="-0.13341550715267658233642578125">
        <ele>2421.800048828125</ele>
        <time>2022-08-04T13:01:25.000Z</time>
      </trkpt>
      <trkpt lat="42.79028414748609066009521484375" lon="-0.13351910747587680816650390625">
        <ele>2421</ele>
        <time>2022-08-04T13:01:35.000Z</time>
      </trkpt>
      <trkpt lat="42.7902414835989475250244140625" lon="-0.13358146883547306060791015625">
        <ele>2420.39990234375</ele>
        <time>2022-08-04T13:01:39.000Z</time>
      </trkpt>
      <trkpt lat="42.79031063430011272430419921875" lon="-0.1336345262825489044189453125">
        <ele>2417.39990234375</ele>
        <time>2022-08-04T13:01:44.000Z</time>
      </trkpt>
      <trkpt lat="42.79048950411379337310791015625" lon="-0.13370820321142673492431640625">
        <ele>2413.199951171875</ele>
        <time>2022-08-04T13:01:54.000Z</time>
      </trkpt>
      <trkpt lat="42.7906666137278079986572265625" lon="-0.13380107469856739044189453125">
        <ele>2409.800048828125</ele>
        <time>2022-08-04T13:02:05.000Z</time>
      </trkpt>
      <trkpt lat="42.79069368727505207061767578125" lon="-0.13382236473262310028076171875">
        <ele>2409.39990234375</ele>
        <time>2022-08-04T13:02:09.000Z</time>
      </trkpt>
      <trkpt lat="42.7906414680182933807373046875" lon="-0.13386310078203678131103515625">
        <ele>2409</ele>
        <time>2022-08-04T13:02:13.000Z</time>
      </trkpt>
      <trkpt lat="42.7904768474400043487548828125" lon="-0.1340093649923801422119140625">
        <ele>2407.39990234375</ele>
        <time>2022-08-04T13:02:23.000Z</time>
      </trkpt>
      <trkpt lat="42.79032153077423572540283203125" lon="-0.13415479101240634918212890625">
        <ele>2404.39990234375</ele>
        <time>2022-08-04T13:02:33.000Z</time>
      </trkpt>
      <trkpt lat="42.790186665952205657958984375" lon="-0.13433315791189670562744140625">
        <ele>2398.199951171875</ele>
        <time>2022-08-04T13:02:43.000Z</time>
      </trkpt>
      <trkpt lat="42.7901693992316722869873046875" lon="-0.134376324713230133056640625">
        <ele>2397.199951171875</ele>
        <time>2022-08-04T13:02:45.000Z</time>
      </trkpt>
      <trkpt lat="42.7903055213391780853271484375" lon="-0.13446919620037078857421875">
        <ele>2396</ele>
        <time>2022-08-04T13:02:54.000Z</time>
      </trkpt>
      <trkpt lat="42.7903212793171405792236328125" lon="-0.134474225342273712158203125">
        <ele>2395.60009765625</ele>
        <time>2022-08-04T13:02:55.000Z</time>
      </trkpt>
      <trkpt lat="42.7904986403882503509521484375" lon="-0.1345045678317546844482421875">
        <ele>2393.39990234375</ele>
        <time>2022-08-04T13:03:08.000Z</time>
      </trkpt>
      <trkpt lat="42.790615148842334747314453125" lon="-0.1345920749008655548095703125">
        <ele>2393.39990234375</ele>
        <time>2022-08-04T13:03:17.000Z</time>
      </trkpt>
      <trkpt lat="42.7905197627842426300048828125" lon="-0.1347040571272373199462890625">
        <ele>2386.800048828125</ele>
        <time>2022-08-04T13:03:29.000Z</time>
      </trkpt>
      <trkpt lat="42.7904538810253143310546875" lon="-0.13470347039401531219482421875">
        <ele>2385.60009765625</ele>
        <time>2022-08-04T13:03:33.000Z</time>
      </trkpt>
      <trkpt lat="42.79027107171714305877685546875" lon="-0.1347248442471027374267578125">
        <ele>2388.800048828125</ele>
        <time>2022-08-04T13:03:47.000Z</time>
      </trkpt>
      <trkpt lat="42.7901338599622249603271484375" lon="-0.13479248620569705963134765625">
        <ele>2392</ele>
        <time>2022-08-04T13:03:59.000Z</time>
      </trkpt>
      <trkpt lat="42.79007996432483196258544921875" lon="-0.1348234154284000396728515625">
        <ele>2393</ele>
        <time>2022-08-04T13:04:03.000Z</time>
      </trkpt>
      <trkpt lat="42.789996564388275146484375" lon="-0.134865827858448028564453125">
        <ele>2389.60009765625</ele>
        <time>2022-08-04T13:04:10.000Z</time>
      </trkpt>
      <trkpt lat="42.7899759449064731597900390625" lon="-0.13487999327480792999267578125">
        <ele>2388.800048828125</ele>
        <time>2022-08-04T13:04:12.000Z</time>
      </trkpt>
      <trkpt lat="42.78980755247175693511962890625" lon="-0.134985186159610748291015625">
        <ele>2379</ele>
        <time>2022-08-04T13:04:27.000Z</time>
      </trkpt>
      <trkpt lat="42.78975876979529857635498046875" lon="-0.13498409651219844818115234375">
        <ele>2379.800048828125</ele>
        <time>2022-08-04T13:04:31.000Z</time>
      </trkpt>
      <trkpt lat="42.78977167792618274688720703125" lon="-0.1350980065762996673583984375">
        <ele>2375.39990234375</ele>
        <time>2022-08-04T13:04:41.000Z</time>
      </trkpt>
      <trkpt lat="42.78981056995689868927001953125" lon="-0.1351405866444110870361328125">
        <ele>2373.60009765625</ele>
        <time>2022-08-04T13:04:44.000Z</time>
      </trkpt>
      <trkpt lat="42.78990780003368854522705078125" lon="-0.13526891358196735382080078125">
        <ele>2368.39990234375</ele>
        <time>2022-08-04T13:04:54.000Z</time>
      </trkpt>
      <trkpt lat="42.79008901678025722503662109375" lon="-0.13520923443138599395751953125">
        <ele>2370</ele>
        <time>2022-08-04T13:05:12.000Z</time>
      </trkpt>
      <trkpt lat="42.79018809087574481964111328125" lon="-0.13527645729482173919677734375">
        <ele>2361.199951171875</ele>
        <time>2022-08-04T13:05:19.000Z</time>
      </trkpt>
      <trkpt lat="42.79022647999227046966552734375" lon="-0.135307721793651580810546875">
        <ele>2357.39990234375</ele>
        <time>2022-08-04T13:05:22.000Z</time>
      </trkpt>
      <trkpt lat="42.79032102786004543304443359375" lon="-0.135323144495487213134765625">
        <ele>2357.39990234375</ele>
        <time>2022-08-04T13:05:29.000Z</time>
      </trkpt>
      <trkpt lat="42.79048548080027103424072265625" lon="-0.1353977434337139129638671875">
        <ele>2356</ele>
        <time>2022-08-04T13:05:45.000Z</time>
      </trkpt>
      <trkpt lat="42.7905532903969287872314453125" lon="-0.13544862158596515655517578125">
        <ele>2354.800048828125</ele>
        <time>2022-08-04T13:05:50.000Z</time>
      </trkpt>
      <trkpt lat="42.7906454913318157196044921875" lon="-0.1355130784213542938232421875">
        <ele>2353.60009765625</ele>
        <time>2022-08-04T13:05:58.000Z</time>
      </trkpt>
      <trkpt lat="42.7905841358006000518798828125" lon="-0.13552062213420867919921875">
        <ele>2351.60009765625</ele>
        <time>2022-08-04T13:06:02.000Z</time>
      </trkpt>
      <trkpt lat="42.79055119492113590240478515625" lon="-0.13553227297961711883544921875">
        <ele>2350.199951171875</ele>
        <time>2022-08-04T13:06:04.000Z</time>
      </trkpt>
      <trkpt lat="42.7904580719769001007080078125" lon="-0.13556596823036670684814453125">
        <ele>2346.800048828125</ele>
        <time>2022-08-04T13:06:09.000Z</time>
      </trkpt>
      <trkpt lat="42.79035866260528564453125" lon="-0.13560972176492214202880859375">
        <ele>2342.60009765625</ele>
        <time>2022-08-04T13:06:15.000Z</time>
      </trkpt>
      <trkpt lat="42.790432088077068328857421875" lon="-0.1356974802911281585693359375">
        <ele>2339.39990234375</ele>
        <time>2022-08-04T13:06:22.000Z</time>
      </trkpt>
      <trkpt lat="42.790550775825977325439453125" lon="-0.13588749803602695465087890625">
        <ele>2333</ele>
        <time>2022-08-04T13:06:33.000Z</time>
      </trkpt>
      <trkpt lat="42.79057416133582592010498046875" lon="-0.135917924344539642333984375">
        <ele>2331.800048828125</ele>
        <time>2022-08-04T13:06:35.000Z</time>
      </trkpt>
      <trkpt lat="42.7906344272196292877197265625" lon="-0.13592940755188465118408203125">
        <ele>2332.39990234375</ele>
        <time>2022-08-04T13:06:39.000Z</time>
      </trkpt>
      <trkpt lat="42.79065932147204875946044921875" lon="-0.1359382085502147674560546875">
        <ele>2332.39990234375</ele>
        <time>2022-08-04T13:06:41.000Z</time>
      </trkpt>
      <trkpt lat="42.7906072698533535003662109375" lon="-0.1359781064093112945556640625">
        <ele>2329.199951171875</ele>
        <time>2022-08-04T13:06:46.000Z</time>
      </trkpt>
      <trkpt lat="42.790429405868053436279296875" lon="-0.13595287688076496124267578125">
        <ele>2327.39990234375</ele>
        <time>2022-08-04T13:07:01.000Z</time>
      </trkpt>
      <trkpt lat="42.79032220132648944854736328125" lon="-0.1359217800199985504150390625">
        <ele>2325.60009765625</ele>
        <time>2022-08-04T13:07:09.000Z</time>
      </trkpt>
      <trkpt lat="42.79038305394351482391357421875" lon="-0.1359975524246692657470703125">
        <ele>2324.199951171875</ele>
        <time>2022-08-04T13:07:17.000Z</time>
      </trkpt>
      <trkpt lat="42.790389172732830047607421875" lon="-0.1360153220593929290771484375">
        <ele>2323.199951171875</ele>
        <time>2022-08-04T13:07:19.000Z</time>
      </trkpt>
      <trkpt lat="42.79037953354418277740478515625" lon="-0.136032588779926300048828125">
        <ele>2322</ele>
        <time>2022-08-04T13:07:22.000Z</time>
      </trkpt>
      <trkpt lat="42.79031214304268360137939453125" lon="-0.13601641170680522918701171875">
        <ele>2320.800048828125</ele>
        <time>2022-08-04T13:07:30.000Z</time>
      </trkpt>
      <trkpt lat="42.79034592211246490478515625" lon="-0.13608078472316265106201171875">
        <ele>2318.199951171875</ele>
        <time>2022-08-04T13:07:35.000Z</time>
      </trkpt>
      <trkpt lat="42.79034349136054515838623046875" lon="-0.13612805865705013275146484375">
        <ele>2315.199951171875</ele>
        <time>2022-08-04T13:07:38.000Z</time>
      </trkpt>
      <trkpt lat="42.79024408198893070220947265625" lon="-0.13612839393317699432373046875">
        <ele>2311.60009765625</ele>
        <time>2022-08-04T13:07:47.000Z</time>
      </trkpt>
      <trkpt lat="42.79005758464336395263671875" lon="-0.13613359071314334869384765625">
        <ele>2305.39990234375</ele>
        <time>2022-08-04T13:08:03.000Z</time>
      </trkpt>
      <trkpt lat="42.79004744254052639007568359375" lon="-0.13620886020362377166748046875">
        <ele>2301.39990234375</ele>
        <time>2022-08-04T13:08:12.000Z</time>
      </trkpt>
      <trkpt lat="42.79020518995821475982666015625" lon="-0.13634816743433475494384765625">
        <ele>2298.800048828125</ele>
        <time>2022-08-04T13:08:26.000Z</time>
      </trkpt>
      <trkpt lat="42.79028347693383693695068359375" lon="-0.1364131271839141845703125">
        <ele>2299</ele>
        <time>2022-08-04T13:08:33.000Z</time>
      </trkpt>
      <trkpt lat="42.79029487632215023040771484375" lon="-0.13645109720528125762939453125">
        <ele>2297.60009765625</ele>
        <time>2022-08-04T13:08:36.000Z</time>
      </trkpt>
      <trkpt lat="42.7901184372603893280029296875" lon="-0.13645830564200878143310546875">
        <ele>2292.39990234375</ele>
        <time>2022-08-04T13:08:50.000Z</time>
      </trkpt>
      <trkpt lat="42.7900037728250026702880859375" lon="-0.1364766620099544525146484375">
        <ele>2292.199951171875</ele>
        <time>2022-08-04T13:09:00.000Z</time>
      </trkpt>
      <trkpt lat="42.79003302566707134246826171875" lon="-0.13651194982230663299560546875">
        <ele>2290.60009765625</ele>
        <time>2022-08-04T13:09:04.000Z</time>
      </trkpt>
      <trkpt lat="42.7901737578213214874267578125" lon="-0.13668796978890895843505859375">
        <ele>2290.39990234375</ele>
        <time>2022-08-04T13:09:22.000Z</time>
      </trkpt>
      <trkpt lat="42.790189348161220550537109375" lon="-0.1367277838289737701416015625">
        <ele>2291</ele>
        <time>2022-08-04T13:09:25.000Z</time>
      </trkpt>
      <trkpt lat="42.7900842390954494476318359375" lon="-0.13676122762262821197509765625">
        <ele>2288.800048828125</ele>
        <time>2022-08-04T13:09:33.000Z</time>
      </trkpt>
      <trkpt lat="42.78990427963435649871826171875" lon="-0.1368333958089351654052734375">
        <ele>2285.800048828125</ele>
        <time>2022-08-04T13:09:44.000Z</time>
      </trkpt>
      <trkpt lat="42.78983504511415958404541015625" lon="-0.1368756406009197235107421875">
        <ele>2282.800048828125</ele>
        <time>2022-08-04T13:09:49.000Z</time>
      </trkpt>
      <trkpt lat="42.789641506969928741455078125" lon="-0.1368401013314723968505859375">
        <ele>2286.39990234375</ele>
        <time>2022-08-04T13:09:59.000Z</time>
      </trkpt>
      <trkpt lat="42.78952105902135372161865234375" lon="-0.13686843216419219970703125">
        <ele>2286.800048828125</ele>
        <time>2022-08-04T13:10:06.000Z</time>
      </trkpt>
      <trkpt lat="42.78940538875758647918701171875" lon="-0.13705878518521785736083984375">
        <ele>2278.199951171875</ele>
        <time>2022-08-04T13:10:16.000Z</time>
      </trkpt>
      <trkpt lat="42.7893000282347202301025390625" lon="-0.13708845712244510650634765625">
        <ele>2278</ele>
        <time>2022-08-04T13:10:24.000Z</time>
      </trkpt>
      <trkpt lat="42.78927915729582309722900390625" lon="-0.13709315098822116851806640625">
        <ele>2278</ele>
        <time>2022-08-04T13:10:27.000Z</time>
      </trkpt>
      <trkpt lat="42.78912090696394443511962890625" lon="-0.13715006411075592041015625">
        <ele>2278.60009765625</ele>
        <time>2022-08-04T13:10:53.000Z</time>
      </trkpt>
      <trkpt lat="42.7889563702046871185302734375" lon="-0.13716355897486209869384765625">
        <ele>2281.39990234375</ele>
        <time>2022-08-04T13:11:04.000Z</time>
      </trkpt>
      <trkpt lat="42.788880430161952972412109375" lon="-0.13718954287469387054443359375">
        <ele>2280.60009765625</ele>
        <time>2022-08-04T13:11:10.000Z</time>
      </trkpt>
      <trkpt lat="42.78868940658867359161376953125" lon="-0.1372565142810344696044921875">
        <ele>2277.60009765625</ele>
        <time>2022-08-04T13:11:22.000Z</time>
      </trkpt>
      <trkpt lat="42.78866392560303211212158203125" lon="-0.1372816599905490875244140625">
        <ele>2276.800048828125</ele>
        <time>2022-08-04T13:11:24.000Z</time>
      </trkpt>
      <trkpt lat="42.78861078433692455291748046875" lon="-0.137297920882701873779296875">
        <ele>2276.199951171875</ele>
        <time>2022-08-04T13:11:28.000Z</time>
      </trkpt>
      <trkpt lat="42.788598127663135528564453125" lon="-0.13730521313846111297607421875">
        <ele>2276</ele>
        <time>2022-08-04T13:11:29.000Z</time>
      </trkpt>
      <trkpt lat="42.7884232811629772186279296875" lon="-0.13736665248870849609375">
        <ele>2274.39990234375</ele>
        <time>2022-08-04T13:11:40.000Z</time>
      </trkpt>
      <trkpt lat="42.78836670331656932830810546875" lon="-0.13740353286266326904296875">
        <ele>2274.39990234375</ele>
        <time>2022-08-04T13:11:45.000Z</time>
      </trkpt>
      <trkpt lat="42.7883193455636501312255859375" lon="-0.13746111653745174407958984375">
        <ele>2271.800048828125</ele>
        <time>2022-08-04T13:11:51.000Z</time>
      </trkpt>
      <trkpt lat="42.78831590898334980010986328125" lon="-0.13746329583227634429931640625">
        <ele>2271.60009765625</ele>
        <time>2022-08-04T13:11:52.000Z</time>
      </trkpt>
      <trkpt lat="42.7882080338895320892333984375" lon="-0.13752515427768230438232421875">
        <ele>2270.800048828125</ele>
        <time>2022-08-04T13:12:00.000Z</time>
      </trkpt>
      <trkpt lat="42.7881852351129055023193359375" lon="-0.13753403909504413604736328125">
        <ele>2271</ele>
        <time>2022-08-04T13:12:02.000Z</time>
      </trkpt>
      <trkpt lat="42.78810803778469562530517578125" lon="-0.1377456821501255035400390625">
        <ele>2257</ele>
        <time>2022-08-04T13:12:17.000Z</time>
      </trkpt>
      <trkpt lat="42.7881624363362789154052734375" lon="-0.1378405652940273284912109375">
        <ele>2249.60009765625</ele>
        <time>2022-08-04T13:12:25.000Z</time>
      </trkpt>
      <trkpt lat="42.78829109854996204376220703125" lon="-0.13800895772874355316162109375">
        <ele>2240.800048828125</ele>
        <time>2022-08-04T13:12:37.000Z</time>
      </trkpt>
      <trkpt lat="42.7884232811629772186279296875" lon="-0.1380514539778232574462890625">
        <ele>2240</ele>
        <time>2022-08-04T13:12:46.000Z</time>
      </trkpt>
      <trkpt lat="42.78849796392023563385009765625" lon="-0.13808213174343109130859375">
        <ele>2239.199951171875</ele>
        <time>2022-08-04T13:12:52.000Z</time>
      </trkpt>
      <trkpt lat="42.78855814598500728607177734375" lon="-0.1381243765354156494140625">
        <ele>2237.800048828125</ele>
        <time>2022-08-04T13:12:57.000Z</time>
      </trkpt>
      <trkpt lat="42.7887257002294063568115234375" lon="-0.1380792818963527679443359375">
        <ele>2241.39990234375</ele>
        <time>2022-08-04T13:13:11.000Z</time>
      </trkpt>
      <trkpt lat="42.7887667715549468994140625" lon="-0.13806293718516826629638671875">
        <ele>2242.60009765625</ele>
        <time>2022-08-04T13:13:15.000Z</time>
      </trkpt>
      <trkpt lat="42.78879283927381038665771484375" lon="-0.13804483227431774139404296875">
        <ele>2243.60009765625</ele>
        <time>2022-08-04T13:13:18.000Z</time>
      </trkpt>
      <trkpt lat="42.78883223421871662139892578125" lon="-0.13804013840854167938232421875">
        <ele>2244.199951171875</ele>
        <time>2022-08-04T13:13:23.000Z</time>
      </trkpt>
      <trkpt lat="42.78900674544274806976318359375" lon="-0.138075090944766998291015625">
        <ele>2244.199951171875</ele>
        <time>2022-08-04T13:13:44.000Z</time>
      </trkpt>
      <trkpt lat="42.78918586671352386474609375" lon="-0.13807467184960842132568359375">
        <ele>2240.60009765625</ele>
        <time>2022-08-04T13:14:04.000Z</time>
      </trkpt>
      <trkpt lat="42.7893613837659358978271484375" lon="-0.13812370598316192626953125">
        <ele>2232.199951171875</ele>
        <time>2022-08-04T13:14:24.000Z</time>
      </trkpt>
      <trkpt lat="42.789532877504825592041015625" lon="-0.1381922699511051177978515625">
        <ele>2226.60009765625</ele>
        <time>2022-08-04T13:14:43.000Z</time>
      </trkpt>
      <trkpt lat="42.78967813588678836822509765625" lon="-0.138351358473300933837890625">
        <ele>2222.39990234375</ele>
        <time>2022-08-04T13:15:03.000Z</time>
      </trkpt>
      <trkpt lat="42.7897700853645801544189453125" lon="-0.1384276337921619415283203125">
        <ele>2219.39990234375</ele>
        <time>2022-08-04T13:15:15.000Z</time>
      </trkpt>
      <trkpt lat="42.789595238864421844482421875" lon="-0.138433165848255157470703125">
        <ele>2218.60009765625</ele>
        <time>2022-08-04T13:15:33.000Z</time>
      </trkpt>
      <trkpt lat="42.78955106623470783233642578125" lon="-0.138448588550090789794921875">
        <ele>2217.60009765625</ele>
        <time>2022-08-04T13:15:37.000Z</time>
      </trkpt>
      <trkpt lat="42.78964192606508731842041015625" lon="-0.13863307423889636993408203125">
        <ele>2211</ele>
        <time>2022-08-04T13:15:50.000Z</time>
      </trkpt>
      <trkpt lat="42.78971032239496707916259765625" lon="-0.138645730912685394287109375">
        <ele>2210.60009765625</ele>
        <time>2022-08-04T13:15:57.000Z</time>
      </trkpt>
      <trkpt lat="42.78979330323636531829833984375" lon="-0.13868537731468677520751953125">
        <ele>2208.39990234375</ele>
        <time>2022-08-04T13:16:08.000Z</time>
      </trkpt>
      <trkpt lat="42.78997183777391910552978515625" lon="-0.1387681066989898681640625">
        <ele>2204.39990234375</ele>
        <time>2022-08-04T13:16:26.000Z</time>
      </trkpt>
      <trkpt lat="42.78993797488510608673095703125" lon="-0.13882535509765148162841796875">
        <ele>2202</ele>
        <time>2022-08-04T13:16:44.000Z</time>
      </trkpt>
      <trkpt lat="42.78998943977057933807373046875" lon="-0.1388701982796192169189453125">
        <ele>2199.800048828125</ele>
        <time>2022-08-04T13:16:50.000Z</time>
      </trkpt>
      <trkpt lat="42.7901673875749111175537109375" lon="-0.1389491558074951171875">
        <ele>2196.60009765625</ele>
        <time>2022-08-04T13:17:06.000Z</time>
      </trkpt>
      <trkpt lat="42.79033963568508625030517578125" lon="-0.1389865390956401824951171875">
        <ele>2195.199951171875</ele>
        <time>2022-08-04T13:17:28.000Z</time>
      </trkpt>
      <trkpt lat="42.7905263006687164306640625" lon="-0.13899274170398712158203125">
        <ele>2194.199951171875</ele>
        <time>2022-08-04T13:17:44.000Z</time>
      </trkpt>
      <trkpt lat="42.790543735027313232421875" lon="-0.138999111950397491455078125">
        <ele>2193.800048828125</ele>
        <time>2022-08-04T13:17:46.000Z</time>
      </trkpt>
      <trkpt lat="42.7906174957752227783203125" lon="-0.13895192183554172515869140625">
        <ele>2195.39990234375</ele>
        <time>2022-08-04T13:17:54.000Z</time>
      </trkpt>
      <trkpt lat="42.79078354127705097198486328125" lon="-0.1389168016612529754638671875">
        <ele>2195.39990234375</ele>
        <time>2022-08-04T13:18:15.000Z</time>
      </trkpt>
      <trkpt lat="42.7909452281892299652099609375" lon="-0.13903423212468624114990234375">
        <ele>2189.800048828125</ele>
        <time>2022-08-04T13:18:34.000Z</time>
      </trkpt>
      <trkpt lat="42.79110641218721866607666015625" lon="-0.1391645707190036773681640625">
        <ele>2185.199951171875</ele>
        <time>2022-08-04T13:18:53.000Z</time>
      </trkpt>
      <trkpt lat="42.791215293109416961669921875" lon="-0.1392845995724201202392578125">
        <ele>2180.800048828125</ele>
        <time>2022-08-04T13:19:32.000Z</time>
      </trkpt>
      <trkpt lat="42.79136306606233119964599609375" lon="-0.139428265392780303955078125">
        <ele>2177.800048828125</ele>
        <time>2022-08-04T13:19:52.000Z</time>
      </trkpt>
      <trkpt lat="42.791516371071338653564453125" lon="-0.139561034739017486572265625">
        <ele>2176.199951171875</ele>
        <time>2022-08-04T13:20:12.000Z</time>
      </trkpt>
      <trkpt lat="42.7916667424142360687255859375" lon="-0.139706544578075408935546875">
        <ele>2173.800048828125</ele>
        <time>2022-08-04T13:20:30.000Z</time>
      </trkpt>
      <trkpt lat="42.7918223105370998382568359375" lon="-0.13985507190227508544921875">
        <ele>2168.199951171875</ele>
        <time>2022-08-04T13:20:50.000Z</time>
      </trkpt>
      <trkpt lat="42.79197645373642444610595703125" lon="-0.13999211601912975311279296875">
        <ele>2163.199951171875</ele>
        <time>2022-08-04T13:21:12.000Z</time>
      </trkpt>
      <trkpt lat="42.79210385866463184356689453125" lon="-0.1401365362107753753662109375">
        <ele>2161</ele>
        <time>2022-08-04T13:21:29.000Z</time>
      </trkpt>
      <trkpt lat="42.79226663522422313690185546875" lon="-0.14026318676769733428955078125">
        <ele>2160.199951171875</ele>
        <time>2022-08-04T13:21:49.000Z</time>
      </trkpt>
      <trkpt lat="42.79240854084491729736328125" lon="-0.1404255442321300506591796875">
        <ele>2155.800048828125</ele>
        <time>2022-08-04T13:22:13.000Z</time>
      </trkpt>
      <trkpt lat="42.7925501950085163116455078125" lon="-0.1405851356685161590576171875">
        <ele>2153.39990234375</ele>
        <time>2022-08-04T13:22:30.000Z</time>
      </trkpt>
      <trkpt lat="42.7926309965550899505615234375" lon="-0.14080055058002471923828125">
        <ele>2151.800048828125</ele>
        <time>2022-08-04T13:22:46.000Z</time>
      </trkpt>
      <trkpt lat="42.7927242033183574676513671875" lon="-0.14101135544478893280029296875">
        <ele>2151.60009765625</ele>
        <time>2022-08-04T13:23:01.000Z</time>
      </trkpt>
      <trkpt lat="42.7926832996308803558349609375" lon="-0.14120983891189098358154296875">
        <ele>2150</ele>
        <time>2022-08-04T13:23:17.000Z</time>
      </trkpt>
      <trkpt lat="42.79272194020450115203857421875" lon="-0.14128980226814746856689453125">
        <ele>2150</ele>
        <time>2022-08-04T13:23:24.000Z</time>
      </trkpt>
      <trkpt lat="42.792771644890308380126953125" lon="-0.14136322773993015289306640625">
        <ele>2149.39990234375</ele>
        <time>2022-08-04T13:23:31.000Z</time>
      </trkpt>
      <trkpt lat="42.79268489219248294830322265625" lon="-0.14133674092590808868408203125">
        <ele>2149</ele>
        <time>2022-08-04T13:23:56.000Z</time>
      </trkpt>
      <trkpt lat="42.79267483390867710113525390625" lon="-0.1414229907095432281494140625">
        <ele>2147.800048828125</ele>
        <time>2022-08-04T13:24:02.000Z</time>
      </trkpt>
      <trkpt lat="42.79275052249431610107421875" lon="-0.1416434347629547119140625">
        <ele>2146.199951171875</ele>
        <time>2022-08-04T13:24:29.000Z</time>
      </trkpt>
      <trkpt lat="42.792728058993816375732421875" lon="-0.141701437532901763916015625">
        <ele>2145.60009765625</ele>
        <time>2022-08-04T13:24:34.000Z</time>
      </trkpt>
      <trkpt lat="42.79268003068864345550537109375" lon="-0.141626335680484771728515625">
        <ele>2145.60009765625</ele>
        <time>2022-08-04T13:25:04.000Z</time>
      </trkpt>
      <trkpt lat="42.79268623329699039459228515625" lon="-0.1413886249065399169921875">
        <ele>2148.39990234375</ele>
        <time>2022-08-04T13:25:27.000Z</time>
      </trkpt>
      <trkpt lat="42.79284976422786712646484375" lon="-0.141301788389682769775390625">
        <ele>2150.800048828125</ele>
        <time>2022-08-04T13:25:47.000Z</time>
      </trkpt>
      <trkpt lat="42.7928428910672664642333984375" lon="-0.14128829352557659149169921875">
        <ele>2150.800048828125</ele>
        <time>2022-08-04T13:26:05.000Z</time>
      </trkpt>
      <trkpt lat="42.7928053401410579681396484375" lon="-0.14131176285445690155029296875">
        <ele>2150.199951171875</ele>
        <time>2022-08-04T13:26:13.000Z</time>
      </trkpt>
      <trkpt lat="42.792598642408847808837890625" lon="-0.14131478033959865570068359375">
        <ele>2148.800048828125</ele>
        <time>2022-08-06T05:16:27.000Z</time>
      </trkpt>
      <trkpt lat="42.79260124079883098602294921875" lon="-0.14132048003375530242919921875">
        <ele>2148.60009765625</ele>
        <time>2022-08-06T05:16:28.000Z</time>
      </trkpt>
      <trkpt lat="42.79266175813972949981689453125" lon="-0.141526758670806884765625">
        <ele>2146.39990234375</ele>
        <time>2022-08-06T05:17:03.000Z</time>
      </trkpt>
      <trkpt lat="42.79276368208229541778564453125" lon="-0.1417022757232189178466796875">
        <ele>2145.800048828125</ele>
        <time>2022-08-06T05:17:20.000Z</time>
      </trkpt>
      <trkpt lat="42.79295663349330425262451171875" lon="-0.14174158684909343719482421875">
        <ele>2147.60009765625</ele>
        <time>2022-08-06T05:17:42.000Z</time>
      </trkpt>
      <trkpt lat="42.7931148000061511993408203125" lon="-0.14183378778398036956787109375">
        <ele>2149.60009765625</ele>
        <time>2022-08-06T05:17:54.000Z</time>
      </trkpt>
      <trkpt lat="42.79316425323486328125" lon="-0.1418648846447467803955078125">
        <ele>2150.199951171875</ele>
        <time>2022-08-06T05:17:59.000Z</time>
      </trkpt>
      <trkpt lat="42.79317204840481281280517578125" lon="-0.1418739371001720428466796875">
        <ele>2150.199951171875</ele>
        <time>2022-08-06T05:18:00.000Z</time>
      </trkpt>
      <trkpt lat="42.79320088215172290802001953125" lon="-0.14189782552421092987060546875">
        <ele>2150.39990234375</ele>
        <time>2022-08-06T05:18:03.000Z</time>
      </trkpt>
      <trkpt lat="42.793325521051883697509765625" lon="-0.141916014254093170166015625">
        <ele>2151.60009765625</ele>
        <time>2022-08-06T05:18:14.000Z</time>
      </trkpt>
      <trkpt lat="42.7933347411453723907470703125" lon="-0.14192305505275726318359375">
        <ele>2151.60009765625</ele>
        <time>2022-08-06T05:18:15.000Z</time>
      </trkpt>
      <trkpt lat="42.793382517993450164794921875" lon="-0.14198005199432373046875">
        <ele>2151.60009765625</ele>
        <time>2022-08-06T05:18:22.000Z</time>
      </trkpt>
      <trkpt lat="42.79331822879612445831298828125" lon="-0.14220074750483036041259765625">
        <ele>2150</ele>
        <time>2022-08-06T05:18:43.000Z</time>
      </trkpt>
      <trkpt lat="42.7931888960301876068115234375" lon="-0.14225657097995281219482421875">
        <ele>2148.60009765625</ele>
        <time>2022-08-06T05:18:52.000Z</time>
      </trkpt>
      <trkpt lat="42.79312863014638423919677734375" lon="-0.14233770780265331268310546875">
        <ele>2148</ele>
        <time>2022-08-06T05:19:01.000Z</time>
      </trkpt>
      <trkpt lat="42.7930467389523983001708984375" lon="-0.14249428175389766693115234375">
        <ele>2148.800048828125</ele>
        <time>2022-08-06T05:19:31.000Z</time>
      </trkpt>
      <trkpt lat="42.79302117414772510528564453125" lon="-0.1425485126674175262451171875">
        <ele>2149.60009765625</ele>
        <time>2022-08-06T05:19:35.000Z</time>
      </trkpt>
      <trkpt lat="42.79285538010299205780029296875" lon="-0.14264616183936595916748046875">
        <ele>2149.60009765625</ele>
        <time>2022-08-06T05:19:50.000Z</time>
      </trkpt>
      <trkpt lat="42.79275848530232906341552734375" lon="-0.14263694174587726593017578125">
        <ele>2148.199951171875</ele>
        <time>2022-08-06T05:20:00.000Z</time>
      </trkpt>
      <trkpt lat="42.79270467348396778106689453125" lon="-0.142643563449382781982421875">
        <ele>2147.39990234375</ele>
        <time>2022-08-06T05:20:05.000Z</time>
      </trkpt>
      <trkpt lat="42.79268740676343441009521484375" lon="-0.1426494307816028594970703125">
        <ele>2147.199951171875</ele>
        <time>2022-08-06T05:20:08.000Z</time>
      </trkpt>
      <trkpt lat="42.79251306317746639251708984375" lon="-0.14266426675021648406982421875">
        <ele>2145.199951171875</ele>
        <time>2022-08-06T05:20:26.000Z</time>
      </trkpt>
      <trkpt lat="42.79239219613373279571533203125" lon="-0.14275680296123027801513671875">
        <ele>2144.199951171875</ele>
        <time>2022-08-06T05:21:16.000Z</time>
      </trkpt>
      <trkpt lat="42.792261354625225067138671875" lon="-0.1428544521331787109375">
        <ele>2143.800048828125</ele>
        <time>2022-08-06T05:21:38.000Z</time>
      </trkpt>
      <trkpt lat="42.79218700714409351348876953125" lon="-0.14290968887507915496826171875">
        <ele>2144.199951171875</ele>
        <time>2022-08-06T05:21:43.000Z</time>
      </trkpt>
      <trkpt lat="42.79206546954810619354248046875" lon="-0.14301379211246967315673828125">
        <ele>2146</ele>
        <time>2022-08-06T05:21:53.000Z</time>
      </trkpt>
      <trkpt lat="42.7920378930866718292236328125" lon="-0.1430567912757396697998046875">
        <ele>2147.199951171875</ele>
        <time>2022-08-06T05:21:57.000Z</time>
      </trkpt>
      <trkpt lat="42.79195214621722698211669921875" lon="-0.143116973340511322021484375">
        <ele>2148.199951171875</ele>
        <time>2022-08-06T05:22:04.000Z</time>
      </trkpt>
      <trkpt lat="42.791904620826244354248046875" lon="-0.14314941130578517913818359375">
        <ele>2148.800048828125</ele>
        <time>2022-08-06T05:22:08.000Z</time>
      </trkpt>
      <trkpt lat="42.79175600968301296234130859375" lon="-0.14323331415653228759765625">
        <ele>2150</ele>
        <time>2022-08-06T05:22:20.000Z</time>
      </trkpt>
      <trkpt lat="42.79159742407500743865966796875" lon="-0.14327899552881717681884765625">
        <ele>2149</ele>
        <time>2022-08-06T05:22:32.000Z</time>
      </trkpt>
      <trkpt lat="42.79146012850105762481689453125" lon="-0.143405981361865997314453125">
        <ele>2149.39990234375</ele>
        <time>2022-08-06T05:22:46.000Z</time>
      </trkpt>
      <trkpt lat="42.79135200195014476776123046875" lon="-0.14338058419525623321533203125">
        <ele>2148.60009765625</ele>
        <time>2022-08-06T05:22:57.000Z</time>
      </trkpt>
      <trkpt lat="42.79127773828804492950439453125" lon="-0.1433716155588626861572265625">
        <ele>2148</ele>
        <time>2022-08-06T05:23:06.000Z</time>
      </trkpt>
      <trkpt lat="42.7911190688610076904296875" lon="-0.14344344846904277801513671875">
        <ele>2148</ele>
        <time>2022-08-06T05:23:31.000Z</time>
      </trkpt>
      <trkpt lat="42.79110121540725231170654296875" lon="-0.14343313872814178466796875">
        <ele>2147.60009765625</ele>
        <time>2022-08-06T05:23:32.000Z</time>
      </trkpt>
      <trkpt lat="42.79102720320224761962890625" lon="-0.14339827001094818115234375">
        <ele>2146.199951171875</ele>
        <time>2022-08-06T05:23:37.000Z</time>
      </trkpt>
      <trkpt lat="42.7908463217318058013916015625" lon="-0.14338494278490543365478515625">
        <ele>2146.60009765625</ele>
        <time>2022-08-06T05:23:50.000Z</time>
      </trkpt>
      <trkpt lat="42.79077331535518169403076171875" lon="-0.143404640257358551025390625">
        <ele>2147.199951171875</ele>
        <time>2022-08-06T05:23:58.000Z</time>
      </trkpt>
      <trkpt lat="42.7906086109578609466552734375" lon="-0.14343188144266605377197265625">
        <ele>2148.39990234375</ele>
        <time>2022-08-06T05:24:22.000Z</time>
      </trkpt>
      <trkpt lat="42.7904218621551990509033203125" lon="-0.14345836825668811798095703125">
        <ele>2150</ele>
        <time>2022-08-06T05:24:37.000Z</time>
      </trkpt>
      <trkpt lat="42.79027123935520648956298828125" lon="-0.1434981822967529296875">
        <ele>2150.60009765625</ele>
        <time>2022-08-06T05:24:49.000Z</time>
      </trkpt>
      <trkpt lat="42.79012170620262622833251953125" lon="-0.14363036490976810455322265625">
        <ele>2151</ele>
        <time>2022-08-06T05:25:07.000Z</time>
      </trkpt>
      <trkpt lat="42.7900369651615619659423828125" lon="-0.14368752948939800262451171875">
        <ele>2151.60009765625</ele>
        <time>2022-08-06T05:25:14.000Z</time>
      </trkpt>
      <trkpt lat="42.79000125825405120849609375" lon="-0.143699347972869873046875">
        <ele>2152</ele>
        <time>2022-08-06T05:25:17.000Z</time>
      </trkpt>
      <trkpt lat="42.78986991383135318756103515625" lon="-0.14388618059456348419189453125">
        <ele>2155.199951171875</ele>
        <time>2022-08-06T05:25:30.000Z</time>
      </trkpt>
      <trkpt lat="42.78969506733119487762451171875" lon="-0.14399103820323944091796875">
        <ele>2158</ele>
        <time>2022-08-06T05:25:43.000Z</time>
      </trkpt>
      <trkpt lat="42.78960940428078174591064453125" lon="-0.1440827362239360809326171875">
        <ele>2160.199951171875</ele>
        <time>2022-08-06T05:25:52.000Z</time>
      </trkpt>
      <trkpt lat="42.78960035182535648345947265625" lon="-0.1441474445164203643798828125">
        <ele>2162.39990234375</ele>
        <time>2022-08-06T05:26:03.000Z</time>
      </trkpt>
      <trkpt lat="42.78955458663403987884521484375" lon="-0.14433008618652820587158203125">
        <ele>2168.199951171875</ele>
        <time>2022-08-06T05:26:35.000Z</time>
      </trkpt>
      <trkpt lat="42.78944847173988819122314453125" lon="-0.1444418169558048248291015625">
        <ele>2174.800048828125</ele>
        <time>2022-08-06T05:27:10.000Z</time>
      </trkpt>
      <trkpt lat="42.789333723485469818115234375" lon="-0.1446020789444446563720703125">
        <ele>2184.199951171875</ele>
        <time>2022-08-06T05:27:55.000Z</time>
      </trkpt>
      <trkpt lat="42.789256274700164794921875" lon="-0.14478421770036220550537109375">
        <ele>2191.199951171875</ele>
        <time>2022-08-06T05:28:34.000Z</time>
      </trkpt>
      <trkpt lat="42.78915728442370891571044921875" lon="-0.144929476082324981689453125">
        <ele>2197.60009765625</ele>
        <time>2022-08-06T05:29:06.000Z</time>
      </trkpt>
      <trkpt lat="42.789271362125873565673828125" lon="-0.14499326236546039581298828125">
        <ele>2199.199951171875</ele>
        <time>2022-08-06T05:29:31.000Z</time>
      </trkpt>
      <trkpt lat="42.78942190110683441162109375" lon="-0.1450734771788120269775390625">
        <ele>2201</ele>
        <time>2022-08-06T05:30:02.000Z</time>
      </trkpt>
      <trkpt lat="42.7894827537238597869873046875" lon="-0.14528780244290828704833984375">
        <ele>2203.800048828125</ele>
        <time>2022-08-06T05:30:29.000Z</time>
      </trkpt>
      <trkpt lat="42.7895042113959789276123046875" lon="-0.145534314215183258056640625">
        <ele>2209</ele>
        <time>2022-08-06T05:30:49.000Z</time>
      </trkpt>
      <trkpt lat="42.78949239291250705718994140625" lon="-0.14575450681149959564208984375">
        <ele>2215.800048828125</ele>
        <time>2022-08-06T05:31:20.000Z</time>
      </trkpt>
      <trkpt lat="42.78950102627277374267578125" lon="-0.14593899250030517578125">
        <ele>2218.800048828125</ele>
        <time>2022-08-06T05:31:54.000Z</time>
      </trkpt>
      <trkpt lat="42.789483927190303802490234375" lon="-0.14610805548727512359619140625">
        <ele>2227.800048828125</ele>
        <time>2022-08-06T05:32:26.000Z</time>
      </trkpt>
      <trkpt lat="42.7895632199943065643310546875" lon="-0.14628273434937000274658203125">
        <ele>2241.39990234375</ele>
        <time>2022-08-06T05:33:09.000Z</time>
      </trkpt>
      <trkpt lat="42.78963924385607242584228515625" lon="-0.14644785784184932708740234375">
        <ele>2261.800048828125</ele>
        <time>2022-08-06T05:33:46.000Z</time>
      </trkpt>
      <trkpt lat="42.78958040289580821990966796875" lon="-0.1465751789510250091552734375">
        <ele>2275.199951171875</ele>
        <time>2022-08-06T05:34:19.000Z</time>
      </trkpt>
      <trkpt lat="42.7895070612430572509765625" lon="-0.14667735435068607330322265625">
        <ele>2279.60009765625</ele>
        <time>2022-08-06T05:34:53.000Z</time>
      </trkpt>
      <trkpt lat="42.78948920778930187225341796875" lon="-0.1468366943299770355224609375">
        <ele>2283.39990234375</ele>
        <time>2022-08-06T05:35:38.000Z</time>
      </trkpt>
      <trkpt lat="42.7893231622874736785888671875" lon="-0.1469128020107746124267578125">
        <ele>2288.800048828125</ele>
        <time>2022-08-06T05:36:16.000Z</time>
      </trkpt>
      <trkpt lat="42.78928510844707489013671875" lon="-0.1468812860548496246337890625">
        <ele>2288.39990234375</ele>
        <time>2022-08-06T05:36:26.000Z</time>
      </trkpt>
      <trkpt lat="42.78911017812788486480712890625" lon="-0.14681515283882617950439453125">
        <ele>2285.199951171875</ele>
        <time>2022-08-06T05:36:52.000Z</time>
      </trkpt>
      <trkpt lat="42.78894891031086444854736328125" lon="-0.1468480937182903289794921875">
        <ele>2286.39990234375</ele>
        <time>2022-08-06T05:37:31.000Z</time>
      </trkpt>
      <trkpt lat="42.78882686980068683624267578125" lon="-0.14696317724883556365966796875">
        <ele>2293.199951171875</ele>
        <time>2022-08-06T05:38:07.000Z</time>
      </trkpt>
      <trkpt lat="42.78894840739667415618896484375" lon="-0.147137604653835296630859375">
        <ele>2287.800048828125</ele>
        <time>2022-08-06T05:38:35.000Z</time>
      </trkpt>
      <trkpt lat="42.7890763990581035614013671875" lon="-0.1473131217062473297119140625">
        <ele>2298</ele>
        <time>2022-08-06T05:39:04.000Z</time>
      </trkpt>
      <trkpt lat="42.78918192721903324127197265625" lon="-0.14744278974831104278564453125">
        <ele>2312.199951171875</ele>
        <time>2022-08-06T05:39:39.000Z</time>
      </trkpt>
      <trkpt lat="42.789206318557262420654296875" lon="-0.1475823484361171722412109375">
        <ele>2321.60009765625</ele>
        <time>2022-08-06T05:40:20.000Z</time>
      </trkpt>
      <trkpt lat="42.78927882201969623565673828125" lon="-0.14775509946048259735107421875">
        <ele>2329.39990234375</ele>
        <time>2022-08-06T05:40:57.000Z</time>
      </trkpt>
      <trkpt lat="42.78941092081367969512939453125" lon="-0.14785853214561939239501953125">
        <ele>2330</ele>
        <time>2022-08-06T05:41:34.000Z</time>
      </trkpt>
      <trkpt lat="42.78954855166375637054443359375" lon="-0.14799197204411029815673828125">
        <ele>2328.39990234375</ele>
        <time>2022-08-06T05:42:09.000Z</time>
      </trkpt>
      <trkpt lat="42.7894110046327114105224609375" lon="-0.1480145193636417388916015625">
        <ele>2332.60009765625</ele>
        <time>2022-08-06T05:42:55.000Z</time>
      </trkpt>
      <trkpt lat="42.78943774290382862091064453125" lon="-0.14823940582573413848876953125">
        <ele>2337.39990234375</ele>
        <time>2022-08-06T05:43:21.000Z</time>
      </trkpt>
      <trkpt lat="42.78944964520633220672607421875" lon="-0.14849706552922725677490234375">
        <ele>2340.39990234375</ele>
        <time>2022-08-06T05:43:41.000Z</time>
      </trkpt>
      <trkpt lat="42.78952441178262233734130859375" lon="-0.148722119629383087158203125">
        <ele>2338.800048828125</ele>
        <time>2022-08-06T05:44:01.000Z</time>
      </trkpt>
      <trkpt lat="42.7896706759929656982421875" lon="-0.14882127754390239715576171875">
        <ele>2338.39990234375</ele>
        <time>2022-08-06T05:44:32.000Z</time>
      </trkpt>
      <trkpt lat="42.78979028575122356414794921875" lon="-0.149005092680454254150390625">
        <ele>2340.199951171875</ele>
        <time>2022-08-06T05:44:55.000Z</time>
      </trkpt>
      <trkpt lat="42.78986203484237194061279296875" lon="-0.149198882281780242919921875">
        <ele>2345.39990234375</ele>
        <time>2022-08-06T05:45:27.000Z</time>
      </trkpt>
      <trkpt lat="42.78993596322834491729736328125" lon="-0.14938303269445896148681640625">
        <ele>2355.199951171875</ele>
        <time>2022-08-06T05:46:00.000Z</time>
      </trkpt>
      <trkpt lat="42.7900543995201587677001953125" lon="-0.1494632475078105926513671875">
        <ele>2363.199951171875</ele>
        <time>2022-08-06T05:46:37.000Z</time>
      </trkpt>
      <trkpt lat="42.7901492826640605926513671875" lon="-0.14961655251681804656982421875">
        <ele>2373.199951171875</ele>
        <time>2022-08-06T05:47:18.000Z</time>
      </trkpt>
      <trkpt lat="42.7902887575328350067138671875" lon="-0.1496285386383533477783203125">
        <ele>2379.39990234375</ele>
        <time>2022-08-06T05:47:54.000Z</time>
      </trkpt>
      <trkpt lat="42.7904449962079524993896484375" lon="-0.1496298797428607940673828125">
        <ele>2386</ele>
        <time>2022-08-06T05:48:33.000Z</time>
      </trkpt>
      <trkpt lat="42.79057399369776248931884765625" lon="-0.1495527662336826324462890625">
        <ele>2389.199951171875</ele>
        <time>2022-08-06T05:49:08.000Z</time>
      </trkpt>
      <trkpt lat="42.79072637669742107391357421875" lon="-0.149426870048046112060546875">
        <ele>2396</ele>
        <time>2022-08-06T05:49:43.000Z</time>
      </trkpt>
      <trkpt lat="42.7907658554613590240478515625" lon="-0.1496095955371856689453125">
        <ele>2402.199951171875</ele>
        <time>2022-08-06T05:50:25.000Z</time>
      </trkpt>
      <trkpt lat="42.79074666090309619903564453125" lon="-0.14985241927206516265869140625">
        <ele>2412.800048828125</ele>
        <time>2022-08-06T05:50:56.000Z</time>
      </trkpt>
      <trkpt lat="42.79071078635752201080322265625" lon="-0.15008526854217052459716796875">
        <ele>2422.800048828125</ele>
        <time>2022-08-06T05:51:30.000Z</time>
      </trkpt>
      <trkpt lat="42.7906699664890766143798828125" lon="-0.15030227601528167724609375">
        <ele>2432.39990234375</ele>
        <time>2022-08-06T05:52:02.000Z</time>
      </trkpt>
      <trkpt lat="42.79064523987472057342529296875" lon="-0.15053336508572101593017578125">
        <ele>2441.800048828125</ele>
        <time>2022-08-06T05:52:43.000Z</time>
      </trkpt>
      <trkpt lat="42.79058656655251979827880859375" lon="-0.1507453434169292449951171875">
        <ele>2448.800048828125</ele>
        <time>2022-08-06T05:53:24.000Z</time>
      </trkpt>
      <trkpt lat="42.79075655154883861541748046875" lon="-0.150737129151821136474609375">
        <ele>2453</ele>
        <time>2022-08-06T05:53:57.000Z</time>
      </trkpt>
      <trkpt lat="42.79073090292513370513916015625" lon="-0.1509372889995574951171875">
        <ele>2456.199951171875</ele>
        <time>2022-08-06T05:54:37.000Z</time>
      </trkpt>
      <trkpt lat="42.790588997304439544677734375" lon="-0.151079781353473663330078125">
        <ele>2456.800048828125</ele>
        <time>2022-08-06T05:55:01.000Z</time>
      </trkpt>
      <trkpt lat="42.79048615135252475738525390625" lon="-0.15118614770472049713134765625">
        <ele>2458</ele>
        <time>2022-08-06T05:56:18.000Z</time>
      </trkpt>
      <trkpt lat="42.79047735035419464111328125" lon="-0.15137088485062122344970703125">
        <ele>2461.800048828125</ele>
        <time>2022-08-06T05:56:51.000Z</time>
      </trkpt>
      <trkpt lat="42.79048212803900241851806640625" lon="-0.1515724696218967437744140625">
        <ele>2467.39990234375</ele>
        <time>2022-08-06T05:57:27.000Z</time>
      </trkpt>
      <trkpt lat="42.79035254381597042083740234375" lon="-0.1516911573708057403564453125">
        <ele>2470</ele>
        <time>2022-08-06T05:58:05.000Z</time>
      </trkpt>
      <trkpt lat="42.7902552299201488494873046875" lon="-0.1517481543123722076416015625">
        <ele>2472.199951171875</ele>
        <time>2022-08-06T05:58:40.000Z</time>
      </trkpt>
      <trkpt lat="42.79019010253250598907470703125" lon="-0.1519805006682872772216796875">
        <ele>2483.800048828125</ele>
        <time>2022-08-06T05:59:07.000Z</time>
      </trkpt>
      <trkpt lat="42.790222205221652984619140625" lon="-0.1522232405841350555419921875">
        <ele>2494.800048828125</ele>
        <time>2022-08-06T05:59:35.000Z</time>
      </trkpt>
      <trkpt lat="42.790236286818981170654296875" lon="-0.15220102854073047637939453125">
        <ele>2494</ele>
        <time>2022-08-06T06:01:43.000Z</time>
      </trkpt>
      <trkpt lat="42.79022983275353908538818359375" lon="-0.15215476043522357940673828125">
        <ele>2492.800048828125</ele>
        <time>2022-08-06T06:03:30.000Z</time>
      </trkpt>
      <trkpt lat="42.79024005867540836334228515625" lon="-0.15217688865959644317626953125">
        <ele>2493.39990234375</ele>
        <time>2022-08-06T06:05:26.000Z</time>
      </trkpt>
      <trkpt lat="42.79021759517490863800048828125" lon="-0.152266658842563629150390625">
        <ele>2496</ele>
        <time>2022-08-06T06:06:36.000Z</time>
      </trkpt>
      <trkpt lat="42.790142409503459930419921875" lon="-0.152438990771770477294921875">
        <ele>2503.39990234375</ele>
        <time>2022-08-06T06:07:15.000Z</time>
      </trkpt>
      <trkpt lat="42.790031097829341888427734375" lon="-0.15256983228027820587158203125">
        <ele>2504.39990234375</ele>
        <time>2022-08-06T06:08:00.000Z</time>
      </trkpt>
      <trkpt lat="42.78997368179261684417724609375" lon="-0.152774937450885772705078125">
        <ele>2507.60009765625</ele>
        <time>2022-08-06T06:08:43.000Z</time>
      </trkpt>
      <trkpt lat="42.78987645171582698822021484375" lon="-0.1529360376298427581787109375">
        <ele>2507.39990234375</ele>
        <time>2022-08-06T06:09:18.000Z</time>
      </trkpt>
      <trkpt lat="42.78983437456190586090087890625" lon="-0.15311054885387420654296875">
        <ele>2511</ele>
        <time>2022-08-06T06:09:57.000Z</time>
      </trkpt>
      <trkpt lat="42.78983227908611297607421875" lon="-0.1531549729406833648681640625">
        <ele>2512.199951171875</ele>
        <time>2022-08-06T06:10:04.000Z</time>
      </trkpt>
      <trkpt lat="42.78976212255656719207763671875" lon="-0.15334599651396274566650390625">
        <ele>2520.60009765625</ele>
        <time>2022-08-06T06:10:38.000Z</time>
      </trkpt>
      <trkpt lat="42.78968014754354953765869140625" lon="-0.1535593159496784210205078125">
        <ele>2532.39990234375</ele>
        <time>2022-08-06T06:11:09.000Z</time>
      </trkpt>
      <trkpt lat="42.78955006040632724761962890625" lon="-0.15372636727988719940185546875">
        <ele>2539.60009765625</ele>
        <time>2022-08-06T06:11:40.000Z</time>
      </trkpt>
      <trkpt lat="42.7895615436136722564697265625" lon="-0.15398100949823856353759765625">
        <ele>2548.60009765625</ele>
        <time>2022-08-06T06:12:16.000Z</time>
      </trkpt>
      <trkpt lat="42.78945283032953739166259765625" lon="-0.15416541136801242828369140625">
        <ele>2558.800048828125</ele>
        <time>2022-08-06T06:13:00.000Z</time>
      </trkpt>
      <trkpt lat="42.7894797362387180328369140625" lon="-0.15440211631357669830322265625">
        <ele>2568</ele>
        <time>2022-08-06T06:13:41.000Z</time>
      </trkpt>
      <trkpt lat="42.78946305625140666961669921875" lon="-0.15459490008652210235595703125">
        <ele>2575.199951171875</ele>
        <time>2022-08-06T06:14:25.000Z</time>
      </trkpt>
      <trkpt lat="42.78936951421201229095458984375" lon="-0.15478022396564483642578125">
        <ele>2582.199951171875</ele>
        <time>2022-08-06T06:15:05.000Z</time>
      </trkpt>
      <trkpt lat="42.78933095745742321014404296875" lon="-0.15495900996029376983642578125">
        <ele>2587.39990234375</ele>
        <time>2022-08-06T06:15:52.000Z</time>
      </trkpt>
      <trkpt lat="42.78921813704073429107666015625" lon="-0.15502003021538257598876953125">
        <ele>2588.60009765625</ele>
        <time>2022-08-06T06:16:38.000Z</time>
      </trkpt>
      <trkpt lat="42.78921268880367279052734375" lon="-0.15519638545811176300048828125">
        <ele>2589.39990234375</ele>
        <time>2022-08-06T06:17:20.000Z</time>
      </trkpt>
      <trkpt lat="42.7891186438500881195068359375" lon="-0.155404508113861083984375">
        <ele>2587.199951171875</ele>
        <time>2022-08-06T06:17:59.000Z</time>
      </trkpt>
      <trkpt lat="42.78909475542604923248291015625" lon="-0.155632495880126953125">
        <ele>2585.39990234375</ele>
        <time>2022-08-06T06:18:30.000Z</time>
      </trkpt>
      <trkpt lat="42.7890991978347301483154296875" lon="-0.15566661022603511810302734375">
        <ele>2584.800048828125</ele>
        <time>2022-08-06T06:19:50.000Z</time>
      </trkpt>
      <trkpt lat="42.7891414426267147064208984375" lon="-0.15571086667478084564208984375">
        <ele>2584.800048828125</ele>
        <time>2022-08-06T06:21:01.000Z</time>
      </trkpt>
      <trkpt lat="42.7892343141138553619384765625" lon="-0.15588588081300258636474609375">
        <ele>2582.199951171875</ele>
        <time>2022-08-06T06:21:45.000Z</time>
      </trkpt>
      <trkpt lat="42.7893164567649364471435546875" lon="-0.15595461241900920867919921875">
        <ele>2581.60009765625</ele>
        <time>2022-08-06T06:21:55.000Z</time>
      </trkpt>
      <trkpt lat="42.78944930993020534515380859375" lon="-0.1561074145138263702392578125">
        <ele>2577.39990234375</ele>
        <time>2022-08-06T06:22:18.000Z</time>
      </trkpt>
      <trkpt lat="42.78950563631951808929443359375" lon="-0.15619483776390552520751953125">
        <ele>2573.39990234375</ele>
        <time>2022-08-06T06:23:21.000Z</time>
      </trkpt>
      <trkpt lat="42.78950161300599575042724609375" lon="-0.156416706740856170654296875">
        <ele>2563.60009765625</ele>
        <time>2022-08-06T06:23:48.000Z</time>
      </trkpt>
      <trkpt lat="42.789468504488468170166015625" lon="-0.15648116357624530792236328125">
        <ele>2561.199951171875</ele>
        <time>2022-08-06T06:24:23.000Z</time>
      </trkpt>
      <trkpt lat="42.78951301239430904388427734375" lon="-0.1566103287041187286376953125">
        <ele>2554.60009765625</ele>
        <time>2022-08-06T06:24:34.000Z</time>
      </trkpt>
      <trkpt lat="42.78958928771317005157470703125" lon="-0.15681593678891658782958984375">
        <ele>2544</ele>
        <time>2022-08-06T06:25:09.000Z</time>
      </trkpt>
      <trkpt lat="42.78970981948077678680419921875" lon="-0.1569295115768909454345703125">
        <ele>2537.60009765625</ele>
        <time>2022-08-06T06:26:01.000Z</time>
      </trkpt>
      <trkpt lat="42.789811156690120697021484375" lon="-0.1569134183228015899658203125">
        <ele>2536</ele>
        <time>2022-08-06T06:26:43.000Z</time>
      </trkpt>
      <trkpt lat="42.78984175063669681549072265625" lon="-0.1569120772182941436767578125">
        <ele>2536.39990234375</ele>
        <time>2022-08-06T06:26:46.000Z</time>
      </trkpt>
      <trkpt lat="42.78992573730647563934326171875" lon="-0.15687410719692707061767578125">
        <ele>2538.60009765625</ele>
        <time>2022-08-06T06:26:56.000Z</time>
      </trkpt>
      <trkpt lat="42.79002866707742214202880859375" lon="-0.15700687654316425323486328125">
        <ele>2532.60009765625</ele>
        <time>2022-08-06T06:27:35.000Z</time>
      </trkpt>
      <trkpt lat="42.79020066373050212860107421875" lon="-0.15700318850576877593994140625">
        <ele>2531.199951171875</ele>
        <time>2022-08-06T06:28:01.000Z</time>
      </trkpt>
      <trkpt lat="42.79034382663667201995849609375" lon="-0.1570364646613597869873046875">
        <ele>2528.39990234375</ele>
        <time>2022-08-06T06:28:32.000Z</time>
      </trkpt>
      <trkpt lat="42.79023268260061740875244140625" lon="-0.1571792922914028167724609375">
        <ele>2521</ele>
        <time>2022-08-06T06:29:11.000Z</time>
      </trkpt>
      <trkpt lat="42.79021541588008403778076171875" lon="-0.1573640294373035430908203125">
        <ele>2511.60009765625</ele>
        <time>2022-08-06T06:29:39.000Z</time>
      </trkpt>
      <trkpt lat="42.7902525477111339569091796875" lon="-0.1575708948075771331787109375">
        <ele>2502.39990234375</ele>
        <time>2022-08-06T06:30:07.000Z</time>
      </trkpt>
      <trkpt lat="42.79040166176855564117431640625" lon="-0.15763853676617145538330078125">
        <ele>2500.199951171875</ele>
        <time>2022-08-06T06:30:52.000Z</time>
      </trkpt>
      <trkpt lat="42.790422029793262481689453125" lon="-0.1578086055815219879150390625">
        <ele>2490.60009765625</ele>
        <time>2022-08-06T06:31:34.000Z</time>
      </trkpt>
      <trkpt lat="42.7903149090707302093505859375" lon="-0.15799141488969326019287109375">
        <ele>2481.39990234375</ele>
        <time>2022-08-06T06:32:01.000Z</time>
      </trkpt>
      <trkpt lat="42.79036478139460086822509765625" lon="-0.15816039405763149261474609375">
        <ele>2474</ele>
        <time>2022-08-06T06:32:43.000Z</time>
      </trkpt>
      <trkpt lat="42.7902401424944400787353515625" lon="-0.158338844776153564453125">
        <ele>2468.60009765625</ele>
        <time>2022-08-06T06:33:17.000Z</time>
      </trkpt>
      <trkpt lat="42.79024978168308734893798828125" lon="-0.15853908844292163848876953125">
        <ele>2459.800048828125</ele>
        <time>2022-08-06T06:33:54.000Z</time>
      </trkpt>
      <trkpt lat="42.79015548527240753173828125" lon="-0.15868954360485076904296875">
        <ele>2453.199951171875</ele>
        <time>2022-08-06T06:34:41.000Z</time>
      </trkpt>
      <trkpt lat="42.7900852449238300323486328125" lon="-0.15892800875008106231689453125">
        <ele>2442.199951171875</ele>
        <time>2022-08-06T06:35:10.000Z</time>
      </trkpt>
      <trkpt lat="42.78999899514019489288330078125" lon="-0.15915180556476116180419921875">
        <ele>2434.199951171875</ele>
        <time>2022-08-06T06:35:37.000Z</time>
      </trkpt>
      <trkpt lat="42.789931185543537139892578125" lon="-0.15936504118144512176513671875">
        <ele>2430.800048828125</ele>
        <time>2022-08-06T06:36:01.000Z</time>
      </trkpt>
      <trkpt lat="42.7898354642093181610107421875" lon="-0.15955480746924877166748046875">
        <ele>2421.60009765625</ele>
        <time>2022-08-06T06:36:31.000Z</time>
      </trkpt>
      <trkpt lat="42.78978944756090641021728515625" lon="-0.15977089293301105499267578125">
        <ele>2412.800048828125</ele>
        <time>2022-08-06T06:36:55.000Z</time>
      </trkpt>
      <trkpt lat="42.78974871151149272918701171875" lon="-0.1599872298538684844970703125">
        <ele>2404.800048828125</ele>
        <time>2022-08-06T06:37:23.000Z</time>
      </trkpt>
      <trkpt lat="42.7896359749138355255126953125" lon="-0.16013785265386104583740234375">
        <ele>2398.800048828125</ele>
        <time>2022-08-06T06:38:03.000Z</time>
      </trkpt>
      <trkpt lat="42.789529860019683837890625" lon="-0.160256959497928619384765625">
        <ele>2394.39990234375</ele>
        <time>2022-08-06T06:38:51.000Z</time>
      </trkpt>
      <trkpt lat="42.789455763995647430419921875" lon="-0.16044815070927143096923828125">
        <ele>2390.60009765625</ele>
        <time>2022-08-06T06:39:10.000Z</time>
      </trkpt>
      <trkpt lat="42.78936884365975856781005859375" lon="-0.1606577821075916290283203125">
        <ele>2386.60009765625</ele>
        <time>2022-08-06T06:39:30.000Z</time>
      </trkpt>
      <trkpt lat="42.78930388391017913818359375" lon="-0.16089909709990024566650390625">
        <ele>2380.39990234375</ele>
        <time>2022-08-06T06:39:46.000Z</time>
      </trkpt>
      <trkpt lat="42.7892683446407318115234375" lon="-0.16097403131425380706787109375">
        <ele>2377.60009765625</ele>
        <time>2022-08-06T06:39:53.000Z</time>
      </trkpt>
      <trkpt lat="42.78925426304340362548828125" lon="-0.16103136353194713592529296875">
        <ele>2375.800048828125</ele>
        <time>2022-08-06T06:39:59.000Z</time>
      </trkpt>
      <trkpt lat="42.7892688475549221038818359375" lon="-0.16127695329487323760986328125">
        <ele>2370.199951171875</ele>
        <time>2022-08-06T06:40:17.000Z</time>
      </trkpt>
      <trkpt lat="42.7892534248530864715576171875" lon="-0.16150494106113910675048828125">
        <ele>2364.800048828125</ele>
        <time>2022-08-06T06:40:41.000Z</time>
      </trkpt>
      <trkpt lat="42.7892416901886463165283203125" lon="-0.16170476563274860382080078125">
        <ele>2362</ele>
        <time>2022-08-06T06:40:53.000Z</time>
      </trkpt>
      <trkpt lat="42.789243198931217193603515625" lon="-0.16176762990653514862060546875">
        <ele>2361.60009765625</ele>
        <time>2022-08-06T06:40:58.000Z</time>
      </trkpt>
      <trkpt lat="42.78919215314090251922607421875" lon="-0.162003077566623687744140625">
        <ele>2359.800048828125</ele>
        <time>2022-08-06T06:41:21.000Z</time>
      </trkpt>
      <trkpt lat="42.78916650451719760894775390625" lon="-0.1622037403285503387451171875">
        <ele>2359.60009765625</ele>
        <time>2022-08-06T06:41:37.000Z</time>
      </trkpt>
      <trkpt lat="42.789057791233062744140625" lon="-0.1624072529375553131103515625">
        <ele>2357.199951171875</ele>
        <time>2022-08-06T06:41:52.000Z</time>
      </trkpt>
      <trkpt lat="42.78904060833156108856201171875" lon="-0.16247355379164218902587890625">
        <ele>2357</ele>
        <time>2022-08-06T06:41:56.000Z</time>
      </trkpt>
      <trkpt lat="42.7890046499669551849365234375" lon="-0.162697769701480865478515625">
        <ele>2356.60009765625</ele>
        <time>2022-08-06T06:42:20.000Z</time>
      </trkpt>
      <trkpt lat="42.7889248542487621307373046875" lon="-0.16288124956190586090087890625">
        <ele>2354.39990234375</ele>
        <time>2022-08-06T06:42:34.000Z</time>
      </trkpt>
      <trkpt lat="42.78890482150018215179443359375" lon="-0.16292148269712924957275390625">
        <ele>2353.800048828125</ele>
        <time>2022-08-06T06:42:38.000Z</time>
      </trkpt>
      <trkpt lat="42.788880765438079833984375" lon="-0.16295584850013256072998046875">
        <ele>2353.199951171875</ele>
        <time>2022-08-06T06:42:42.000Z</time>
      </trkpt>
      <trkpt lat="42.78880742378532886505126953125" lon="-0.16317260451614856719970703125">
        <ele>2352</ele>
        <time>2022-08-06T06:43:11.000Z</time>
      </trkpt>
      <trkpt lat="42.7888014726340770721435546875" lon="-0.16337494365870952606201171875">
        <ele>2353</ele>
        <time>2022-08-06T06:43:30.000Z</time>
      </trkpt>
      <trkpt lat="42.7887572161853313446044921875" lon="-0.1635009236633777618408203125">
        <ele>2353</ele>
        <time>2022-08-06T06:43:40.000Z</time>
      </trkpt>
      <trkpt lat="42.78874875046312808990478515625" lon="-0.16352196224033832550048828125">
        <ele>2353</ele>
        <time>2022-08-06T06:43:42.000Z</time>
      </trkpt>
      <trkpt lat="42.788703739643096923828125" lon="-0.16358784399926662445068359375">
        <ele>2353</ele>
        <time>2022-08-06T06:43:49.000Z</time>
      </trkpt>
      <trkpt lat="42.7886029891669750213623046875" lon="-0.16366378404200077056884765625">
        <ele>2352.39990234375</ele>
        <time>2022-08-06T06:44:19.000Z</time>
      </trkpt>
      <trkpt lat="42.788582034409046173095703125" lon="-0.16374257393181324005126953125">
        <ele>2352.800048828125</ele>
        <time>2022-08-06T06:44:24.000Z</time>
      </trkpt>
      <trkpt lat="42.78850047849118709564208984375" lon="-0.1639599166810512542724609375">
        <ele>2354</ele>
        <time>2022-08-06T06:44:41.000Z</time>
      </trkpt>
      <trkpt lat="42.78843124397099018096923828125" lon="-0.1641805283725261688232421875">
        <ele>2355.800048828125</ele>
        <time>2022-08-06T06:45:01.000Z</time>
      </trkpt>
      <trkpt lat="42.78835765086114406585693359375" lon="-0.16439485363662242889404296875">
        <ele>2357.60009765625</ele>
        <time>2022-08-06T06:45:30.000Z</time>
      </trkpt>
      <trkpt lat="42.7882318384945392608642578125" lon="-0.1645674370229244232177734375">
        <ele>2357.800048828125</ele>
        <time>2022-08-06T06:46:00.000Z</time>
      </trkpt>
      <trkpt lat="42.78809512965381145477294921875" lon="-0.164738930761814117431640625">
        <ele>2358.60009765625</ele>
        <time>2022-08-06T06:46:29.000Z</time>
      </trkpt>
      <trkpt lat="42.78793788515031337738037109375" lon="-0.1648552715778350830078125">
        <ele>2359.60009765625</ele>
        <time>2022-08-06T06:47:00.000Z</time>
      </trkpt>
      <trkpt lat="42.78784937225282192230224609375" lon="-0.164969265460968017578125">
        <ele>2361.199951171875</ele>
        <time>2022-08-06T06:47:14.000Z</time>
      </trkpt>
      <trkpt lat="42.78777678497135639190673828125" lon="-0.1649982668459415435791015625">
        <ele>2360.60009765625</ele>
        <time>2022-08-06T06:47:22.000Z</time>
      </trkpt>
      <trkpt lat="42.78776018880307674407958984375" lon="-0.1649962551891803741455078125">
        <ele>2360.39990234375</ele>
        <time>2022-08-06T06:47:24.000Z</time>
      </trkpt>
      <trkpt lat="42.78769397176802158355712890625" lon="-0.164978988468647003173828125">
        <ele>2360.199951171875</ele>
        <time>2022-08-06T06:48:20.000Z</time>
      </trkpt>
      <trkpt lat="42.7876035310328006744384765625" lon="-0.16503162682056427001953125">
        <ele>2360.39990234375</ele>
        <time>2022-08-06T06:48:28.000Z</time>
      </trkpt>
      <trkpt lat="42.787468917667865753173828125" lon="-0.1651717722415924072265625">
        <ele>2359</ele>
        <time>2022-08-06T06:48:54.000Z</time>
      </trkpt>
      <trkpt lat="42.7873188816010951995849609375" lon="-0.16529054380953311920166015625">
        <ele>2356.39990234375</ele>
        <time>2022-08-06T06:49:13.000Z</time>
      </trkpt>
      <trkpt lat="42.787204720079898834228515625" lon="-0.1653130911290645599365234375">
        <ele>2353.800048828125</ele>
        <time>2022-08-06T06:49:26.000Z</time>
      </trkpt>
      <trkpt lat="42.78715032152831554412841796875" lon="-0.1653032004833221435546875">
        <ele>2353</ele>
        <time>2022-08-06T06:49:31.000Z</time>
      </trkpt>
      <trkpt lat="42.78706985525786876678466796875" lon="-0.165411494672298431396484375">
        <ele>2351</ele>
        <time>2022-08-06T06:49:42.000Z</time>
      </trkpt>
      <trkpt lat="42.7870422787964344024658203125" lon="-0.1654629595577716827392578125">
        <ele>2350.39990234375</ele>
        <time>2022-08-06T06:49:47.000Z</time>
      </trkpt>
      <trkpt lat="42.786917053163051605224609375" lon="-0.16561442054808139801025390625">
        <ele>2345.199951171875</ele>
        <time>2022-08-06T06:50:03.000Z</time>
      </trkpt>
      <trkpt lat="42.78677992522716522216796875" lon="-0.1657291688024997711181640625">
        <ele>2339.39990234375</ele>
        <time>2022-08-06T06:50:32.000Z</time>
      </trkpt>
      <trkpt lat="42.78660465963184833526611328125" lon="-0.16579999588429927825927734375">
        <ele>2334.800048828125</ele>
        <time>2022-08-06T06:50:52.000Z</time>
      </trkpt>
      <trkpt lat="42.7864884026348590850830078125" lon="-0.1658703200519084930419921875">
        <ele>2332</ele>
        <time>2022-08-06T06:51:04.000Z</time>
      </trkpt>
      <trkpt lat="42.786455713212490081787109375" lon="-0.16593016684055328369140625">
        <ele>2330.800048828125</ele>
        <time>2022-08-06T06:51:09.000Z</time>
      </trkpt>
      <trkpt lat="42.7864186652004718780517578125" lon="-0.16604944132268428802490234375">
        <ele>2329.199951171875</ele>
        <time>2022-08-06T06:51:17.000Z</time>
      </trkpt>
      <trkpt lat="42.7863036654889583587646484375" lon="-0.16618497669696807861328125">
        <ele>2327</ele>
        <time>2022-08-06T06:51:31.000Z</time>
      </trkpt>
      <trkpt lat="42.78622739017009735107421875" lon="-0.16626485623419284820556640625">
        <ele>2325.800048828125</ele>
        <time>2022-08-06T06:51:41.000Z</time>
      </trkpt>
      <trkpt lat="42.78617165051400661468505859375" lon="-0.1663688756525516510009765625">
        <ele>2325.199951171875</ele>
        <time>2022-08-06T06:51:51.000Z</time>
      </trkpt>
      <trkpt lat="42.78610107488930225372314453125" lon="-0.16644791699945926666259765625">
        <ele>2324.800048828125</ele>
        <time>2022-08-06T06:52:00.000Z</time>
      </trkpt>
      <trkpt lat="42.786029241979122161865234375" lon="-0.16650927253067493438720703125">
        <ele>2324.199951171875</ele>
        <time>2022-08-06T06:52:09.000Z</time>
      </trkpt>
      <trkpt lat="42.785983979701995849609375" lon="-0.1665462367236614227294921875">
        <ele>2323.800048828125</ele>
        <time>2022-08-06T06:52:14.000Z</time>
      </trkpt>
      <trkpt lat="42.7859472669661045074462890625" lon="-0.1665852963924407958984375">
        <ele>2323.60009765625</ele>
        <time>2022-08-06T06:52:19.000Z</time>
      </trkpt>
      <trkpt lat="42.78592765331268310546875" lon="-0.16663684509694576263427734375">
        <ele>2323.39990234375</ele>
        <time>2022-08-06T06:52:23.000Z</time>
      </trkpt>
      <trkpt lat="42.78591583482921123504638671875" lon="-0.16665746457874774932861328125">
        <ele>2323.39990234375</ele>
        <time>2022-08-06T06:52:25.000Z</time>
      </trkpt>
      <trkpt lat="42.78584442101418972015380859375" lon="-0.166769362986087799072265625">
        <ele>2323.800048828125</ele>
        <time>2022-08-06T06:52:34.000Z</time>
      </trkpt>
      <trkpt lat="42.785669825971126556396484375" lon="-0.16683281399309635162353515625">
        <ele>2324</ele>
        <time>2022-08-06T06:52:58.000Z</time>
      </trkpt>
      <trkpt lat="42.78549875132739543914794921875" lon="-0.16693104989826679229736328125">
        <ele>2323.199951171875</ele>
        <time>2022-08-06T06:53:13.000Z</time>
      </trkpt>
      <trkpt lat="42.785341925919055938720703125" lon="-0.16701470129191875457763671875">
        <ele>2322</ele>
        <time>2022-08-06T06:53:28.000Z</time>
      </trkpt>
      <trkpt lat="42.7853038720786571502685546875" lon="-0.16704454086720943450927734375">
        <ele>2321.39990234375</ele>
        <time>2022-08-06T06:53:32.000Z</time>
      </trkpt>
      <trkpt lat="42.785152830183506011962890625" lon="-0.1671946607530117034912109375">
        <ele>2319.60009765625</ele>
        <time>2022-08-06T06:53:50.000Z</time>
      </trkpt>
      <trkpt lat="42.7850262634456157684326171875" lon="-0.1673579402267932891845703125">
        <ele>2318.199951171875</ele>
        <time>2022-08-06T06:54:13.000Z</time>
      </trkpt>
      <trkpt lat="42.78490816242992877960205078125" lon="-0.167531780898571014404296875">
        <ele>2316.60009765625</ele>
        <time>2022-08-06T06:54:48.000Z</time>
      </trkpt>
      <trkpt lat="42.784827612340450286865234375" lon="-0.16764401458203792572021484375">
        <ele>2315.39990234375</ele>
        <time>2022-08-06T06:55:00.000Z</time>
      </trkpt>
      <trkpt lat="42.7848029695451259613037109375" lon="-0.16769983805716037750244140625">
        <ele>2315.199951171875</ele>
        <time>2022-08-06T06:55:05.000Z</time>
      </trkpt>
      <trkpt lat="42.78474270366132259368896484375" lon="-0.16778650693595409393310546875">
        <ele>2315.39990234375</ele>
        <time>2022-08-06T06:55:13.000Z</time>
      </trkpt>
      <trkpt lat="42.784697525203227996826171875" lon="-0.16781249083578586578369140625">
        <ele>2315.199951171875</ele>
        <time>2022-08-06T06:55:18.000Z</time>
      </trkpt>
      <trkpt lat="42.78466978110373020172119140625" lon="-0.167813412845134735107421875">
        <ele>2315</ele>
        <time>2022-08-06T06:55:22.000Z</time>
      </trkpt>
      <trkpt lat="42.78461982496082782745361328125" lon="-0.1678995788097381591796875">
        <ele>2315.199951171875</ele>
        <time>2022-08-06T06:55:31.000Z</time>
      </trkpt>
      <trkpt lat="42.7845002152025699615478515625" lon="-0.168023295700550079345703125">
        <ele>2316.199951171875</ele>
        <time>2022-08-06T06:56:18.000Z</time>
      </trkpt>
      <trkpt lat="42.7843402884900569915771484375" lon="-0.16803410835564136505126953125">
        <ele>2317.39990234375</ele>
        <time>2022-08-06T06:56:44.000Z</time>
      </trkpt>
      <trkpt lat="42.78436769731342792510986328125" lon="-0.16805573366582393646240234375">
        <ele>2317.39990234375</ele>
        <time>2022-08-06T06:57:56.000Z</time>
      </trkpt>
      <trkpt lat="42.784187234938144683837890625" lon="-0.1680712401866912841796875">
        <ele>2317.800048828125</ele>
        <time>2022-08-06T06:58:24.000Z</time>
      </trkpt>
      <trkpt lat="42.7840147353708744049072265625" lon="-0.1681168377399444580078125">
        <ele>2315.800048828125</ele>
        <time>2022-08-06T06:58:47.000Z</time>
      </trkpt>
      <trkpt lat="42.78383695520460605621337890625" lon="-0.16817517578601837158203125">
        <ele>2314.199951171875</ele>
        <time>2022-08-06T06:59:10.000Z</time>
      </trkpt>
      <trkpt lat="42.7837428264319896697998046875" lon="-0.1681770198047161102294921875">
        <ele>2312.800048828125</ele>
        <time>2022-08-06T06:59:18.000Z</time>
      </trkpt>
      <trkpt lat="42.78360544703900814056396484375" lon="-0.16816721297800540924072265625">
        <ele>2311</ele>
        <time>2022-08-06T06:59:30.000Z</time>
      </trkpt>
      <trkpt lat="42.78351140208542346954345703125" lon="-0.1681696437299251556396484375">
        <ele>2310.800048828125</ele>
        <time>2022-08-06T06:59:39.000Z</time>
      </trkpt>
      <trkpt lat="42.7833317779004573822021484375" lon="-0.16815581358969211578369140625">
        <ele>2310.39990234375</ele>
        <time>2022-08-06T06:59:59.000Z</time>
      </trkpt>
      <trkpt lat="42.78329062275588512420654296875" lon="-0.16816436313092708587646484375">
        <ele>2310.39990234375</ele>
        <time>2022-08-06T07:00:03.000Z</time>
      </trkpt>
      <trkpt lat="42.78311510570347309112548828125" lon="-0.16818858683109283447265625">
        <ele>2309.800048828125</ele>
        <time>2022-08-06T07:00:20.000Z</time>
      </trkpt>
      <trkpt lat="42.7829418517649173736572265625" lon="-0.1682561449706554412841796875">
        <ele>2307.800048828125</ele>
        <time>2022-08-06T07:00:38.000Z</time>
      </trkpt>
      <trkpt lat="42.7828922308981418609619140625" lon="-0.16825170256197452545166015625">
        <ele>2306.800048828125</ele>
        <time>2022-08-06T07:00:42.000Z</time>
      </trkpt>
      <trkpt lat="42.78274454176425933837890625" lon="-0.16821398399770259857177734375">
        <ele>2302.800048828125</ele>
        <time>2022-08-06T07:00:56.000Z</time>
      </trkpt>
      <trkpt lat="42.78267136774957180023193359375" lon="-0.16819772310554981231689453125">
        <ele>2300.800048828125</ele>
        <time>2022-08-06T07:01:02.000Z</time>
      </trkpt>
      <trkpt lat="42.78265125118196010589599609375" lon="-0.16819269396364688873291015625">
        <ele>2300.199951171875</ele>
        <time>2022-08-06T07:01:04.000Z</time>
      </trkpt>
      <trkpt lat="42.7825425378978252410888671875" lon="-0.16818112693727016448974609375">
        <ele>2298</ele>
        <time>2022-08-06T07:01:14.000Z</time>
      </trkpt>
      <trkpt lat="42.782360650599002838134765625" lon="-0.1681609265506267547607421875">
        <ele>2297</ele>
        <time>2022-08-06T07:01:29.000Z</time>
      </trkpt>
      <trkpt lat="42.7823370136320590972900390625" lon="-0.168160088360309600830078125">
        <ele>2296.800048828125</ele>
        <time>2022-08-06T07:01:31.000Z</time>
      </trkpt>
      <trkpt lat="42.78229468502104282379150390625" lon="-0.16817274503409862518310546875">
        <ele>2296.800048828125</ele>
        <time>2022-08-06T07:01:35.000Z</time>
      </trkpt>
      <trkpt lat="42.782113216817378997802734375" lon="-0.16819621436297893524169921875">
        <ele>2297.199951171875</ele>
        <time>2022-08-06T07:01:54.000Z</time>
      </trkpt>
      <trkpt lat="42.78193191625177860260009765625" lon="-0.16822689212858676910400390625">
        <ele>2296.800048828125</ele>
        <time>2022-08-06T07:02:09.000Z</time>
      </trkpt>
      <trkpt lat="42.7817697264254093170166015625" lon="-0.1682380400598049163818359375">
        <ele>2295.199951171875</ele>
        <time>2022-08-06T07:02:24.000Z</time>
      </trkpt>
      <trkpt lat="42.7815856598317623138427734375" lon="-0.168232508003711700439453125">
        <ele>2291.39990234375</ele>
        <time>2022-08-06T07:02:41.000Z</time>
      </trkpt>
      <trkpt lat="42.781577445566654205322265625" lon="-0.168233178555965423583984375">
        <ele>2291.199951171875</ele>
        <time>2022-08-06T07:02:42.000Z</time>
      </trkpt>
      <trkpt lat="42.78148591518402099609375" lon="-0.1682487688958644866943359375">
        <ele>2289.60009765625</ele>
        <time>2022-08-06T07:02:52.000Z</time>
      </trkpt>
      <trkpt lat="42.78148214332759380340576171875" lon="-0.16825304366648197174072265625">
        <ele>2289.60009765625</ele>
        <time>2022-08-06T07:02:53.000Z</time>
      </trkpt>
      <trkpt lat="42.781297154724597930908203125" lon="-0.16827173531055450439453125">
        <ele>2286</ele>
        <time>2022-08-06T07:03:14.000Z</time>
      </trkpt>
      <trkpt lat="42.7811129204928874969482421875" lon="-0.16828824765980243682861328125">
        <ele>2283</ele>
        <time>2022-08-06T07:03:32.000Z</time>
      </trkpt>
      <trkpt lat="42.78103907592594623565673828125" lon="-0.1682551391422748565673828125">
        <ele>2281.199951171875</ele>
        <time>2022-08-06T07:03:39.000Z</time>
      </trkpt>
      <trkpt lat="42.78095710091292858123779296875" lon="-0.1682343520224094390869140625">
        <ele>2279.60009765625</ele>
        <time>2022-08-06T07:03:47.000Z</time>
      </trkpt>
      <trkpt lat="42.78091904707252979278564453125" lon="-0.16825824044644832611083984375">
        <ele>2279.39990234375</ele>
        <time>2022-08-06T07:03:55.000Z</time>
      </trkpt>
      <trkpt lat="42.78081511147320270538330078125" lon="-0.16829646192491054534912109375">
        <ele>2280.39990234375</ele>
        <time>2022-08-06T07:04:37.000Z</time>
      </trkpt>
      <trkpt lat="42.78065702877938747406005859375" lon="-0.16819856129586696624755859375">
        <ele>2278</ele>
        <time>2022-08-06T07:05:08.000Z</time>
      </trkpt>
      <trkpt lat="42.7805788256227970123291015625" lon="-0.16815732233226299285888671875">
        <ele>2276.800048828125</ele>
        <time>2022-08-06T07:05:16.000Z</time>
      </trkpt>
      <trkpt lat="42.78053599409759044647216796875" lon="-0.16810015775263309478759765625">
        <ele>2275.39990234375</ele>
        <time>2022-08-06T07:05:21.000Z</time>
      </trkpt>
      <trkpt lat="42.7805201523005962371826171875" lon="-0.16808976419270038604736328125">
        <ele>2275.199951171875</ele>
        <time>2022-08-06T07:05:23.000Z</time>
      </trkpt>
      <trkpt lat="42.78050431050360202789306640625" lon="-0.16811482608318328857421875">
        <ele>2275.800048828125</ele>
        <time>2022-08-06T07:05:26.000Z</time>
      </trkpt>
      <trkpt lat="42.78034622780978679656982421875" lon="-0.1680690608918666839599609375">
        <ele>2273.39990234375</ele>
        <time>2022-08-06T07:05:49.000Z</time>
      </trkpt>
      <trkpt lat="42.78028034605085849761962890625" lon="-0.16784124076366424560546875">
        <ele>2266.39990234375</ele>
        <time>2022-08-06T07:06:11.000Z</time>
      </trkpt>
      <trkpt lat="42.7801627479493618011474609375" lon="-0.16765994019806385040283203125">
        <ele>2261.60009765625</ele>
        <time>2022-08-06T07:06:33.000Z</time>
      </trkpt>
      <trkpt lat="42.78002453036606311798095703125" lon="-0.16751409508287906646728515625">
        <ele>2260.199951171875</ele>
        <time>2022-08-06T07:06:49.000Z</time>
      </trkpt>
      <trkpt lat="42.77984515763819217681884765625" lon="-0.1675307750701904296875">
        <ele>2260.60009765625</ele>
        <time>2022-08-06T07:07:03.000Z</time>
      </trkpt>
      <trkpt lat="42.77982269413769245147705078125" lon="-0.16754041425883769989013671875">
        <ele>2260.800048828125</ele>
        <time>2022-08-06T07:07:05.000Z</time>
      </trkpt>
      <trkpt lat="42.7796782739460468292236328125" lon="-0.16756790690124034881591796875">
        <ele>2260.60009765625</ele>
        <time>2022-08-06T07:07:17.000Z</time>
      </trkpt>
      <trkpt lat="42.77949295006692409515380859375" lon="-0.16757595352828502655029296875">
        <ele>2258.800048828125</ele>
        <time>2022-08-06T07:07:33.000Z</time>
      </trkpt>
      <trkpt lat="42.77931307442486286163330078125" lon="-0.1675736904144287109375">
        <ele>2256.199951171875</ele>
        <time>2022-08-06T07:07:59.000Z</time>
      </trkpt>
      <trkpt lat="42.77913856320083141326904296875" lon="-0.16760763712227344512939453125">
        <ele>2254.60009765625</ele>
        <time>2022-08-06T07:08:26.000Z</time>
      </trkpt>
      <trkpt lat="42.77895382605493068695068359375" lon="-0.167633034288883209228515625">
        <ele>2252.800048828125</ele>
        <time>2022-08-06T07:08:45.000Z</time>
      </trkpt>
      <trkpt lat="42.77876858599483966827392578125" lon="-0.16767938621342182159423828125">
        <ele>2251</ele>
        <time>2022-08-06T07:09:00.000Z</time>
      </trkpt>
      <trkpt lat="42.77872365899384021759033203125" lon="-0.16769413836300373077392578125">
        <ele>2250.800048828125</ele>
        <time>2022-08-06T07:09:04.000Z</time>
      </trkpt>
      <trkpt lat="42.7785363234579563140869140625" lon="-0.16773034818470478057861328125">
        <ele>2250.39990234375</ele>
        <time>2022-08-06T07:09:19.000Z</time>
      </trkpt>
      <trkpt lat="42.77837790548801422119140625" lon="-0.16777007840573787689208984375">
        <ele>2250.39990234375</ele>
        <time>2022-08-06T07:09:31.000Z</time>
      </trkpt>
      <trkpt lat="42.7781987003982067108154296875" lon="-0.16784115694463253021240234375">
        <ele>2250.199951171875</ele>
        <time>2022-08-06T07:09:44.000Z</time>
      </trkpt>
      <trkpt lat="42.77814748696982860565185546875" lon="-0.16785121522843837738037109375">
        <ele>2250</ele>
        <time>2022-08-06T07:09:48.000Z</time>
      </trkpt>
      <trkpt lat="42.77809535153210163116455078125" lon="-0.16785599291324615478515625">
        <ele>2249.199951171875</ele>
        <time>2022-08-06T07:09:52.000Z</time>
      </trkpt>
      <trkpt lat="42.7780223451554775238037109375" lon="-0.167900584638118743896484375">
        <ele>2248.39990234375</ele>
        <time>2022-08-06T07:10:00.000Z</time>
      </trkpt>
      <trkpt lat="42.7779455669224262237548828125" lon="-0.16789128072559833526611328125">
        <ele>2246.60009765625</ele>
        <time>2022-08-06T07:10:17.000Z</time>
      </trkpt>
      <trkpt lat="42.777877338230609893798828125" lon="-0.16790695488452911376953125">
        <ele>2245.199951171875</ele>
        <time>2022-08-06T07:10:21.000Z</time>
      </trkpt>
      <trkpt lat="42.77778907679021358489990234375" lon="-0.16795984469354152679443359375">
        <ele>2244.199951171875</ele>
        <time>2022-08-06T07:10:29.000Z</time>
      </trkpt>
      <trkpt lat="42.777730487287044525146484375" lon="-0.16799286939203739166259765625">
        <ele>2243.800048828125</ele>
        <time>2022-08-06T07:10:36.000Z</time>
      </trkpt>
      <trkpt lat="42.777550108730792999267578125" lon="-0.16803947277367115020751953125">
        <ele>2240.60009765625</ele>
        <time>2022-08-06T07:10:53.000Z</time>
      </trkpt>
      <trkpt lat="42.777374088764190673828125" lon="-0.16811172477900981903076171875">
        <ele>2238.199951171875</ele>
        <time>2022-08-06T07:11:09.000Z</time>
      </trkpt>
      <trkpt lat="42.777215503156185150146484375" lon="-0.16823007725179195404052734375">
        <ele>2237.199951171875</ele>
        <time>2022-08-06T07:11:24.000Z</time>
      </trkpt>
      <trkpt lat="42.77703923173248767852783203125" lon="-0.168335102498531341552734375">
        <ele>2234.199951171875</ele>
        <time>2022-08-06T07:11:39.000Z</time>
      </trkpt>
      <trkpt lat="42.77686153538525104522705078125" lon="-0.16840324737131595611572265625">
        <ele>2230.800048828125</ele>
        <time>2022-08-06T07:11:53.000Z</time>
      </trkpt>
      <trkpt lat="42.77668400667607784271240234375" lon="-0.1685022376477718353271484375">
        <ele>2228.39990234375</ele>
        <time>2022-08-06T07:12:10.000Z</time>
      </trkpt>
      <trkpt lat="42.77663103304803371429443359375" lon="-0.168560408055782318115234375">
        <ele>2228.800048828125</ele>
        <time>2022-08-06T07:12:16.000Z</time>
      </trkpt>
      <trkpt lat="42.77645367197692394256591796875" lon="-0.16858689486980438232421875">
        <ele>2226.199951171875</ele>
        <time>2022-08-06T07:12:31.000Z</time>
      </trkpt>
      <trkpt lat="42.77626826427876949310302734375" lon="-0.16858194954693317413330078125">
        <ele>2222.800048828125</ele>
        <time>2022-08-06T07:12:45.000Z</time>
      </trkpt>
      <trkpt lat="42.7760794200003147125244140625" lon="-0.1686184108257293701171875">
        <ele>2221.39990234375</ele>
        <time>2022-08-06T07:13:00.000Z</time>
      </trkpt>
      <trkpt lat="42.77600456960499286651611328125" lon="-0.168615393340587615966796875">
        <ele>2221.39990234375</ele>
        <time>2022-08-06T07:13:06.000Z</time>
      </trkpt>
      <trkpt lat="42.77582041919231414794921875" lon="-0.1686155609786510467529296875">
        <ele>2220.800048828125</ele>
        <time>2022-08-06T07:13:20.000Z</time>
      </trkpt>
      <trkpt lat="42.77566426433622837066650390625" lon="-0.16859167255461215972900390625">
        <ele>2219.800048828125</ele>
        <time>2022-08-06T07:13:32.000Z</time>
      </trkpt>
      <trkpt lat="42.77561581693589687347412109375" lon="-0.1685974560678005218505859375">
        <ele>2219.60009765625</ele>
        <time>2022-08-06T07:13:36.000Z</time>
      </trkpt>
      <trkpt lat="42.77542353607714176177978515625" lon="-0.1685998030006885528564453125">
        <ele>2217.60009765625</ele>
        <time>2022-08-06T07:13:49.000Z</time>
      </trkpt>
      <trkpt lat="42.7754095382988452911376953125" lon="-0.168599970638751983642578125">
        <ele>2217.39990234375</ele>
        <time>2022-08-06T07:13:50.000Z</time>
      </trkpt>
      <trkpt lat="42.77522941119968891143798828125" lon="-0.16858689486980438232421875">
        <ele>2216.39990234375</ele>
        <time>2022-08-06T07:14:05.000Z</time>
      </trkpt>
      <trkpt lat="42.7750454284250736236572265625" lon="-0.16859334893524646759033203125">
        <ele>2216.60009765625</ele>
        <time>2022-08-06T07:14:21.000Z</time>
      </trkpt>
      <trkpt lat="42.77496077120304107666015625" lon="-0.168601311743259429931640625">
        <ele>2216.800048828125</ele>
        <time>2022-08-06T07:14:28.000Z</time>
      </trkpt>
      <trkpt lat="42.7748997509479522705078125" lon="-0.1685971207916736602783203125">
        <ele>2216.800048828125</ele>
        <time>2022-08-06T07:14:33.000Z</time>
      </trkpt>
      <trkpt lat="42.7748781256377696990966796875" lon="-0.1686004735529422760009765625">
        <ele>2216.800048828125</ele>
        <time>2022-08-06T07:14:35.000Z</time>
      </trkpt>
      <trkpt lat="42.774782739579677581787109375" lon="-0.16859360039234161376953125">
        <ele>2216.800048828125</ele>
        <time>2022-08-06T07:14:42.000Z</time>
      </trkpt>
      <trkpt lat="42.77467050589621067047119140625" lon="-0.16858614049851894378662109375">
        <ele>2216</ele>
        <time>2022-08-06T07:14:51.000Z</time>
      </trkpt>
      <trkpt lat="42.77466027997434139251708984375" lon="-0.16857641749083995819091796875">
        <ele>2215.800048828125</ele>
        <time>2022-08-06T07:14:52.000Z</time>
      </trkpt>
      <trkpt lat="42.774521894752979278564453125" lon="-0.1684097014367580413818359375">
        <ele>2211.199951171875</ele>
        <time>2022-08-06T07:15:08.000Z</time>
      </trkpt>
      <trkpt lat="42.774460203945636749267578125" lon="-0.1683855615556240081787109375">
        <ele>2209.800048828125</ele>
        <time>2022-08-06T07:15:14.000Z</time>
      </trkpt>
      <trkpt lat="42.7744335494935512542724609375" lon="-0.16837893985211849212646484375">
        <ele>2209.199951171875</ele>
        <time>2022-08-06T07:15:18.000Z</time>
      </trkpt>
      <trkpt lat="42.7743061445653438568115234375" lon="-0.168360583484172821044921875">
        <ele>2207.60009765625</ele>
        <time>2022-08-06T07:15:33.000Z</time>
      </trkpt>
      <trkpt lat="42.7741433680057525634765625" lon="-0.168238542973995208740234375">
        <ele>2202.800048828125</ele>
        <time>2022-08-06T07:15:51.000Z</time>
      </trkpt>
      <trkpt lat="42.774115540087223052978515625" lon="-0.1681857369840145111083984375">
        <ele>2200.800048828125</ele>
        <time>2022-08-06T07:15:55.000Z</time>
      </trkpt>
      <trkpt lat="42.7740526758134365081787109375" lon="-0.16812597401440143585205078125">
        <ele>2198</ele>
        <time>2022-08-06T07:16:01.000Z</time>
      </trkpt>
      <trkpt lat="42.7738823555409908294677734375" lon="-0.1680630259215831756591796875">
        <ele>2192.199951171875</ele>
        <time>2022-08-06T07:16:17.000Z</time>
      </trkpt>
      <trkpt lat="42.77387372218072414398193359375" lon="-0.16805489547550678253173828125">
        <ele>2191.60009765625</ele>
        <time>2022-08-06T07:16:18.000Z</time>
      </trkpt>
      <trkpt lat="42.773851342499256134033203125" lon="-0.16804031096398830413818359375">
        <ele>2190.800048828125</ele>
        <time>2022-08-06T07:16:20.000Z</time>
      </trkpt>
      <trkpt lat="42.77379761449992656707763671875" lon="-0.16803846694529056549072265625">
        <ele>2189.39990234375</ele>
        <time>2022-08-06T07:16:24.000Z</time>
      </trkpt>
      <trkpt lat="42.773664928972721099853515625" lon="-0.16808020882308483123779296875">
        <ele>2187.199951171875</ele>
        <time>2022-08-06T07:16:35.000Z</time>
      </trkpt>
      <trkpt lat="42.7736245281994342803955078125" lon="-0.16808473505079746246337890625">
        <ele>2186.800048828125</ele>
        <time>2022-08-06T07:16:39.000Z</time>
      </trkpt>
      <trkpt lat="42.77359016239643096923828125" lon="-0.1680844835937023162841796875">
        <ele>2186.199951171875</ele>
        <time>2022-08-06T07:16:42.000Z</time>
      </trkpt>
      <trkpt lat="42.7735380269587039947509765625" lon="-0.16807048581540584564208984375">
        <ele>2184.800048828125</ele>
        <time>2022-08-06T07:16:46.000Z</time>
      </trkpt>
      <trkpt lat="42.77335002087056636810302734375" lon="-0.16807350330054759979248046875">
        <ele>2180.60009765625</ele>
        <time>2022-08-06T07:17:03.000Z</time>
      </trkpt>
      <trkpt lat="42.7733257971704006195068359375" lon="-0.16807937063276767730712890625">
        <ele>2180.199951171875</ele>
        <time>2022-08-06T07:17:06.000Z</time>
      </trkpt>
      <trkpt lat="42.7732993103563785552978515625" lon="-0.16810971312224864959716796875">
        <ele>2180.800048828125</ele>
        <time>2022-08-06T07:17:10.000Z</time>
      </trkpt>
      <trkpt lat="42.77316209860146045684814453125" lon="-0.16819252632558345794677734375">
        <ele>2181</ele>
        <time>2022-08-06T07:17:25.000Z</time>
      </trkpt>
      <trkpt lat="42.77298322878777980804443359375" lon="-0.16820191405713558197021484375">
        <ele>2180.800048828125</ele>
        <time>2022-08-06T07:17:43.000Z</time>
      </trkpt>
      <trkpt lat="42.77290628291666507720947265625" lon="-0.168232508003711700439453125">
        <ele>2181.800048828125</ele>
        <time>2022-08-06T07:17:50.000Z</time>
      </trkpt>
      <trkpt lat="42.7728225477039813995361328125" lon="-0.16820660792291164398193359375">
        <ele>2180</ele>
        <time>2022-08-06T07:17:58.000Z</time>
      </trkpt>
      <trkpt lat="42.7726413309574127197265625" lon="-0.1681854017078876495361328125">
        <ele>2175.39990234375</ele>
        <time>2022-08-06T07:18:15.000Z</time>
      </trkpt>
      <trkpt lat="42.772460281848907470703125" lon="-0.1681159995496273040771484375">
        <ele>2169</ele>
        <time>2022-08-06T07:18:33.000Z</time>
      </trkpt>
      <trkpt lat="42.77236640453338623046875" lon="-0.16806629486382007598876953125">
        <ele>2165.800048828125</ele>
        <time>2022-08-06T07:18:41.000Z</time>
      </trkpt>
      <trkpt lat="42.7723471261560916900634765625" lon="-0.16805036924779415130615234375">
        <ele>2165</ele>
        <time>2022-08-06T07:18:43.000Z</time>
      </trkpt>
      <trkpt lat="42.772246040403842926025390625" lon="-0.16801063902676105499267578125">
        <ele>2162.60009765625</ele>
        <time>2022-08-06T07:18:54.000Z</time>
      </trkpt>
      <trkpt lat="42.77223623357713222503662109375" lon="-0.16799404285848140716552734375">
        <ele>2161.800048828125</ele>
        <time>2022-08-06T07:18:56.000Z</time>
      </trkpt>
      <trkpt lat="42.77217387221753597259521484375" lon="-0.16795313917100429534912109375">
        <ele>2159.60009765625</ele>
        <time>2022-08-06T07:19:02.000Z</time>
      </trkpt>
      <trkpt lat="42.7719962596893310546875" lon="-0.1678808033466339111328125">
        <ele>2155.39990234375</ele>
        <time>2022-08-06T07:19:22.000Z</time>
      </trkpt>
      <trkpt lat="42.77193264104425907135009765625" lon="-0.16781039535999298095703125">
        <ele>2154</ele>
        <time>2022-08-06T07:19:31.000Z</time>
      </trkpt>
      <trkpt lat="42.77176584117114543914794921875" lon="-0.16774744726717472076416015625">
        <ele>2151.60009765625</ele>
        <time>2022-08-06T07:19:56.000Z</time>
      </trkpt>
      <trkpt lat="42.77158210985362529754638671875" lon="-0.1677646301686763763427734375">
        <ele>2151.800048828125</ele>
        <time>2022-08-06T07:20:11.000Z</time>
      </trkpt>
      <trkpt lat="42.77145688422024250030517578125" lon="-0.16780100762844085693359375">
        <ele>2152.39990234375</ele>
        <time>2022-08-06T07:20:22.000Z</time>
      </trkpt>
      <trkpt lat="42.77140541933476924896240234375" lon="-0.16780964098870754241943359375">
        <ele>2151.39990234375</ele>
        <time>2022-08-06T07:20:27.000Z</time>
      </trkpt>
      <trkpt lat="42.77129209600389003753662109375" lon="-0.1677800528705120086669921875">
        <ele>2148.60009765625</ele>
        <time>2022-08-06T07:20:58.000Z</time>
      </trkpt>
      <trkpt lat="42.77112445794045925140380859375" lon="-0.16774141229689121246337890625">
        <ele>2144.60009765625</ele>
        <time>2022-08-06T07:21:24.000Z</time>
      </trkpt>
      <trkpt lat="42.77108858339488506317138671875" lon="-0.1676818169653415679931640625">
        <ele>2144</ele>
        <time>2022-08-06T07:22:05.000Z</time>
      </trkpt>
      <trkpt lat="42.77093418873846530914306640625" lon="-0.1677629537880420684814453125">
        <ele>2140.60009765625</ele>
        <time>2022-08-06T07:22:34.000Z</time>
      </trkpt>
      <trkpt lat="42.77087249793112277984619140625" lon="-0.16782539896667003631591796875">
        <ele>2139.199951171875</ele>
        <time>2022-08-06T07:22:50.000Z</time>
      </trkpt>
      <trkpt lat="42.7707726694643497467041015625" lon="-0.1679540611803531646728515625">
        <ele>2137</ele>
        <time>2022-08-06T07:23:16.000Z</time>
      </trkpt>
      <trkpt lat="42.7706191129982471466064453125" lon="-0.16794542782008647918701171875">
        <ele>2134</ele>
        <time>2022-08-06T07:23:45.000Z</time>
      </trkpt>
      <trkpt lat="42.7704464457929134368896484375" lon="-0.16798716969788074493408203125">
        <ele>2131.39990234375</ele>
        <time>2022-08-06T07:24:01.000Z</time>
      </trkpt>
      <trkpt lat="42.7702724374830722808837890625" lon="-0.1680422388017177581787109375">
        <ele>2128.800048828125</ele>
        <time>2022-08-06T07:24:19.000Z</time>
      </trkpt>
      <trkpt lat="42.77013145387172698974609375" lon="-0.1681455038487911224365234375">
        <ele>2127</ele>
        <time>2022-08-06T07:24:37.000Z</time>
      </trkpt>
      <trkpt lat="42.76996473781764507293701171875" lon="-0.16823493875563144683837890625">
        <ele>2123.199951171875</ele>
        <time>2022-08-06T07:24:56.000Z</time>
      </trkpt>
      <trkpt lat="42.76981419883668422698974609375" lon="-0.168346501886844635009765625">
        <ele>2119.39990234375</ele>
        <time>2022-08-06T07:25:19.000Z</time>
      </trkpt>
      <trkpt lat="42.76969182305037975311279296875" lon="-0.16826444305479526519775390625">
        <ele>2116.800048828125</ele>
        <time>2022-08-06T07:25:33.000Z</time>
      </trkpt>
      <trkpt lat="42.76958922855556011199951171875" lon="-0.16828238032758235931396484375">
        <ele>2114.60009765625</ele>
        <time>2022-08-06T07:25:41.000Z</time>
      </trkpt>
      <trkpt lat="42.76953441090881824493408203125" lon="-0.16828338615596294403076171875">
        <ele>2113.39990234375</ele>
        <time>2022-08-06T07:25:46.000Z</time>
      </trkpt>
      <trkpt lat="42.76944254525005817413330078125" lon="-0.1682765968143939971923828125">
        <ele>2111.199951171875</ele>
        <time>2022-08-06T07:25:55.000Z</time>
      </trkpt>
      <trkpt lat="42.76929586194455623626708984375" lon="-0.16829914413392543792724609375">
        <ele>2108.39990234375</ele>
        <time>2022-08-06T07:26:10.000Z</time>
      </trkpt>
      <trkpt lat="42.76912026107311248779296875" lon="-0.16838212497532367706298828125">
        <ele>2103</ele>
        <time>2022-08-06T07:26:27.000Z</time>
      </trkpt>
      <trkpt lat="42.7689908444881439208984375" lon="-0.1685674488544464111328125">
        <ele>2097.60009765625</ele>
        <time>2022-08-06T07:26:43.000Z</time>
      </trkpt>
      <trkpt lat="42.768847011029720306396484375" lon="-0.1686447300016880035400390625">
        <ele>2094</ele>
        <time>2022-08-06T07:26:57.000Z</time>
      </trkpt>
      <trkpt lat="42.7687392197549343109130859375" lon="-0.16883642412722110748291015625">
        <ele>2091.199951171875</ele>
        <time>2022-08-06T07:27:16.000Z</time>
      </trkpt>
      <trkpt lat="42.76873041875660419464111328125" lon="-0.1688651740550994873046875">
        <ele>2091</ele>
        <time>2022-08-06T07:27:18.000Z</time>
      </trkpt>
      <trkpt lat="42.76860938407480716705322265625" lon="-0.16901344992220401763916015625">
        <ele>2089</ele>
        <time>2022-08-06T07:27:51.000Z</time>
      </trkpt>
      <trkpt lat="42.7684337832033634185791015625" lon="-0.168949998915195465087890625">
        <ele>2086.800048828125</ele>
        <time>2022-08-06T07:28:09.000Z</time>
      </trkpt>
      <trkpt lat="42.768374271690845489501953125" lon="-0.16896399669349193572998046875">
        <ele>2085.60009765625</ele>
        <time>2022-08-06T07:28:14.000Z</time>
      </trkpt>
      <trkpt lat="42.7682963199913501739501953125" lon="-0.168955028057098388671875">
        <ele>2083.60009765625</ele>
        <time>2022-08-06T07:28:22.000Z</time>
      </trkpt>
      <trkpt lat="42.76811820454895496368408203125" lon="-0.168975479900836944580078125">
        <ele>2079.800048828125</ele>
        <time>2022-08-06T07:28:43.000Z</time>
      </trkpt>
      <trkpt lat="42.76799147017300128936767578125" lon="-0.16914772801101207733154296875">
        <ele>2075.199951171875</ele>
        <time>2022-08-06T07:28:59.000Z</time>
      </trkpt>
      <trkpt lat="42.76794251985847949981689453125" lon="-0.169236995279788970947265625">
        <ele>2073.60009765625</ele>
        <time>2022-08-06T07:29:06.000Z</time>
      </trkpt>
      <trkpt lat="42.7678815834224224090576171875" lon="-0.16945366747677326202392578125">
        <ele>2071.39990234375</ele>
        <time>2022-08-06T07:29:54.000Z</time>
      </trkpt>
      <trkpt lat="42.767844535410404205322265625" lon="-0.16963429749011993408203125">
        <ele>2069.800048828125</ele>
        <time>2022-08-06T07:30:06.000Z</time>
      </trkpt>
      <trkpt lat="42.76781125925481319427490234375" lon="-0.16971786506474018096923828125">
        <ele>2069.199951171875</ele>
        <time>2022-08-06T07:30:12.000Z</time>
      </trkpt>
      <trkpt lat="42.7677977643907070159912109375" lon="-0.16974049620330333709716796875">
        <ele>2068.800048828125</ele>
        <time>2022-08-06T07:30:14.000Z</time>
      </trkpt>
      <trkpt lat="42.76779080741107463836669921875" lon="-0.16974820755422115325927734375">
        <ele>2068.60009765625</ele>
        <time>2022-08-06T07:30:15.000Z</time>
      </trkpt>
      <trkpt lat="42.76777287013828754425048828125" lon="-0.16975558362901210784912109375">
        <ele>2068.199951171875</ele>
        <time>2022-08-06T07:30:17.000Z</time>
      </trkpt>
      <trkpt lat="42.76775124482810497283935546875" lon="-0.16987896524369716644287109375">
        <ele>2067.800048828125</ele>
        <time>2022-08-06T07:31:06.000Z</time>
      </trkpt>
      <trkpt lat="42.76775996200740337371826171875" lon="-0.16968383453786373138427734375">
        <ele>2068</ele>
        <time>2022-08-06T07:32:04.000Z</time>
      </trkpt>
      <trkpt lat="42.76768050156533718109130859375" lon="-0.16950747929513454437255859375">
        <ele>2066.60009765625</ele>
        <time>2022-08-06T07:32:24.000Z</time>
      </trkpt>
      <trkpt lat="42.76750297285616397857666015625" lon="-0.1695141009986400604248046875">
        <ele>2061.60009765625</ele>
        <time>2022-08-06T07:32:45.000Z</time>
      </trkpt>
      <trkpt lat="42.76744279079139232635498046875" lon="-0.1695456169545650482177734375">
        <ele>2059.800048828125</ele>
        <time>2022-08-06T07:32:51.000Z</time>
      </trkpt>
      <trkpt lat="42.7674271166324615478515625" lon="-0.16956095583736896514892578125">
        <ele>2059.199951171875</ele>
        <time>2022-08-06T07:32:54.000Z</time>
      </trkpt>
      <trkpt lat="42.7673461474478244781494140625" lon="-0.16960680484771728515625">
        <ele>2056.60009765625</ele>
        <time>2022-08-06T07:33:02.000Z</time>
      </trkpt>
      <trkpt lat="42.76723039336502552032470703125" lon="-0.1695794798433780670166015625">
        <ele>2054.199951171875</ele>
        <time>2022-08-06T07:34:02.000Z</time>
      </trkpt>
      <trkpt lat="42.76719921268522739410400390625" lon="-0.1695714332163333892822265625">
        <ele>2053.60009765625</ele>
        <time>2022-08-06T07:34:22.000Z</time>
      </trkpt>
      <trkpt lat="42.7671597339212894439697265625" lon="-0.16976572573184967041015625">
        <ele>2047.199951171875</ele>
        <time>2022-08-06T07:35:00.000Z</time>
      </trkpt>
      <trkpt lat="42.7671758271753787994384765625" lon="-0.169934369623661041259765625">
        <ele>2043.4000244140625</ele>
        <time>2022-08-06T07:35:43.000Z</time>
      </trkpt>
      <trkpt lat="42.7671322412788867950439453125" lon="-0.1699621975421905517578125">
        <ele>2041.199951171875</ele>
        <time>2022-08-06T07:35:54.000Z</time>
      </trkpt>
      <trkpt lat="42.767133750021457672119140625" lon="-0.17005414701998233795166015625">
        <ele>2038.5999755859375</ele>
        <time>2022-08-06T07:35:59.000Z</time>
      </trkpt>
      <trkpt lat="42.767094857990741729736328125" lon="-0.17025950364768505096435546875">
        <ele>2033.199951171875</ele>
        <time>2022-08-06T07:36:37.000Z</time>
      </trkpt>
      <trkpt lat="42.7670373581349849700927734375" lon="-0.17049302347004413604736328125">
        <ele>2028</ele>
        <time>2022-08-06T07:36:58.000Z</time>
      </trkpt>
      <trkpt lat="42.76696971617639064788818359375" lon="-0.17067071981728076934814453125">
        <ele>2025.4000244140625</ele>
        <time>2022-08-06T07:37:29.000Z</time>
      </trkpt>
      <trkpt lat="42.76692688465118408203125" lon="-0.17074548639357089996337890625">
        <ele>2024</ele>
        <time>2022-08-06T07:37:38.000Z</time>
      </trkpt>
      <trkpt lat="42.76694373227655887603759765625" lon="-0.1709222607314586639404296875">
        <ele>2025.199951171875</ele>
        <time>2022-08-06T07:37:57.000Z</time>
      </trkpt>
      <trkpt lat="42.76700156740844249725341796875" lon="-0.170945227146148681640625">
        <ele>2026.5999755859375</ele>
        <time>2022-08-06T07:38:59.000Z</time>
      </trkpt>
      <trkpt lat="42.76698119938373565673828125" lon="-0.1709678582847118377685546875">
        <ele>2026</ele>
        <time>2022-08-06T07:39:02.000Z</time>
      </trkpt>
      <trkpt lat="42.7669451572000980377197265625" lon="-0.1709306426346302032470703125">
        <ele>2025.199951171875</ele>
        <time>2022-08-06T07:39:39.000Z</time>
      </trkpt>
      <trkpt lat="42.7669236995279788970947265625" lon="-0.17096106894314289093017578125">
        <ele>2024.5999755859375</ele>
        <time>2022-08-06T07:40:56.000Z</time>
      </trkpt>
      <trkpt lat="42.76695303618907928466796875" lon="-0.17101018689572811126708984375">
        <ele>2025.4000244140625</ele>
        <time>2022-08-06T07:42:48.000Z</time>
      </trkpt>
      <trkpt lat="42.7669703029096126556396484375" lon="-0.17109953798353672027587890625">
        <ele>2027.800048828125</ele>
        <time>2022-08-06T07:43:42.000Z</time>
      </trkpt>
      <trkpt lat="42.76691925711929798126220703125" lon="-0.17130154184997081756591796875">
        <ele>2031.4000244140625</ele>
        <time>2022-08-06T07:44:09.000Z</time>
      </trkpt>
      <trkpt lat="42.76687013916671276092529296875" lon="-0.17146968282759189605712890625">
        <ele>2035.800048828125</ele>
        <time>2022-08-06T07:44:51.000Z</time>
      </trkpt>
      <trkpt lat="42.76668909005820751190185546875" lon="-0.17151980660855770111083984375">
        <ele>2034.4000244140625</ele>
        <time>2022-08-06T07:45:30.000Z</time>
      </trkpt>
      <trkpt lat="42.76652161963284015655517578125" lon="-0.17156951129436492919921875">
        <ele>2033.5999755859375</ele>
        <time>2022-08-06T07:46:05.000Z</time>
      </trkpt>
      <trkpt lat="42.76648339815437793731689453125" lon="-0.1717108301818370819091796875">
        <ele>2038.199951171875</ele>
        <time>2022-08-06T07:46:57.000Z</time>
      </trkpt>
      <trkpt lat="42.76648440398275852203369140625" lon="-0.171732120215892791748046875">
        <ele>2039</ele>
        <time>2022-08-06T07:47:00.000Z</time>
      </trkpt>
      <trkpt lat="42.76658833958208560943603515625" lon="-0.17193152569234371185302734375">
        <ele>2047.5999755859375</ele>
        <time>2022-08-06T07:47:36.000Z</time>
      </trkpt>
      <trkpt lat="42.76656403206288814544677734375" lon="-0.172165296971797943115234375">
        <ele>2055.199951171875</ele>
        <time>2022-08-06T07:48:00.000Z</time>
      </trkpt>
      <trkpt lat="42.76659227907657623291015625" lon="-0.17229043878614902496337890625">
        <ele>2058.199951171875</ele>
        <time>2022-08-06T07:48:59.000Z</time>
      </trkpt>
      <trkpt lat="42.766685821115970611572265625" lon="-0.17248774878680706024169921875">
        <ele>2061.800048828125</ele>
        <time>2022-08-06T07:49:32.000Z</time>
      </trkpt>
      <trkpt lat="42.76674692519009113311767578125" lon="-0.17268262803554534912109375">
        <ele>2065</ele>
        <time>2022-08-06T07:50:12.000Z</time>
      </trkpt>
      <trkpt lat="42.76683694683015346527099609375" lon="-0.1728509366512298583984375">
        <ele>2069.39990234375</ele>
        <time>2022-08-06T07:50:41.000Z</time>
      </trkpt>
      <trkpt lat="42.76690006256103515625" lon="-0.1730328239500522613525390625">
        <ele>2074.60009765625</ele>
        <time>2022-08-06T07:51:11.000Z</time>
      </trkpt>
      <trkpt lat="42.76694624684751033782958984375" lon="-0.17322535626590251922607421875">
        <ele>2078.60009765625</ele>
        <time>2022-08-06T07:51:41.000Z</time>
      </trkpt>
      <trkpt lat="42.76690785773098468780517578125" lon="-0.17345736734569072723388671875">
        <ele>2081</ele>
        <time>2022-08-06T07:52:08.000Z</time>
      </trkpt>
      <trkpt lat="42.76679956354200839996337890625" lon="-0.1736306212842464447021484375">
        <ele>2084</ele>
        <time>2022-08-06T07:52:31.000Z</time>
      </trkpt>
      <trkpt lat="42.7667275629937648773193359375" lon="-0.1738348044455051422119140625">
        <ele>2090</ele>
        <time>2022-08-06T07:52:58.000Z</time>
      </trkpt>
      <trkpt lat="42.7667942829430103302001953125" lon="-0.174003280699253082275390625">
        <ele>2095.60009765625</ele>
        <time>2022-08-06T07:53:34.000Z</time>
      </trkpt>
      <trkpt lat="42.76688329875469207763671875" lon="-0.1741590164601802825927734375">
        <ele>2098.39990234375</ele>
        <time>2022-08-06T07:54:07.000Z</time>
      </trkpt>
      <trkpt lat="42.76697541587054729461669921875" lon="-0.17419916577637195587158203125">
        <ele>2100.60009765625</ele>
        <time>2022-08-06T07:55:15.000Z</time>
      </trkpt>
      <trkpt lat="42.76693333871662616729736328125" lon="-0.17421006225049495697021484375">
        <ele>2100.199951171875</ele>
        <time>2022-08-06T07:56:54.000Z</time>
      </trkpt>
      <trkpt lat="42.76696376502513885498046875" lon="-0.17416496761143207550048828125">
        <ele>2098.800048828125</ele>
        <time>2022-08-06T07:58:25.000Z</time>
      </trkpt>
      <trkpt lat="42.76694205589592456817626953125" lon="-0.174178294837474822998046875">
        <ele>2099</ele>
        <time>2022-08-06T08:00:34.000Z</time>
      </trkpt>
      <trkpt lat="42.76693384163081645965576171875" lon="-0.1742161810398101806640625">
        <ele>2100.60009765625</ele>
        <time>2022-08-06T08:02:38.000Z</time>
      </trkpt>
      <trkpt lat="42.7669407986104488372802734375" lon="-0.1742026023566722869873046875">
        <ele>2100</ele>
        <time>2022-08-06T08:04:39.000Z</time>
      </trkpt>
      <trkpt lat="42.76694096624851226806640625" lon="-0.17420478165149688720703125">
        <ele>2100.199951171875</ele>
        <time>2022-08-06T08:06:44.000Z</time>
      </trkpt>
      <trkpt lat="42.76695144362747669219970703125" lon="-0.17419539391994476318359375">
        <ele>2100</ele>
        <time>2022-08-06T08:09:19.000Z</time>
      </trkpt>
      <trkpt lat="42.76693233288824558258056640625" lon="-0.17423587851226329803466796875">
        <ele>2101.39990234375</ele>
        <time>2022-08-06T08:10:46.000Z</time>
      </trkpt>
      <trkpt lat="42.76693384163081645965576171875" lon="-0.17447073943912982940673828125">
        <ele>2107.60009765625</ele>
        <time>2022-08-06T08:11:18.000Z</time>
      </trkpt>
      <trkpt lat="42.76699167676270008087158203125" lon="-0.17468682490289211273193359375">
        <ele>2113.199951171875</ele>
        <time>2022-08-06T08:11:48.000Z</time>
      </trkpt>
      <trkpt lat="42.7669273875653743743896484375" lon="-0.17489754594862461090087890625">
        <ele>2119</ele>
        <time>2022-08-06T08:12:15.000Z</time>
      </trkpt>
      <trkpt lat="42.766886316239833831787109375" lon="-0.1750273816287517547607421875">
        <ele>2121.199951171875</ele>
        <time>2022-08-06T08:12:31.000Z</time>
      </trkpt>
      <trkpt lat="42.7668737433850765228271484375" lon="-0.17525310628116130828857421875">
        <ele>2127.60009765625</ele>
        <time>2022-08-06T08:13:01.000Z</time>
      </trkpt>
      <trkpt lat="42.76688287965953350067138671875" lon="-0.1754840277135372161865234375">
        <ele>2131.60009765625</ele>
        <time>2022-08-06T08:13:26.000Z</time>
      </trkpt>
      <trkpt lat="42.76686611585319042205810546875" lon="-0.17572651617228984832763671875">
        <ele>2132</ele>
        <time>2022-08-06T08:13:49.000Z</time>
      </trkpt>
      <trkpt lat="42.7668584883213043212890625" lon="-0.1759691722691059112548828125">
        <ele>2132.39990234375</ele>
        <time>2022-08-06T08:14:14.000Z</time>
      </trkpt>
      <trkpt lat="42.7668090350925922393798828125" lon="-0.1761948131024837493896484375">
        <ele>2131.60009765625</ele>
        <time>2022-08-06T08:14:35.000Z</time>
      </trkpt>
      <trkpt lat="42.766800820827484130859375" lon="-0.17621199600398540496826171875">
        <ele>2131.39990234375</ele>
        <time>2022-08-06T08:14:39.000Z</time>
      </trkpt>
      <trkpt lat="42.7667543850839138031005859375" lon="-0.1764424145221710205078125">
        <ele>2130</ele>
        <time>2022-08-06T08:15:00.000Z</time>
      </trkpt>
      <trkpt lat="42.76669411920011043548583984375" lon="-0.17650553025305271148681640625">
        <ele>2129.800048828125</ele>
        <time>2022-08-06T08:15:10.000Z</time>
      </trkpt>
      <trkpt lat="42.7666880004107952117919921875" lon="-0.176560766994953155517578125">
        <ele>2130</ele>
        <time>2022-08-06T08:15:15.000Z</time>
      </trkpt>
      <trkpt lat="42.766593955457210540771484375" lon="-0.17665497958660125732421875">
        <ele>2130.800048828125</ele>
        <time>2022-08-06T08:15:57.000Z</time>
      </trkpt>
      <trkpt lat="42.76655967347323894500732421875" lon="-0.176694206893444061279296875">
        <ele>2131.199951171875</ele>
        <time>2022-08-06T08:16:02.000Z</time>
      </trkpt>
      <trkpt lat="42.7665607631206512451171875" lon="-0.17668926157057285308837890625">
        <ele>2131.199951171875</ele>
        <time>2022-08-06T08:16:04.000Z</time>
      </trkpt>
      <trkpt lat="42.76652346365153789520263671875" lon="-0.17671155743300914764404296875">
        <ele>2131.39990234375</ele>
        <time>2022-08-06T08:17:10.000Z</time>
      </trkpt>
      <trkpt lat="42.76653201319277286529541015625" lon="-0.17695547081530094146728515625">
        <ele>2134.199951171875</ele>
        <time>2022-08-06T08:17:31.000Z</time>
      </trkpt>
      <trkpt lat="42.76659152470529079437255859375" lon="-0.17718781717121601104736328125">
        <ele>2136.39990234375</ele>
        <time>2022-08-06T08:17:55.000Z</time>
      </trkpt>
      <trkpt lat="42.766542993485927581787109375" lon="-0.17739568836987018585205078125">
        <ele>2139.60009765625</ele>
        <time>2022-08-06T08:18:26.000Z</time>
      </trkpt>
      <trkpt lat="42.76653595268726348876953125" lon="-0.177634321153163909912109375">
        <ele>2141.39990234375</ele>
        <time>2022-08-06T08:18:54.000Z</time>
      </trkpt>
      <trkpt lat="42.76648188941180706024169921875" lon="-0.17786188982427120208740234375">
        <ele>2144.60009765625</ele>
        <time>2022-08-06T08:19:19.000Z</time>
      </trkpt>
      <trkpt lat="42.766455821692943572998046875" lon="-0.1780938170850276947021484375">
        <ele>2147.800048828125</ele>
        <time>2022-08-06T08:19:49.000Z</time>
      </trkpt>
      <trkpt lat="42.76643629185855388641357421875" lon="-0.17831350676715373992919921875">
        <ele>2151.60009765625</ele>
        <time>2022-08-06T08:20:25.000Z</time>
      </trkpt>
      <trkpt lat="42.76641349308192729949951171875" lon="-0.17852975986897945404052734375">
        <ele>2156.39990234375</ele>
        <time>2022-08-06T08:20:54.000Z</time>
      </trkpt>
      <trkpt lat="42.7664507925510406494140625" lon="-0.1787623576819896697998046875">
        <ele>2160.39990234375</ele>
        <time>2022-08-06T08:21:27.000Z</time>
      </trkpt>
      <trkpt lat="42.76652061380445957183837890625" lon="-0.17898674122989177703857421875">
        <ele>2164.199951171875</ele>
        <time>2022-08-06T08:21:53.000Z</time>
      </trkpt>
      <trkpt lat="42.76649999432265758514404296875" lon="-0.179198049008846282958984375">
        <ele>2164.60009765625</ele>
        <time>2022-08-06T08:22:25.000Z</time>
      </trkpt>
      <trkpt lat="42.76641030795872211456298828125" lon="-0.17940583638846874237060546875">
        <ele>2165</ele>
        <time>2022-08-06T08:22:53.000Z</time>
      </trkpt>
      <trkpt lat="42.76633788831532001495361328125" lon="-0.17962795682251453399658203125">
        <ele>2165.800048828125</ele>
        <time>2022-08-06T08:23:15.000Z</time>
      </trkpt>
      <trkpt lat="42.76632514782249927520751953125" lon="-0.17978000454604625701904296875">
        <ele>2166</ele>
        <time>2022-08-06T08:23:27.000Z</time>
      </trkpt>
      <trkpt lat="42.7662186138331890106201171875" lon="-0.17997530288994312286376953125">
        <ele>2168.800048828125</ele>
        <time>2022-08-06T08:23:51.000Z</time>
      </trkpt>
      <trkpt lat="42.76615566574037075042724609375" lon="-0.18020882271230220794677734375">
        <ele>2172.800048828125</ele>
        <time>2022-08-06T08:24:14.000Z</time>
      </trkpt>
      <trkpt lat="42.76611174456775188446044921875" lon="-0.180439911782741546630859375">
        <ele>2181.800048828125</ele>
        <time>2022-08-06T08:24:38.000Z</time>
      </trkpt>
      <trkpt lat="42.76606497354805469512939453125" lon="-0.18066949211061000823974609375">
        <ele>2188.199951171875</ele>
        <time>2022-08-06T08:25:05.000Z</time>
      </trkpt>
      <trkpt lat="42.765910662710666656494140625" lon="-0.1807944662868976593017578125">
        <ele>2195.199951171875</ele>
        <time>2022-08-06T08:25:38.000Z</time>
      </trkpt>
      <trkpt lat="42.76585106737911701202392578125" lon="-0.18100996501743793487548828125">
        <ele>2198.39990234375</ele>
        <time>2022-08-06T08:26:04.000Z</time>
      </trkpt>
      <trkpt lat="42.76581519283354282379150390625" lon="-0.18111825920641422271728515625">
        <ele>2198.60009765625</ele>
        <time>2022-08-06T08:26:14.000Z</time>
      </trkpt>
      <trkpt lat="42.76579608209431171417236328125" lon="-0.181346498429775238037109375">
        <ele>2198</ele>
        <time>2022-08-06T08:26:40.000Z</time>
      </trkpt>
      <trkpt lat="42.76567655615508556365966796875" lon="-0.18151120282709598541259765625">
        <ele>2199.39990234375</ele>
        <time>2022-08-06T08:27:07.000Z</time>
      </trkpt>
      <trkpt lat="42.7655160427093505859375" lon="-0.18161044456064701080322265625">
        <ele>2201.39990234375</ele>
        <time>2022-08-06T08:27:34.000Z</time>
      </trkpt>
      <trkpt lat="42.7653931640088558197021484375" lon="-0.1816899888217449188232421875">
        <ele>2203</ele>
        <time>2022-08-06T08:27:51.000Z</time>
      </trkpt>
      <trkpt lat="42.7653914876282215118408203125" lon="-0.18173416145145893096923828125">
        <ele>2203.199951171875</ele>
        <time>2022-08-06T08:27:55.000Z</time>
      </trkpt>
      <trkpt lat="42.765368856489658355712890625" lon="-0.1819689385592937469482421875">
        <ele>2205.199951171875</ele>
        <time>2022-08-06T08:28:21.000Z</time>
      </trkpt>
      <trkpt lat="42.76537681929767131805419921875" lon="-0.1821473054587841033935546875">
        <ele>2207</ele>
        <time>2022-08-06T08:28:35.000Z</time>
      </trkpt>
      <trkpt lat="42.76539391838014125823974609375" lon="-0.18223187886178493499755859375">
        <ele>2208</ele>
        <time>2022-08-06T08:28:42.000Z</time>
      </trkpt>
      <trkpt lat="42.76540950872004032135009765625" lon="-0.1822623051702976226806640625">
        <ele>2208.199951171875</ele>
        <time>2022-08-06T08:28:45.000Z</time>
      </trkpt>
      <trkpt lat="42.76546969078481197357177734375" lon="-0.18248199485242366790771484375">
        <ele>2208</ele>
        <time>2022-08-06T08:29:07.000Z</time>
      </trkpt>
      <trkpt lat="42.76551160030066967010498046875" lon="-0.182566232979297637939453125">
        <ele>2207.60009765625</ele>
        <time>2022-08-06T08:29:16.000Z</time>
      </trkpt>
      <trkpt lat="42.76563380844891071319580078125" lon="-0.18270730040967464447021484375">
        <ele>2208</ele>
        <time>2022-08-06T08:29:44.000Z</time>
      </trkpt>
      <trkpt lat="42.7657146938145160675048828125" lon="-0.1829187758266925811767578125">
        <ele>2209.60009765625</ele>
        <time>2022-08-06T08:30:08.000Z</time>
      </trkpt>
      <trkpt lat="42.7657398395240306854248046875" lon="-0.18315724097192287445068359375">
        <ele>2212</ele>
        <time>2022-08-06T08:30:30.000Z</time>
      </trkpt>
      <trkpt lat="42.7657078206539154052734375" lon="-0.18338422290980815887451171875">
        <ele>2213.199951171875</ele>
        <time>2022-08-06T08:30:59.000Z</time>
      </trkpt>
      <trkpt lat="42.7656858600676059722900390625" lon="-0.18361573107540607452392578125">
        <ele>2214.800048828125</ele>
        <time>2022-08-06T08:31:21.000Z</time>
      </trkpt>
      <trkpt lat="42.76568644680082798004150390625" lon="-0.18385310657322406768798828125">
        <ele>2217.800048828125</ele>
        <time>2022-08-06T08:31:43.000Z</time>
      </trkpt>
      <trkpt lat="42.76568694971501827239990234375" lon="-0.1840872131288051605224609375">
        <ele>2221.800048828125</ele>
        <time>2022-08-06T08:32:03.000Z</time>
      </trkpt>
      <trkpt lat="42.7657284401357173919677734375" lon="-0.1842846907675266265869140625">
        <ele>2225.800048828125</ele>
        <time>2022-08-06T08:32:45.000Z</time>
      </trkpt>
      <trkpt lat="42.765660546720027923583984375" lon="-0.18449306488037109375">
        <ele>2227.800048828125</ele>
        <time>2022-08-06T08:33:16.000Z</time>
      </trkpt>
      <trkpt lat="42.7656449563801288604736328125" lon="-0.18472708761692047119140625">
        <ele>2232.60009765625</ele>
        <time>2022-08-06T08:33:55.000Z</time>
      </trkpt>
      <trkpt lat="42.76559407822787761688232421875" lon="-0.18492448143661022186279296875">
        <ele>2237.39990234375</ele>
        <time>2022-08-06T08:34:46.000Z</time>
      </trkpt>
      <trkpt lat="42.76558200828731060028076171875" lon="-0.185157917439937591552734375">
        <ele>2246.800048828125</ele>
        <time>2022-08-06T08:35:24.000Z</time>
      </trkpt>
      <trkpt lat="42.7655876241624355316162109375" lon="-0.1852063648402690887451171875">
        <ele>2248.39990234375</ele>
        <time>2022-08-06T08:35:31.000Z</time>
      </trkpt>
      <trkpt lat="42.765592150390148162841796875" lon="-0.1854400523006916046142578125">
        <ele>2252</ele>
        <time>2022-08-06T08:36:12.000Z</time>
      </trkpt>
      <trkpt lat="42.76550640352070331573486328125" lon="-0.18564566038548946380615234375">
        <ele>2255.199951171875</ele>
        <time>2022-08-06T08:36:48.000Z</time>
      </trkpt>
      <trkpt lat="42.7654478140175342559814453125" lon="-0.18585386686027050018310546875">
        <ele>2258.60009765625</ele>
        <time>2022-08-06T08:37:16.000Z</time>
      </trkpt>
      <trkpt lat="42.765486538410186767578125" lon="-0.1860653422772884368896484375">
        <ele>2261</ele>
        <time>2022-08-06T08:37:48.000Z</time>
      </trkpt>
      <trkpt lat="42.76550774462521076202392578125" lon="-0.18629274331033229827880859375">
        <ele>2267</ele>
        <time>2022-08-06T08:38:15.000Z</time>
      </trkpt>
      <trkpt lat="42.76543566025793552398681640625" lon="-0.1864760555326938629150390625">
        <ele>2273.199951171875</ele>
        <time>2022-08-06T08:38:54.000Z</time>
      </trkpt>
      <trkpt lat="42.76535569690167903900146484375" lon="-0.1866296119987964630126953125">
        <ele>2277.800048828125</ele>
        <time>2022-08-06T08:39:34.000Z</time>
      </trkpt>
      <trkpt lat="42.765356115996837615966796875" lon="-0.18681962974369525909423828125">
        <ele>2281.199951171875</ele>
        <time>2022-08-06T08:40:16.000Z</time>
      </trkpt>
      <trkpt lat="42.7653747238218784332275390625" lon="-0.187051557004451751708984375">
        <ele>2285</ele>
        <time>2022-08-06T08:40:46.000Z</time>
      </trkpt>
      <trkpt lat="42.765363156795501708984375" lon="-0.1871633715927600860595703125">
        <ele>2287.199951171875</ele>
        <time>2022-08-06T08:40:54.000Z</time>
      </trkpt>
      <trkpt lat="42.7653696946799755096435546875" lon="-0.1874051056802272796630859375">
        <ele>2290.60009765625</ele>
        <time>2022-08-06T08:41:19.000Z</time>
      </trkpt>
      <trkpt lat="42.7653633244335651397705078125" lon="-0.1876488514244556427001953125">
        <ele>2295.199951171875</ele>
        <time>2022-08-06T08:41:50.000Z</time>
      </trkpt>
      <trkpt lat="42.7653995342552661895751953125" lon="-0.187884382903575897216796875">
        <ele>2302</ele>
        <time>2022-08-06T08:42:25.000Z</time>
      </trkpt>
      <trkpt lat="42.76546114124357700347900390625" lon="-0.18810943700373172760009765625">
        <ele>2311.60009765625</ele>
        <time>2022-08-06T08:42:59.000Z</time>
      </trkpt>
      <trkpt lat="42.765504978597164154052734375" lon="-0.18826366402208805084228515625">
        <ele>2316.199951171875</ele>
        <time>2022-08-06T08:43:58.000Z</time>
      </trkpt>
      <trkpt lat="42.76546851731836795806884765625" lon="-0.18846742808818817138671875">
        <ele>2327.39990234375</ele>
        <time>2022-08-06T08:44:42.000Z</time>
      </trkpt>
      <trkpt lat="42.76548243127763271331787109375" lon="-0.18870304338634014129638671875">
        <ele>2330.800048828125</ele>
        <time>2022-08-06T08:45:17.000Z</time>
      </trkpt>
      <trkpt lat="42.765411101281642913818359375" lon="-0.188901610672473907470703125">
        <ele>2335.39990234375</ele>
        <time>2022-08-06T08:45:56.000Z</time>
      </trkpt>
      <trkpt lat="42.76529417373239994049072265625" lon="-0.18898383714258670806884765625">
        <ele>2340.800048828125</ele>
        <time>2022-08-06T08:46:32.000Z</time>
      </trkpt>
      <trkpt lat="42.76517900638282299041748046875" lon="-0.1891399919986724853515625">
        <ele>2347.39990234375</ele>
        <time>2022-08-06T08:47:15.000Z</time>
      </trkpt>
      <trkpt lat="42.7650682814419269561767578125" lon="-0.1893062889575958251953125">
        <ele>2352.39990234375</ele>
        <time>2022-08-06T08:47:42.000Z</time>
      </trkpt>
      <trkpt lat="42.764990665018558502197265625" lon="-0.1895183511078357696533203125">
        <ele>2352.60009765625</ele>
        <time>2022-08-06T08:48:09.000Z</time>
      </trkpt>
      <trkpt lat="42.76493257842957973480224609375" lon="-0.18975597806274890899658203125">
        <ele>2350.800048828125</ele>
        <time>2022-08-06T08:48:29.000Z</time>
      </trkpt>
      <trkpt lat="42.7648736536502838134765625" lon="-0.18999720923602581024169921875">
        <ele>2349</ele>
        <time>2022-08-06T08:48:47.000Z</time>
      </trkpt>
      <trkpt lat="42.76479997672140598297119140625" lon="-0.190218575298786163330078125">
        <ele>2349.39990234375</ele>
        <time>2022-08-06T08:49:06.000Z</time>
      </trkpt>
      <trkpt lat="42.76472202502191066741943359375" lon="-0.190413035452365875244140625">
        <ele>2353</ele>
        <time>2022-08-06T08:49:25.000Z</time>
      </trkpt>
      <trkpt lat="42.76468430645763874053955078125" lon="-0.19065074622631072998046875">
        <ele>2357.39990234375</ele>
        <time>2022-08-06T08:49:45.000Z</time>
      </trkpt>
      <trkpt lat="42.7646418102085590362548828125" lon="-0.1908859424293041229248046875">
        <ele>2361.60009765625</ele>
        <time>2022-08-06T08:50:05.000Z</time>
      </trkpt>
      <trkpt lat="42.7645603381097316741943359375" lon="-0.19110077060759067535400390625">
        <ele>2364.39990234375</ele>
        <time>2022-08-06T08:50:31.000Z</time>
      </trkpt>
      <trkpt lat="42.76448448188602924346923828125" lon="-0.1913033612072467803955078125">
        <ele>2366.199951171875</ele>
        <time>2022-08-06T08:51:00.000Z</time>
      </trkpt>
      <trkpt lat="42.7645204402506351470947265625" lon="-0.1915404014289379119873046875">
        <ele>2368.60009765625</ele>
        <time>2022-08-06T08:51:33.000Z</time>
      </trkpt>
      <trkpt lat="42.7644701488316059112548828125" lon="-0.1917600072920322418212890625">
        <ele>2370.199951171875</ele>
        <time>2022-08-06T08:52:02.000Z</time>
      </trkpt>
      <trkpt lat="42.764366380870342254638671875" lon="-0.1919561438262462615966796875">
        <ele>2371.199951171875</ele>
        <time>2022-08-06T08:52:33.000Z</time>
      </trkpt>
      <trkpt lat="42.76426412165164947509765625" lon="-0.19213845022022724151611328125">
        <ele>2372.60009765625</ele>
        <time>2022-08-06T08:53:06.000Z</time>
      </trkpt>
      <trkpt lat="42.76413143612444400787353515625" lon="-0.19227214157581329345703125">
        <ele>2370.39990234375</ele>
        <time>2022-08-06T08:53:34.000Z</time>
      </trkpt>
      <trkpt lat="42.76403537951409816741943359375" lon="-0.19236593507230281829833984375">
        <ele>2368.60009765625</ele>
        <time>2022-08-06T08:54:14.000Z</time>
      </trkpt>
      <trkpt lat="42.76393865235149860382080078125" lon="-0.19240063615143299102783203125">
        <ele>2366.39990234375</ele>
        <time>2022-08-06T08:54:27.000Z</time>
      </trkpt>
      <trkpt lat="42.7638099901378154754638671875" lon="-0.192504487931728363037109375">
        <ele>2365.199951171875</ele>
        <time>2022-08-06T08:54:57.000Z</time>
      </trkpt>
      <trkpt lat="42.76370848529040813446044921875" lon="-0.19270204938948154449462890625">
        <ele>2365.60009765625</ele>
        <time>2022-08-06T08:55:25.000Z</time>
      </trkpt>
      <trkpt lat="42.76365433819591999053955078125" lon="-0.19293255172669887542724609375">
        <ele>2368.199951171875</ele>
        <time>2022-08-06T08:55:53.000Z</time>
      </trkpt>
      <trkpt lat="42.76361376978456974029541015625" lon="-0.193142853677272796630859375">
        <ele>2371.800048828125</ele>
        <time>2022-08-06T08:56:32.000Z</time>
      </trkpt>
      <trkpt lat="42.7635397575795650482177734375" lon="-0.1933518983423709869384765625">
        <ele>2376</ele>
        <time>2022-08-06T08:57:07.000Z</time>
      </trkpt>
      <trkpt lat="42.76351519860327243804931640625" lon="-0.1934850029647350311279296875">
        <ele>2380.199951171875</ele>
        <time>2022-08-06T08:58:15.000Z</time>
      </trkpt>
      <trkpt lat="42.763475216925144195556640625" lon="-0.19369865767657756805419921875">
        <ele>2387</ele>
        <time>2022-08-06T08:58:57.000Z</time>
      </trkpt>
      <trkpt lat="42.76338293217122554779052734375" lon="-0.19382472150027751922607421875">
        <ele>2389.199951171875</ele>
        <time>2022-08-06T08:59:40.000Z</time>
      </trkpt>
      <trkpt lat="42.7634012885391712188720703125" lon="-0.193974673748016357421875">
        <ele>2393.199951171875</ele>
        <time>2022-08-06T09:00:14.000Z</time>
      </trkpt>
      <trkpt lat="42.7634063176810741424560546875" lon="-0.1942132227122783660888671875">
        <ele>2397.800048828125</ele>
        <time>2022-08-06T09:00:46.000Z</time>
      </trkpt>
      <trkpt lat="42.76344311423599720001220703125" lon="-0.19442461431026458740234375">
        <ele>2402.199951171875</ele>
        <time>2022-08-06T09:01:28.000Z</time>
      </trkpt>
      <trkpt lat="42.76335057802498340606689453125" lon="-0.19461915828287601470947265625">
        <ele>2403.39990234375</ele>
        <time>2022-08-06T09:02:01.000Z</time>
      </trkpt>
      <trkpt lat="42.763304226100444793701171875" lon="-0.194827616214752197265625">
        <ele>2405.39990234375</ele>
        <time>2022-08-06T09:02:44.000Z</time>
      </trkpt>
      <trkpt lat="42.7632980234920978546142578125" lon="-0.19485468976199626922607421875">
        <ele>2405.60009765625</ele>
        <time>2022-08-06T09:02:47.000Z</time>
      </trkpt>
      <trkpt lat="42.763169109821319580078125" lon="-0.195007659494876861572265625">
        <ele>2407</ele>
        <time>2022-08-06T09:03:20.000Z</time>
      </trkpt>
      <trkpt lat="42.7630953490734100341796875" lon="-0.1952205598354339599609375">
        <ele>2409.60009765625</ele>
        <time>2022-08-06T09:03:48.000Z</time>
      </trkpt>
      <trkpt lat="42.7630096860229969024658203125" lon="-0.195417366921901702880859375">
        <ele>2411.800048828125</ele>
        <time>2022-08-06T09:04:23.000Z</time>
      </trkpt>
      <trkpt lat="42.76291857473552227020263671875" lon="-0.195617191493511199951171875">
        <ele>2416.39990234375</ele>
        <time>2022-08-06T09:04:56.000Z</time>
      </trkpt>
      <trkpt lat="42.76296333409845829010009765625" lon="-0.1958530582487583160400390625">
        <ele>2420.199951171875</ele>
        <time>2022-08-06T09:05:19.000Z</time>
      </trkpt>
      <trkpt lat="42.76280391030013561248779296875" lon="-0.1959533058106899261474609375">
        <ele>2422.800048828125</ele>
        <time>2022-08-06T09:05:52.000Z</time>
      </trkpt>
      <trkpt lat="42.76266443543136119842529296875" lon="-0.1961082033812999725341796875">
        <ele>2424.60009765625</ele>
        <time>2022-08-06T09:06:21.000Z</time>
      </trkpt>
      <trkpt lat="42.76256871409714221954345703125" lon="-0.19628799520432949066162109375">
        <ele>2426.800048828125</ele>
        <time>2022-08-06T09:06:55.000Z</time>
      </trkpt>
      <trkpt lat="42.76246243156492710113525390625" lon="-0.19635605625808238983154296875">
        <ele>2427.199951171875</ele>
        <time>2022-08-06T09:07:53.000Z</time>
      </trkpt>
      <trkpt lat="42.76231239549815654754638671875" lon="-0.1964535377919673919677734375">
        <ele>2427.60009765625</ele>
        <time>2022-08-06T09:08:34.000Z</time>
      </trkpt>
      <trkpt lat="42.76213939301669597625732421875" lon="-0.1965189166367053985595703125">
        <ele>2428.39990234375</ele>
        <time>2022-08-06T09:08:55.000Z</time>
      </trkpt>
      <trkpt lat="42.76200142689049243927001953125" lon="-0.19660390913486480712890625">
        <ele>2429</ele>
        <time>2022-08-06T09:09:24.000Z</time>
      </trkpt>
      <trkpt lat="42.76188123039901256561279296875" lon="-0.19677414558827877044677734375">
        <ele>2429.199951171875</ele>
        <time>2022-08-06T09:09:45.000Z</time>
      </trkpt>
      <trkpt lat="42.76171895675361156463623046875" lon="-0.19686969928443431854248046875">
        <ele>2428.800048828125</ele>
        <time>2022-08-06T09:10:16.000Z</time>
      </trkpt>
      <trkpt lat="42.761546708643436431884765625" lon="-0.1968605630099773406982421875">
        <ele>2427</ele>
        <time>2022-08-06T09:10:43.000Z</time>
      </trkpt>
      <trkpt lat="42.76145107112824916839599609375" lon="-0.19688093103468418121337890625">
        <ele>2426</ele>
        <time>2022-08-06T09:10:52.000Z</time>
      </trkpt>
      <trkpt lat="42.761422656476497650146484375" lon="-0.19691445864737033843994140625">
        <ele>2425.60009765625</ele>
        <time>2022-08-06T09:10:57.000Z</time>
      </trkpt>
      <trkpt lat="42.7612741291522979736328125" lon="-0.19702711142599582672119140625">
        <ele>2423.800048828125</ele>
        <time>2022-08-06T09:11:24.000Z</time>
      </trkpt>
      <trkpt lat="42.76120514608919620513916015625" lon="-0.1972273550927639007568359375">
        <ele>2424.199951171875</ele>
        <time>2022-08-06T09:11:50.000Z</time>
      </trkpt>
      <trkpt lat="42.761146388947963714599609375" lon="-0.197448469698429107666015625">
        <ele>2426</ele>
        <time>2022-08-06T09:12:11.000Z</time>
      </trkpt>
      <trkpt lat="42.76103516109287738800048828125" lon="-0.19764686934649944305419921875">
        <ele>2427.800048828125</ele>
        <time>2022-08-06T09:12:33.000Z</time>
      </trkpt>
      <trkpt lat="42.7609266154468059539794921875" lon="-0.19773487932980060577392578125">
        <ele>2427.800048828125</ele>
        <time>2022-08-06T09:13:10.000Z</time>
      </trkpt>
      <trkpt lat="42.76082217693328857421875" lon="-0.197906792163848876953125">
        <ele>2429.199951171875</ele>
        <time>2022-08-06T09:13:40.000Z</time>
      </trkpt>
      <trkpt lat="42.7607184089720249176025390625" lon="-0.1980504579842090606689453125">
        <ele>2431.199951171875</ele>
        <time>2022-08-06T09:14:23.000Z</time>
      </trkpt>
      <trkpt lat="42.7605832926928997039794921875" lon="-0.19821994006633758544921875">
        <ele>2435.39990234375</ele>
        <time>2022-08-06T09:14:45.000Z</time>
      </trkpt>
      <trkpt lat="42.7604739926755428314208984375" lon="-0.198390595614910125732421875">
        <ele>2441.199951171875</ele>
        <time>2022-08-06T09:15:15.000Z</time>
      </trkpt>
      <trkpt lat="42.760343737900257110595703125" lon="-0.1985610835254192352294921875">
        <ele>2447.60009765625</ele>
        <time>2022-08-06T09:15:50.000Z</time>
      </trkpt>
      <trkpt lat="42.76023150421679019927978515625" lon="-0.19872109405696392059326171875">
        <ele>2456</ele>
        <time>2022-08-06T09:16:23.000Z</time>
      </trkpt>
      <trkpt lat="42.7600981481373310089111328125" lon="-0.19886341877281665802001953125">
        <ele>2462.60009765625</ele>
        <time>2022-08-06T09:16:58.000Z</time>
      </trkpt>
      <trkpt lat="42.75993101298809051513671875" lon="-0.19894924946129322052001953125">
        <ele>2464.60009765625</ele>
        <time>2022-08-06T09:17:31.000Z</time>
      </trkpt>
      <trkpt lat="42.75985834188759326934814453125" lon="-0.19912191666662693023681640625">
        <ele>2467.800048828125</ele>
        <time>2022-08-06T09:18:05.000Z</time>
      </trkpt>
      <trkpt lat="42.75975910015404224395751953125" lon="-0.1992695219814777374267578125">
        <ele>2471.39990234375</ele>
        <time>2022-08-06T09:18:47.000Z</time>
      </trkpt>
      <trkpt lat="42.7596881054341793060302734375" lon="-0.1994847692549228668212890625">
        <ele>2476.60009765625</ele>
        <time>2022-08-06T09:19:14.000Z</time>
      </trkpt>
      <trkpt lat="42.75971434079110622406005859375" lon="-0.19971351139247417449951171875">
        <ele>2484.60009765625</ele>
        <time>2022-08-06T09:19:46.000Z</time>
      </trkpt>
      <trkpt lat="42.759753651916980743408203125" lon="-0.1999015174806118011474609375">
        <ele>2491</ele>
        <time>2022-08-06T09:20:22.000Z</time>
      </trkpt>
      <trkpt lat="42.7597179450094699859619140625" lon="-0.20004518330097198486328125">
        <ele>2496.60009765625</ele>
        <time>2022-08-06T09:20:54.000Z</time>
      </trkpt>
      <trkpt lat="42.75963454507291316986083984375" lon="-0.20017786882817745208740234375">
        <ele>2501.199951171875</ele>
        <time>2022-08-06T09:21:40.000Z</time>
      </trkpt>
      <trkpt lat="42.75951451621949672698974609375" lon="-0.2003408968448638916015625">
        <ele>2507.800048828125</ele>
        <time>2022-08-06T09:22:17.000Z</time>
      </trkpt>
      <trkpt lat="42.75938694365322589874267578125" lon="-0.20047626458108425140380859375">
        <ele>2515</ele>
        <time>2022-08-06T09:22:51.000Z</time>
      </trkpt>
      <trkpt lat="42.7593199722468852996826171875" lon="-0.20066678524017333984375">
        <ele>2524.60009765625</ele>
        <time>2022-08-06T09:23:27.000Z</time>
      </trkpt>
      <trkpt lat="42.75935995392501354217529296875" lon="-0.20088873803615570068359375">
        <ele>2532.39990234375</ele>
        <time>2022-08-06T09:24:05.000Z</time>
      </trkpt>
      <trkpt lat="42.759273536503314971923828125" lon="-0.2010729722678661346435546875">
        <ele>2540</ele>
        <time>2022-08-06T09:24:43.000Z</time>
      </trkpt>
      <trkpt lat="42.75911964476108551025390625" lon="-0.20116123370826244354248046875">
        <ele>2544.60009765625</ele>
        <time>2022-08-06T09:25:16.000Z</time>
      </trkpt>
      <trkpt lat="42.7589727938175201416015625" lon="-0.201282016932964324951171875">
        <ele>2550</ele>
        <time>2022-08-06T09:25:51.000Z</time>
      </trkpt>
      <trkpt lat="42.75883239693939685821533203125" lon="-0.20140917040407657623291015625">
        <ele>2553.800048828125</ele>
        <time>2022-08-06T09:26:23.000Z</time>
      </trkpt>
      <trkpt lat="42.7586635015904903411865234375" lon="-0.20150707103312015533447265625">
        <ele>2556.39990234375</ele>
        <time>2022-08-06T09:26:54.000Z</time>
      </trkpt>
      <trkpt lat="42.758480273187160491943359375" lon="-0.20156473852694034576416015625">
        <ele>2557</ele>
        <time>2022-08-06T09:27:19.000Z</time>
      </trkpt>
      <trkpt lat="42.75829763151705265045166015625" lon="-0.2015956677496433258056640625">
        <ele>2557.800048828125</ele>
        <time>2022-08-06T09:27:45.000Z</time>
      </trkpt>
      <trkpt lat="42.75815195403993129730224609375" lon="-0.2017136849462985992431640625">
        <ele>2559.800048828125</ele>
        <time>2022-08-06T09:28:16.000Z</time>
      </trkpt>
      <trkpt lat="42.757999487221240997314453125" lon="-0.201852321624755859375">
        <ele>2561.800048828125</ele>
        <time>2022-08-06T09:28:41.000Z</time>
      </trkpt>
      <trkpt lat="42.7579564042389392852783203125" lon="-0.20185911096632480621337890625">
        <ele>2562.199951171875</ele>
        <time>2022-08-06T09:28:46.000Z</time>
      </trkpt>
      <trkpt lat="42.75795715861022472381591796875" lon="-0.20186950452625751495361328125">
        <ele>2562.199951171875</ele>
        <time>2022-08-06T09:29:21.000Z</time>
      </trkpt>
      <trkpt lat="42.7580097131431102752685546875" lon="-0.201667584478855133056640625">
        <ele>2560.800048828125</ele>
        <time>2022-08-06T09:30:07.000Z</time>
      </trkpt>
      <trkpt lat="42.75794927962124347686767578125" lon="-0.20178451202809810638427734375">
        <ele>2561.800048828125</ele>
        <time>2022-08-06T09:30:45.000Z</time>
      </trkpt>
      <trkpt lat="42.75799403898417949676513671875" lon="-0.201697759330272674560546875">
        <ele>2561</ele>
        <time>2022-08-06T09:31:20.000Z</time>
      </trkpt>
      <trkpt lat="42.7579419873654842376708984375" lon="-0.20185022614896297454833984375">
        <ele>2562.199951171875</ele>
        <time>2022-08-06T09:32:33.000Z</time>
      </trkpt>
      <trkpt lat="42.75799588300287723541259765625" lon="-0.201779566705226898193359375">
        <ele>2561.39990234375</ele>
        <time>2022-08-06T09:34:02.000Z</time>
      </trkpt>
      <trkpt lat="42.75801314972341060638427734375" lon="-0.20173120312392711639404296875">
        <ele>2560.800048828125</ele>
        <time>2022-08-06T09:34:06.000Z</time>
      </trkpt>
      <trkpt lat="42.75800392962992191314697265625" lon="-0.20167152397334575653076171875">
        <ele>2561</ele>
        <time>2022-08-06T09:35:56.000Z</time>
      </trkpt>
      <trkpt lat="42.75797107256948947906494140625" lon="-0.201833881437778472900390625">
        <ele>2562</ele>
        <time>2022-08-06T09:36:38.000Z</time>
      </trkpt>
      <trkpt lat="42.75790393352508544921875" lon="-0.20205843262374401092529296875">
        <ele>2561.199951171875</ele>
        <time>2022-08-06T09:36:56.000Z</time>
      </trkpt>
      <trkpt lat="42.75789731182157993316650390625" lon="-0.2020767889916896820068359375">
        <ele>2561.199951171875</ele>
        <time>2022-08-06T09:36:58.000Z</time>
      </trkpt>
      <trkpt lat="42.75790569372475147247314453125" lon="-0.2020995877683162689208984375">
        <ele>2560.800048828125</ele>
        <time>2022-08-06T09:38:01.000Z</time>
      </trkpt>
      <trkpt lat="42.75791960768401622772216796875" lon="-0.202105455100536346435546875">
        <ele>2560.800048828125</ele>
        <time>2022-08-06T09:38:21.000Z</time>
      </trkpt>
      <trkpt lat="42.7579108066856861114501953125" lon="-0.2021052874624729156494140625">
        <ele>2560.800048828125</ele>
        <time>2022-08-06T09:40:09.000Z</time>
      </trkpt>
      <trkpt lat="42.75798833929002285003662109375" lon="-0.2022578381001949310302734375">
        <ele>2557.800048828125</ele>
        <time>2022-08-06T09:41:16.000Z</time>
      </trkpt>
      <trkpt lat="42.7579071186482906341552734375" lon="-0.202450789511203765869140625">
        <ele>2554.39990234375</ele>
        <time>2022-08-06T09:41:35.000Z</time>
      </trkpt>
      <trkpt lat="42.75776554830372333526611328125" lon="-0.20260057412087917327880859375">
        <ele>2551.800048828125</ele>
        <time>2022-08-06T09:41:50.000Z</time>
      </trkpt>
      <trkpt lat="42.75766060687601566314697265625" lon="-0.202786065638065338134765625">
        <ele>2548.199951171875</ele>
        <time>2022-08-06T09:42:15.000Z</time>
      </trkpt>
      <trkpt lat="42.75761048309504985809326171875" lon="-0.2029263786971569061279296875">
        <ele>2544.60009765625</ele>
        <time>2022-08-06T09:42:49.000Z</time>
      </trkpt>
      <trkpt lat="42.75763881392776966094970703125" lon="-0.2029334194958209991455078125">
        <ele>2543.800048828125</ele>
        <time>2022-08-06T09:42:51.000Z</time>
      </trkpt>
      <trkpt lat="42.75765222497284412384033203125" lon="-0.2029649354517459869384765625">
        <ele>2542.800048828125</ele>
        <time>2022-08-06T09:43:14.000Z</time>
      </trkpt>
      <trkpt lat="42.7575228922069072723388671875" lon="-0.20310935564339160919189453125">
        <ele>2542.39990234375</ele>
        <time>2022-08-06T09:43:44.000Z</time>
      </trkpt>
      <trkpt lat="42.757359445095062255859375" lon="-0.20318873226642608642578125">
        <ele>2546.199951171875</ele>
        <time>2022-08-06T09:44:09.000Z</time>
      </trkpt>
      <trkpt lat="42.757227681577205657958984375" lon="-0.20334555767476558685302734375">
        <ele>2545</ele>
        <time>2022-08-06T09:44:38.000Z</time>
      </trkpt>
      <trkpt lat="42.75713120587170124053955078125" lon="-0.20350112579762935638427734375">
        <ele>2541.199951171875</ele>
        <time>2022-08-06T09:45:25.000Z</time>
      </trkpt>
      <trkpt lat="42.75706448592245578765869140625" lon="-0.2036562748253345489501953125">
        <ele>2538.199951171875</ele>
        <time>2022-08-06T09:45:55.000Z</time>
      </trkpt>
      <trkpt lat="42.75704621337354183197021484375" lon="-0.2038304507732391357421875">
        <ele>2534</ele>
        <time>2022-08-06T09:46:42.000Z</time>
      </trkpt>
      <trkpt lat="42.75689835660159587860107421875" lon="-0.2039694227278232574462890625">
        <ele>2536.60009765625</ele>
        <time>2022-08-06T09:47:03.000Z</time>
      </trkpt>
      <trkpt lat="42.7567725442349910736083984375" lon="-0.2041343785822391510009765625">
        <ele>2537.39990234375</ele>
        <time>2022-08-06T09:47:30.000Z</time>
      </trkpt>
      <trkpt lat="42.7566702850162982940673828125" lon="-0.204339064657688140869140625">
        <ele>2534</ele>
        <time>2022-08-06T09:47:51.000Z</time>
      </trkpt>
      <trkpt lat="42.75658051483333110809326171875" lon="-0.2045464329421520233154296875">
        <ele>2528.800048828125</ele>
        <time>2022-08-06T09:48:07.000Z</time>
      </trkpt>
      <trkpt lat="42.756441794335842132568359375" lon="-0.20470225252211093902587890625">
        <ele>2528.199951171875</ele>
        <time>2022-08-06T09:48:22.000Z</time>
      </trkpt>
      <trkpt lat="42.75627323426306247711181640625" lon="-0.204815156757831573486328125">
        <ele>2529.199951171875</ele>
        <time>2022-08-06T09:48:45.000Z</time>
      </trkpt>
      <trkpt lat="42.75620081461966037750244140625" lon="-0.2049236185848712921142578125">
        <ele>2527.199951171875</ele>
        <time>2022-08-06T09:48:56.000Z</time>
      </trkpt>
      <trkpt lat="42.7560929395258426666259765625" lon="-0.2051110379397869110107421875">
        <ele>2524</ele>
        <time>2022-08-06T09:49:19.000Z</time>
      </trkpt>
      <trkpt lat="42.75596997700631618499755859375" lon="-0.20529334433376789093017578125">
        <ele>2520</ele>
        <time>2022-08-06T09:49:37.000Z</time>
      </trkpt>
      <trkpt lat="42.75587593205273151397705078125" lon="-0.20543432794511318206787109375">
        <ele>2515.800048828125</ele>
        <time>2022-08-06T09:49:48.000Z</time>
      </trkpt>
      <trkpt lat="42.7557742595672607421875" lon="-0.20562929101288318634033203125">
        <ele>2509</ele>
        <time>2022-08-06T09:50:15.000Z</time>
      </trkpt>
      <trkpt lat="42.75564190931618213653564453125" lon="-0.20575694739818572998046875">
        <ele>2505.800048828125</ele>
        <time>2022-08-06T09:50:33.000Z</time>
      </trkpt>
      <trkpt lat="42.75560435838997364044189453125" lon="-0.20580715499818325042724609375">
        <ele>2505.800048828125</ele>
        <time>2022-08-06T09:50:39.000Z</time>
      </trkpt>
      <trkpt lat="42.7554939687252044677734375" lon="-0.20598770119249820709228515625">
        <ele>2506</ele>
        <time>2022-08-06T09:51:06.000Z</time>
      </trkpt>
      <trkpt lat="42.7553895302116870880126953125" lon="-0.20618802867829799652099609375">
        <ele>2506.39990234375</ele>
        <time>2022-08-06T09:51:24.000Z</time>
      </trkpt>
      <trkpt lat="42.755290456116199493408203125" lon="-0.20639707334339618682861328125">
        <ele>2507.199951171875</ele>
        <time>2022-08-06T09:51:47.000Z</time>
      </trkpt>
      <trkpt lat="42.7552312798798084259033203125" lon="-0.20662690512835979461669921875">
        <ele>2506.39990234375</ele>
        <time>2022-08-06T09:52:08.000Z</time>
      </trkpt>
      <trkpt lat="42.75517922826111316680908203125" lon="-0.206864364445209503173828125">
        <ele>2505.39990234375</ele>
        <time>2022-08-06T09:52:25.000Z</time>
      </trkpt>
      <trkpt lat="42.75516078807413578033447265625" lon="-0.20689764060080051422119140625">
        <ele>2505.800048828125</ele>
        <time>2022-08-06T09:52:28.000Z</time>
      </trkpt>
      <trkpt lat="42.755153663456439971923828125" lon="-0.20693468861281871795654296875">
        <ele>2505.60009765625</ele>
        <time>2022-08-06T09:52:31.000Z</time>
      </trkpt>
      <trkpt lat="42.75515156798064708709716796875" lon="-0.206981711089611053466796875">
        <ele>2505.199951171875</ele>
        <time>2022-08-06T09:52:35.000Z</time>
      </trkpt>
      <trkpt lat="42.75514435954391956329345703125" lon="-0.2070169150829315185546875">
        <ele>2505</ele>
        <time>2022-08-06T09:52:38.000Z</time>
      </trkpt>
      <trkpt lat="42.7551353909075260162353515625" lon="-0.20705488510429859161376953125">
        <ele>2504.800048828125</ele>
        <time>2022-08-06T09:52:41.000Z</time>
      </trkpt>
      <trkpt lat="42.75513262487947940826416015625" lon="-0.20712160505354404449462890625">
        <ele>2504.60009765625</ele>
        <time>2022-08-06T09:52:47.000Z</time>
      </trkpt>
      <trkpt lat="42.75511368177831172943115234375" lon="-0.20736786536872386932373046875">
        <ele>2503.199951171875</ele>
        <time>2022-08-06T09:53:05.000Z</time>
      </trkpt>
      <trkpt lat="42.755100019276142120361328125" lon="-0.2074205875396728515625">
        <ele>2503.39990234375</ele>
        <time>2022-08-06T09:53:09.000Z</time>
      </trkpt>
      <trkpt lat="42.75504360906779766082763671875" lon="-0.2074849605560302734375">
        <ele>2503.39990234375</ele>
        <time>2022-08-06T09:53:15.000Z</time>
      </trkpt>
      <trkpt lat="42.75493581779301166534423828125" lon="-0.20769408904016017913818359375">
        <ele>2501</ele>
        <time>2022-08-06T09:53:31.000Z</time>
      </trkpt>
      <trkpt lat="42.754937075078487396240234375" lon="-0.20793213509023189544677734375">
        <ele>2498</ele>
        <time>2022-08-06T09:53:49.000Z</time>
      </trkpt>
      <trkpt lat="42.75483037345111370086669921875" lon="-0.208129696547985076904296875">
        <ele>2494.199951171875</ele>
        <time>2022-08-06T09:54:10.000Z</time>
      </trkpt>
      <trkpt lat="42.7547759748995304107666015625" lon="-0.208287946879863739013671875">
        <ele>2490.60009765625</ele>
        <time>2022-08-06T09:54:32.000Z</time>
      </trkpt>
      <trkpt lat="42.75471822358667850494384765625" lon="-0.208297334611415863037109375">
        <ele>2488.199951171875</ele>
        <time>2022-08-06T09:54:36.000Z</time>
      </trkpt>
      <trkpt lat="42.75466960854828357696533203125" lon="-0.2083001844584941864013671875">
        <ele>2486.39990234375</ele>
        <time>2022-08-06T09:54:40.000Z</time>
      </trkpt>
      <trkpt lat="42.75461093522608280181884765625" lon="-0.2083025313913822174072265625">
        <ele>2484.199951171875</ele>
        <time>2022-08-06T09:54:44.000Z</time>
      </trkpt>
      <trkpt lat="42.75459467433393001556396484375" lon="-0.2083246596157550811767578125">
        <ele>2483</ele>
        <time>2022-08-06T09:54:46.000Z</time>
      </trkpt>
      <trkpt lat="42.75450163520872592926025390625" lon="-0.20834527909755706787109375">
        <ele>2478.800048828125</ele>
        <time>2022-08-06T09:54:58.000Z</time>
      </trkpt>
      <trkpt lat="42.75445930659770965576171875" lon="-0.20832650363445281982421875">
        <ele>2476.800048828125</ele>
        <time>2022-08-06T09:55:05.000Z</time>
      </trkpt>
      <trkpt lat="42.75446257553994655609130859375" lon="-0.20829155109822750091552734375">
        <ele>2477.800048828125</ele>
        <time>2022-08-06T09:55:09.000Z</time>
      </trkpt>
      <trkpt lat="42.75445654056966304779052734375" lon="-0.208268500864505767822265625">
        <ele>2478.199951171875</ele>
        <time>2022-08-06T09:55:12.000Z</time>
      </trkpt>
      <trkpt lat="42.754452265799045562744140625" lon="-0.20816196687519550323486328125">
        <ele>2480.39990234375</ele>
        <time>2022-08-06T09:55:20.000Z</time>
      </trkpt>
      <trkpt lat="42.7544386871159076690673828125" lon="-0.20813698880374431610107421875">
        <ele>2480</ele>
        <time>2022-08-06T09:55:22.000Z</time>
      </trkpt>
      <trkpt lat="42.7543602325022220611572265625" lon="-0.2080423571169376373291015625">
        <ele>2476.60009765625</ele>
        <time>2022-08-06T09:55:33.000Z</time>
      </trkpt>
      <trkpt lat="42.75418303906917572021484375" lon="-0.20798812620341777801513671875">
        <ele>2465</ele>
        <time>2022-08-06T09:55:49.000Z</time>
      </trkpt>
      <trkpt lat="42.7541233599185943603515625" lon="-0.2079924009740352630615234375">
        <ele>2460.800048828125</ele>
        <time>2022-08-06T09:55:55.000Z</time>
      </trkpt>
      <trkpt lat="42.75416032411158084869384765625" lon="-0.207811184227466583251953125">
        <ele>2466</ele>
        <time>2022-08-06T09:56:09.000Z</time>
      </trkpt>
      <trkpt lat="42.75415697135031223297119140625" lon="-0.20779115147888660430908203125">
        <ele>2466.199951171875</ele>
        <time>2022-08-06T09:56:11.000Z</time>
      </trkpt>
      <trkpt lat="42.75403090752661228179931640625" lon="-0.20773465745151042938232421875">
        <ele>2458.39990234375</ele>
        <time>2022-08-06T09:56:40.000Z</time>
      </trkpt>
      <trkpt lat="42.75391071103513240814208984375" lon="-0.2077228389680385589599609375">
        <ele>2450.60009765625</ele>
        <time>2022-08-06T09:57:11.000Z</time>
      </trkpt>
      <trkpt lat="42.7538465894758701324462890625" lon="-0.207669697701930999755859375">
        <ele>2447.800048828125</ele>
        <time>2022-08-06T09:58:33.000Z</time>
      </trkpt>
      <trkpt lat="42.75371901690959930419921875" lon="-0.20772493444383144378662109375">
        <ele>2439.60009765625</ele>
        <time>2022-08-06T09:59:10.000Z</time>
      </trkpt>
      <trkpt lat="42.7537102997303009033203125" lon="-0.2079551853239536285400390625">
        <ele>2434.199951171875</ele>
        <time>2022-08-06T09:59:34.000Z</time>
      </trkpt>
      <trkpt lat="42.75372563861310482025146484375" lon="-0.20799667574465274810791015625">
        <ele>2434.60009765625</ele>
        <time>2022-08-06T09:59:38.000Z</time>
      </trkpt>
      <trkpt lat="42.75370954535901546478271484375" lon="-0.20820521749556064605712890625">
        <ele>2432.199951171875</ele>
        <time>2022-08-06T10:00:11.000Z</time>
      </trkpt>
      <trkpt lat="42.7536125667393207550048828125" lon="-0.20802131853997707366943359375">
        <ele>2426.800048828125</ele>
        <time>2022-08-06T10:00:33.000Z</time>
      </trkpt>
      <trkpt lat="42.75355984456837177276611328125" lon="-0.207776986062526702880859375">
        <ele>2428.60009765625</ele>
        <time>2022-08-06T10:00:55.000Z</time>
      </trkpt>
      <trkpt lat="42.7535332739353179931640625" lon="-0.2077625691890716552734375">
        <ele>2427.199951171875</ele>
        <time>2022-08-06T10:00:58.000Z</time>
      </trkpt>
      <trkpt lat="42.75349429808557033538818359375" lon="-0.208007656037807464599609375">
        <ele>2419.800048828125</ele>
        <time>2022-08-06T10:01:17.000Z</time>
      </trkpt>
      <trkpt lat="42.7534871734678745269775390625" lon="-0.2080336399376392364501953125">
        <ele>2418.800048828125</ele>
        <time>2022-08-06T10:01:19.000Z</time>
      </trkpt>
      <trkpt lat="42.75347183458507061004638671875" lon="-0.20811016671359539031982421875">
        <ele>2416.199951171875</ele>
        <time>2022-08-06T10:01:26.000Z</time>
      </trkpt>
      <trkpt lat="42.75346420705318450927734375" lon="-0.2083578519523143768310546875">
        <ele>2412.800048828125</ele>
        <time>2022-08-06T10:01:48.000Z</time>
      </trkpt>
      <trkpt lat="42.7534724213182926177978515625" lon="-0.20860352553427219390869140625">
        <ele>2411.60009765625</ele>
        <time>2022-08-06T10:02:07.000Z</time>
      </trkpt>
      <trkpt lat="42.75349882431328296661376953125" lon="-0.208820365369319915771484375">
        <ele>2411</ele>
        <time>2022-08-06T10:02:24.000Z</time>
      </trkpt>
      <trkpt lat="42.7535290829837322235107421875" lon="-0.20906277000904083251953125">
        <ele>2409</ele>
        <time>2022-08-06T10:02:41.000Z</time>
      </trkpt>
      <trkpt lat="42.75354123674333095550537109375" lon="-0.2090880833566188812255859375">
        <ele>2409.39990234375</ele>
        <time>2022-08-06T10:02:43.000Z</time>
      </trkpt>
      <trkpt lat="42.75354173965752124786376953125" lon="-0.2092672884464263916015625">
        <ele>2405.60009765625</ele>
        <time>2022-08-06T10:02:54.000Z</time>
      </trkpt>
      <trkpt lat="42.75359421037137508392333984375" lon="-0.20946820266544818878173828125">
        <ele>2404.800048828125</ele>
        <time>2022-08-06T10:03:08.000Z</time>
      </trkpt>
      <trkpt lat="42.75365204550325870513916015625" lon="-0.20960457623004913330078125">
        <ele>2405.800048828125</ele>
        <time>2022-08-06T10:03:21.000Z</time>
      </trkpt>
      <trkpt lat="42.7536839805543422698974609375" lon="-0.20966115407645702362060546875">
        <ele>2406.60009765625</ele>
        <time>2022-08-06T10:03:26.000Z</time>
      </trkpt>
      <trkpt lat="42.75371138937771320343017578125" lon="-0.20976643078029155731201171875">
        <ele>2404.800048828125</ele>
        <time>2022-08-06T10:03:35.000Z</time>
      </trkpt>
      <trkpt lat="42.75372572243213653564453125" lon="-0.209814794361591339111328125">
        <ele>2404.199951171875</ele>
        <time>2022-08-06T10:03:40.000Z</time>
      </trkpt>
      <trkpt lat="42.75379068218171596527099609375" lon="-0.2100271917879581451416015625">
        <ele>2403.199951171875</ele>
        <time>2022-08-06T10:04:08.000Z</time>
      </trkpt>
      <trkpt lat="42.75377961806952953338623046875" lon="-0.21004169248044490814208984375">
        <ele>2402</ele>
        <time>2022-08-06T10:04:09.000Z</time>
      </trkpt>
      <trkpt lat="42.75379101745784282684326171875" lon="-0.2102830074727535247802734375">
        <ele>2395.800048828125</ele>
        <time>2022-08-06T10:04:25.000Z</time>
      </trkpt>
      <trkpt lat="42.753797806799411773681640625" lon="-0.21029666997492313385009765625">
        <ele>2396</ele>
        <time>2022-08-06T10:04:26.000Z</time>
      </trkpt>
      <trkpt lat="42.753884308040142059326171875" lon="-0.21051627583801746368408203125">
        <ele>2395</ele>
        <time>2022-08-06T10:04:42.000Z</time>
      </trkpt>
      <trkpt lat="42.75389629416167736053466796875" lon="-0.210525579750537872314453125">
        <ele>2395.39990234375</ele>
        <time>2022-08-06T10:04:43.000Z</time>
      </trkpt>
      <trkpt lat="42.75394943542778491973876953125" lon="-0.21059338934719562530517578125">
        <ele>2397.199951171875</ele>
        <time>2022-08-06T10:04:50.000Z</time>
      </trkpt>
      <trkpt lat="42.75395245291292667388916015625" lon="-0.210720710456371307373046875">
        <ele>2396</ele>
        <time>2022-08-06T10:04:59.000Z</time>
      </trkpt>
      <trkpt lat="42.75395295582711696624755859375" lon="-0.2107580937445163726806640625">
        <ele>2395.800048828125</ele>
        <time>2022-08-06T10:05:02.000Z</time>
      </trkpt>
      <trkpt lat="42.7539622597396373748779296875" lon="-0.21099940873682498931884765625">
        <ele>2402.39990234375</ele>
        <time>2022-08-06T10:05:21.000Z</time>
      </trkpt>
      <trkpt lat="42.75395278818905353546142578125" lon="-0.2110430784523487091064453125">
        <ele>2402.800048828125</ele>
        <time>2022-08-06T10:05:24.000Z</time>
      </trkpt>
      <trkpt lat="42.7539374493062496185302734375" lon="-0.21112496964633464813232421875">
        <ele>2403.60009765625</ele>
        <time>2022-08-06T10:05:30.000Z</time>
      </trkpt>
      <trkpt lat="42.75390232913196086883544921875" lon="-0.21119185723364353179931640625">
        <ele>2402.800048828125</ele>
        <time>2022-08-06T10:05:36.000Z</time>
      </trkpt>
      <trkpt lat="42.75389780290424823760986328125" lon="-0.21120308898389339447021484375">
        <ele>2402.800048828125</ele>
        <time>2022-08-06T10:05:37.000Z</time>
      </trkpt>
      <trkpt lat="42.7538677118718624114990234375" lon="-0.21128900349140167236328125">
        <ele>2402.60009765625</ele>
        <time>2022-08-06T10:05:44.000Z</time>
      </trkpt>
      <trkpt lat="42.75378649123013019561767578125" lon="-0.21141481585800647735595703125">
        <ele>2399.800048828125</ele>
        <time>2022-08-06T10:05:56.000Z</time>
      </trkpt>
      <trkpt lat="42.75362052954733371734619140625" lon="-0.21153534762561321258544921875">
        <ele>2393.60009765625</ele>
        <time>2022-08-06T10:06:12.000Z</time>
      </trkpt>
      <trkpt lat="42.75346328504383563995361328125" lon="-0.21165487356483936309814453125">
        <ele>2391.199951171875</ele>
        <time>2022-08-06T10:06:30.000Z</time>
      </trkpt>
      <trkpt lat="42.75342263281345367431640625" lon="-0.21173785440623760223388671875">
        <ele>2391.199951171875</ele>
        <time>2022-08-06T10:06:37.000Z</time>
      </trkpt>
      <trkpt lat="42.75340628810226917266845703125" lon="-0.2117847092449665069580078125">
        <ele>2391.199951171875</ele>
        <time>2022-08-06T10:06:41.000Z</time>
      </trkpt>
      <trkpt lat="42.7533416636288166046142578125" lon="-0.21189644001424312591552734375">
        <ele>2391.39990234375</ele>
        <time>2022-08-06T10:06:51.000Z</time>
      </trkpt>
      <trkpt lat="42.7532712556421756744384765625" lon="-0.21194279193878173828125">
        <ele>2390.60009765625</ele>
        <time>2022-08-06T10:06:58.000Z</time>
      </trkpt>
      <trkpt lat="42.75322951376438140869140625" lon="-0.2119721285998821258544921875">
        <ele>2390.199951171875</ele>
        <time>2022-08-06T10:07:02.000Z</time>
      </trkpt>
      <trkpt lat="42.7532212994992733001708984375" lon="-0.21197254769504070281982421875">
        <ele>2390.199951171875</ele>
        <time>2022-08-06T10:07:03.000Z</time>
      </trkpt>
      <trkpt lat="42.7531834132969379425048828125" lon="-0.2119709551334381103515625">
        <ele>2389.60009765625</ele>
        <time>2022-08-06T10:07:07.000Z</time>
      </trkpt>
      <trkpt lat="42.7530871890485286712646484375" lon="-0.21201998926699161529541015625">
        <ele>2388.800048828125</ele>
        <time>2022-08-06T10:07:17.000Z</time>
      </trkpt>
      <trkpt lat="42.7529007755219936370849609375" lon="-0.2120033092796802520751953125">
        <ele>2386.800048828125</ele>
        <time>2022-08-06T10:07:35.000Z</time>
      </trkpt>
      <trkpt lat="42.75283388793468475341796875" lon="-0.212027616798877716064453125">
        <ele>2386.39990234375</ele>
        <time>2022-08-06T10:07:41.000Z</time>
      </trkpt>
      <trkpt lat="42.75278066284954547882080078125" lon="-0.21208603866398334503173828125">
        <ele>2386.39990234375</ele>
        <time>2022-08-06T10:07:47.000Z</time>
      </trkpt>
      <trkpt lat="42.7527420222759246826171875" lon="-0.21221612580120563507080078125">
        <ele>2385.39990234375</ele>
        <time>2022-08-06T10:07:57.000Z</time>
      </trkpt>
      <trkpt lat="42.752697765827178955078125" lon="-0.2124089933931827545166015625">
        <ele>2384.800048828125</ele>
        <time>2022-08-06T10:08:13.000Z</time>
      </trkpt>
      <trkpt lat="42.752679996192455291748046875" lon="-0.212532542645931243896484375">
        <ele>2381.199951171875</ele>
        <time>2022-08-06T10:08:24.000Z</time>
      </trkpt>
      <trkpt lat="42.75277010165154933929443359375" lon="-0.212700851261615753173828125">
        <ele>2382.60009765625</ele>
        <time>2022-08-06T10:08:42.000Z</time>
      </trkpt>
      <trkpt lat="42.7528484724462032318115234375" lon="-0.212785340845584869384765625">
        <ele>2382.60009765625</ele>
        <time>2022-08-06T10:09:21.000Z</time>
      </trkpt>
      <trkpt lat="42.75287671945989131927490234375" lon="-0.21275742910802364349365234375">
        <ele>2384</ele>
        <time>2022-08-06T10:11:09.000Z</time>
      </trkpt>
      <trkpt lat="42.75304310023784637451171875" lon="-0.2128160186111927032470703125">
        <ele>2384</ele>
        <time>2022-08-06T10:11:30.000Z</time>
      </trkpt>
      <trkpt lat="42.75319623760879039764404296875" lon="-0.21296211518347263336181640625">
        <ele>2381.800048828125</ele>
        <time>2022-08-06T10:11:50.000Z</time>
      </trkpt>
      <trkpt lat="42.75329430587589740753173828125" lon="-0.21313310600817203521728515625">
        <ele>2374</ele>
        <time>2022-08-06T10:12:14.000Z</time>
      </trkpt>
      <trkpt lat="42.75332179851830005645751953125" lon="-0.2133393846452236175537109375">
        <ele>2367.199951171875</ele>
        <time>2022-08-06T10:12:46.000Z</time>
      </trkpt>
      <trkpt lat="42.7533389814198017120361328125" lon="-0.21336243487894535064697265625">
        <ele>2367</ele>
        <time>2022-08-06T10:12:48.000Z</time>
      </trkpt>
      <trkpt lat="42.75340192951261997222900390625" lon="-0.2133836410939693450927734375">
        <ele>2368.199951171875</ele>
        <time>2022-08-06T10:12:54.000Z</time>
      </trkpt>
      <trkpt lat="42.7535582520067691802978515625" lon="-0.21345212124288082122802734375">
        <ele>2368.39990234375</ele>
        <time>2022-08-06T10:13:16.000Z</time>
      </trkpt>
      <trkpt lat="42.75371205992996692657470703125" lon="-0.21357826888561248779296875">
        <ele>2366</ele>
        <time>2022-08-06T10:13:35.000Z</time>
      </trkpt>
      <trkpt lat="42.753778360784053802490234375" lon="-0.2136330865323543548583984375">
        <ele>2363.60009765625</ele>
        <time>2022-08-06T10:13:44.000Z</time>
      </trkpt>
      <trkpt lat="42.75389092974364757537841796875" lon="-0.21380734629929065704345703125">
        <ele>2358</ele>
        <time>2022-08-06T10:14:05.000Z</time>
      </trkpt>
      <trkpt lat="42.7539758384227752685546875" lon="-0.21385713480412960052490234375">
        <ele>2356.800048828125</ele>
        <time>2022-08-06T10:14:14.000Z</time>
      </trkpt>
      <trkpt lat="42.7540698833763599395751953125" lon="-0.21391597576439380645751953125">
        <ele>2355.199951171875</ele>
        <time>2022-08-06T10:14:25.000Z</time>
      </trkpt>
      <trkpt lat="42.75418748147785663604736328125" lon="-0.2139998786151409149169921875">
        <ele>2353.199951171875</ele>
        <time>2022-08-06T10:14:39.000Z</time>
      </trkpt>
      <trkpt lat="42.7542304806411266326904296875" lon="-0.2140451408922672271728515625">
        <ele>2351.800048828125</ele>
        <time>2022-08-06T10:14:45.000Z</time>
      </trkpt>
      <trkpt lat="42.75432175956666469573974609375" lon="-0.2141165547072887420654296875">
        <ele>2348.60009765625</ele>
        <time>2022-08-06T10:14:59.000Z</time>
      </trkpt>
      <trkpt lat="42.7544795908033847808837890625" lon="-0.21424404345452785491943359375">
        <ele>2341.800048828125</ele>
        <time>2022-08-06T10:15:16.000Z</time>
      </trkpt>
      <trkpt lat="42.754635326564311981201171875" lon="-0.21436214447021484375">
        <ele>2335.199951171875</ele>
        <time>2022-08-06T10:15:35.000Z</time>
      </trkpt>
      <trkpt lat="42.75480355136096477508544921875" lon="-0.2144457958638668060302734375">
        <ele>2329.199951171875</ele>
        <time>2022-08-06T10:15:57.000Z</time>
      </trkpt>
      <trkpt lat="42.7549597062170505523681640625" lon="-0.21451972424983978271484375">
        <ele>2323.39990234375</ele>
        <time>2022-08-06T10:16:17.000Z</time>
      </trkpt>
      <trkpt lat="42.75511083193123340606689453125" lon="-0.21464989520609378814697265625">
        <ele>2318</ele>
        <time>2022-08-06T10:16:38.000Z</time>
      </trkpt>
      <trkpt lat="42.7552825771272182464599609375" lon="-0.2147234044969081878662109375">
        <ele>2315.800048828125</ele>
        <time>2022-08-06T10:16:59.000Z</time>
      </trkpt>
      <trkpt lat="42.75532842613756656646728515625" lon="-0.21472952328622341156005859375">
        <ele>2316.60009765625</ele>
        <time>2022-08-06T10:17:03.000Z</time>
      </trkpt>
      <trkpt lat="42.75545834563672542572021484375" lon="-0.21476942114531993865966796875">
        <ele>2316.60009765625</ele>
        <time>2022-08-06T10:17:15.000Z</time>
      </trkpt>
      <trkpt lat="42.75553244166076183319091796875" lon="-0.21480613388121128082275390625">
        <ele>2316</ele>
        <time>2022-08-06T10:17:23.000Z</time>
      </trkpt>
      <trkpt lat="42.755622379481792449951171875" lon="-0.2148544974625110626220703125">
        <ele>2315.199951171875</ele>
        <time>2022-08-06T10:17:33.000Z</time>
      </trkpt>
      <trkpt lat="42.7556279115378856658935546875" lon="-0.21486296318471431732177734375">
        <ele>2314.800048828125</ele>
        <time>2022-08-06T10:17:35.000Z</time>
      </trkpt>
      <trkpt lat="42.75546379387378692626953125" lon="-0.2149701677262783050537109375">
        <ele>2309.60009765625</ele>
        <time>2022-08-06T10:17:53.000Z</time>
      </trkpt>
      <trkpt lat="42.75542582385241985321044921875" lon="-0.21499305032193660736083984375">
        <ele>2308.199951171875</ele>
        <time>2022-08-06T10:17:58.000Z</time>
      </trkpt>
      <trkpt lat="42.75558256544172763824462890625" lon="-0.2151314355432987213134765625">
        <ele>2305.199951171875</ele>
        <time>2022-08-06T10:18:20.000Z</time>
      </trkpt>
      <trkpt lat="42.7557690627872943878173828125" lon="-0.21512296982109546661376953125">
        <ele>2307</ele>
        <time>2022-08-06T10:18:37.000Z</time>
      </trkpt>
      <trkpt lat="42.75578976608812808990478515625" lon="-0.21512079052627086639404296875">
        <ele>2307</ele>
        <time>2022-08-06T10:18:39.000Z</time>
      </trkpt>
      <trkpt lat="42.75584693066775798797607421875" lon="-0.21509706974029541015625">
        <ele>2308</ele>
        <time>2022-08-06T10:18:43.000Z</time>
      </trkpt>
      <trkpt lat="42.75603116489946842193603515625" lon="-0.215058512985706329345703125">
        <ele>2310.39990234375</ele>
        <time>2022-08-06T10:19:00.000Z</time>
      </trkpt>
      <trkpt lat="42.756040804088115692138671875" lon="-0.21505641750991344451904296875">
        <ele>2310.60009765625</ele>
        <time>2022-08-06T10:19:01.000Z</time>
      </trkpt>
      <trkpt lat="42.7562039159238338470458984375" lon="-0.2151495404541492462158203125">
        <ele>2311.199951171875</ele>
        <time>2022-08-06T10:19:19.000Z</time>
      </trkpt>
      <trkpt lat="42.7562867291271686553955078125" lon="-0.21536755375564098358154296875">
        <ele>2307</ele>
        <time>2022-08-06T10:19:36.000Z</time>
      </trkpt>
      <trkpt lat="42.75641321204602718353271484375" lon="-0.2155398018658161163330078125">
        <ele>2307.39990234375</ele>
        <time>2022-08-06T10:19:55.000Z</time>
      </trkpt>
      <trkpt lat="42.7565033175051212310791015625" lon="-0.215756557881832122802734375">
        <ele>2304.199951171875</ele>
        <time>2022-08-06T10:20:17.000Z</time>
      </trkpt>
      <trkpt lat="42.7565435506403446197509765625" lon="-0.215973146259784698486328125">
        <ele>2296.39990234375</ele>
        <time>2022-08-06T10:20:48.000Z</time>
      </trkpt>
      <trkpt lat="42.7565878070890903472900390625" lon="-0.21616391837596893310546875">
        <ele>2292</ele>
        <time>2022-08-06T10:21:27.000Z</time>
      </trkpt>
      <trkpt lat="42.7566588856279850006103515625" lon="-0.2163860388100147247314453125">
        <ele>2289.800048828125</ele>
        <time>2022-08-06T10:21:52.000Z</time>
      </trkpt>
      <trkpt lat="42.7565485797822475433349609375" lon="-0.216274559497833251953125">
        <ele>2286.199951171875</ele>
        <time>2022-08-06T10:22:20.000Z</time>
      </trkpt>
      <trkpt lat="42.75657012127339839935302734375" lon="-0.21651721559464931488037109375">
        <ele>2282.199951171875</ele>
        <time>2022-08-06T10:22:43.000Z</time>
      </trkpt>
      <trkpt lat="42.75661035440862178802490234375" lon="-0.21664260886609554290771484375">
        <ele>2282.60009765625</ele>
        <time>2022-08-06T10:22:55.000Z</time>
      </trkpt>
      <trkpt lat="42.7566230110824108123779296875" lon="-0.2168956585228443145751953125">
        <ele>2278.60009765625</ele>
        <time>2022-08-06T10:23:16.000Z</time>
      </trkpt>
      <trkpt lat="42.75663449428975582122802734375" lon="-0.21693396382033824920654296875">
        <ele>2278.60009765625</ele>
        <time>2022-08-06T10:23:19.000Z</time>
      </trkpt>
      <trkpt lat="42.7565274573862552642822265625" lon="-0.2169382385909557342529296875">
        <ele>2271.39990234375</ele>
        <time>2022-08-06T10:23:52.000Z</time>
      </trkpt>
      <trkpt lat="42.7564541995525360107421875" lon="-0.21672273986041545867919921875">
        <ele>2270.800048828125</ele>
        <time>2022-08-06T10:24:20.000Z</time>
      </trkpt>
      <trkpt lat="42.75638521648943424224853515625" lon="-0.21692164242267608642578125">
        <ele>2262.60009765625</ele>
        <time>2022-08-06T10:24:42.000Z</time>
      </trkpt>
      <trkpt lat="42.756335847079753875732421875" lon="-0.2171154320240020751953125">
        <ele>2256.39990234375</ele>
        <time>2022-08-06T10:25:12.000Z</time>
      </trkpt>
      <trkpt lat="42.7562374435365200042724609375" lon="-0.21701828576624393463134765625">
        <ele>2252.39990234375</ele>
        <time>2022-08-06T10:25:32.000Z</time>
      </trkpt>
      <trkpt lat="42.7562342584133148193359375" lon="-0.21706740371882915496826171875">
        <ele>2251.39990234375</ele>
        <time>2022-08-06T10:25:36.000Z</time>
      </trkpt>
      <trkpt lat="42.75627725757658481597900390625" lon="-0.2173006720840930938720703125">
        <ele>2250.199951171875</ele>
        <time>2022-08-06T10:25:55.000Z</time>
      </trkpt>
      <trkpt lat="42.7563323266804218292236328125" lon="-0.2175323478877544403076171875">
        <ele>2249.60009765625</ele>
        <time>2022-08-06T10:26:18.000Z</time>
      </trkpt>
      <trkpt lat="42.75620031170547008514404296875" lon="-0.21742053329944610595703125">
        <ele>2244</ele>
        <time>2022-08-06T10:26:41.000Z</time>
      </trkpt>
      <trkpt lat="42.75618371553719043731689453125" lon="-0.217436291277408599853515625">
        <ele>2242.800048828125</ele>
        <time>2022-08-06T10:26:44.000Z</time>
      </trkpt>
      <trkpt lat="42.75624725036323070526123046875" lon="-0.2176661230623722076416015625">
        <ele>2243</ele>
        <time>2022-08-06T10:27:07.000Z</time>
      </trkpt>
      <trkpt lat="42.75631883181631565093994140625" lon="-0.2178900875151157379150390625">
        <ele>2242.800048828125</ele>
        <time>2022-08-06T10:27:30.000Z</time>
      </trkpt>
      <trkpt lat="42.75622445158660411834716796875" lon="-0.21773577667772769927978515625">
        <ele>2240.60009765625</ele>
        <time>2022-08-06T10:27:57.000Z</time>
      </trkpt>
      <trkpt lat="42.75624356232583522796630859375" lon="-0.2179293148219585418701171875">
        <ele>2238.199951171875</ele>
        <time>2022-08-06T10:28:30.000Z</time>
      </trkpt>
      <trkpt lat="42.75629636831581592559814453125" lon="-0.2180885709822177886962890625">
        <ele>2236.199951171875</ele>
        <time>2022-08-06T10:29:02.000Z</time>
      </trkpt>
      <trkpt lat="42.75612537749111652374267578125" lon="-0.21801221184432506561279296875">
        <ele>2230.60009765625</ele>
        <time>2022-08-06T10:29:24.000Z</time>
      </trkpt>
      <trkpt lat="42.75594382546842098236083984375" lon="-0.21798388101160526275634765625">
        <ele>2222.800048828125</ele>
        <time>2022-08-06T10:29:43.000Z</time>
      </trkpt>
      <trkpt lat="42.755919434130191802978515625" lon="-0.21800718270242214202880859375">
        <ele>2221</ele>
        <time>2022-08-06T10:29:46.000Z</time>
      </trkpt>
      <trkpt lat="42.75593091733753681182861328125" lon="-0.21805294789373874664306640625">
        <ele>2220.60009765625</ele>
        <time>2022-08-06T10:29:50.000Z</time>
      </trkpt>
      <trkpt lat="42.75607156567275524139404296875" lon="-0.218209438025951385498046875">
        <ele>2222.39990234375</ele>
        <time>2022-08-06T10:30:09.000Z</time>
      </trkpt>
      <trkpt lat="42.7561549656093120574951171875" lon="-0.218422003090381622314453125">
        <ele>2219.199951171875</ele>
        <time>2022-08-06T10:30:29.000Z</time>
      </trkpt>
      <trkpt lat="42.756121270358562469482421875" lon="-0.21866667084395885467529296875">
        <ele>2214.199951171875</ele>
        <time>2022-08-06T10:30:52.000Z</time>
      </trkpt>
      <trkpt lat="42.756119929254055023193359375" lon="-0.21869131363928318023681640625">
        <ele>2214</ele>
        <time>2022-08-06T10:30:54.000Z</time>
      </trkpt>
      <trkpt lat="42.7560372836887836456298828125" lon="-0.218912847340106964111328125">
        <ele>2211.199951171875</ele>
        <time>2022-08-06T10:31:15.000Z</time>
      </trkpt>
      <trkpt lat="42.75597886182367801666259765625" lon="-0.2191446907818317413330078125">
        <ele>2208</ele>
        <time>2022-08-06T10:31:36.000Z</time>
      </trkpt>
      <trkpt lat="42.75597919709980487823486328125" lon="-0.21932515315711498260498046875">
        <ele>2205.199951171875</ele>
        <time>2022-08-06T10:32:40.000Z</time>
      </trkpt>
      <trkpt lat="42.756062932312488555908203125" lon="-0.219499580562114715576171875">
        <ele>2202.800048828125</ele>
        <time>2022-08-06T10:33:25.000Z</time>
      </trkpt>
      <trkpt lat="42.75617147795855998992919921875" lon="-0.2197025902569293975830078125">
        <ele>2200.60009765625</ele>
        <time>2022-08-06T10:33:46.000Z</time>
      </trkpt>
      <trkpt lat="42.7562879025936126708984375" lon="-0.21990736015141010284423828125">
        <ele>2196.39990234375</ele>
        <time>2022-08-06T10:34:08.000Z</time>
      </trkpt>
      <trkpt lat="42.75635286234319210052490234375" lon="-0.2199827134609222412109375">
        <ele>2193.60009765625</ele>
        <time>2022-08-06T10:34:16.000Z</time>
      </trkpt>
      <trkpt lat="42.75641974993050098419189453125" lon="-0.2200308255851268768310546875">
        <ele>2191.800048828125</ele>
        <time>2022-08-06T10:34:23.000Z</time>
      </trkpt>
      <trkpt lat="42.75659694336354732513427734375" lon="-0.2201012335717678070068359375">
        <ele>2189.60009765625</ele>
        <time>2022-08-06T10:34:42.000Z</time>
      </trkpt>
      <trkpt lat="42.75677246041595935821533203125" lon="-0.22017139010131359100341796875">
        <ele>2191.199951171875</ele>
        <time>2022-08-06T10:35:05.000Z</time>
      </trkpt>
      <trkpt lat="42.756938003003597259521484375" lon="-0.2202831208705902099609375">
        <ele>2188.60009765625</ele>
        <time>2022-08-06T10:35:21.000Z</time>
      </trkpt>
      <trkpt lat="42.757096923887729644775390625" lon="-0.2204133756458759307861328125">
        <ele>2187.39990234375</ele>
        <time>2022-08-06T10:35:40.000Z</time>
      </trkpt>
      <trkpt lat="42.75726414285600185394287109375" lon="-0.220517478883266448974609375">
        <ele>2185.60009765625</ele>
        <time>2022-08-06T10:35:59.000Z</time>
      </trkpt>
      <trkpt lat="42.7574152685701847076416015625" lon="-0.2206370048224925994873046875">
        <ele>2180.800048828125</ele>
        <time>2022-08-06T10:36:23.000Z</time>
      </trkpt>
      <trkpt lat="42.7575852535665035247802734375" lon="-0.22074806503951549530029296875">
        <ele>2180.39990234375</ele>
        <time>2022-08-06T10:36:41.000Z</time>
      </trkpt>
      <trkpt lat="42.75773487053811550140380859375" lon="-0.2208810858428478240966796875">
        <ele>2175.60009765625</ele>
        <time>2022-08-06T10:36:57.000Z</time>
      </trkpt>
      <trkpt lat="42.7577609382569789886474609375" lon="-0.220909081399440765380859375">
        <ele>2175.39990234375</ele>
        <time>2022-08-06T10:37:00.000Z</time>
      </trkpt>
      <trkpt lat="42.75787417776882648468017578125" lon="-0.22095241583883762359619140625">
        <ele>2176.60009765625</ele>
        <time>2022-08-06T10:37:11.000Z</time>
      </trkpt>
      <trkpt lat="42.7580593340098857879638671875" lon="-0.22096113301813602447509765625">
        <ele>2174.800048828125</ele>
        <time>2022-08-06T10:37:30.000Z</time>
      </trkpt>
      <trkpt lat="42.75793519802391529083251953125" lon="-0.22107864730060100555419921875">
        <ele>2171</ele>
        <time>2022-08-06T10:37:52.000Z</time>
      </trkpt>
      <trkpt lat="42.757754065096378326416015625" lon="-0.221116952598094940185546875">
        <ele>2167.39990234375</ele>
        <time>2022-08-06T10:38:13.000Z</time>
      </trkpt>
      <trkpt lat="42.75773964822292327880859375" lon="-0.22114419378340244293212890625">
        <ele>2165.60009765625</ele>
        <time>2022-08-06T10:38:16.000Z</time>
      </trkpt>
      <trkpt lat="42.7577884308993816375732421875" lon="-0.22117436863481998443603515625">
        <ele>2165.60009765625</ele>
        <time>2022-08-06T10:38:22.000Z</time>
      </trkpt>
      <trkpt lat="42.75791960768401622772216796875" lon="-0.2212916314601898193359375">
        <ele>2161.199951171875</ele>
        <time>2022-08-06T10:38:49.000Z</time>
      </trkpt>
      <trkpt lat="42.75792446918785572052001953125" lon="-0.22145583294332027435302734375">
        <ele>2153.39990234375</ele>
        <time>2022-08-06T10:39:28.000Z</time>
      </trkpt>
      <trkpt lat="42.75799621827900409698486328125" lon="-0.221579633653163909912109375">
        <ele>2147.39990234375</ele>
        <time>2022-08-06T10:39:59.000Z</time>
      </trkpt>
      <trkpt lat="42.75817148387432098388671875" lon="-0.2216079644858837127685546875">
        <ele>2142.199951171875</ele>
        <time>2022-08-06T10:40:23.000Z</time>
      </trkpt>
      <trkpt lat="42.75800862349569797515869140625" lon="-0.22171877324581146240234375">
        <ele>2139</ele>
        <time>2022-08-06T10:40:43.000Z</time>
      </trkpt>
      <trkpt lat="42.757917009294033050537109375" lon="-0.22178809158504009246826171875">
        <ele>2135.39990234375</ele>
        <time>2022-08-06T10:40:56.000Z</time>
      </trkpt>
      <trkpt lat="42.75801432318985462188720703125" lon="-0.22199043072760105133056640625">
        <ele>2125.60009765625</ele>
        <time>2022-08-06T10:41:22.000Z</time>
      </trkpt>
      <trkpt lat="42.75807358324527740478515625" lon="-0.2220468409359455108642578125">
        <ele>2122.800048828125</ele>
        <time>2022-08-06T10:41:31.000Z</time>
      </trkpt>
      <trkpt lat="42.75808473117649555206298828125" lon="-0.2222097851336002349853515625">
        <ele>2115.39990234375</ele>
        <time>2022-08-06T10:42:09.000Z</time>
      </trkpt>
      <trkpt lat="42.7581290714442729949951171875" lon="-0.2224189974367618560791015625">
        <ele>2108</ele>
        <time>2022-08-06T10:42:45.000Z</time>
      </trkpt>
      <trkpt lat="42.75828019715845584869384765625" lon="-0.22255822084844112396240234375">
        <ele>2102.199951171875</ele>
        <time>2022-08-06T10:43:08.000Z</time>
      </trkpt>
      <trkpt lat="42.7583419717848300933837890625" lon="-0.22272150032222270965576171875">
        <ele>2098</ele>
        <time>2022-08-06T10:43:42.000Z</time>
      </trkpt>
      <trkpt lat="42.75844833813607692718505859375" lon="-0.2228339016437530517578125">
        <ele>2093.199951171875</ele>
        <time>2022-08-06T10:44:11.000Z</time>
      </trkpt>
      <trkpt lat="42.7584700472652912139892578125" lon="-0.2230285294353961944580078125">
        <ele>2084.800048828125</ele>
        <time>2022-08-06T10:44:40.000Z</time>
      </trkpt>
      <trkpt lat="42.7584953606128692626953125" lon="-0.223250649869441986083984375">
        <ele>2072.199951171875</ele>
        <time>2022-08-06T10:45:15.000Z</time>
      </trkpt>
      <trkpt lat="42.7585659362375736236572265625" lon="-0.22338551469147205352783203125">
        <ele>2067.199951171875</ele>
        <time>2022-08-06T10:46:11.000Z</time>
      </trkpt>
      <trkpt lat="42.7586380206048488616943359375" lon="-0.2236025221645832061767578125">
        <ele>2059.800048828125</ele>
        <time>2022-08-06T10:46:37.000Z</time>
      </trkpt>
      <trkpt lat="42.75871136225759983062744140625" lon="-0.223749540746212005615234375">
        <ele>2056.800048828125</ele>
        <time>2022-08-06T10:46:52.000Z</time>
      </trkpt>
      <trkpt lat="42.75872661732137203216552734375" lon="-0.223773680627346038818359375">
        <ele>2056</ele>
        <time>2022-08-06T10:46:55.000Z</time>
      </trkpt>
      <trkpt lat="42.7587555348873138427734375" lon="-0.22380779497325420379638671875">
        <ele>2055.199951171875</ele>
        <time>2022-08-06T10:47:00.000Z</time>
      </trkpt>
      <trkpt lat="42.7588780783116817474365234375" lon="-0.223974846303462982177734375">
        <ele>2050.60009765625</ele>
        <time>2022-08-06T10:47:25.000Z</time>
      </trkpt>
      <trkpt lat="42.75896809995174407958984375" lon="-0.22399974055588245391845703125">
        <ele>2050.199951171875</ele>
        <time>2022-08-06T10:47:39.000Z</time>
      </trkpt>
      <trkpt lat="42.7589528448879718780517578125" lon="-0.224082134664058685302734375">
        <ele>2049.199951171875</ele>
        <time>2022-08-06T10:47:46.000Z</time>
      </trkpt>
      <trkpt lat="42.75896684266626834869384765625" lon="-0.22412949241697788238525390625">
        <ele>2047.800048828125</ele>
        <time>2022-08-06T10:47:50.000Z</time>
      </trkpt>
      <trkpt lat="42.7589969336986541748046875" lon="-0.22437659092247486114501953125">
        <ele>2040.5999755859375</ele>
        <time>2022-08-06T10:48:13.000Z</time>
      </trkpt>
      <trkpt lat="42.759060971438884735107421875" lon="-0.22458949126303195953369140625">
        <ele>2028.800048828125</ele>
        <time>2022-08-06T10:48:44.000Z</time>
      </trkpt>
      <trkpt lat="42.75907530449330806732177734375" lon="-0.22462067194283008575439453125">
        <ele>2027.800048828125</ele>
        <time>2022-08-06T10:48:47.000Z</time>
      </trkpt>
      <trkpt lat="42.7592385001480579376220703125" lon="-0.2245168201625347137451171875">
        <ele>2036.199951171875</ele>
        <time>2022-08-06T10:49:12.000Z</time>
      </trkpt>
      <trkpt lat="42.7593162842094898223876953125" lon="-0.22453249432146549224853515625">
        <ele>2034</ele>
        <time>2022-08-06T10:49:40.000Z</time>
      </trkpt>
      <trkpt lat="42.75925417430698871612548828125" lon="-0.22475394420325756072998046875">
        <ele>2026</ele>
        <time>2022-08-06T10:50:09.000Z</time>
      </trkpt>
      <trkpt lat="42.75934268720448017120361328125" lon="-0.22481077350676059722900390625">
        <ele>2022</ele>
        <time>2022-08-06T10:50:48.000Z</time>
      </trkpt>
      <trkpt lat="42.75934897363185882568359375" lon="-0.22480331361293792724609375">
        <ele>2022.199951171875</ele>
        <time>2022-08-06T10:50:49.000Z</time>
      </trkpt>
      <trkpt lat="42.7595047093927860260009765625" lon="-0.22468957118690013885498046875">
        <ele>2024.800048828125</ele>
        <time>2022-08-06T10:51:11.000Z</time>
      </trkpt>
      <trkpt lat="42.75964460335671901702880859375" lon="-0.22452562116086483001708984375">
        <ele>2024.800048828125</ele>
        <time>2022-08-06T10:51:34.000Z</time>
      </trkpt>
      <trkpt lat="42.75973697192966938018798828125" lon="-0.22431590594351291656494140625">
        <ele>2028</ele>
        <time>2022-08-06T10:51:54.000Z</time>
      </trkpt>
      <trkpt lat="42.75981475599110126495361328125" lon="-0.224097557365894317626953125">
        <ele>2029.800048828125</ele>
        <time>2022-08-06T10:52:14.000Z</time>
      </trkpt>
      <trkpt lat="42.75992640294134616851806640625" lon="-0.22389580495655536651611328125">
        <ele>2027</ele>
        <time>2022-08-06T10:52:36.000Z</time>
      </trkpt>
      <trkpt lat="42.76006621308624744415283203125" lon="-0.2237416617572307586669921875">
        <ele>2022.199951171875</ele>
        <time>2022-08-06T10:52:59.000Z</time>
      </trkpt>
      <trkpt lat="42.760245166718959808349609375" lon="-0.2237000875174999237060546875">
        <ele>2015.4000244140625</ele>
        <time>2022-08-06T10:53:24.000Z</time>
      </trkpt>
      <trkpt lat="42.76041054166853427886962890625" lon="-0.22364770062267780303955078125">
        <ele>2010.199951171875</ele>
        <time>2022-08-06T10:53:44.000Z</time>
      </trkpt>
      <trkpt lat="42.76058421470224857330322265625" lon="-0.2235770411789417266845703125">
        <ele>2008</ele>
        <time>2022-08-06T10:54:06.000Z</time>
      </trkpt>
      <trkpt lat="42.7607589773833751678466796875" lon="-0.22352884523570537567138671875">
        <ele>2003</ele>
        <time>2022-08-06T10:54:33.000Z</time>
      </trkpt>
      <trkpt lat="42.7609380148351192474365234375" lon="-0.22353404201567173004150390625">
        <ele>1996.4000244140625</ele>
        <time>2022-08-06T10:54:54.000Z</time>
      </trkpt>
      <trkpt lat="42.7609817683696746826171875" lon="-0.2235344611108303070068359375">
        <ele>1995.5999755859375</ele>
        <time>2022-08-06T10:55:01.000Z</time>
      </trkpt>
      <trkpt lat="42.761157117784023284912109375" lon="-0.22356790490448474884033203125">
        <ele>1991.5999755859375</ele>
        <time>2022-08-06T10:55:22.000Z</time>
      </trkpt>
      <trkpt lat="42.7613302879035472869873046875" lon="-0.223634205758571624755859375">
        <ele>1991</ele>
        <time>2022-08-06T10:55:41.000Z</time>
      </trkpt>
      <trkpt lat="42.76151577942073345184326171875" lon="-0.2236548252403736114501953125">
        <ele>1990.800048828125</ele>
        <time>2022-08-06T10:56:02.000Z</time>
      </trkpt>
      <trkpt lat="42.76163262315094470977783203125" lon="-0.22375901229679584503173828125">
        <ele>1987.199951171875</ele>
        <time>2022-08-06T10:56:26.000Z</time>
      </trkpt>
      <trkpt lat="42.761474289000034332275390625" lon="-0.22388390265405178070068359375">
        <ele>1982</ele>
        <time>2022-08-06T10:56:43.000Z</time>
      </trkpt>
      <trkpt lat="42.76131243444979190826416015625" lon="-0.2239978127181529998779296875">
        <ele>1980.800048828125</ele>
        <time>2022-08-06T10:57:04.000Z</time>
      </trkpt>
      <trkpt lat="42.761180587112903594970703125" lon="-0.2241654507815837860107421875">
        <ele>1977.800048828125</ele>
        <time>2022-08-06T10:57:25.000Z</time>
      </trkpt>
      <trkpt lat="42.76107304729521274566650390625" lon="-0.22436569444835186004638671875">
        <ele>1973.5999755859375</ele>
        <time>2022-08-06T10:57:45.000Z</time>
      </trkpt>
      <trkpt lat="42.76096408255398273468017578125" lon="-0.22456350736320018768310546875">
        <ele>1971.5999755859375</ele>
        <time>2022-08-06T10:58:05.000Z</time>
      </trkpt>
      <trkpt lat="42.76082460768520832061767578125" lon="-0.2247220091521739959716796875">
        <ele>1969.4000244140625</ele>
        <time>2022-08-06T10:58:22.000Z</time>
      </trkpt>
      <trkpt lat="42.76071296073496341705322265625" lon="-0.2249168045818805694580078125">
        <ele>1964.5999755859375</ele>
        <time>2022-08-06T10:58:38.000Z</time>
      </trkpt>
      <trkpt lat="42.7607204206287860870361328125" lon="-0.22494924254715442657470703125">
        <ele>1963.5999755859375</ele>
        <time>2022-08-06T10:58:42.000Z</time>
      </trkpt>
      <trkpt lat="42.76089032180607318878173828125" lon="-0.22495276294648647308349609375">
        <ele>1962.199951171875</ele>
        <time>2022-08-06T10:59:04.000Z</time>
      </trkpt>
      <trkpt lat="42.7608552016317844390869140625" lon="-0.2250167168676853179931640625">
        <ele>1960.4000244140625</ele>
        <time>2022-08-06T10:59:10.000Z</time>
      </trkpt>
      <trkpt lat="42.76091479696333408355712890625" lon="-0.225067846477031707763671875">
        <ele>1957.4000244140625</ele>
        <time>2022-08-06T10:59:37.000Z</time>
      </trkpt>
      <trkpt lat="42.76085210032761096954345703125" lon="-0.225188545882701873779296875">
        <ele>1954.199951171875</ele>
        <time>2022-08-06T10:59:55.000Z</time>
      </trkpt>
      <trkpt lat="42.7609205804765224456787109375" lon="-0.22520430386066436767578125">
        <ele>1952.199951171875</ele>
        <time>2022-08-06T11:00:04.000Z</time>
      </trkpt>
      <trkpt lat="42.7611053176224231719970703125" lon="-0.22515476681292057037353515625">
        <ele>1945.199951171875</ele>
        <time>2022-08-06T11:00:22.000Z</time>
      </trkpt>
      <trkpt lat="42.761288546025753021240234375" lon="-0.22511956281960010528564453125">
        <ele>1939.5999755859375</ele>
        <time>2022-08-06T11:00:40.000Z</time>
      </trkpt>
      <trkpt lat="42.7614597044885158538818359375" lon="-0.2250214107334613800048828125">
        <ele>1938.800048828125</ele>
        <time>2022-08-06T11:00:57.000Z</time>
      </trkpt>
      <trkpt lat="42.7613949961960315704345703125" lon="-0.2251558564603328704833984375">
        <ele>1934.800048828125</ele>
        <time>2022-08-06T11:01:20.000Z</time>
      </trkpt>
      <trkpt lat="42.7613369934260845184326171875" lon="-0.2252322994172573089599609375">
        <ele>1933.199951171875</ele>
        <time>2022-08-06T11:01:33.000Z</time>
      </trkpt>
      <trkpt lat="42.761397846043109893798828125" lon="-0.225224755704402923583984375">
        <ele>1931.800048828125</ele>
        <time>2022-08-06T11:01:39.000Z</time>
      </trkpt>
      <trkpt lat="42.76143531315028667449951171875" lon="-0.22524378262460231781005859375">
        <ele>1930</ele>
        <time>2022-08-06T11:02:02.000Z</time>
      </trkpt>
      <trkpt lat="42.7613976784050464630126953125" lon="-0.22538401186466217041015625">
        <ele>1925</ele>
        <time>2022-08-06T11:02:26.000Z</time>
      </trkpt>
      <trkpt lat="42.76157210581004619598388671875" lon="-0.2253322117030620574951171875">
        <ele>1923</ele>
        <time>2022-08-06T11:02:47.000Z</time>
      </trkpt>
      <trkpt lat="42.76143095456063747406005859375" lon="-0.22549121640622615814208984375">
        <ele>1919.199951171875</ele>
        <time>2022-08-06T11:03:09.000Z</time>
      </trkpt>
      <trkpt lat="42.76138703338801860809326171875" lon="-0.22556246258318424224853515625">
        <ele>1916.5999755859375</ele>
        <time>2022-08-06T11:03:23.000Z</time>
      </trkpt>
      <trkpt lat="42.76156472973525524139404296875" lon="-0.22551250644028186798095703125">
        <ele>1916.199951171875</ele>
        <time>2022-08-06T11:03:42.000Z</time>
      </trkpt>
      <trkpt lat="42.76163882575929164886474609375" lon="-0.22553781978785991668701171875">
        <ele>1914.199951171875</ele>
        <time>2022-08-06T11:04:02.000Z</time>
      </trkpt>
      <trkpt lat="42.76148795150220394134521484375" lon="-0.2256839163601398468017578125">
        <ele>1908.4000244140625</ele>
        <time>2022-08-06T11:04:24.000Z</time>
      </trkpt>
      <trkpt lat="42.76146414689719676971435546875" lon="-0.225791037082672119140625">
        <ele>1903</ele>
        <time>2022-08-06T11:04:52.000Z</time>
      </trkpt>
      <trkpt lat="42.7616494707763195037841796875" lon="-0.225754491984844207763671875">
        <ele>1902.4000244140625</ele>
        <time>2022-08-06T11:05:08.000Z</time>
      </trkpt>
      <trkpt lat="42.7618130855262279510498046875" lon="-0.22563857026398181915283203125">
        <ele>1903.4000244140625</ele>
        <time>2022-08-06T11:05:25.000Z</time>
      </trkpt>
      <trkpt lat="42.7617114968597888946533203125" lon="-0.22579707205295562744140625">
        <ele>1899</ele>
        <time>2022-08-06T11:05:47.000Z</time>
      </trkpt>
      <trkpt lat="42.76157126761972904205322265625" lon="-0.22595666348934173583984375">
        <ele>1891.5999755859375</ele>
        <time>2022-08-06T11:06:06.000Z</time>
      </trkpt>
      <trkpt lat="42.76144587434828281402587890625" lon="-0.22613058798015117645263671875">
        <ele>1884.5999755859375</ele>
        <time>2022-08-06T11:06:23.000Z</time>
      </trkpt>
      <trkpt lat="42.76138854213058948516845703125" lon="-0.22621105425059795379638671875">
        <ele>1881.800048828125</ele>
        <time>2022-08-06T11:06:36.000Z</time>
      </trkpt>
      <trkpt lat="42.7614255063235759735107421875" lon="-0.2262284047901630401611328125">
        <ele>1880</ele>
        <time>2022-08-06T11:06:40.000Z</time>
      </trkpt>
      <trkpt lat="42.76161007583141326904296875" lon="-0.2261737547814846038818359375">
        <ele>1878.4000244140625</ele>
        <time>2022-08-06T11:06:58.000Z</time>
      </trkpt>
      <trkpt lat="42.76171610690653324127197265625" lon="-0.2262143231928348541259765625">
        <ele>1874.199951171875</ele>
        <time>2022-08-06T11:07:27.000Z</time>
      </trkpt>
      <trkpt lat="42.76162072084844112396240234375" lon="-0.22640098817646503448486328125">
        <ele>1868.4000244140625</ele>
        <time>2022-08-06T11:07:59.000Z</time>
      </trkpt>
      <trkpt lat="42.7614556811749935150146484375" lon="-0.22649989463388919830322265625">
        <ele>1868.4000244140625</ele>
        <time>2022-08-06T11:08:16.000Z</time>
      </trkpt>
      <trkpt lat="42.76132031343877315521240234375" lon="-0.226666443049907684326171875">
        <ele>1864</ele>
        <time>2022-08-06T11:08:34.000Z</time>
      </trkpt>
      <trkpt lat="42.7613118477165699005126953125" lon="-0.226803235709667205810546875">
        <ele>1858.5999755859375</ele>
        <time>2022-08-06T11:08:54.000Z</time>
      </trkpt>
      <trkpt lat="42.7614979259669780731201171875" lon="-0.2267687022686004638671875">
        <ele>1856.199951171875</ele>
        <time>2022-08-06T11:09:09.000Z</time>
      </trkpt>
      <trkpt lat="42.761683501303195953369140625" lon="-0.22672536782920360565185546875">
        <ele>1851.800048828125</ele>
        <time>2022-08-06T11:09:25.000Z</time>
      </trkpt>
      <trkpt lat="42.76186044327914714813232421875" lon="-0.2266681194305419921875">
        <ele>1848</ele>
        <time>2022-08-06T11:09:40.000Z</time>
      </trkpt>
      <trkpt lat="42.76178282685577869415283203125" lon="-0.2267950214445590972900390625">
        <ele>1844.800048828125</ele>
        <time>2022-08-06T11:10:06.000Z</time>
      </trkpt>
      <trkpt lat="42.76164955459535121917724609375" lon="-0.2269666828215122222900390625">
        <ele>1840</ele>
        <time>2022-08-06T11:10:27.000Z</time>
      </trkpt>
      <trkpt lat="42.76150387711822986602783203125" lon="-0.22711344994604587554931640625">
        <ele>1835.800048828125</ele>
        <time>2022-08-06T11:10:45.000Z</time>
      </trkpt>
      <trkpt lat="42.761332802474498748779296875" lon="-0.22719542495906352996826171875">
        <ele>1836.5999755859375</ele>
        <time>2022-08-06T11:11:04.000Z</time>
      </trkpt>
      <trkpt lat="42.76119123212993144989013671875" lon="-0.2273535914719104766845703125">
        <ele>1832.5999755859375</ele>
        <time>2022-08-06T11:11:24.000Z</time>
      </trkpt>
      <trkpt lat="42.76103147305548191070556640625" lon="-0.2274638973176479339599609375">
        <ele>1834.5999755859375</ele>
        <time>2022-08-06T11:11:45.000Z</time>
      </trkpt>
      <trkpt lat="42.761007584631443023681640625" lon="-0.22749734111130237579345703125">
        <ele>1834.4000244140625</ele>
        <time>2022-08-06T11:11:47.000Z</time>
      </trkpt>
      <trkpt lat="42.7608932554721832275390625" lon="-0.22770085372030735015869140625">
        <ele>1831.4000244140625</ele>
        <time>2022-08-06T11:12:03.000Z</time>
      </trkpt>
      <trkpt lat="42.76078102178871631622314453125" lon="-0.2278896979987621307373046875">
        <ele>1827.199951171875</ele>
        <time>2022-08-06T11:12:24.000Z</time>
      </trkpt>
      <trkpt lat="42.76096609421074390411376953125" lon="-0.22790528833866119384765625">
        <ele>1820</ele>
        <time>2022-08-06T11:12:43.000Z</time>
      </trkpt>
      <trkpt lat="42.76112870313227176666259765625" lon="-0.2278469502925872802734375">
        <ele>1814</ele>
        <time>2022-08-06T11:13:08.000Z</time>
      </trkpt>
      <trkpt lat="42.76129298843443393707275390625" lon="-0.22774167358875274658203125">
        <ele>1810.800048828125</ele>
        <time>2022-08-06T11:13:26.000Z</time>
      </trkpt>
      <trkpt lat="42.7614751271903514862060546875" lon="-0.22770789451897144317626953125">
        <ele>1804.800048828125</ele>
        <time>2022-08-06T11:13:43.000Z</time>
      </trkpt>
      <trkpt lat="42.76165374554693698883056640625" lon="-0.2276204712688922882080078125">
        <ele>1806.199951171875</ele>
        <time>2022-08-06T11:13:58.000Z</time>
      </trkpt>
      <trkpt lat="42.761835716664791107177734375" lon="-0.22759591229259967803955078125">
        <ele>1805</ele>
        <time>2022-08-06T11:14:13.000Z</time>
      </trkpt>
      <trkpt lat="42.762017436325550079345703125" lon="-0.2275162003934383392333984375">
        <ele>1804.4000244140625</ele>
        <time>2022-08-06T11:14:31.000Z</time>
      </trkpt>
      <trkpt lat="42.76206110604107379913330078125" lon="-0.22756590507924556732177734375">
        <ele>1801.199951171875</ele>
        <time>2022-08-06T11:14:56.000Z</time>
      </trkpt>
      <trkpt lat="42.76192096062004566192626953125" lon="-0.22772029973566532135009765625">
        <ele>1798.4000244140625</ele>
        <time>2022-08-06T11:15:16.000Z</time>
      </trkpt>
      <trkpt lat="42.76177343912422657012939453125" lon="-0.2278625406324863433837890625">
        <ele>1797</ele>
        <time>2022-08-06T11:15:40.000Z</time>
      </trkpt>
      <trkpt lat="42.76165835559368133544921875" lon="-0.22805423475801944732666015625">
        <ele>1792.199951171875</ele>
        <time>2022-08-06T11:16:01.000Z</time>
      </trkpt>
      <trkpt lat="42.76152692735195159912109375" lon="-0.228238217532634735107421875">
        <ele>1787</ele>
        <time>2022-08-06T11:16:21.000Z</time>
      </trkpt>
      <trkpt lat="42.76143548078835010528564453125" lon="-0.22845086641609668731689453125">
        <ele>1782.5999755859375</ele>
        <time>2022-08-06T11:16:36.000Z</time>
      </trkpt>
      <trkpt lat="42.76145727373659610748291015625" lon="-0.22862789221107959747314453125">
        <ele>1776.199951171875</ele>
        <time>2022-08-06T11:16:51.000Z</time>
      </trkpt>
      <trkpt lat="42.7615016140043735504150390625" lon="-0.228600315749645233154296875">
        <ele>1775.5999755859375</ele>
        <time>2022-08-06T11:16:57.000Z</time>
      </trkpt>
      <trkpt lat="42.7616766281425952911376953125" lon="-0.2285545505583286285400390625">
        <ele>1771.4000244140625</ele>
        <time>2022-08-06T11:17:20.000Z</time>
      </trkpt>
      <trkpt lat="42.7617661468684673309326171875" lon="-0.22861129604279994964599609375">
        <ele>1767</ele>
        <time>2022-08-06T11:17:47.000Z</time>
      </trkpt>
      <trkpt lat="42.76174485683441162109375" lon="-0.2286695502698421478271484375">
        <ele>1765.5999755859375</ele>
        <time>2022-08-06T11:17:54.000Z</time>
      </trkpt>
      <trkpt lat="42.7616028673946857452392578125" lon="-0.228826962411403656005859375">
        <ele>1765</ele>
        <time>2022-08-06T11:18:16.000Z</time>
      </trkpt>
      <trkpt lat="42.7614650689065456390380859375" lon="-0.22898781113326549530029296875">
        <ele>1763.5999755859375</ele>
        <time>2022-08-06T11:18:33.000Z</time>
      </trkpt>
      <trkpt lat="42.7613519132137298583984375" lon="-0.22918093018233776092529296875">
        <ele>1761.199951171875</ele>
        <time>2022-08-06T11:18:59.000Z</time>
      </trkpt>
      <trkpt lat="42.7612293697893619537353515625" lon="-0.22936281748116016387939453125">
        <ele>1759.4000244140625</ele>
        <time>2022-08-06T11:19:25.000Z</time>
      </trkpt>
      <trkpt lat="42.76116021908819675445556640625" lon="-0.22959281690418720245361328125">
        <ele>1753.5999755859375</ele>
        <time>2022-08-06T11:19:48.000Z</time>
      </trkpt>
      <trkpt lat="42.7611505798995494842529296875" lon="-0.22976648993790149688720703125">
        <ele>1747.5999755859375</ele>
        <time>2022-08-06T11:20:03.000Z</time>
      </trkpt>
      <trkpt lat="42.76132442057132720947265625" lon="-0.22967479191720485687255859375">
        <ele>1746</ele>
        <time>2022-08-06T11:20:26.000Z</time>
      </trkpt>
      <trkpt lat="42.7614449523389339447021484375" lon="-0.22955710999667644500732421875">
        <ele>1745.800048828125</ele>
        <time>2022-08-06T11:20:54.000Z</time>
      </trkpt>
      <trkpt lat="42.76150706224143505096435546875" lon="-0.2295721136033535003662109375">
        <ele>1743.5999755859375</ele>
        <time>2022-08-06T11:21:51.000Z</time>
      </trkpt>
      <trkpt lat="42.76168643496930599212646484375" lon="-0.229509584605693817138671875">
        <ele>1740.4000244140625</ele>
        <time>2022-08-06T11:22:14.000Z</time>
      </trkpt>
      <trkpt lat="42.76171694509685039520263671875" lon="-0.229511596262454986572265625">
        <ele>1739.4000244140625</ele>
        <time>2022-08-06T11:22:18.000Z</time>
      </trkpt>
      <trkpt lat="42.76189581491053104400634765625" lon="-0.2295174635946750640869140625">
        <ele>1734.199951171875</ele>
        <time>2022-08-06T11:22:37.000Z</time>
      </trkpt>
      <trkpt lat="42.76207502000033855438232421875" lon="-0.2295251749455928802490234375">
        <ele>1728.199951171875</ele>
        <time>2022-08-06T11:22:55.000Z</time>
      </trkpt>
      <trkpt lat="42.7622221224009990692138671875" lon="-0.22955442778766155242919921875">
        <ele>1722.5999755859375</ele>
        <time>2022-08-06T11:23:23.000Z</time>
      </trkpt>
      <trkpt lat="42.76216604746878147125244140625" lon="-0.22976548410952091217041015625">
        <ele>1715.800048828125</ele>
        <time>2022-08-06T11:23:53.000Z</time>
      </trkpt>
      <trkpt lat="42.7623501978814601898193359375" lon="-0.22971150465309619903564453125">
        <ele>1715.800048828125</ele>
        <time>2022-08-06T11:24:12.000Z</time>
      </trkpt>
      <trkpt lat="42.76234776712954044342041015625" lon="-0.229721479117870330810546875">
        <ele>1715.4000244140625</ele>
        <time>2022-08-06T11:24:14.000Z</time>
      </trkpt>
      <trkpt lat="42.762219272553920745849609375" lon="-0.229893140494823455810546875">
        <ele>1710.800048828125</ele>
        <time>2022-08-06T11:24:38.000Z</time>
      </trkpt>
      <trkpt lat="42.76205490343272686004638671875" lon="-0.23002901114523410797119140625">
        <ele>1707.199951171875</ele>
        <time>2022-08-06T11:24:59.000Z</time>
      </trkpt>
      <trkpt lat="42.76192967779934406280517578125" lon="-0.2301930449903011322021484375">
        <ele>1703.800048828125</ele>
        <time>2022-08-06T11:25:29.000Z</time>
      </trkpt>
      <trkpt lat="42.7617886103689670562744140625" lon="-0.2303449250757694244384765625">
        <ele>1705.4000244140625</ele>
        <time>2022-08-06T11:25:46.000Z</time>
      </trkpt>
      <trkpt lat="42.761661708354949951171875" lon="-0.230532847344875335693359375">
        <ele>1703.4000244140625</ele>
        <time>2022-08-06T11:26:02.000Z</time>
      </trkpt>
      <trkpt lat="42.76154578663408756256103515625" lon="-0.230740718543529510498046875">
        <ele>1699</ele>
        <time>2022-08-06T11:26:16.000Z</time>
      </trkpt>
      <trkpt lat="42.76142223738133907318115234375" lon="-0.23093978874385356903076171875">
        <ele>1694</ele>
        <time>2022-08-06T11:26:34.000Z</time>
      </trkpt>
      <trkpt lat="42.76127186603844165802001953125" lon="-0.2310855500400066375732421875">
        <ele>1692.5999755859375</ele>
        <time>2022-08-06T11:26:48.000Z</time>
      </trkpt>
      <trkpt lat="42.76117698289453983306884765625" lon="-0.2313007973134517669677734375">
        <ele>1688.5999755859375</ele>
        <time>2022-08-06T11:27:03.000Z</time>
      </trkpt>
      <trkpt lat="42.76104790158569812774658203125" lon="-0.23136341013014316558837890625">
        <ele>1690.4000244140625</ele>
        <time>2022-08-06T11:27:21.000Z</time>
      </trkpt>
      <trkpt lat="42.7608666010200977325439453125" lon="-0.23138402961194515228271484375">
        <ele>1694.199951171875</ele>
        <time>2022-08-06T11:27:38.000Z</time>
      </trkpt>
      <trkpt lat="42.76069669984281063079833984375" lon="-0.23146734572947025299072265625">
        <ele>1693.800048828125</ele>
        <time>2022-08-06T11:27:54.000Z</time>
      </trkpt>
      <trkpt lat="42.76053719222545623779296875" lon="-0.2315844409167766571044921875">
        <ele>1691</ele>
        <time>2022-08-06T11:28:13.000Z</time>
      </trkpt>
      <trkpt lat="42.76035748422145843505859375" lon="-0.23165912367403507232666015625">
        <ele>1689</ele>
        <time>2022-08-06T11:28:28.000Z</time>
      </trkpt>
      <trkpt lat="42.76019512675702571868896484375" lon="-0.231782756745815277099609375">
        <ele>1686.5999755859375</ele>
        <time>2022-08-06T11:28:44.000Z</time>
      </trkpt>
      <trkpt lat="42.76014600880444049835205078125" lon="-0.23182122968137264251708984375">
        <ele>1685.800048828125</ele>
        <time>2022-08-06T11:28:49.000Z</time>
      </trkpt>
      <trkpt lat="42.76011415757238864898681640625" lon="-0.2319401688873767852783203125">
        <ele>1681</ele>
        <time>2022-08-06T11:28:58.000Z</time>
      </trkpt>
      <trkpt lat="42.76019747368991374969482421875" lon="-0.2320189587771892547607421875">
        <ele>1675.800048828125</ele>
        <time>2022-08-06T11:29:06.000Z</time>
      </trkpt>
      <trkpt lat="42.7603707276284694671630859375" lon="-0.23198467679321765899658203125">
        <ele>1675.800048828125</ele>
        <time>2022-08-06T11:29:22.000Z</time>
      </trkpt>
      <trkpt lat="42.76048832572996616363525390625" lon="-0.23208358325064182281494140625">
        <ele>1672</ele>
        <time>2022-08-06T11:29:49.000Z</time>
      </trkpt>
      <trkpt lat="42.76049084030091762542724609375" lon="-0.23230008780956268310546875">
        <ele>1664.4000244140625</ele>
        <time>2022-08-06T11:30:15.000Z</time>
      </trkpt>
      <trkpt lat="42.76035270653665065765380859375" lon="-0.232417769730091094970703125">
        <ele>1660.199951171875</ele>
        <time>2022-08-06T11:30:37.000Z</time>
      </trkpt>
      <trkpt lat="42.76016780175268650054931640625" lon="-0.232372172176837921142578125">
        <ele>1662</ele>
        <time>2022-08-06T11:30:55.000Z</time>
      </trkpt>
      <trkpt lat="42.7599942125380039215087890625" lon="-0.23245565593242645263671875">
        <ele>1660.800048828125</ele>
        <time>2022-08-06T11:31:11.000Z</time>
      </trkpt>
      <trkpt lat="42.75982783176004886627197265625" lon="-0.2325587533414363861083984375">
        <ele>1661.4000244140625</ele>
        <time>2022-08-06T11:31:28.000Z</time>
      </trkpt>
      <trkpt lat="42.7596971578896045684814453125" lon="-0.23271943442523479461669921875">
        <ele>1660.199951171875</ele>
        <time>2022-08-06T11:31:44.000Z</time>
      </trkpt>
      <trkpt lat="42.75979530997574329376220703125" lon="-0.23291707970201969146728515625">
        <ele>1653.199951171875</ele>
        <time>2022-08-06T11:32:15.000Z</time>
      </trkpt>
      <trkpt lat="42.759910561144351959228515625" lon="-0.23309804499149322509765625">
        <ele>1649</ele>
        <time>2022-08-06T11:32:39.000Z</time>
      </trkpt>
      <trkpt lat="42.760053388774394989013671875" lon="-0.23325352929532527923583984375">
        <ele>1645.4000244140625</ele>
        <time>2022-08-06T11:32:58.000Z</time>
      </trkpt>
      <trkpt lat="42.76001106016337871551513671875" lon="-0.233477242290973663330078125">
        <ele>1644.800048828125</ele>
        <time>2022-08-06T11:33:22.000Z</time>
      </trkpt>
      <trkpt lat="42.759890444576740264892578125" lon="-0.23365854285657405853271484375">
        <ele>1645</ele>
        <time>2022-08-06T11:33:42.000Z</time>
      </trkpt>
      <trkpt lat="42.75975004769861698150634765625" lon="-0.2338311262428760528564453125">
        <ele>1645.4000244140625</ele>
        <time>2022-08-06T11:34:00.000Z</time>
      </trkpt>
      <trkpt lat="42.759602777659893035888671875" lon="-0.2339853532612323760986328125">
        <ele>1645.800048828125</ele>
        <time>2022-08-06T11:34:17.000Z</time>
      </trkpt>
      <trkpt lat="42.75944595225155353546142578125" lon="-0.2341345511376857757568359375">
        <ele>1646</ele>
        <time>2022-08-06T11:34:36.000Z</time>
      </trkpt>
      <trkpt lat="42.7593001909554004669189453125" lon="-0.23429095745086669921875">
        <ele>1644.800048828125</ele>
        <time>2022-08-06T11:34:53.000Z</time>
      </trkpt>
      <trkpt lat="42.75914839468896389007568359375" lon="-0.2344312705099582672119140625">
        <ele>1644.4000244140625</ele>
        <time>2022-08-06T11:35:12.000Z</time>
      </trkpt>
      <trkpt lat="42.7590022981166839599609375" lon="-0.23459329269826412200927734375">
        <ele>1644.199951171875</ele>
        <time>2022-08-06T11:35:31.000Z</time>
      </trkpt>
      <trkpt lat="42.75884731672704219818115234375" lon="-0.2347041852772235870361328125">
        <ele>1646.5999755859375</ele>
        <time>2022-08-06T11:35:52.000Z</time>
      </trkpt>
      <trkpt lat="42.75889408774673938751220703125" lon="-0.23477266542613506317138671875">
        <ele>1645</ele>
        <time>2022-08-06T11:36:41.000Z</time>
      </trkpt>
      <trkpt lat="42.7590369991958141326904296875" lon="-0.2348220348358154296875">
        <ele>1642.199951171875</ele>
        <time>2022-08-06T11:37:14.000Z</time>
      </trkpt>
      <trkpt lat="42.75921486318111419677734375" lon="-0.234789513051509857177734375">
        <ele>1641.199951171875</ele>
        <time>2022-08-06T11:37:32.000Z</time>
      </trkpt>
      <trkpt lat="42.7593965828418731689453125" lon="-0.23478783667087554931640625">
        <ele>1640.800048828125</ele>
        <time>2022-08-06T11:37:55.000Z</time>
      </trkpt>
      <trkpt lat="42.75958056561648845672607421875" lon="-0.23484106175601482391357421875">
        <ele>1638.800048828125</ele>
        <time>2022-08-06T11:38:14.000Z</time>
      </trkpt>
      <trkpt lat="42.7597694098949432373046875" lon="-0.2347910217940807342529296875">
        <ele>1638.199951171875</ele>
        <time>2022-08-06T11:38:34.000Z</time>
      </trkpt>
      <trkpt lat="42.75995976291596889495849609375" lon="-0.23482882417738437652587890625">
        <ele>1637.199951171875</ele>
        <time>2022-08-06T11:38:47.000Z</time>
      </trkpt>
      <trkpt lat="42.76014651171863079071044921875" lon="-0.2348325960338115692138671875">
        <ele>1637.5999755859375</ele>
        <time>2022-08-06T11:39:08.000Z</time>
      </trkpt>
      <trkpt lat="42.76032957248389720916748046875" lon="-0.2348795346915721893310546875">
        <ele>1638</ele>
        <time>2022-08-06T11:39:26.000Z</time>
      </trkpt>
    </trkseg>
  </trk>
</gpx>
